<?xml version="1.0" encoding="UTF-8" standalone="no" ?>
<gpx xmlns="http://www.topografix.com/GPX/1/1" xmlns:xsi="http://www.w3.org/2001/XMLSchema-instance" xsi:schemaLocation="http://www.topografix.com/GPX/1/1 http://www.topografix.com/GPX/1/1/gpx.xsd" version="1.1" creator="VisuGPX - https://www.visugpx.com">
  <metadata>
    <name>La Ramaz, col de l'Encrenaz, Col de Joux Verte</name>
    <desc><![CDATA[File with points/tracks from Locus Map/3.47.2]]></desc>
  </metadata>
  <trk>
    <name><![CDATA[2020-08-08 06:54:08]]></name>
    <extensions>
      <line xmlns="http://www.topografix.com/GPX/gpx_style/0/2">
        <color>0000FF</color>
        <opacity>0.59</opacity>
        <width>6.0</width>
      </line>
    </extensions>
    <trkseg>
      <trkpt lat="46.19295" lon="6.2502">
        <ele>457.92</ele>
        <time>2020-08-08T04:55:00.198Z</time>
      </trkpt>
      <trkpt lat="46.19294" lon="6.25017">
        <ele>457.92</ele>
        <time>2020-08-08T04:55:10.166Z</time>
      </trkpt>
      <trkpt lat="46.19295" lon="6.25019">
        <ele>457.92</ele>
        <time>2020-08-08T04:55:30.345Z</time>
      </trkpt>
      <trkpt lat="46.19295" lon="6.25018">
        <ele>457.92</ele>
        <time>2020-08-08T04:57:00.625Z</time>
      </trkpt>
      <trkpt lat="46.19295" lon="6.25019">
        <ele>457.92</ele>
        <time>2020-08-08T04:57:10.597Z</time>
      </trkpt>
      <trkpt lat="46.19296" lon="6.25018">
        <ele>457.92</ele>
        <time>2020-08-08T05:01:56.728Z</time>
      </trkpt>
      <trkpt lat="46.19295" lon="6.25019">
        <ele>458.59</ele>
        <time>2020-08-08T05:02:06.700Z</time>
      </trkpt>
      <trkpt lat="46.19294" lon="6.25017">
        <ele>457.92</ele>
        <time>2020-08-08T05:03:01.855Z</time>
      </trkpt>
      <trkpt lat="46.19295" lon="6.25019">
        <ele>457.92</ele>
        <time>2020-08-08T05:03:16.963Z</time>
      </trkpt>
      <trkpt lat="46.19294" lon="6.25017">
        <ele>457.92</ele>
        <time>2020-08-08T05:03:42.028Z</time>
      </trkpt>
      <trkpt lat="46.19295" lon="6.25019">
        <ele>457.92</ele>
        <time>2020-08-08T05:03:56.985Z</time>
      </trkpt>
      <trkpt lat="46.19294" lon="6.25017">
        <ele>457.92</ele>
        <time>2020-08-08T05:04:22.096Z</time>
      </trkpt>
      <trkpt lat="46.19296" lon="6.25019">
        <ele>457.92</ele>
        <time>2020-08-08T05:04:47.258Z</time>
      </trkpt>
      <trkpt lat="46.19295" lon="6.25018">
        <ele>456.42</ele>
        <time>2020-08-08T05:04:57.390Z</time>
      </trkpt>
      <trkpt lat="46.19294" lon="6.25017">
        <ele>455.92</ele>
        <time>2020-08-08T05:05:06.403Z</time>
      </trkpt>
      <trkpt lat="46.19294" lon="6.25018">
        <ele>457.92</ele>
        <time>2020-08-08T05:05:15.903Z</time>
      </trkpt>
      <trkpt lat="46.19294" lon="6.25017">
        <ele>457.92</ele>
        <time>2020-08-08T05:05:27.589Z</time>
      </trkpt>
      <trkpt lat="46.19295" lon="6.25018">
        <ele>457.92</ele>
        <time>2020-08-08T05:05:44.162Z</time>
      </trkpt>
      <trkpt lat="46.19294" lon="6.25018">
        <ele>456.42</ele>
        <time>2020-08-08T05:06:04.627Z</time>
      </trkpt>
      <trkpt lat="46.19295" lon="6.25018">
        <ele>456.42</ele>
        <time>2020-08-08T05:06:19.858Z</time>
      </trkpt>
      <trkpt lat="46.19294" lon="6.25017">
        <ele>457.92</ele>
        <time>2020-08-08T05:06:45.147Z</time>
      </trkpt>
      <trkpt lat="46.19295" lon="6.25019">
        <ele>457.92</ele>
        <time>2020-08-08T05:06:55.225Z</time>
      </trkpt>
      <trkpt lat="46.19296" lon="6.2502">
        <ele>457.54</ele>
        <time>2020-08-08T05:07:05.302Z</time>
      </trkpt>
      <trkpt lat="46.19295" lon="6.25018">
        <ele>457.9</ele>
        <time>2020-08-08T05:07:15.264Z</time>
      </trkpt>
      <trkpt lat="46.19296" lon="6.25019">
        <ele>457.92</ele>
        <time>2020-08-08T05:07:30.242Z</time>
      </trkpt>
      <trkpt lat="46.19294" lon="6.25016">
        <ele>457.92</ele>
        <time>2020-08-08T05:07:40.372Z</time>
      </trkpt>
      <trkpt lat="46.19296" lon="6.25018">
        <ele>456.42</ele>
        <time>2020-08-08T05:07:50.276Z</time>
      </trkpt>
      <trkpt lat="46.19293" lon="6.25023">
        <ele>455.34</ele>
        <time>2020-08-08T05:08:10.613Z</time>
      </trkpt>
      <trkpt lat="46.19294" lon="6.25017">
        <ele>455.85</ele>
        <time>2020-08-08T05:08:25.571Z</time>
      </trkpt>
      <trkpt lat="46.19294" lon="6.25022">
        <ele>455.91</ele>
        <time>2020-08-08T05:08:35.534Z</time>
      </trkpt>
      <trkpt lat="46.19294" lon="6.25021">
        <ele>456.29</ele>
        <time>2020-08-08T05:08:45.565Z</time>
      </trkpt>
      <trkpt lat="46.19293" lon="6.25016">
        <ele>455.57</ele>
        <time>2020-08-08T05:08:55.515Z</time>
      </trkpt>
      <trkpt lat="46.19293" lon="6.25018">
        <ele>456.9</ele>
        <time>2020-08-08T05:09:04.790Z</time>
      </trkpt>
      <trkpt lat="46.19292" lon="6.25018">
        <ele>457.93</ele>
        <time>2020-08-08T05:09:15.730Z</time>
      </trkpt>
      <trkpt lat="46.19293" lon="6.25016">
        <ele>455.92</ele>
        <time>2020-08-08T05:09:35.507Z</time>
      </trkpt>
      <trkpt lat="46.19292" lon="6.25017">
        <ele>455.92</ele>
        <time>2020-08-08T05:09:58.651Z</time>
      </trkpt>
      <trkpt lat="46.19293" lon="6.25016">
        <ele>455.92</ele>
        <time>2020-08-08T05:10:25.888Z</time>
      </trkpt>
      <trkpt lat="46.19293" lon="6.25018">
        <ele>455.77</ele>
        <time>2020-08-08T05:10:46.140Z</time>
      </trkpt>
      <trkpt lat="46.19283" lon="6.25018">
        <ele>454.94</ele>
        <time>2020-08-08T05:10:56.465Z</time>
      </trkpt>
      <trkpt lat="46.19286" lon="6.25012">
        <ele>455.9</ele>
        <time>2020-08-08T05:11:05.911Z</time>
      </trkpt>
      <trkpt lat="46.19283" lon="6.25011">
        <ele>455.92</ele>
        <time>2020-08-08T05:11:16.073Z</time>
      </trkpt>
      <trkpt lat="46.1928" lon="6.25016">
        <ele>455.91</ele>
        <time>2020-08-08T05:11:25.829Z</time>
      </trkpt>
      <trkpt lat="46.19279" lon="6.25013">
        <ele>455.77</ele>
        <time>2020-08-08T05:11:36.607Z</time>
      </trkpt>
      <trkpt lat="46.19279" lon="6.25011">
        <ele>455.92</ele>
        <time>2020-08-08T05:11:46.616Z</time>
      </trkpt>
      <trkpt lat="46.19283" lon="6.25014">
        <ele>455.88</ele>
        <time>2020-08-08T05:11:56.623Z</time>
      </trkpt>
      <trkpt lat="46.19283" lon="6.25018">
        <ele>454.94</ele>
        <time>2020-08-08T05:12:06.945Z</time>
      </trkpt>
      <trkpt lat="46.19284" lon="6.25015">
        <ele>455.9</ele>
        <time>2020-08-08T05:12:16.867Z</time>
      </trkpt>
      <trkpt lat="46.19286" lon="6.25022">
        <ele>454.42</ele>
        <time>2020-08-08T05:12:26.190Z</time>
      </trkpt>
      <trkpt lat="46.19282" lon="6.2505">
        <ele>455.71</ele>
        <time>2020-08-08T05:12:36.000Z</time>
      </trkpt>
      <trkpt lat="46.19286" lon="6.25073">
        <ele>455.72</ele>
        <time>2020-08-08T05:12:46.000Z</time>
      </trkpt>
      <trkpt lat="46.19282" lon="6.25095">
        <ele>457.02</ele>
        <time>2020-08-08T05:12:55.589Z</time>
      </trkpt>
      <trkpt lat="46.19249" lon="6.25109">
        <ele>464.09</ele>
        <time>2020-08-08T05:13:05.000Z</time>
      </trkpt>
      <trkpt lat="46.19193" lon="6.25085">
        <ele>464.12</ele>
        <time>2020-08-08T05:13:15.000Z</time>
      </trkpt>
      <trkpt lat="46.19164" lon="6.25064">
        <ele>464.12</ele>
        <time>2020-08-08T05:13:25.000Z</time>
      </trkpt>
      <trkpt lat="46.19125" lon="6.25062">
        <ele>464.12</ele>
        <time>2020-08-08T05:13:35.000Z</time>
      </trkpt>
      <trkpt lat="46.19084" lon="6.2512">
        <ele>464.12</ele>
        <time>2020-08-08T05:13:45.000Z</time>
      </trkpt>
      <trkpt lat="46.19017" lon="6.25083">
        <ele>464.12</ele>
        <time>2020-08-08T05:13:55.000Z</time>
      </trkpt>
      <trkpt lat="46.18966" lon="6.25068">
        <ele>407.3</ele>
        <time>2020-08-08T05:14:05.000Z</time>
      </trkpt>
      <trkpt lat="46.18916" lon="6.25071">
        <ele>408.3</ele>
        <time>2020-08-08T05:14:15.000Z</time>
      </trkpt>
      <trkpt lat="46.18864" lon="6.25074">
        <ele>408.33</ele>
        <time>2020-08-08T05:14:25.000Z</time>
      </trkpt>
      <trkpt lat="46.1881" lon="6.25075">
        <ele>409.59</ele>
        <time>2020-08-08T05:14:35.000Z</time>
      </trkpt>
      <trkpt lat="46.18756" lon="6.25086">
        <ele>413.14</ele>
        <time>2020-08-08T05:14:45.000Z</time>
      </trkpt>
      <trkpt lat="46.18705" lon="6.25108">
        <ele>417.73</ele>
        <time>2020-08-08T05:14:55.000Z</time>
      </trkpt>
      <trkpt lat="46.18658" lon="6.2513">
        <ele>425.86</ele>
        <time>2020-08-08T05:15:05.000Z</time>
      </trkpt>
      <trkpt lat="46.18606" lon="6.2515">
        <ele>429.21</ele>
        <time>2020-08-08T05:15:15.000Z</time>
      </trkpt>
      <trkpt lat="46.18579" lon="6.25149">
        <ele>467.03</ele>
        <time>2020-08-08T05:15:24.408Z</time>
      </trkpt>
      <trkpt lat="46.18539" lon="6.25163">
        <ele>480.53</ele>
        <time>2020-08-08T05:15:34.000Z</time>
      </trkpt>
      <trkpt lat="46.18488" lon="6.25175">
        <ele>480.53</ele>
        <time>2020-08-08T05:15:44.000Z</time>
      </trkpt>
      <trkpt lat="46.18437" lon="6.2519">
        <ele>480.53</ele>
        <time>2020-08-08T05:15:54.000Z</time>
      </trkpt>
      <trkpt lat="46.18388" lon="6.25219">
        <ele>480.53</ele>
        <time>2020-08-08T05:16:04.000Z</time>
      </trkpt>
      <trkpt lat="46.18341" lon="6.25248">
        <ele>480.53</ele>
        <time>2020-08-08T05:16:14.000Z</time>
      </trkpt>
      <trkpt lat="46.18297" lon="6.25279">
        <ele>442.2</ele>
        <time>2020-08-08T05:16:24.000Z</time>
      </trkpt>
      <trkpt lat="46.18263" lon="6.25304">
        <ele>433.97</ele>
        <time>2020-08-08T05:16:33.193Z</time>
      </trkpt>
      <trkpt lat="46.1822" lon="6.2533">
        <ele>437.09</ele>
        <time>2020-08-08T05:16:43.000Z</time>
      </trkpt>
      <trkpt lat="46.18172" lon="6.2536">
        <ele>438.47</ele>
        <time>2020-08-08T05:16:53.000Z</time>
      </trkpt>
      <trkpt lat="46.18123" lon="6.25391">
        <ele>437.41</ele>
        <time>2020-08-08T05:17:03.000Z</time>
      </trkpt>
      <trkpt lat="46.18076" lon="6.25428">
        <ele>438.32</ele>
        <time>2020-08-08T05:17:13.000Z</time>
      </trkpt>
      <trkpt lat="46.18046" lon="6.25468">
        <ele>480.96</ele>
        <time>2020-08-08T05:17:22.418Z</time>
      </trkpt>
      <trkpt lat="46.18014" lon="6.25503">
        <ele>494.93</ele>
        <time>2020-08-08T05:17:32.000Z</time>
      </trkpt>
      <trkpt lat="46.17974" lon="6.25535">
        <ele>494.93</ele>
        <time>2020-08-08T05:17:42.000Z</time>
      </trkpt>
      <trkpt lat="46.17916" lon="6.25552">
        <ele>494.93</ele>
        <time>2020-08-08T05:17:52.000Z</time>
      </trkpt>
      <trkpt lat="46.17835" lon="6.2555">
        <ele>494.93</ele>
        <time>2020-08-08T05:18:02.000Z</time>
      </trkpt>
      <trkpt lat="46.17753" lon="6.25557">
        <ele>494.94</ele>
        <time>2020-08-08T05:18:12.000Z</time>
      </trkpt>
      <trkpt lat="46.17685" lon="6.25593">
        <ele>494.94</ele>
        <time>2020-08-08T05:18:22.000Z</time>
      </trkpt>
      <trkpt lat="46.17627" lon="6.25624">
        <ele>436.26</ele>
        <time>2020-08-08T05:18:32.000Z</time>
      </trkpt>
      <trkpt lat="46.17573" lon="6.25654">
        <ele>437.44</ele>
        <time>2020-08-08T05:18:42.000Z</time>
      </trkpt>
      <trkpt lat="46.17529" lon="6.25686">
        <ele>440.2</ele>
        <time>2020-08-08T05:18:52.000Z</time>
      </trkpt>
      <trkpt lat="46.17498" lon="6.25712">
        <ele>441.37</ele>
        <time>2020-08-08T05:19:01.052Z</time>
      </trkpt>
      <trkpt lat="46.17467" lon="6.2574">
        <ele>446.58</ele>
        <time>2020-08-08T05:19:10.550Z</time>
      </trkpt>
      <trkpt lat="46.17435" lon="6.2577">
        <ele>450.67</ele>
        <time>2020-08-08T05:19:20.000Z</time>
      </trkpt>
      <trkpt lat="46.17416" lon="6.25803">
        <ele>451.88</ele>
        <time>2020-08-08T05:19:29.371Z</time>
      </trkpt>
      <trkpt lat="46.17391" lon="6.25856">
        <ele>450.97</ele>
        <time>2020-08-08T05:19:39.000Z</time>
      </trkpt>
      <trkpt lat="46.17346" lon="6.25934">
        <ele>444.57</ele>
        <time>2020-08-08T05:19:49.000Z</time>
      </trkpt>
      <trkpt lat="46.17303" lon="6.26023">
        <ele>442.16</ele>
        <time>2020-08-08T05:19:59.000Z</time>
      </trkpt>
      <trkpt lat="46.17267" lon="6.26092">
        <ele>442.54</ele>
        <time>2020-08-08T05:20:09.000Z</time>
      </trkpt>
      <trkpt lat="46.17251" lon="6.26133">
        <ele>503.02</ele>
        <time>2020-08-08T05:20:18.260Z</time>
      </trkpt>
      <trkpt lat="46.1722" lon="6.26182">
        <ele>503.94</ele>
        <time>2020-08-08T05:20:28.000Z</time>
      </trkpt>
      <trkpt lat="46.17184" lon="6.26241">
        <ele>503.94</ele>
        <time>2020-08-08T05:20:38.000Z</time>
      </trkpt>
      <trkpt lat="46.17144" lon="6.26307">
        <ele>503.94</ele>
        <time>2020-08-08T05:20:48.000Z</time>
      </trkpt>
      <trkpt lat="46.171" lon="6.2638">
        <ele>503.94</ele>
        <time>2020-08-08T05:20:58.000Z</time>
      </trkpt>
      <trkpt lat="46.17076" lon="6.26415">
        <ele>503.94</ele>
        <time>2020-08-08T05:21:07.345Z</time>
      </trkpt>
      <trkpt lat="46.17034" lon="6.26488">
        <ele>460.07</ele>
        <time>2020-08-08T05:21:17.000Z</time>
      </trkpt>
      <trkpt lat="46.16969" lon="6.26595">
        <ele>438.11</ele>
        <time>2020-08-08T05:21:27.000Z</time>
      </trkpt>
      <trkpt lat="46.1691" lon="6.26698">
        <ele>433.97</ele>
        <time>2020-08-08T05:21:37.000Z</time>
      </trkpt>
      <trkpt lat="46.1689" lon="6.26822">
        <ele>431.14</ele>
        <time>2020-08-08T05:21:47.000Z</time>
      </trkpt>
      <trkpt lat="46.16824" lon="6.26909">
        <ele>430.43</ele>
        <time>2020-08-08T05:21:57.000Z</time>
      </trkpt>
      <trkpt lat="46.16729" lon="6.26981">
        <ele>425.21</ele>
        <time>2020-08-08T05:22:07.000Z</time>
      </trkpt>
      <trkpt lat="46.16735" lon="6.2711">
        <ele>421.4</ele>
        <time>2020-08-08T05:22:17.000Z</time>
      </trkpt>
      <trkpt lat="46.16817" lon="6.27139">
        <ele>411.96</ele>
        <time>2020-08-08T05:22:27.000Z</time>
      </trkpt>
      <trkpt lat="46.16855" lon="6.27186">
        <ele>404.28</ele>
        <time>2020-08-08T05:22:37.000Z</time>
      </trkpt>
      <trkpt lat="46.16839" lon="6.27283">
        <ele>406.11</ele>
        <time>2020-08-08T05:22:47.000Z</time>
      </trkpt>
      <trkpt lat="46.16807" lon="6.27361">
        <ele>410.25</ele>
        <time>2020-08-08T05:22:57.000Z</time>
      </trkpt>
      <trkpt lat="46.16755" lon="6.27369">
        <ele>410.84</ele>
        <time>2020-08-08T05:23:07.000Z</time>
      </trkpt>
      <trkpt lat="46.16704" lon="6.27359">
        <ele>414.3</ele>
        <time>2020-08-08T05:23:17.000Z</time>
      </trkpt>
      <trkpt lat="46.16658" lon="6.27347">
        <ele>416.99</ele>
        <time>2020-08-08T05:23:27.000Z</time>
      </trkpt>
      <trkpt lat="46.1662" lon="6.27323">
        <ele>420.67</ele>
        <time>2020-08-08T05:23:37.000Z</time>
      </trkpt>
      <trkpt lat="46.1658" lon="6.27282">
        <ele>425.76</ele>
        <time>2020-08-08T05:23:47.000Z</time>
      </trkpt>
      <trkpt lat="46.16536" lon="6.27256">
        <ele>425.87</ele>
        <time>2020-08-08T05:23:57.000Z</time>
      </trkpt>
      <trkpt lat="46.16489" lon="6.27237">
        <ele>429.61</ele>
        <time>2020-08-08T05:24:07.000Z</time>
      </trkpt>
      <trkpt lat="46.16442" lon="6.27226">
        <ele>428.06</ele>
        <time>2020-08-08T05:24:17.000Z</time>
      </trkpt>
      <trkpt lat="46.16399" lon="6.27224">
        <ele>430.91</ele>
        <time>2020-08-08T05:24:27.000Z</time>
      </trkpt>
      <trkpt lat="46.16359" lon="6.2726">
        <ele>436.08</ele>
        <time>2020-08-08T05:24:37.000Z</time>
      </trkpt>
      <trkpt lat="46.16328" lon="6.27326">
        <ele>433.17</ele>
        <time>2020-08-08T05:24:47.000Z</time>
      </trkpt>
      <trkpt lat="46.16299" lon="6.27404">
        <ele>432.92</ele>
        <time>2020-08-08T05:24:57.000Z</time>
      </trkpt>
      <trkpt lat="46.16267" lon="6.27489">
        <ele>433.07</ele>
        <time>2020-08-08T05:25:07.000Z</time>
      </trkpt>
      <trkpt lat="46.16235" lon="6.27575">
        <ele>434.65</ele>
        <time>2020-08-08T05:25:17.000Z</time>
      </trkpt>
      <trkpt lat="46.16201" lon="6.27651">
        <ele>430.42</ele>
        <time>2020-08-08T05:25:27.000Z</time>
      </trkpt>
      <trkpt lat="46.16169" lon="6.27744">
        <ele>431.06</ele>
        <time>2020-08-08T05:25:37.000Z</time>
      </trkpt>
      <trkpt lat="46.16133" lon="6.27839">
        <ele>430.39</ele>
        <time>2020-08-08T05:25:47.000Z</time>
      </trkpt>
      <trkpt lat="46.16095" lon="6.27938">
        <ele>430.33</ele>
        <time>2020-08-08T05:25:57.000Z</time>
      </trkpt>
      <trkpt lat="46.16055" lon="6.2804">
        <ele>428.9</ele>
        <time>2020-08-08T05:26:07.000Z</time>
      </trkpt>
      <trkpt lat="46.16016" lon="6.28141">
        <ele>428.62</ele>
        <time>2020-08-08T05:26:17.000Z</time>
      </trkpt>
      <trkpt lat="46.15976" lon="6.28239">
        <ele>429.76</ele>
        <time>2020-08-08T05:26:27.000Z</time>
      </trkpt>
      <trkpt lat="46.15926" lon="6.28331">
        <ele>426.7</ele>
        <time>2020-08-08T05:26:37.000Z</time>
      </trkpt>
      <trkpt lat="46.15881" lon="6.28427">
        <ele>425.12</ele>
        <time>2020-08-08T05:26:47.000Z</time>
      </trkpt>
      <trkpt lat="46.15861" lon="6.28542">
        <ele>423.03</ele>
        <time>2020-08-08T05:26:57.000Z</time>
      </trkpt>
      <trkpt lat="46.15922" lon="6.28605">
        <ele>426.37</ele>
        <time>2020-08-08T05:27:07.000Z</time>
      </trkpt>
      <trkpt lat="46.15961" lon="6.28665">
        <ele>428.7</ele>
        <time>2020-08-08T05:27:17.000Z</time>
      </trkpt>
      <trkpt lat="46.15992" lon="6.28712">
        <ele>433.33</ele>
        <time>2020-08-08T05:27:27.000Z</time>
      </trkpt>
      <trkpt lat="46.1602" lon="6.28768">
        <ele>437.27</ele>
        <time>2020-08-08T05:27:37.000Z</time>
      </trkpt>
      <trkpt lat="46.16045" lon="6.28829">
        <ele>440.14</ele>
        <time>2020-08-08T05:27:47.000Z</time>
      </trkpt>
      <trkpt lat="46.16073" lon="6.28909">
        <ele>437.18</ele>
        <time>2020-08-08T05:27:57.000Z</time>
      </trkpt>
      <trkpt lat="46.16096" lon="6.28997">
        <ele>432.88</ele>
        <time>2020-08-08T05:28:07.000Z</time>
      </trkpt>
      <trkpt lat="46.16119" lon="6.29076">
        <ele>433.29</ele>
        <time>2020-08-08T05:28:17.000Z</time>
      </trkpt>
      <trkpt lat="46.16137" lon="6.29146">
        <ele>435.83</ele>
        <time>2020-08-08T05:28:27.000Z</time>
      </trkpt>
      <trkpt lat="46.16155" lon="6.29217">
        <ele>439.24</ele>
        <time>2020-08-08T05:28:37.000Z</time>
      </trkpt>
      <trkpt lat="46.16174" lon="6.29286">
        <ele>443.05</ele>
        <time>2020-08-08T05:28:47.000Z</time>
      </trkpt>
      <trkpt lat="46.16192" lon="6.29357">
        <ele>444.86</ele>
        <time>2020-08-08T05:28:57.000Z</time>
      </trkpt>
      <trkpt lat="46.16208" lon="6.29427">
        <ele>448.58</ele>
        <time>2020-08-08T05:29:07.000Z</time>
      </trkpt>
      <trkpt lat="46.16214" lon="6.29504">
        <ele>449.32</ele>
        <time>2020-08-08T05:29:17.000Z</time>
      </trkpt>
      <trkpt lat="46.16218" lon="6.29592">
        <ele>447.12</ele>
        <time>2020-08-08T05:29:27.000Z</time>
      </trkpt>
      <trkpt lat="46.16205" lon="6.29672">
        <ele>447.81</ele>
        <time>2020-08-08T05:29:37.000Z</time>
      </trkpt>
      <trkpt lat="46.16214" lon="6.29758">
        <ele>448.5</ele>
        <time>2020-08-08T05:29:47.000Z</time>
      </trkpt>
      <trkpt lat="46.16239" lon="6.29843">
        <ele>450.66</ele>
        <time>2020-08-08T05:29:57.000Z</time>
      </trkpt>
      <trkpt lat="46.16259" lon="6.29922">
        <ele>450.88</ele>
        <time>2020-08-08T05:30:07.000Z</time>
      </trkpt>
      <trkpt lat="46.16295" lon="6.29989">
        <ele>451.99</ele>
        <time>2020-08-08T05:30:17.000Z</time>
      </trkpt>
      <trkpt lat="46.1633" lon="6.30056">
        <ele>451.63</ele>
        <time>2020-08-08T05:30:27.000Z</time>
      </trkpt>
      <trkpt lat="46.16366" lon="6.30117">
        <ele>451.44</ele>
        <time>2020-08-08T05:30:37.000Z</time>
      </trkpt>
      <trkpt lat="46.16403" lon="6.30177">
        <ele>455.56</ele>
        <time>2020-08-08T05:30:47.000Z</time>
      </trkpt>
      <trkpt lat="46.16441" lon="6.30235">
        <ele>458.27</ele>
        <time>2020-08-08T05:30:57.000Z</time>
      </trkpt>
      <trkpt lat="46.16475" lon="6.30292">
        <ele>460.64</ele>
        <time>2020-08-08T05:31:07.000Z</time>
      </trkpt>
      <trkpt lat="46.16508" lon="6.30353">
        <ele>462.95</ele>
        <time>2020-08-08T05:31:17.000Z</time>
      </trkpt>
      <trkpt lat="46.16537" lon="6.30408">
        <ele>464.73</ele>
        <time>2020-08-08T05:31:27.000Z</time>
      </trkpt>
      <trkpt lat="46.16559" lon="6.30444">
        <ele>466.03</ele>
        <time>2020-08-08T05:31:36.377Z</time>
      </trkpt>
      <trkpt lat="46.16577" lon="6.30469">
        <ele>474.27</ele>
        <time>2020-08-08T05:31:45.537Z</time>
      </trkpt>
      <trkpt lat="46.166" lon="6.30489">
        <ele>480.3</ele>
        <time>2020-08-08T05:31:54.573Z</time>
      </trkpt>
      <trkpt lat="46.16626" lon="6.30525">
        <ele>482.26</ele>
        <time>2020-08-08T05:32:04.000Z</time>
      </trkpt>
      <trkpt lat="46.16628" lon="6.30584">
        <ele>479.17</ele>
        <time>2020-08-08T05:32:13.462Z</time>
      </trkpt>
      <trkpt lat="46.16619" lon="6.30635">
        <ele>478.03</ele>
        <time>2020-08-08T05:32:22.497Z</time>
      </trkpt>
      <trkpt lat="46.16592" lon="6.30689">
        <ele>475.67</ele>
        <time>2020-08-08T05:32:32.000Z</time>
      </trkpt>
      <trkpt lat="46.16551" lon="6.30738">
        <ele>473.56</ele>
        <time>2020-08-08T05:32:42.000Z</time>
      </trkpt>
      <trkpt lat="46.16498" lon="6.30781">
        <ele>471.96</ele>
        <time>2020-08-08T05:32:52.000Z</time>
      </trkpt>
      <trkpt lat="46.16445" lon="6.30825">
        <ele>474.84</ele>
        <time>2020-08-08T05:33:02.000Z</time>
      </trkpt>
      <trkpt lat="46.16401" lon="6.3088">
        <ele>477.05</ele>
        <time>2020-08-08T05:33:12.000Z</time>
      </trkpt>
      <trkpt lat="46.16354" lon="6.30942">
        <ele>477.51</ele>
        <time>2020-08-08T05:33:22.000Z</time>
      </trkpt>
      <trkpt lat="46.16312" lon="6.31017">
        <ele>475.94</ele>
        <time>2020-08-08T05:33:32.000Z</time>
      </trkpt>
      <trkpt lat="46.16264" lon="6.31092">
        <ele>471.46</ele>
        <time>2020-08-08T05:33:42.000Z</time>
      </trkpt>
      <trkpt lat="46.1621" lon="6.31145">
        <ele>469.57</ele>
        <time>2020-08-08T05:33:52.000Z</time>
      </trkpt>
      <trkpt lat="46.16172" lon="6.31214">
        <ele>471.15</ele>
        <time>2020-08-08T05:34:02.000Z</time>
      </trkpt>
      <trkpt lat="46.16149" lon="6.31285">
        <ele>474.72</ele>
        <time>2020-08-08T05:34:12.000Z</time>
      </trkpt>
      <trkpt lat="46.16148" lon="6.31353">
        <ele>476.03</ele>
        <time>2020-08-08T05:34:22.000Z</time>
      </trkpt>
      <trkpt lat="46.16173" lon="6.31452">
        <ele>476.07</ele>
        <time>2020-08-08T05:34:32.000Z</time>
      </trkpt>
      <trkpt lat="46.16156" lon="6.31539">
        <ele>476.82</ele>
        <time>2020-08-08T05:34:42.000Z</time>
      </trkpt>
      <trkpt lat="46.1614" lon="6.31633">
        <ele>474.49</ele>
        <time>2020-08-08T05:34:52.000Z</time>
      </trkpt>
      <trkpt lat="46.16113" lon="6.31664">
        <ele>477.05</ele>
        <time>2020-08-08T05:35:02.000Z</time>
      </trkpt>
      <trkpt lat="46.16063" lon="6.31699">
        <ele>480.38</ele>
        <time>2020-08-08T05:35:12.000Z</time>
      </trkpt>
      <trkpt lat="46.16028" lon="6.31754">
        <ele>483.11</ele>
        <time>2020-08-08T05:35:22.000Z</time>
      </trkpt>
      <trkpt lat="46.16" lon="6.31824">
        <ele>486.26</ele>
        <time>2020-08-08T05:35:32.000Z</time>
      </trkpt>
      <trkpt lat="46.15972" lon="6.319">
        <ele>486.68</ele>
        <time>2020-08-08T05:35:42.000Z</time>
      </trkpt>
      <trkpt lat="46.15933" lon="6.31965">
        <ele>484.03</ele>
        <time>2020-08-08T05:35:52.000Z</time>
      </trkpt>
      <trkpt lat="46.15877" lon="6.31996">
        <ele>479.81</ele>
        <time>2020-08-08T05:36:02.000Z</time>
      </trkpt>
      <trkpt lat="46.15821" lon="6.32027">
        <ele>478.72</ele>
        <time>2020-08-08T05:36:12.000Z</time>
      </trkpt>
      <trkpt lat="46.15768" lon="6.32056">
        <ele>479.53</ele>
        <time>2020-08-08T05:36:22.000Z</time>
      </trkpt>
      <trkpt lat="46.15734" lon="6.32088">
        <ele>484.28</ele>
        <time>2020-08-08T05:36:32.000Z</time>
      </trkpt>
      <trkpt lat="46.15748" lon="6.32136">
        <ele>536.23</ele>
        <time>2020-08-08T05:36:41.551Z</time>
      </trkpt>
      <trkpt lat="46.15773" lon="6.32184">
        <ele>536.23</ele>
        <time>2020-08-08T05:36:51.000Z</time>
      </trkpt>
      <trkpt lat="46.15771" lon="6.32255">
        <ele>536.23</ele>
        <time>2020-08-08T05:37:01.000Z</time>
      </trkpt>
      <trkpt lat="46.1578" lon="6.32349">
        <ele>536.23</ele>
        <time>2020-08-08T05:37:11.000Z</time>
      </trkpt>
      <trkpt lat="46.15776" lon="6.32444">
        <ele>536.23</ele>
        <time>2020-08-08T05:37:21.000Z</time>
      </trkpt>
      <trkpt lat="46.15708" lon="6.32556">
        <ele>536.23</ele>
        <time>2020-08-08T05:37:31.000Z</time>
      </trkpt>
      <trkpt lat="46.15747" lon="6.32694">
        <ele>460.52</ele>
        <time>2020-08-08T05:37:41.000Z</time>
      </trkpt>
      <trkpt lat="46.15781" lon="6.32783">
        <ele>457.48</ele>
        <time>2020-08-08T05:37:51.000Z</time>
      </trkpt>
      <trkpt lat="46.15795" lon="6.32824">
        <ele>459.02</ele>
        <time>2020-08-08T05:38:00.015Z</time>
      </trkpt>
      <trkpt lat="46.15795" lon="6.32865">
        <ele>464.53</ele>
        <time>2020-08-08T05:38:09.306Z</time>
      </trkpt>
      <trkpt lat="46.15808" lon="6.32913">
        <ele>472.05</ele>
        <time>2020-08-08T05:38:18.735Z</time>
      </trkpt>
      <trkpt lat="46.15822" lon="6.32963">
        <ele>479.83</ele>
        <time>2020-08-08T05:38:28.568Z</time>
      </trkpt>
      <trkpt lat="46.15837" lon="6.33004">
        <ele>486.69</ele>
        <time>2020-08-08T05:38:38.000Z</time>
      </trkpt>
      <trkpt lat="46.15858" lon="6.3304">
        <ele>490.39</ele>
        <time>2020-08-08T05:38:47.269Z</time>
      </trkpt>
      <trkpt lat="46.15882" lon="6.3307">
        <ele>492.72</ele>
        <time>2020-08-08T05:38:57.000Z</time>
      </trkpt>
      <trkpt lat="46.15905" lon="6.33098">
        <ele>495.32</ele>
        <time>2020-08-08T05:39:06.467Z</time>
      </trkpt>
      <trkpt lat="46.15929" lon="6.33127">
        <ele>495.89</ele>
        <time>2020-08-08T05:39:16.000Z</time>
      </trkpt>
      <trkpt lat="46.15946" lon="6.33168">
        <ele>497.7</ele>
        <time>2020-08-08T05:39:25.492Z</time>
      </trkpt>
      <trkpt lat="46.15955" lon="6.33212">
        <ele>500.9</ele>
        <time>2020-08-08T05:39:35.000Z</time>
      </trkpt>
      <trkpt lat="46.15963" lon="6.33263">
        <ele>502.58</ele>
        <time>2020-08-08T05:39:44.728Z</time>
      </trkpt>
      <trkpt lat="46.15972" lon="6.33309">
        <ele>508.32</ele>
        <time>2020-08-08T05:39:54.186Z</time>
      </trkpt>
      <trkpt lat="46.15988" lon="6.33358">
        <ele>512.74</ele>
        <time>2020-08-08T05:40:04.000Z</time>
      </trkpt>
      <trkpt lat="46.16022" lon="6.334">
        <ele>513.22</ele>
        <time>2020-08-08T05:40:13.607Z</time>
      </trkpt>
      <trkpt lat="46.16046" lon="6.33438">
        <ele>513.33</ele>
        <time>2020-08-08T05:40:23.000Z</time>
      </trkpt>
      <trkpt lat="46.16018" lon="6.33503">
        <ele>511.69</ele>
        <time>2020-08-08T05:40:33.000Z</time>
      </trkpt>
      <trkpt lat="46.15985" lon="6.33564">
        <ele>507.17</ele>
        <time>2020-08-08T05:40:43.000Z</time>
      </trkpt>
      <trkpt lat="46.15954" lon="6.33629">
        <ele>507.81</ele>
        <time>2020-08-08T05:40:53.000Z</time>
      </trkpt>
      <trkpt lat="46.1592" lon="6.33687">
        <ele>507.4</ele>
        <time>2020-08-08T05:41:03.000Z</time>
      </trkpt>
      <trkpt lat="46.1588" lon="6.33741">
        <ele>504.98</ele>
        <time>2020-08-08T05:41:13.000Z</time>
      </trkpt>
      <trkpt lat="46.15838" lon="6.33787">
        <ele>506.96</ele>
        <time>2020-08-08T05:41:23.000Z</time>
      </trkpt>
      <trkpt lat="46.15791" lon="6.33826">
        <ele>507.12</ele>
        <time>2020-08-08T05:41:33.000Z</time>
      </trkpt>
      <trkpt lat="46.15754" lon="6.33877">
        <ele>509.65</ele>
        <time>2020-08-08T05:41:43.000Z</time>
      </trkpt>
      <trkpt lat="46.15738" lon="6.33936">
        <ele>515.25</ele>
        <time>2020-08-08T05:41:53.000Z</time>
      </trkpt>
      <trkpt lat="46.1575" lon="6.33966">
        <ele>560.02</ele>
        <time>2020-08-08T05:42:02.133Z</time>
      </trkpt>
      <trkpt lat="46.1577" lon="6.33996">
        <ele>560.02</ele>
        <time>2020-08-08T05:42:12.000Z</time>
      </trkpt>
      <trkpt lat="46.15785" lon="6.3403">
        <ele>560.02</ele>
        <time>2020-08-08T05:42:22.000Z</time>
      </trkpt>
      <trkpt lat="46.15798" lon="6.34066">
        <ele>560.02</ele>
        <time>2020-08-08T05:42:32.000Z</time>
      </trkpt>
      <trkpt lat="46.15803" lon="6.34105">
        <ele>560.02</ele>
        <time>2020-08-08T05:42:42.000Z</time>
      </trkpt>
      <trkpt lat="46.15815" lon="6.34158">
        <ele>560.02</ele>
        <time>2020-08-08T05:42:52.000Z</time>
      </trkpt>
      <trkpt lat="46.15852" lon="6.34203">
        <ele>539.23</ele>
        <time>2020-08-08T05:43:02.000Z</time>
      </trkpt>
      <trkpt lat="46.15882" lon="6.34235">
        <ele>536.58</ele>
        <time>2020-08-08T05:43:11.098Z</time>
      </trkpt>
      <trkpt lat="46.15901" lon="6.34268">
        <ele>538.07</ele>
        <time>2020-08-08T05:43:20.240Z</time>
      </trkpt>
      <trkpt lat="46.15932" lon="6.34317">
        <ele>541.03</ele>
        <time>2020-08-08T05:43:30.000Z</time>
      </trkpt>
      <trkpt lat="46.15968" lon="6.34376">
        <ele>538.47</ele>
        <time>2020-08-08T05:43:40.000Z</time>
      </trkpt>
      <trkpt lat="46.16005" lon="6.34412">
        <ele>533.37</ele>
        <time>2020-08-08T05:43:50.000Z</time>
      </trkpt>
      <trkpt lat="46.16055" lon="6.34465">
        <ele>530.57</ele>
        <time>2020-08-08T05:44:00.000Z</time>
      </trkpt>
      <trkpt lat="46.16084" lon="6.34536">
        <ele>528.09</ele>
        <time>2020-08-08T05:44:10.000Z</time>
      </trkpt>
      <trkpt lat="46.16102" lon="6.34628">
        <ele>529.03</ele>
        <time>2020-08-08T05:44:20.000Z</time>
      </trkpt>
      <trkpt lat="46.16118" lon="6.34725">
        <ele>528.59</ele>
        <time>2020-08-08T05:44:30.000Z</time>
      </trkpt>
      <trkpt lat="46.16164" lon="6.34836">
        <ele>527.33</ele>
        <time>2020-08-08T05:44:40.000Z</time>
      </trkpt>
      <trkpt lat="46.16138" lon="6.3499">
        <ele>523.8</ele>
        <time>2020-08-08T05:44:50.000Z</time>
      </trkpt>
      <trkpt lat="46.16132" lon="6.35121">
        <ele>516.85</ele>
        <time>2020-08-08T05:45:00.000Z</time>
      </trkpt>
      <trkpt lat="46.16165" lon="6.35254">
        <ele>510.83</ele>
        <time>2020-08-08T05:45:10.000Z</time>
      </trkpt>
      <trkpt lat="46.16161" lon="6.35314">
        <ele>501.53</ele>
        <time>2020-08-08T05:45:20.000Z</time>
      </trkpt>
      <trkpt lat="46.1613" lon="6.3538">
        <ele>500.12</ele>
        <time>2020-08-08T05:45:30.000Z</time>
      </trkpt>
      <trkpt lat="46.16093" lon="6.35453">
        <ele>498.76</ele>
        <time>2020-08-08T05:45:40.000Z</time>
      </trkpt>
      <trkpt lat="46.16043" lon="6.3551">
        <ele>499.62</ele>
        <time>2020-08-08T05:45:50.000Z</time>
      </trkpt>
      <trkpt lat="46.15989" lon="6.3556">
        <ele>499.2</ele>
        <time>2020-08-08T05:46:00.000Z</time>
      </trkpt>
      <trkpt lat="46.15939" lon="6.35611">
        <ele>502.74</ele>
        <time>2020-08-08T05:46:10.000Z</time>
      </trkpt>
      <trkpt lat="46.15906" lon="6.35684">
        <ele>502.01</ele>
        <time>2020-08-08T05:46:20.000Z</time>
      </trkpt>
      <trkpt lat="46.159" lon="6.35774">
        <ele>506.73</ele>
        <time>2020-08-08T05:46:30.000Z</time>
      </trkpt>
      <trkpt lat="46.15917" lon="6.35857">
        <ele>510.68</ele>
        <time>2020-08-08T05:46:40.000Z</time>
      </trkpt>
      <trkpt lat="46.15944" lon="6.35919">
        <ele>515.26</ele>
        <time>2020-08-08T05:46:50.000Z</time>
      </trkpt>
      <trkpt lat="46.15963" lon="6.35967">
        <ele>570.91</ele>
        <time>2020-08-08T05:46:59.432Z</time>
      </trkpt>
      <trkpt lat="46.15978" lon="6.36006">
        <ele>570.91</ele>
        <time>2020-08-08T05:47:08.451Z</time>
      </trkpt>
      <trkpt lat="46.15994" lon="6.36044">
        <ele>570.91</ele>
        <time>2020-08-08T05:47:17.613Z</time>
      </trkpt>
      <trkpt lat="46.16009" lon="6.36083">
        <ele>570.91</ele>
        <time>2020-08-08T05:47:27.000Z</time>
      </trkpt>
      <trkpt lat="46.16024" lon="6.36118">
        <ele>570.91</ele>
        <time>2020-08-08T05:47:36.119Z</time>
      </trkpt>
      <trkpt lat="46.16042" lon="6.36155">
        <ele>570.91</ele>
        <time>2020-08-08T05:47:46.000Z</time>
      </trkpt>
      <trkpt lat="46.16057" lon="6.36197">
        <ele>551.03</ele>
        <time>2020-08-08T05:47:56.000Z</time>
      </trkpt>
      <trkpt lat="46.16063" lon="6.36242">
        <ele>550.22</ele>
        <time>2020-08-08T05:48:05.636Z</time>
      </trkpt>
      <trkpt lat="46.16062" lon="6.36285">
        <ele>548.37</ele>
        <time>2020-08-08T05:48:14.690Z</time>
      </trkpt>
      <trkpt lat="46.16061" lon="6.36331">
        <ele>543.99</ele>
        <time>2020-08-08T05:48:24.000Z</time>
      </trkpt>
      <trkpt lat="46.16061" lon="6.36378">
        <ele>538.86</ele>
        <time>2020-08-08T05:48:33.577Z</time>
      </trkpt>
      <trkpt lat="46.16059" lon="6.36419">
        <ele>537.09</ele>
        <time>2020-08-08T05:48:43.000Z</time>
      </trkpt>
      <trkpt lat="46.16059" lon="6.36462">
        <ele>538.2</ele>
        <time>2020-08-08T05:48:52.269Z</time>
      </trkpt>
      <trkpt lat="46.16064" lon="6.36503">
        <ele>544.56</ele>
        <time>2020-08-08T05:49:01.707Z</time>
      </trkpt>
      <trkpt lat="46.1607" lon="6.36543">
        <ele>548.21</ele>
        <time>2020-08-08T05:49:10.733Z</time>
      </trkpt>
      <trkpt lat="46.16082" lon="6.36593">
        <ele>548.32</ele>
        <time>2020-08-08T05:49:20.014Z</time>
      </trkpt>
      <trkpt lat="46.16094" lon="6.36642">
        <ele>549.05</ele>
        <time>2020-08-08T05:49:29.512Z</time>
      </trkpt>
      <trkpt lat="46.16103" lon="6.36693">
        <ele>551.17</ele>
        <time>2020-08-08T05:49:38.536Z</time>
      </trkpt>
      <trkpt lat="46.16108" lon="6.36751">
        <ele>552.16</ele>
        <time>2020-08-08T05:49:48.733Z</time>
      </trkpt>
      <trkpt lat="46.161" lon="6.368">
        <ele>549.93</ele>
        <time>2020-08-08T05:49:57.747Z</time>
      </trkpt>
      <trkpt lat="46.16088" lon="6.3685">
        <ele>549.63</ele>
        <time>2020-08-08T05:50:07.690Z</time>
      </trkpt>
      <trkpt lat="46.16084" lon="6.36904">
        <ele>550</ele>
        <time>2020-08-08T05:50:17.255Z</time>
      </trkpt>
      <trkpt lat="46.16084" lon="6.36954">
        <ele>549.83</ele>
        <time>2020-08-08T05:50:26.656Z</time>
      </trkpt>
      <trkpt lat="46.16094" lon="6.37005">
        <ele>551.56</ele>
        <time>2020-08-08T05:50:36.411Z</time>
      </trkpt>
      <trkpt lat="46.16114" lon="6.37049">
        <ele>555.51</ele>
        <time>2020-08-08T05:50:46.000Z</time>
      </trkpt>
      <trkpt lat="46.16139" lon="6.37104">
        <ele>560.03</ele>
        <time>2020-08-08T05:50:56.000Z</time>
      </trkpt>
      <trkpt lat="46.16156" lon="6.3715">
        <ele>566.5</ele>
        <time>2020-08-08T05:51:06.000Z</time>
      </trkpt>
      <trkpt lat="46.16181" lon="6.37183">
        <ele>570.9</ele>
        <time>2020-08-08T05:51:15.624Z</time>
      </trkpt>
      <trkpt lat="46.16213" lon="6.37205">
        <ele>574.2</ele>
        <time>2020-08-08T05:51:25.000Z</time>
      </trkpt>
      <trkpt lat="46.16212" lon="6.37253">
        <ele>578.97</ele>
        <time>2020-08-08T05:51:34.570Z</time>
      </trkpt>
      <trkpt lat="46.16176" lon="6.3726">
        <ele>575.43</ele>
        <time>2020-08-08T05:51:44.000Z</time>
      </trkpt>
      <trkpt lat="46.16128" lon="6.3724">
        <ele>571.68</ele>
        <time>2020-08-08T05:51:54.000Z</time>
      </trkpt>
      <trkpt lat="46.16091" lon="6.37232">
        <ele>570.61</ele>
        <time>2020-08-08T05:52:03.407Z</time>
      </trkpt>
      <trkpt lat="46.16055" lon="6.37231">
        <ele>569</ele>
        <time>2020-08-08T05:52:13.000Z</time>
      </trkpt>
      <trkpt lat="46.16015" lon="6.37246">
        <ele>566.61</ele>
        <time>2020-08-08T05:52:22.005Z</time>
      </trkpt>
      <trkpt lat="46.15979" lon="6.37266">
        <ele>565.98</ele>
        <time>2020-08-08T05:52:31.642Z</time>
      </trkpt>
      <trkpt lat="46.15948" lon="6.37287">
        <ele>568.87</ele>
        <time>2020-08-08T05:52:40.645Z</time>
      </trkpt>
      <trkpt lat="46.15917" lon="6.37308">
        <ele>572.7</ele>
        <time>2020-08-08T05:52:50.000Z</time>
      </trkpt>
      <trkpt lat="46.15887" lon="6.37325">
        <ele>575.48</ele>
        <time>2020-08-08T05:52:59.147Z</time>
      </trkpt>
      <trkpt lat="46.15856" lon="6.37347">
        <ele>578.07</ele>
        <time>2020-08-08T05:53:08.545Z</time>
      </trkpt>
      <trkpt lat="46.15826" lon="6.37372">
        <ele>581.98</ele>
        <time>2020-08-08T05:53:17.689Z</time>
      </trkpt>
      <trkpt lat="46.15802" lon="6.37409">
        <ele>579.67</ele>
        <time>2020-08-08T05:53:27.000Z</time>
      </trkpt>
      <trkpt lat="46.15782" lon="6.3745">
        <ele>581.21</ele>
        <time>2020-08-08T05:53:36.761Z</time>
      </trkpt>
      <trkpt lat="46.15761" lon="6.37484">
        <ele>582.3</ele>
        <time>2020-08-08T05:53:46.000Z</time>
      </trkpt>
      <trkpt lat="46.15733" lon="6.37521">
        <ele>583.69</ele>
        <time>2020-08-08T05:53:55.644Z</time>
      </trkpt>
      <trkpt lat="46.15704" lon="6.3755">
        <ele>587.9</ele>
        <time>2020-08-08T05:54:05.000Z</time>
      </trkpt>
      <trkpt lat="46.15672" lon="6.37573">
        <ele>592.36</ele>
        <time>2020-08-08T05:54:15.000Z</time>
      </trkpt>
      <trkpt lat="46.15639" lon="6.37594">
        <ele>595.8</ele>
        <time>2020-08-08T05:54:24.185Z</time>
      </trkpt>
      <trkpt lat="46.15612" lon="6.37619">
        <ele>598.88</ele>
        <time>2020-08-08T05:54:33.287Z</time>
      </trkpt>
      <trkpt lat="46.15589" lon="6.37649">
        <ele>602.62</ele>
        <time>2020-08-08T05:54:42.409Z</time>
      </trkpt>
      <trkpt lat="46.15567" lon="6.3768">
        <ele>604.15</ele>
        <time>2020-08-08T05:54:52.000Z</time>
      </trkpt>
      <trkpt lat="46.15551" lon="6.37707">
        <ele>607.66</ele>
        <time>2020-08-08T05:55:01.142Z</time>
      </trkpt>
      <trkpt lat="46.15531" lon="6.37732">
        <ele>611.27</ele>
        <time>2020-08-08T05:55:10.629Z</time>
      </trkpt>
      <trkpt lat="46.1551" lon="6.37756">
        <ele>614.55</ele>
        <time>2020-08-08T05:55:20.381Z</time>
      </trkpt>
      <trkpt lat="46.15491" lon="6.3778">
        <ele>616.45</ele>
        <time>2020-08-08T05:55:30.000Z</time>
      </trkpt>
      <trkpt lat="46.15469" lon="6.3781">
        <ele>617.09</ele>
        <time>2020-08-08T05:55:39.323Z</time>
      </trkpt>
      <trkpt lat="46.15445" lon="6.37838">
        <ele>619.28</ele>
        <time>2020-08-08T05:55:48.328Z</time>
      </trkpt>
      <trkpt lat="46.1543" lon="6.37876">
        <ele>622.15</ele>
        <time>2020-08-08T05:55:57.705Z</time>
      </trkpt>
      <trkpt lat="46.15413" lon="6.37912">
        <ele>628.06</ele>
        <time>2020-08-08T05:56:07.000Z</time>
      </trkpt>
      <trkpt lat="46.15389" lon="6.37941">
        <ele>630.21</ele>
        <time>2020-08-08T05:56:17.000Z</time>
      </trkpt>
      <trkpt lat="46.15317" lon="6.37976">
        <ele>629.62</ele>
        <time>2020-08-08T05:56:27.000Z</time>
      </trkpt>
      <trkpt lat="46.15267" lon="6.38067">
        <ele>626.07</ele>
        <time>2020-08-08T05:56:37.000Z</time>
      </trkpt>
      <trkpt lat="46.15218" lon="6.38149">
        <ele>619.28</ele>
        <time>2020-08-08T05:56:47.000Z</time>
      </trkpt>
      <trkpt lat="46.15196" lon="6.38262">
        <ele>609.58</ele>
        <time>2020-08-08T05:56:57.000Z</time>
      </trkpt>
      <trkpt lat="46.15162" lon="6.38381">
        <ele>602</ele>
        <time>2020-08-08T05:57:07.000Z</time>
      </trkpt>
      <trkpt lat="46.15101" lon="6.38498">
        <ele>593.06</ele>
        <time>2020-08-08T05:57:17.000Z</time>
      </trkpt>
      <trkpt lat="46.15048" lon="6.38632">
        <ele>586.03</ele>
        <time>2020-08-08T05:57:27.000Z</time>
      </trkpt>
      <trkpt lat="46.14995" lon="6.38769">
        <ele>576.01</ele>
        <time>2020-08-08T05:57:37.000Z</time>
      </trkpt>
      <trkpt lat="46.14964" lon="6.38918">
        <ele>569.25</ele>
        <time>2020-08-08T05:57:47.000Z</time>
      </trkpt>
      <trkpt lat="46.14908" lon="6.39021">
        <ele>568.28</ele>
        <time>2020-08-08T05:57:57.000Z</time>
      </trkpt>
      <trkpt lat="46.14859" lon="6.3912">
        <ele>566.49</ele>
        <time>2020-08-08T05:58:07.000Z</time>
      </trkpt>
      <trkpt lat="46.14824" lon="6.39206">
        <ele>568.51</ele>
        <time>2020-08-08T05:58:17.000Z</time>
      </trkpt>
      <trkpt lat="46.14813" lon="6.39305">
        <ele>570.92</ele>
        <time>2020-08-08T05:58:27.000Z</time>
      </trkpt>
      <trkpt lat="46.14817" lon="6.39405">
        <ele>572.94</ele>
        <time>2020-08-08T05:58:37.000Z</time>
      </trkpt>
      <trkpt lat="46.14844" lon="6.39497">
        <ele>568.01</ele>
        <time>2020-08-08T05:58:47.000Z</time>
      </trkpt>
      <trkpt lat="46.14861" lon="6.39586">
        <ele>566.7</ele>
        <time>2020-08-08T05:58:57.000Z</time>
      </trkpt>
      <trkpt lat="46.14864" lon="6.39684">
        <ele>561.74</ele>
        <time>2020-08-08T05:59:07.000Z</time>
      </trkpt>
      <trkpt lat="46.14895" lon="6.39773">
        <ele>561.65</ele>
        <time>2020-08-08T05:59:17.000Z</time>
      </trkpt>
      <trkpt lat="46.14935" lon="6.39852">
        <ele>562.66</ele>
        <time>2020-08-08T05:59:27.000Z</time>
      </trkpt>
      <trkpt lat="46.14967" lon="6.39937">
        <ele>563.68</ele>
        <time>2020-08-08T05:59:37.000Z</time>
      </trkpt>
      <trkpt lat="46.14975" lon="6.40036">
        <ele>566.15</ele>
        <time>2020-08-08T05:59:47.000Z</time>
      </trkpt>
      <trkpt lat="46.14959" lon="6.40125">
        <ele>567.65</ele>
        <time>2020-08-08T05:59:57.000Z</time>
      </trkpt>
      <trkpt lat="46.14927" lon="6.40198">
        <ele>568.81</ele>
        <time>2020-08-08T06:00:07.000Z</time>
      </trkpt>
      <trkpt lat="46.14903" lon="6.4025">
        <ele>568.46</ele>
        <time>2020-08-08T06:00:16.501Z</time>
      </trkpt>
      <trkpt lat="46.14889" lon="6.40303">
        <ele>573.05</ele>
        <time>2020-08-08T06:00:26.000Z</time>
      </trkpt>
      <trkpt lat="46.14867" lon="6.40363">
        <ele>578.5</ele>
        <time>2020-08-08T06:00:36.000Z</time>
      </trkpt>
      <trkpt lat="46.14841" lon="6.40417">
        <ele>584.93</ele>
        <time>2020-08-08T06:00:46.000Z</time>
      </trkpt>
      <trkpt lat="46.1481" lon="6.4047">
        <ele>586.4</ele>
        <time>2020-08-08T06:00:56.000Z</time>
      </trkpt>
      <trkpt lat="46.14757" lon="6.40496">
        <ele>581.53</ele>
        <time>2020-08-08T06:01:06.000Z</time>
      </trkpt>
      <trkpt lat="46.14706" lon="6.40541">
        <ele>576.74</ele>
        <time>2020-08-08T06:01:16.000Z</time>
      </trkpt>
      <trkpt lat="46.14664" lon="6.40557">
        <ele>575.51</ele>
        <time>2020-08-08T06:01:26.000Z</time>
      </trkpt>
      <trkpt lat="46.14641" lon="6.40574">
        <ele>635.4</ele>
        <time>2020-08-08T06:01:35.452Z</time>
      </trkpt>
      <trkpt lat="46.14629" lon="6.40611">
        <ele>635.4</ele>
        <time>2020-08-08T06:01:45.000Z</time>
      </trkpt>
      <trkpt lat="46.14612" lon="6.40639">
        <ele>635.4</ele>
        <time>2020-08-08T06:01:54.284Z</time>
      </trkpt>
      <trkpt lat="46.14596" lon="6.40666">
        <ele>635.4</ele>
        <time>2020-08-08T06:02:04.000Z</time>
      </trkpt>
      <trkpt lat="46.14584" lon="6.40699">
        <ele>635.4</ele>
        <time>2020-08-08T06:02:13.506Z</time>
      </trkpt>
      <trkpt lat="46.14571" lon="6.40738">
        <ele>635.4</ele>
        <time>2020-08-08T06:02:22.588Z</time>
      </trkpt>
      <trkpt lat="46.14559" lon="6.40777">
        <ele>598.94</ele>
        <time>2020-08-08T06:02:32.000Z</time>
      </trkpt>
      <trkpt lat="46.14543" lon="6.40816">
        <ele>600.6</ele>
        <time>2020-08-08T06:02:41.306Z</time>
      </trkpt>
      <trkpt lat="46.14519" lon="6.40852">
        <ele>600.6</ele>
        <time>2020-08-08T06:02:51.000Z</time>
      </trkpt>
      <trkpt lat="46.14501" lon="6.40918">
        <ele>603.42</ele>
        <time>2020-08-08T06:03:00.347Z</time>
      </trkpt>
      <trkpt lat="46.14533" lon="6.40941">
        <ele>608.51</ele>
        <time>2020-08-08T06:03:11.000Z</time>
      </trkpt>
      <trkpt lat="46.14574" lon="6.40956">
        <ele>613.38</ele>
        <time>2020-08-08T06:03:20.750Z</time>
      </trkpt>
      <trkpt lat="46.14607" lon="6.40973">
        <ele>614.58</ele>
        <time>2020-08-08T06:03:30.000Z</time>
      </trkpt>
      <trkpt lat="46.14643" lon="6.40988">
        <ele>616.11</ele>
        <time>2020-08-08T06:03:40.000Z</time>
      </trkpt>
      <trkpt lat="46.14673" lon="6.41001">
        <ele>617.44</ele>
        <time>2020-08-08T06:03:49.094Z</time>
      </trkpt>
      <trkpt lat="46.14703" lon="6.41013">
        <ele>620.69</ele>
        <time>2020-08-08T06:03:58.729Z</time>
      </trkpt>
      <trkpt lat="46.14735" lon="6.41027">
        <ele>626.57</ele>
        <time>2020-08-08T06:04:08.000Z</time>
      </trkpt>
      <trkpt lat="46.1477" lon="6.41038">
        <ele>631.66</ele>
        <time>2020-08-08T06:04:18.000Z</time>
      </trkpt>
      <trkpt lat="46.14802" lon="6.41056">
        <ele>631.94</ele>
        <time>2020-08-08T06:04:27.497Z</time>
      </trkpt>
      <trkpt lat="46.14802" lon="6.41095">
        <ele>635.24</ele>
        <time>2020-08-08T06:04:37.000Z</time>
      </trkpt>
      <trkpt lat="46.14782" lon="6.41141">
        <ele>633.94</ele>
        <time>2020-08-08T06:04:46.512Z</time>
      </trkpt>
      <trkpt lat="46.14817" lon="6.41199">
        <ele>631.34</ele>
        <time>2020-08-08T06:04:56.000Z</time>
      </trkpt>
      <trkpt lat="46.14882" lon="6.41252">
        <ele>624.87</ele>
        <time>2020-08-08T06:05:06.000Z</time>
      </trkpt>
      <trkpt lat="46.14948" lon="6.41248">
        <ele>622.61</ele>
        <time>2020-08-08T06:05:16.000Z</time>
      </trkpt>
      <trkpt lat="46.14967" lon="6.41259">
        <ele>661.27</ele>
        <time>2020-08-08T06:05:26.000Z</time>
      </trkpt>
      <trkpt lat="46.14956" lon="6.41287">
        <ele>663.89</ele>
        <time>2020-08-08T06:05:36.000Z</time>
      </trkpt>
      <trkpt lat="46.14956" lon="6.41248">
        <ele>663.89</ele>
        <time>2020-08-08T06:05:46.000Z</time>
      </trkpt>
      <trkpt lat="46.14889" lon="6.41255">
        <ele>663.89</ele>
        <time>2020-08-08T06:05:56.000Z</time>
      </trkpt>
      <trkpt lat="46.14842" lon="6.41213">
        <ele>663.89</ele>
        <time>2020-08-08T06:06:06.000Z</time>
      </trkpt>
      <trkpt lat="46.14814" lon="6.41187">
        <ele>662.99</ele>
        <time>2020-08-08T06:06:15.541Z</time>
      </trkpt>
      <trkpt lat="46.14788" lon="6.4116">
        <ele>662.69</ele>
        <time>2020-08-08T06:06:25.000Z</time>
      </trkpt>
      <trkpt lat="46.14779" lon="6.41126">
        <ele>662.69</ele>
        <time>2020-08-08T06:06:34.272Z</time>
      </trkpt>
      <trkpt lat="46.14748" lon="6.41102">
        <ele>662.69</ele>
        <time>2020-08-08T06:06:43.401Z</time>
      </trkpt>
      <trkpt lat="46.14716" lon="6.41105">
        <ele>662.69</ele>
        <time>2020-08-08T06:06:53.000Z</time>
      </trkpt>
      <trkpt lat="46.14699" lon="6.41206">
        <ele>662.69</ele>
        <time>2020-08-08T06:07:03.000Z</time>
      </trkpt>
      <trkpt lat="46.1471" lon="6.41323">
        <ele>662.69</ele>
        <time>2020-08-08T06:07:13.000Z</time>
      </trkpt>
      <trkpt lat="46.14744" lon="6.41481">
        <ele>602.18</ele>
        <time>2020-08-08T06:07:23.000Z</time>
      </trkpt>
      <trkpt lat="46.14763" lon="6.41614">
        <ele>596.15</ele>
        <time>2020-08-08T06:07:33.000Z</time>
      </trkpt>
      <trkpt lat="46.14762" lon="6.41736">
        <ele>601.37</ele>
        <time>2020-08-08T06:07:43.000Z</time>
      </trkpt>
      <trkpt lat="46.14765" lon="6.41826">
        <ele>604.82</ele>
        <time>2020-08-08T06:07:53.000Z</time>
      </trkpt>
      <trkpt lat="46.14796" lon="6.41878">
        <ele>612.42</ele>
        <time>2020-08-08T06:08:03.000Z</time>
      </trkpt>
      <trkpt lat="46.14776" lon="6.41935">
        <ele>643.46</ele>
        <time>2020-08-08T06:08:13.000Z</time>
      </trkpt>
      <trkpt lat="46.1475" lon="6.41998">
        <ele>643.49</ele>
        <time>2020-08-08T06:08:23.000Z</time>
      </trkpt>
      <trkpt lat="46.14727" lon="6.42057">
        <ele>643.49</ele>
        <time>2020-08-08T06:08:33.000Z</time>
      </trkpt>
      <trkpt lat="46.14708" lon="6.4212">
        <ele>643.49</ele>
        <time>2020-08-08T06:08:43.000Z</time>
      </trkpt>
      <trkpt lat="46.1468" lon="6.42176">
        <ele>643.49</ele>
        <time>2020-08-08T06:08:53.000Z</time>
      </trkpt>
      <trkpt lat="46.14628" lon="6.42225">
        <ele>643.49</ele>
        <time>2020-08-08T06:09:03.000Z</time>
      </trkpt>
      <trkpt lat="46.14564" lon="6.42287">
        <ele>624.27</ele>
        <time>2020-08-08T06:09:13.000Z</time>
      </trkpt>
      <trkpt lat="46.14523" lon="6.42341">
        <ele>616.09</ele>
        <time>2020-08-08T06:09:23.000Z</time>
      </trkpt>
      <trkpt lat="46.14452" lon="6.42322">
        <ele>605.62</ele>
        <time>2020-08-08T06:09:33.000Z</time>
      </trkpt>
      <trkpt lat="46.14389" lon="6.42352">
        <ele>597.81</ele>
        <time>2020-08-08T06:09:43.000Z</time>
      </trkpt>
      <trkpt lat="46.14354" lon="6.42438">
        <ele>582.99</ele>
        <time>2020-08-08T06:09:53.000Z</time>
      </trkpt>
      <trkpt lat="46.14288" lon="6.42551">
        <ele>570.22</ele>
        <time>2020-08-08T06:10:03.000Z</time>
      </trkpt>
      <trkpt lat="46.14208" lon="6.42669">
        <ele>561.95</ele>
        <time>2020-08-08T06:10:13.000Z</time>
      </trkpt>
      <trkpt lat="46.14142" lon="6.42744">
        <ele>555.01</ele>
        <time>2020-08-08T06:10:23.000Z</time>
      </trkpt>
      <trkpt lat="46.14091" lon="6.42797">
        <ele>553.22</ele>
        <time>2020-08-08T06:10:33.000Z</time>
      </trkpt>
      <trkpt lat="46.14057" lon="6.42847">
        <ele>553</ele>
        <time>2020-08-08T06:10:43.000Z</time>
      </trkpt>
      <trkpt lat="46.14029" lon="6.42892">
        <ele>555.38</ele>
        <time>2020-08-08T06:10:53.000Z</time>
      </trkpt>
      <trkpt lat="46.13983" lon="6.42901">
        <ele>613.28</ele>
        <time>2020-08-08T06:11:03.000Z</time>
      </trkpt>
      <trkpt lat="46.13935" lon="6.42911">
        <ele>613.28</ele>
        <time>2020-08-08T06:11:13.000Z</time>
      </trkpt>
      <trkpt lat="46.1391" lon="6.42905">
        <ele>623.97</ele>
        <time>2020-08-08T06:11:23.000Z</time>
      </trkpt>
      <trkpt lat="46.13909" lon="6.42904">
        <ele>624.68</ele>
        <time>2020-08-08T06:11:32.006Z</time>
      </trkpt>
      <trkpt lat="46.13879" lon="6.42953">
        <ele>624.68</ele>
        <time>2020-08-08T06:11:42.000Z</time>
      </trkpt>
      <trkpt lat="46.13848" lon="6.43027">
        <ele>624.68</ele>
        <time>2020-08-08T06:11:52.000Z</time>
      </trkpt>
      <trkpt lat="46.13842" lon="6.43127">
        <ele>624.68</ele>
        <time>2020-08-08T06:12:02.000Z</time>
      </trkpt>
      <trkpt lat="46.13845" lon="6.4324">
        <ele>624.68</ele>
        <time>2020-08-08T06:12:12.000Z</time>
      </trkpt>
      <trkpt lat="46.13847" lon="6.43347">
        <ele>624.68</ele>
        <time>2020-08-08T06:12:22.000Z</time>
      </trkpt>
      <trkpt lat="46.13839" lon="6.43445">
        <ele>624.68</ele>
        <time>2020-08-08T06:12:32.000Z</time>
      </trkpt>
      <trkpt lat="46.13805" lon="6.43518">
        <ele>563.51</ele>
        <time>2020-08-08T06:12:42.000Z</time>
      </trkpt>
      <trkpt lat="46.13761" lon="6.43574">
        <ele>563.94</ele>
        <time>2020-08-08T06:12:52.000Z</time>
      </trkpt>
      <trkpt lat="46.13712" lon="6.43641">
        <ele>566.03</ele>
        <time>2020-08-08T06:13:02.000Z</time>
      </trkpt>
      <trkpt lat="46.13656" lon="6.43719">
        <ele>565.59</ele>
        <time>2020-08-08T06:13:12.000Z</time>
      </trkpt>
      <trkpt lat="46.13601" lon="6.43805">
        <ele>562.79</ele>
        <time>2020-08-08T06:13:22.000Z</time>
      </trkpt>
      <trkpt lat="46.1357" lon="6.43914">
        <ele>560.64</ele>
        <time>2020-08-08T06:13:32.000Z</time>
      </trkpt>
      <trkpt lat="46.13547" lon="6.44033">
        <ele>552.98</ele>
        <time>2020-08-08T06:13:42.000Z</time>
      </trkpt>
      <trkpt lat="46.13524" lon="6.44148">
        <ele>549.81</ele>
        <time>2020-08-08T06:13:52.000Z</time>
      </trkpt>
      <trkpt lat="46.13497" lon="6.44261">
        <ele>546.81</ele>
        <time>2020-08-08T06:14:02.000Z</time>
      </trkpt>
      <trkpt lat="46.13459" lon="6.44366">
        <ele>547.14</ele>
        <time>2020-08-08T06:14:12.000Z</time>
      </trkpt>
      <trkpt lat="46.13501" lon="6.44481">
        <ele>548.8</ele>
        <time>2020-08-08T06:14:22.000Z</time>
      </trkpt>
      <trkpt lat="46.13547" lon="6.44557">
        <ele>550.35</ele>
        <time>2020-08-08T06:14:32.000Z</time>
      </trkpt>
      <trkpt lat="46.1357" lon="6.4467">
        <ele>552.58</ele>
        <time>2020-08-08T06:14:42.000Z</time>
      </trkpt>
      <trkpt lat="46.13595" lon="6.4479">
        <ele>553.91</ele>
        <time>2020-08-08T06:14:52.000Z</time>
      </trkpt>
      <trkpt lat="46.13634" lon="6.44906">
        <ele>551.95</ele>
        <time>2020-08-08T06:15:02.000Z</time>
      </trkpt>
      <trkpt lat="46.13676" lon="6.45027">
        <ele>548.24</ele>
        <time>2020-08-08T06:15:12.000Z</time>
      </trkpt>
      <trkpt lat="46.13713" lon="6.45137">
        <ele>545.87</ele>
        <time>2020-08-08T06:15:22.000Z</time>
      </trkpt>
      <trkpt lat="46.13751" lon="6.45252">
        <ele>547.81</ele>
        <time>2020-08-08T06:15:32.000Z</time>
      </trkpt>
      <trkpt lat="46.13789" lon="6.45368">
        <ele>548.48</ele>
        <time>2020-08-08T06:15:42.000Z</time>
      </trkpt>
      <trkpt lat="46.13827" lon="6.45475">
        <ele>543.59</ele>
        <time>2020-08-08T06:15:52.000Z</time>
      </trkpt>
      <trkpt lat="46.13849" lon="6.45571">
        <ele>541.25</ele>
        <time>2020-08-08T06:16:02.000Z</time>
      </trkpt>
      <trkpt lat="46.13851" lon="6.45656">
        <ele>543.5</ele>
        <time>2020-08-08T06:16:12.000Z</time>
      </trkpt>
      <trkpt lat="46.13845" lon="6.45745">
        <ele>547.47</ele>
        <time>2020-08-08T06:16:22.000Z</time>
      </trkpt>
      <trkpt lat="46.1382" lon="6.45833">
        <ele>549.09</ele>
        <time>2020-08-08T06:16:32.000Z</time>
      </trkpt>
      <trkpt lat="46.13808" lon="6.45927">
        <ele>549.91</ele>
        <time>2020-08-08T06:16:42.000Z</time>
      </trkpt>
      <trkpt lat="46.13788" lon="6.46021">
        <ele>550.32</ele>
        <time>2020-08-08T06:16:52.000Z</time>
      </trkpt>
      <trkpt lat="46.13762" lon="6.46133">
        <ele>545.82</ele>
        <time>2020-08-08T06:17:02.000Z</time>
      </trkpt>
      <trkpt lat="46.13739" lon="6.46249">
        <ele>539.01</ele>
        <time>2020-08-08T06:17:12.000Z</time>
      </trkpt>
      <trkpt lat="46.13716" lon="6.46373">
        <ele>532.46</ele>
        <time>2020-08-08T06:17:22.000Z</time>
      </trkpt>
      <trkpt lat="46.13693" lon="6.46495">
        <ele>526.97</ele>
        <time>2020-08-08T06:17:32.000Z</time>
      </trkpt>
      <trkpt lat="46.13656" lon="6.46607">
        <ele>514.11</ele>
        <time>2020-08-08T06:17:42.000Z</time>
      </trkpt>
      <trkpt lat="46.13622" lon="6.46694">
        <ele>510.26</ele>
        <time>2020-08-08T06:17:52.000Z</time>
      </trkpt>
      <trkpt lat="46.13587" lon="6.46801">
        <ele>504.95</ele>
        <time>2020-08-08T06:18:02.000Z</time>
      </trkpt>
      <trkpt lat="46.13522" lon="6.46888">
        <ele>501.82</ele>
        <time>2020-08-08T06:18:12.000Z</time>
      </trkpt>
      <trkpt lat="46.13436" lon="6.46896">
        <ele>500.61</ele>
        <time>2020-08-08T06:18:22.000Z</time>
      </trkpt>
      <trkpt lat="46.13455" lon="6.46992">
        <ele>501.66</ele>
        <time>2020-08-08T06:18:32.000Z</time>
      </trkpt>
      <trkpt lat="46.1348" lon="6.4711">
        <ele>500.5</ele>
        <time>2020-08-08T06:18:42.000Z</time>
      </trkpt>
      <trkpt lat="46.13523" lon="6.47234">
        <ele>498.94</ele>
        <time>2020-08-08T06:18:52.000Z</time>
      </trkpt>
      <trkpt lat="46.13577" lon="6.47356">
        <ele>497.22</ele>
        <time>2020-08-08T06:19:02.000Z</time>
      </trkpt>
      <trkpt lat="46.13624" lon="6.47475">
        <ele>495.96</ele>
        <time>2020-08-08T06:19:12.000Z</time>
      </trkpt>
      <trkpt lat="46.13653" lon="6.47593">
        <ele>496.46</ele>
        <time>2020-08-08T06:19:22.000Z</time>
      </trkpt>
      <trkpt lat="46.1365" lon="6.4771">
        <ele>498.84</ele>
        <time>2020-08-08T06:19:32.000Z</time>
      </trkpt>
      <trkpt lat="46.13612" lon="6.47806">
        <ele>500.71</ele>
        <time>2020-08-08T06:19:42.000Z</time>
      </trkpt>
      <trkpt lat="46.13588" lon="6.47877">
        <ele>498.21</ele>
        <time>2020-08-08T06:19:52.000Z</time>
      </trkpt>
      <trkpt lat="46.13556" lon="6.4793">
        <ele>498.53</ele>
        <time>2020-08-08T06:20:02.000Z</time>
      </trkpt>
      <trkpt lat="46.13515" lon="6.47966">
        <ele>496.99</ele>
        <time>2020-08-08T06:20:12.000Z</time>
      </trkpt>
      <trkpt lat="46.13481" lon="6.48021">
        <ele>498.31</ele>
        <time>2020-08-08T06:20:22.000Z</time>
      </trkpt>
      <trkpt lat="46.13447" lon="6.48088">
        <ele>499.57</ele>
        <time>2020-08-08T06:20:32.000Z</time>
      </trkpt>
      <trkpt lat="46.13395" lon="6.48133">
        <ele>500.21</ele>
        <time>2020-08-08T06:20:42.000Z</time>
      </trkpt>
      <trkpt lat="46.13342" lon="6.48177">
        <ele>502.91</ele>
        <time>2020-08-08T06:20:52.000Z</time>
      </trkpt>
      <trkpt lat="46.13288" lon="6.48218">
        <ele>503.86</ele>
        <time>2020-08-08T06:21:02.000Z</time>
      </trkpt>
      <trkpt lat="46.13252" lon="6.48288">
        <ele>507.75</ele>
        <time>2020-08-08T06:21:12.000Z</time>
      </trkpt>
      <trkpt lat="46.13226" lon="6.48356">
        <ele>510.35</ele>
        <time>2020-08-08T06:21:22.000Z</time>
      </trkpt>
      <trkpt lat="46.13196" lon="6.48412">
        <ele>513.33</ele>
        <time>2020-08-08T06:21:32.000Z</time>
      </trkpt>
      <trkpt lat="46.13163" lon="6.48456">
        <ele>517.09</ele>
        <time>2020-08-08T06:21:42.000Z</time>
      </trkpt>
      <trkpt lat="46.13135" lon="6.4848">
        <ele>520.93</ele>
        <time>2020-08-08T06:21:51.306Z</time>
      </trkpt>
      <trkpt lat="46.13098" lon="6.48523">
        <ele>525.8</ele>
        <time>2020-08-08T06:22:00.644Z</time>
      </trkpt>
      <trkpt lat="46.13071" lon="6.48573">
        <ele>523.14</ele>
        <time>2020-08-08T06:22:10.209Z</time>
      </trkpt>
      <trkpt lat="46.13049" lon="6.48621">
        <ele>518.69</ele>
        <time>2020-08-08T06:22:19.588Z</time>
      </trkpt>
      <trkpt lat="46.13033" lon="6.48677">
        <ele>518.07</ele>
        <time>2020-08-08T06:22:29.588Z</time>
      </trkpt>
      <trkpt lat="46.13024" lon="6.48738">
        <ele>520.45</ele>
        <time>2020-08-08T06:22:39.645Z</time>
      </trkpt>
      <trkpt lat="46.13013" lon="6.48796">
        <ele>521.19</ele>
        <time>2020-08-08T06:22:49.000Z</time>
      </trkpt>
      <trkpt lat="46.12997" lon="6.48849">
        <ele>521.66</ele>
        <time>2020-08-08T06:22:58.589Z</time>
      </trkpt>
      <trkpt lat="46.12985" lon="6.48901">
        <ele>525.08</ele>
        <time>2020-08-08T06:23:08.000Z</time>
      </trkpt>
      <trkpt lat="46.12974" lon="6.4895">
        <ele>527.35</ele>
        <time>2020-08-08T06:23:17.050Z</time>
      </trkpt>
      <trkpt lat="46.12958" lon="6.48997">
        <ele>528.35</ele>
        <time>2020-08-08T06:23:26.190Z</time>
      </trkpt>
      <trkpt lat="46.1293" lon="6.49036">
        <ele>529.52</ele>
        <time>2020-08-08T06:23:36.000Z</time>
      </trkpt>
      <trkpt lat="46.12903" lon="6.49081">
        <ele>532.58</ele>
        <time>2020-08-08T06:23:46.000Z</time>
      </trkpt>
      <trkpt lat="46.12882" lon="6.49129">
        <ele>535.25</ele>
        <time>2020-08-08T06:23:55.633Z</time>
      </trkpt>
      <trkpt lat="46.12861" lon="6.49174">
        <ele>537.62</ele>
        <time>2020-08-08T06:24:05.000Z</time>
      </trkpt>
      <trkpt lat="46.12841" lon="6.4922">
        <ele>538.89</ele>
        <time>2020-08-08T06:24:14.271Z</time>
      </trkpt>
      <trkpt lat="46.12821" lon="6.49265">
        <ele>540.12</ele>
        <time>2020-08-08T06:24:23.512Z</time>
      </trkpt>
      <trkpt lat="46.12796" lon="6.49307">
        <ele>540.44</ele>
        <time>2020-08-08T06:24:33.000Z</time>
      </trkpt>
      <trkpt lat="46.1277" lon="6.49352">
        <ele>541.99</ele>
        <time>2020-08-08T06:24:43.000Z</time>
      </trkpt>
      <trkpt lat="46.12741" lon="6.49397">
        <ele>546.56</ele>
        <time>2020-08-08T06:24:53.000Z</time>
      </trkpt>
      <trkpt lat="46.12714" lon="6.49441">
        <ele>547.64</ele>
        <time>2020-08-08T06:25:02.612Z</time>
      </trkpt>
      <trkpt lat="46.12682" lon="6.49489">
        <ele>546.63</ele>
        <time>2020-08-08T06:25:12.000Z</time>
      </trkpt>
      <trkpt lat="46.12654" lon="6.49549">
        <ele>548</ele>
        <time>2020-08-08T06:25:22.000Z</time>
      </trkpt>
      <trkpt lat="46.12627" lon="6.4961">
        <ele>547.76</ele>
        <time>2020-08-08T06:25:32.000Z</time>
      </trkpt>
      <trkpt lat="46.12608" lon="6.49672">
        <ele>547.58</ele>
        <time>2020-08-08T06:25:42.000Z</time>
      </trkpt>
      <trkpt lat="46.12599" lon="6.49727">
        <ele>547.54</ele>
        <time>2020-08-08T06:25:51.535Z</time>
      </trkpt>
      <trkpt lat="46.12597" lon="6.49788">
        <ele>547.8</ele>
        <time>2020-08-08T06:26:01.494Z</time>
      </trkpt>
      <trkpt lat="46.12596" lon="6.49846">
        <ele>546.59</ele>
        <time>2020-08-08T06:26:11.000Z</time>
      </trkpt>
      <trkpt lat="46.12598" lon="6.49907">
        <ele>548.26</ele>
        <time>2020-08-08T06:26:21.000Z</time>
      </trkpt>
      <trkpt lat="46.12604" lon="6.49968">
        <ele>550.66</ele>
        <time>2020-08-08T06:26:30.652Z</time>
      </trkpt>
      <trkpt lat="46.12628" lon="6.5002">
        <ele>553.91</ele>
        <time>2020-08-08T06:26:40.000Z</time>
      </trkpt>
      <trkpt lat="46.12661" lon="6.50062">
        <ele>559.18</ele>
        <time>2020-08-08T06:26:49.632Z</time>
      </trkpt>
      <trkpt lat="46.1269" lon="6.50105">
        <ele>564.79</ele>
        <time>2020-08-08T06:26:59.000Z</time>
      </trkpt>
      <trkpt lat="46.12713" lon="6.50153">
        <ele>571.63</ele>
        <time>2020-08-08T06:27:08.291Z</time>
      </trkpt>
      <trkpt lat="46.1272" lon="6.50206">
        <ele>578.39</ele>
        <time>2020-08-08T06:27:17.738Z</time>
      </trkpt>
      <trkpt lat="46.12734" lon="6.50264">
        <ele>585.16</ele>
        <time>2020-08-08T06:27:27.000Z</time>
      </trkpt>
      <trkpt lat="46.12756" lon="6.50326">
        <ele>591.97</ele>
        <time>2020-08-08T06:27:37.000Z</time>
      </trkpt>
      <trkpt lat="46.12767" lon="6.50388">
        <ele>599.18</ele>
        <time>2020-08-08T06:27:46.689Z</time>
      </trkpt>
      <trkpt lat="46.12778" lon="6.50439">
        <ele>607.35</ele>
        <time>2020-08-08T06:27:56.000Z</time>
      </trkpt>
      <trkpt lat="46.12812" lon="6.50488">
        <ele>611.53</ele>
        <time>2020-08-08T06:28:06.000Z</time>
      </trkpt>
      <trkpt lat="46.12849" lon="6.50537">
        <ele>613.91</ele>
        <time>2020-08-08T06:28:16.000Z</time>
      </trkpt>
      <trkpt lat="46.12882" lon="6.50594">
        <ele>617.32</ele>
        <time>2020-08-08T06:28:26.000Z</time>
      </trkpt>
      <trkpt lat="46.12917" lon="6.50656">
        <ele>619.64</ele>
        <time>2020-08-08T06:28:36.000Z</time>
      </trkpt>
      <trkpt lat="46.12949" lon="6.50716">
        <ele>620.12</ele>
        <time>2020-08-08T06:28:46.000Z</time>
      </trkpt>
      <trkpt lat="46.12977" lon="6.50789">
        <ele>621.99</ele>
        <time>2020-08-08T06:28:56.000Z</time>
      </trkpt>
      <trkpt lat="46.12981" lon="6.5087">
        <ele>621.74</ele>
        <time>2020-08-08T06:29:06.000Z</time>
      </trkpt>
      <trkpt lat="46.12987" lon="6.50942">
        <ele>619.63</ele>
        <time>2020-08-08T06:29:16.000Z</time>
      </trkpt>
      <trkpt lat="46.12986" lon="6.51015">
        <ele>613.64</ele>
        <time>2020-08-08T06:29:26.000Z</time>
      </trkpt>
      <trkpt lat="46.1297" lon="6.51086">
        <ele>604.1</ele>
        <time>2020-08-08T06:29:36.000Z</time>
      </trkpt>
      <trkpt lat="46.12988" lon="6.51156">
        <ele>598.14</ele>
        <time>2020-08-08T06:29:46.000Z</time>
      </trkpt>
      <trkpt lat="46.13023" lon="6.51129">
        <ele>599.02</ele>
        <time>2020-08-08T06:29:56.000Z</time>
      </trkpt>
      <trkpt lat="46.13045" lon="6.51101">
        <ele>601.07</ele>
        <time>2020-08-08T06:30:06.000Z</time>
      </trkpt>
      <trkpt lat="46.13055" lon="6.51062">
        <ele>600.06</ele>
        <time>2020-08-08T06:30:16.000Z</time>
      </trkpt>
      <trkpt lat="46.13056" lon="6.51021">
        <ele>601.14</ele>
        <time>2020-08-08T06:30:26.000Z</time>
      </trkpt>
      <trkpt lat="46.13071" lon="6.50991">
        <ele>607.78</ele>
        <time>2020-08-08T06:30:36.000Z</time>
      </trkpt>
      <trkpt lat="46.13088" lon="6.50966">
        <ele>614.41</ele>
        <time>2020-08-08T06:30:46.000Z</time>
      </trkpt>
      <trkpt lat="46.13105" lon="6.50938">
        <ele>619.9</ele>
        <time>2020-08-08T06:30:56.000Z</time>
      </trkpt>
      <trkpt lat="46.13115" lon="6.50906">
        <ele>621.02</ele>
        <time>2020-08-08T06:31:06.000Z</time>
      </trkpt>
      <trkpt lat="46.13118" lon="6.5087">
        <ele>621.84</ele>
        <time>2020-08-08T06:31:15.372Z</time>
      </trkpt>
      <trkpt lat="46.13114" lon="6.50836">
        <ele>620.3</ele>
        <time>2020-08-08T06:31:25.000Z</time>
      </trkpt>
      <trkpt lat="46.13109" lon="6.50804">
        <ele>618.8</ele>
        <time>2020-08-08T06:31:34.411Z</time>
      </trkpt>
      <trkpt lat="46.13104" lon="6.50772">
        <ele>614.51</ele>
        <time>2020-08-08T06:31:44.000Z</time>
      </trkpt>
      <trkpt lat="46.13107" lon="6.50737">
        <ele>614</ele>
        <time>2020-08-08T06:31:54.000Z</time>
      </trkpt>
      <trkpt lat="46.13126" lon="6.50714">
        <ele>615.15</ele>
        <time>2020-08-08T06:32:03.645Z</time>
      </trkpt>
      <trkpt lat="46.13147" lon="6.507">
        <ele>617.43</ele>
        <time>2020-08-08T06:32:13.000Z</time>
      </trkpt>
      <trkpt lat="46.13168" lon="6.50691">
        <ele>614.05</ele>
        <time>2020-08-08T06:32:22.469Z</time>
      </trkpt>
      <trkpt lat="46.1319" lon="6.50682">
        <ele>620.36</ele>
        <time>2020-08-08T06:32:32.000Z</time>
      </trkpt>
      <trkpt lat="46.13217" lon="6.50674">
        <ele>631.49</ele>
        <time>2020-08-08T06:32:42.000Z</time>
      </trkpt>
      <trkpt lat="46.13241" lon="6.50667">
        <ele>637.45</ele>
        <time>2020-08-08T06:32:51.250Z</time>
      </trkpt>
      <trkpt lat="46.13264" lon="6.50655">
        <ele>643.36</ele>
        <time>2020-08-08T06:33:00.746Z</time>
      </trkpt>
      <trkpt lat="46.13284" lon="6.50645">
        <ele>651.18</ele>
        <time>2020-08-08T06:33:10.269Z</time>
      </trkpt>
      <trkpt lat="46.1331" lon="6.50639">
        <ele>655.69</ele>
        <time>2020-08-08T06:33:19.586Z</time>
      </trkpt>
      <trkpt lat="46.13336" lon="6.50631">
        <ele>654.24</ele>
        <time>2020-08-08T06:33:28.590Z</time>
      </trkpt>
      <trkpt lat="46.13361" lon="6.50628">
        <ele>653.82</ele>
        <time>2020-08-08T06:33:38.084Z</time>
      </trkpt>
      <trkpt lat="46.13388" lon="6.5062">
        <ele>650.85</ele>
        <time>2020-08-08T06:33:47.365Z</time>
      </trkpt>
      <trkpt lat="46.1341" lon="6.50608">
        <ele>649.22</ele>
        <time>2020-08-08T06:33:56.427Z</time>
      </trkpt>
      <trkpt lat="46.13434" lon="6.50578">
        <ele>645.56</ele>
        <time>2020-08-08T06:34:06.000Z</time>
      </trkpt>
      <trkpt lat="46.13459" lon="6.50522">
        <ele>640.73</ele>
        <time>2020-08-08T06:34:16.000Z</time>
      </trkpt>
      <trkpt lat="46.13488" lon="6.50462">
        <ele>640.11</ele>
        <time>2020-08-08T06:34:26.000Z</time>
      </trkpt>
      <trkpt lat="46.13511" lon="6.50398">
        <ele>639.01</ele>
        <time>2020-08-08T06:34:36.000Z</time>
      </trkpt>
      <trkpt lat="46.13546" lon="6.5035">
        <ele>637.71</ele>
        <time>2020-08-08T06:34:46.000Z</time>
      </trkpt>
      <trkpt lat="46.13584" lon="6.50303">
        <ele>634.34</ele>
        <time>2020-08-08T06:34:56.000Z</time>
      </trkpt>
      <trkpt lat="46.13629" lon="6.50255">
        <ele>634.11</ele>
        <time>2020-08-08T06:35:06.000Z</time>
      </trkpt>
      <trkpt lat="46.13674" lon="6.50208">
        <ele>635.18</ele>
        <time>2020-08-08T06:35:16.000Z</time>
      </trkpt>
      <trkpt lat="46.13712" lon="6.50156">
        <ele>632.69</ele>
        <time>2020-08-08T06:35:26.000Z</time>
      </trkpt>
      <trkpt lat="46.13743" lon="6.50119">
        <ele>631.55</ele>
        <time>2020-08-08T06:35:36.000Z</time>
      </trkpt>
      <trkpt lat="46.13767" lon="6.50092">
        <ele>631.65</ele>
        <time>2020-08-08T06:35:45.583Z</time>
      </trkpt>
      <trkpt lat="46.1379" lon="6.5007">
        <ele>632.05</ele>
        <time>2020-08-08T06:35:55.000Z</time>
      </trkpt>
      <trkpt lat="46.13814" lon="6.50046">
        <ele>631.52</ele>
        <time>2020-08-08T06:36:04.309Z</time>
      </trkpt>
      <trkpt lat="46.13832" lon="6.5002">
        <ele>632.24</ele>
        <time>2020-08-08T06:36:13.341Z</time>
      </trkpt>
      <trkpt lat="46.13848" lon="6.49989">
        <ele>633.04</ele>
        <time>2020-08-08T06:36:22.789Z</time>
      </trkpt>
      <trkpt lat="46.13855" lon="6.49946">
        <ele>635.87</ele>
        <time>2020-08-08T06:36:32.748Z</time>
      </trkpt>
      <trkpt lat="46.13861" lon="6.49909">
        <ele>640.24</ele>
        <time>2020-08-08T06:36:42.000Z</time>
      </trkpt>
      <trkpt lat="46.13867" lon="6.49874">
        <ele>650.75</ele>
        <time>2020-08-08T06:36:51.367Z</time>
      </trkpt>
      <trkpt lat="46.13873" lon="6.49837">
        <ele>656.19</ele>
        <time>2020-08-08T06:37:00.569Z</time>
      </trkpt>
      <trkpt lat="46.1388" lon="6.49798">
        <ele>660.91</ele>
        <time>2020-08-08T06:37:10.000Z</time>
      </trkpt>
      <trkpt lat="46.13893" lon="6.4976">
        <ele>666.22</ele>
        <time>2020-08-08T06:37:19.530Z</time>
      </trkpt>
      <trkpt lat="46.13912" lon="6.49719">
        <ele>672.3</ele>
        <time>2020-08-08T06:37:29.000Z</time>
      </trkpt>
      <trkpt lat="46.13948" lon="6.49675">
        <ele>678.54</ele>
        <time>2020-08-08T06:37:39.000Z</time>
      </trkpt>
      <trkpt lat="46.13997" lon="6.49654">
        <ele>683.45</ele>
        <time>2020-08-08T06:37:49.000Z</time>
      </trkpt>
      <trkpt lat="46.14047" lon="6.4966">
        <ele>684.09</ele>
        <time>2020-08-08T06:37:59.000Z</time>
      </trkpt>
      <trkpt lat="46.14084" lon="6.49653">
        <ele>682.08</ele>
        <time>2020-08-08T06:38:09.000Z</time>
      </trkpt>
      <trkpt lat="46.14113" lon="6.49642">
        <ele>679.85</ele>
        <time>2020-08-08T06:38:18.198Z</time>
      </trkpt>
      <trkpt lat="46.14146" lon="6.4964">
        <ele>676.85</ele>
        <time>2020-08-08T06:38:28.000Z</time>
      </trkpt>
      <trkpt lat="46.14177" lon="6.4964">
        <ele>675.37</ele>
        <time>2020-08-08T06:38:38.000Z</time>
      </trkpt>
      <trkpt lat="46.14205" lon="6.49638">
        <ele>675.25</ele>
        <time>2020-08-08T06:38:48.000Z</time>
      </trkpt>
      <trkpt lat="46.14235" lon="6.49636">
        <ele>677.44</ele>
        <time>2020-08-08T06:38:57.441Z</time>
      </trkpt>
      <trkpt lat="46.14262" lon="6.49633">
        <ele>678.87</ele>
        <time>2020-08-08T06:39:07.000Z</time>
      </trkpt>
      <trkpt lat="46.14289" lon="6.49623">
        <ele>681.55</ele>
        <time>2020-08-08T06:39:17.000Z</time>
      </trkpt>
      <trkpt lat="46.14315" lon="6.49621">
        <ele>687.65</ele>
        <time>2020-08-08T06:39:26.099Z</time>
      </trkpt>
      <trkpt lat="46.14347" lon="6.49623">
        <ele>691.04</ele>
        <time>2020-08-08T06:39:35.712Z</time>
      </trkpt>
      <trkpt lat="46.14379" lon="6.4964">
        <ele>691.5</ele>
        <time>2020-08-08T06:39:45.000Z</time>
      </trkpt>
      <trkpt lat="46.14437" lon="6.49671">
        <ele>691.26</ele>
        <time>2020-08-08T06:39:55.000Z</time>
      </trkpt>
      <trkpt lat="46.14494" lon="6.49698">
        <ele>690.01</ele>
        <time>2020-08-08T06:40:05.000Z</time>
      </trkpt>
      <trkpt lat="46.14544" lon="6.49713">
        <ele>688.69</ele>
        <time>2020-08-08T06:40:15.000Z</time>
      </trkpt>
      <trkpt lat="46.14581" lon="6.49704">
        <ele>751.25</ele>
        <time>2020-08-08T06:40:24.345Z</time>
      </trkpt>
      <trkpt lat="46.14613" lon="6.49673">
        <ele>751.25</ele>
        <time>2020-08-08T06:40:34.000Z</time>
      </trkpt>
      <trkpt lat="46.14649" lon="6.49641">
        <ele>751.25</ele>
        <time>2020-08-08T06:40:44.000Z</time>
      </trkpt>
      <trkpt lat="46.14698" lon="6.49602">
        <ele>751.25</ele>
        <time>2020-08-08T06:40:54.000Z</time>
      </trkpt>
      <trkpt lat="46.1475" lon="6.49586">
        <ele>751.25</ele>
        <time>2020-08-08T06:41:04.000Z</time>
      </trkpt>
      <trkpt lat="46.14798" lon="6.49564">
        <ele>751.25</ele>
        <time>2020-08-08T06:41:14.000Z</time>
      </trkpt>
      <trkpt lat="46.14846" lon="6.49529">
        <ele>702.61</ele>
        <time>2020-08-08T06:41:24.000Z</time>
      </trkpt>
      <trkpt lat="46.14891" lon="6.49493">
        <ele>708.21</ele>
        <time>2020-08-08T06:41:34.000Z</time>
      </trkpt>
      <trkpt lat="46.14933" lon="6.49463">
        <ele>710.75</ele>
        <time>2020-08-08T06:41:44.000Z</time>
      </trkpt>
      <trkpt lat="46.14983" lon="6.49441">
        <ele>709.77</ele>
        <time>2020-08-08T06:41:54.000Z</time>
      </trkpt>
      <trkpt lat="46.15038" lon="6.49426">
        <ele>708.61</ele>
        <time>2020-08-08T06:42:04.000Z</time>
      </trkpt>
      <trkpt lat="46.15093" lon="6.49437">
        <ele>705.35</ele>
        <time>2020-08-08T06:42:14.000Z</time>
      </trkpt>
      <trkpt lat="46.15133" lon="6.4945">
        <ele>703.86</ele>
        <time>2020-08-08T06:42:24.000Z</time>
      </trkpt>
      <trkpt lat="46.15164" lon="6.49456">
        <ele>705.27</ele>
        <time>2020-08-08T06:42:34.000Z</time>
      </trkpt>
      <trkpt lat="46.15199" lon="6.49456">
        <ele>710.52</ele>
        <time>2020-08-08T06:42:44.000Z</time>
      </trkpt>
      <trkpt lat="46.1523" lon="6.49429">
        <ele>714.69</ele>
        <time>2020-08-08T06:42:54.000Z</time>
      </trkpt>
      <trkpt lat="46.15246" lon="6.49389">
        <ele>717.95</ele>
        <time>2020-08-08T06:43:03.045Z</time>
      </trkpt>
      <trkpt lat="46.15275" lon="6.4937">
        <ele>721.04</ele>
        <time>2020-08-08T06:43:12.305Z</time>
      </trkpt>
      <trkpt lat="46.15301" lon="6.49359">
        <ele>725.09</ele>
        <time>2020-08-08T06:43:22.000Z</time>
      </trkpt>
      <trkpt lat="46.15325" lon="6.49326">
        <ele>722.41</ele>
        <time>2020-08-08T06:43:31.643Z</time>
      </trkpt>
      <trkpt lat="46.15347" lon="6.49291">
        <ele>720.46</ele>
        <time>2020-08-08T06:43:40.688Z</time>
      </trkpt>
      <trkpt lat="46.1537" lon="6.49257">
        <ele>723.2</ele>
        <time>2020-08-08T06:43:49.928Z</time>
      </trkpt>
      <trkpt lat="46.15392" lon="6.49204">
        <ele>724.79</ele>
        <time>2020-08-08T06:43:59.000Z</time>
      </trkpt>
      <trkpt lat="46.15414" lon="6.49142">
        <ele>721.26</ele>
        <time>2020-08-08T06:44:09.000Z</time>
      </trkpt>
      <trkpt lat="46.15429" lon="6.49124">
        <ele>724.53</ele>
        <time>2020-08-08T06:44:19.000Z</time>
      </trkpt>
      <trkpt lat="46.15431" lon="6.49121">
        <ele>724.56</ele>
        <time>2020-08-08T06:44:28.528Z</time>
      </trkpt>
      <trkpt lat="46.15427" lon="6.49119">
        <ele>724.56</ele>
        <time>2020-08-08T06:44:38.000Z</time>
      </trkpt>
      <trkpt lat="46.15428" lon="6.49121">
        <ele>724.56</ele>
        <time>2020-08-08T06:44:48.000Z</time>
      </trkpt>
      <trkpt lat="46.15429" lon="6.49122">
        <ele>724.56</ele>
        <time>2020-08-08T06:45:04.000Z</time>
      </trkpt>
      <trkpt lat="46.1543" lon="6.49122">
        <ele>726.39</ele>
        <time>2020-08-08T06:47:13.000Z</time>
      </trkpt>
      <trkpt lat="46.15452" lon="6.49099">
        <ele>727.88</ele>
        <time>2020-08-08T06:47:22.219Z</time>
      </trkpt>
      <trkpt lat="46.15476" lon="6.49063">
        <ele>727.57</ele>
        <time>2020-08-08T06:47:31.688Z</time>
      </trkpt>
      <trkpt lat="46.15498" lon="6.49034">
        <ele>727.03</ele>
        <time>2020-08-08T06:47:41.000Z</time>
      </trkpt>
      <trkpt lat="46.15523" lon="6.49005">
        <ele>734.79</ele>
        <time>2020-08-08T06:47:50.349Z</time>
      </trkpt>
      <trkpt lat="46.15546" lon="6.4898">
        <ele>741.87</ele>
        <time>2020-08-08T06:48:00.000Z</time>
      </trkpt>
      <trkpt lat="46.15569" lon="6.48956">
        <ele>745.94</ele>
        <time>2020-08-08T06:48:09.422Z</time>
      </trkpt>
      <trkpt lat="46.15588" lon="6.48933">
        <ele>750.1</ele>
        <time>2020-08-08T06:48:18.762Z</time>
      </trkpt>
      <trkpt lat="46.15607" lon="6.48912">
        <ele>756.07</ele>
        <time>2020-08-08T06:48:28.330Z</time>
      </trkpt>
      <trkpt lat="46.15629" lon="6.4889">
        <ele>754.69</ele>
        <time>2020-08-08T06:48:37.362Z</time>
      </trkpt>
      <trkpt lat="46.1565" lon="6.48863">
        <ele>754.76</ele>
        <time>2020-08-08T06:48:46.742Z</time>
      </trkpt>
      <trkpt lat="46.1567" lon="6.48832">
        <ele>752.54</ele>
        <time>2020-08-08T06:48:56.000Z</time>
      </trkpt>
      <trkpt lat="46.15691" lon="6.48804">
        <ele>753.28</ele>
        <time>2020-08-08T06:49:05.461Z</time>
      </trkpt>
      <trkpt lat="46.15713" lon="6.48778">
        <ele>755.23</ele>
        <time>2020-08-08T06:49:14.685Z</time>
      </trkpt>
      <trkpt lat="46.15738" lon="6.48758">
        <ele>756.33</ele>
        <time>2020-08-08T06:49:24.000Z</time>
      </trkpt>
      <trkpt lat="46.15764" lon="6.48749">
        <ele>758.3</ele>
        <time>2020-08-08T06:49:33.167Z</time>
      </trkpt>
      <trkpt lat="46.15788" lon="6.48752">
        <ele>759.65</ele>
        <time>2020-08-08T06:49:42.428Z</time>
      </trkpt>
      <trkpt lat="46.15811" lon="6.48762">
        <ele>762.38</ele>
        <time>2020-08-08T06:49:52.000Z</time>
      </trkpt>
      <trkpt lat="46.15835" lon="6.48781">
        <ele>762.77</ele>
        <time>2020-08-08T06:50:02.000Z</time>
      </trkpt>
      <trkpt lat="46.15852" lon="6.48809">
        <ele>761.88</ele>
        <time>2020-08-08T06:50:11.741Z</time>
      </trkpt>
      <trkpt lat="46.15866" lon="6.48839">
        <ele>762.14</ele>
        <time>2020-08-08T06:50:21.000Z</time>
      </trkpt>
      <trkpt lat="46.15882" lon="6.48866">
        <ele>765.15</ele>
        <time>2020-08-08T06:50:30.682Z</time>
      </trkpt>
      <trkpt lat="46.15896" lon="6.48895">
        <ele>767.3</ele>
        <time>2020-08-08T06:50:40.000Z</time>
      </trkpt>
      <trkpt lat="46.15911" lon="6.48923">
        <ele>767.56</ele>
        <time>2020-08-08T06:50:49.262Z</time>
      </trkpt>
      <trkpt lat="46.15925" lon="6.48948">
        <ele>768.93</ele>
        <time>2020-08-08T06:50:58.523Z</time>
      </trkpt>
      <trkpt lat="46.15943" lon="6.48969">
        <ele>770.46</ele>
        <time>2020-08-08T06:51:08.000Z</time>
      </trkpt>
      <trkpt lat="46.15964" lon="6.48988">
        <ele>771.43</ele>
        <time>2020-08-08T06:51:17.027Z</time>
      </trkpt>
      <trkpt lat="46.15987" lon="6.49002">
        <ele>774.12</ele>
        <time>2020-08-08T06:51:26.449Z</time>
      </trkpt>
      <trkpt lat="46.16011" lon="6.49014">
        <ele>777.21</ele>
        <time>2020-08-08T06:51:35.719Z</time>
      </trkpt>
      <trkpt lat="46.16033" lon="6.49023">
        <ele>783.04</ele>
        <time>2020-08-08T06:51:45.000Z</time>
      </trkpt>
      <trkpt lat="46.16058" lon="6.49035">
        <ele>785.16</ele>
        <time>2020-08-08T06:51:54.568Z</time>
      </trkpt>
      <trkpt lat="46.16073" lon="6.4907">
        <ele>785.16</ele>
        <time>2020-08-08T06:52:03.702Z</time>
      </trkpt>
      <trkpt lat="46.16047" lon="6.49126">
        <ele>782.1</ele>
        <time>2020-08-08T06:52:13.000Z</time>
      </trkpt>
      <trkpt lat="46.16067" lon="6.4917">
        <ele>779.21</ele>
        <time>2020-08-08T06:52:22.552Z</time>
      </trkpt>
      <trkpt lat="46.16107" lon="6.4919">
        <ele>779.47</ele>
        <time>2020-08-08T06:52:32.000Z</time>
      </trkpt>
      <trkpt lat="46.1615" lon="6.49215">
        <ele>780.31</ele>
        <time>2020-08-08T06:52:42.000Z</time>
      </trkpt>
      <trkpt lat="46.16184" lon="6.4921">
        <ele>836.11</ele>
        <time>2020-08-08T06:52:52.000Z</time>
      </trkpt>
      <trkpt lat="46.16207" lon="6.49212">
        <ele>836.16</ele>
        <time>2020-08-08T06:53:01.769Z</time>
      </trkpt>
      <trkpt lat="46.16206" lon="6.49236">
        <ele>836.16</ele>
        <time>2020-08-08T06:53:11.000Z</time>
      </trkpt>
      <trkpt lat="46.16211" lon="6.49214">
        <ele>836.16</ele>
        <time>2020-08-08T06:53:21.000Z</time>
      </trkpt>
      <trkpt lat="46.16204" lon="6.49203">
        <ele>836.16</ele>
        <time>2020-08-08T06:53:31.000Z</time>
      </trkpt>
      <trkpt lat="46.16205" lon="6.49205">
        <ele>792.48</ele>
        <time>2020-08-08T06:53:59.000Z</time>
      </trkpt>
      <trkpt lat="46.16208" lon="6.49237">
        <ele>840.32</ele>
        <time>2020-08-08T06:54:09.000Z</time>
      </trkpt>
      <trkpt lat="46.16219" lon="6.49275">
        <ele>840.36</ele>
        <time>2020-08-08T06:54:19.000Z</time>
      </trkpt>
      <trkpt lat="46.16226" lon="6.4932">
        <ele>840.36</ele>
        <time>2020-08-08T06:54:29.000Z</time>
      </trkpt>
      <trkpt lat="46.16241" lon="6.4935">
        <ele>840.36</ele>
        <time>2020-08-08T06:54:38.650Z</time>
      </trkpt>
      <trkpt lat="46.16266" lon="6.49366">
        <ele>840.36</ele>
        <time>2020-08-08T06:54:48.000Z</time>
      </trkpt>
      <trkpt lat="46.16292" lon="6.49371">
        <ele>840.36</ele>
        <time>2020-08-08T06:54:58.000Z</time>
      </trkpt>
      <trkpt lat="46.16315" lon="6.49386">
        <ele>840.36</ele>
        <time>2020-08-08T06:55:07.407Z</time>
      </trkpt>
      <trkpt lat="46.16336" lon="6.49402">
        <ele>803.11</ele>
        <time>2020-08-08T06:55:17.000Z</time>
      </trkpt>
      <trkpt lat="46.16343" lon="6.49436">
        <ele>803.45</ele>
        <time>2020-08-08T06:55:26.791Z</time>
      </trkpt>
      <trkpt lat="46.16332" lon="6.49462">
        <ele>803.73</ele>
        <time>2020-08-08T06:55:36.000Z</time>
      </trkpt>
      <trkpt lat="46.16307" lon="6.49477">
        <ele>806.01</ele>
        <time>2020-08-08T06:55:46.000Z</time>
      </trkpt>
      <trkpt lat="46.16282" lon="6.49482">
        <ele>812</ele>
        <time>2020-08-08T06:55:55.372Z</time>
      </trkpt>
      <trkpt lat="46.16255" lon="6.49494">
        <ele>818.42</ele>
        <time>2020-08-08T06:56:05.187Z</time>
      </trkpt>
      <trkpt lat="46.16225" lon="6.49512">
        <ele>821.18</ele>
        <time>2020-08-08T06:56:14.509Z</time>
      </trkpt>
      <trkpt lat="46.16194" lon="6.49534">
        <ele>819.98</ele>
        <time>2020-08-08T06:56:23.654Z</time>
      </trkpt>
      <trkpt lat="46.16159" lon="6.49563">
        <ele>817.71</ele>
        <time>2020-08-08T06:56:33.252Z</time>
      </trkpt>
      <trkpt lat="46.16131" lon="6.49595">
        <ele>818.82</ele>
        <time>2020-08-08T06:56:42.693Z</time>
      </trkpt>
      <trkpt lat="46.16106" lon="6.49618">
        <ele>818.98</ele>
        <time>2020-08-08T06:56:52.000Z</time>
      </trkpt>
      <trkpt lat="46.16081" lon="6.49639">
        <ele>819.43</ele>
        <time>2020-08-08T06:57:01.112Z</time>
      </trkpt>
      <trkpt lat="46.16061" lon="6.49658">
        <ele>822.88</ele>
        <time>2020-08-08T06:57:10.428Z</time>
      </trkpt>
      <trkpt lat="46.16036" lon="6.49675">
        <ele>826.95</ele>
        <time>2020-08-08T06:57:19.435Z</time>
      </trkpt>
      <trkpt lat="46.16011" lon="6.49688">
        <ele>829.94</ele>
        <time>2020-08-08T06:57:28.651Z</time>
      </trkpt>
      <trkpt lat="46.15985" lon="6.49704">
        <ele>831.48</ele>
        <time>2020-08-08T06:57:38.000Z</time>
      </trkpt>
      <trkpt lat="46.1596" lon="6.49717">
        <ele>834.1</ele>
        <time>2020-08-08T06:57:47.069Z</time>
      </trkpt>
      <trkpt lat="46.15933" lon="6.49729">
        <ele>837.06</ele>
        <time>2020-08-08T06:57:56.216Z</time>
      </trkpt>
      <trkpt lat="46.15911" lon="6.49751">
        <ele>841.62</ele>
        <time>2020-08-08T06:58:05.746Z</time>
      </trkpt>
      <trkpt lat="46.15882" lon="6.49766">
        <ele>847.17</ele>
        <time>2020-08-08T06:58:15.474Z</time>
      </trkpt>
      <trkpt lat="46.15855" lon="6.49788">
        <ele>847.05</ele>
        <time>2020-08-08T06:58:24.529Z</time>
      </trkpt>
      <trkpt lat="46.15831" lon="6.4981">
        <ele>847.82</ele>
        <time>2020-08-08T06:58:34.000Z</time>
      </trkpt>
      <trkpt lat="46.15805" lon="6.49836">
        <ele>848.05</ele>
        <time>2020-08-08T06:58:43.589Z</time>
      </trkpt>
      <trkpt lat="46.15784" lon="6.49864">
        <ele>850.4</ele>
        <time>2020-08-08T06:58:53.130Z</time>
      </trkpt>
      <trkpt lat="46.15767" lon="6.49899">
        <ele>851.61</ele>
        <time>2020-08-08T06:59:03.000Z</time>
      </trkpt>
      <trkpt lat="46.15756" lon="6.49938">
        <ele>852.74</ele>
        <time>2020-08-08T06:59:12.553Z</time>
      </trkpt>
      <trkpt lat="46.15744" lon="6.49973">
        <ele>851.55</ele>
        <time>2020-08-08T06:59:21.590Z</time>
      </trkpt>
      <trkpt lat="46.15727" lon="6.50004">
        <ele>850.22</ele>
        <time>2020-08-08T06:59:31.000Z</time>
      </trkpt>
      <trkpt lat="46.1571" lon="6.50034">
        <ele>850.83</ele>
        <time>2020-08-08T06:59:40.156Z</time>
      </trkpt>
      <trkpt lat="46.15697" lon="6.50062">
        <ele>853.34</ele>
        <time>2020-08-08T06:59:50.000Z</time>
      </trkpt>
      <trkpt lat="46.1569" lon="6.50095">
        <ele>854.15</ele>
        <time>2020-08-08T06:59:59.629Z</time>
      </trkpt>
      <trkpt lat="46.15686" lon="6.50131">
        <ele>855.24</ele>
        <time>2020-08-08T07:00:09.000Z</time>
      </trkpt>
      <trkpt lat="46.15686" lon="6.50162">
        <ele>861.11</ele>
        <time>2020-08-08T07:00:18.491Z</time>
      </trkpt>
      <trkpt lat="46.15684" lon="6.50193">
        <ele>862.34</ele>
        <time>2020-08-08T07:00:27.568Z</time>
      </trkpt>
      <trkpt lat="46.15679" lon="6.50224">
        <ele>864.23</ele>
        <time>2020-08-08T07:00:37.000Z</time>
      </trkpt>
      <trkpt lat="46.15666" lon="6.50253">
        <ele>868.02</ele>
        <time>2020-08-08T07:00:47.000Z</time>
      </trkpt>
      <trkpt lat="46.15654" lon="6.50283">
        <ele>871.53</ele>
        <time>2020-08-08T07:00:57.000Z</time>
      </trkpt>
      <trkpt lat="46.15641" lon="6.50323">
        <ele>874.85</ele>
        <time>2020-08-08T07:01:06.554Z</time>
      </trkpt>
      <trkpt lat="46.15611" lon="6.50382">
        <ele>873.73</ele>
        <time>2020-08-08T07:01:16.000Z</time>
      </trkpt>
      <trkpt lat="46.15573" lon="6.50437">
        <ele>872.25</ele>
        <time>2020-08-08T07:01:26.000Z</time>
      </trkpt>
      <trkpt lat="46.15545" lon="6.50471">
        <ele>869.2</ele>
        <time>2020-08-08T07:01:35.136Z</time>
      </trkpt>
      <trkpt lat="46.15513" lon="6.50503">
        <ele>867.06</ele>
        <time>2020-08-08T07:01:44.636Z</time>
      </trkpt>
      <trkpt lat="46.15482" lon="6.50536">
        <ele>866.53</ele>
        <time>2020-08-08T07:01:54.000Z</time>
      </trkpt>
      <trkpt lat="46.15455" lon="6.50571">
        <ele>867.51</ele>
        <time>2020-08-08T07:02:03.550Z</time>
      </trkpt>
      <trkpt lat="46.15442" lon="6.50609">
        <ele>868.32</ele>
        <time>2020-08-08T07:02:12.773Z</time>
      </trkpt>
      <trkpt lat="46.1542" lon="6.50662">
        <ele>872.78</ele>
        <time>2020-08-08T07:02:22.000Z</time>
      </trkpt>
      <trkpt lat="46.15401" lon="6.50698">
        <ele>872.97</ele>
        <time>2020-08-08T07:02:31.608Z</time>
      </trkpt>
      <trkpt lat="46.15378" lon="6.50702">
        <ele>878.54</ele>
        <time>2020-08-08T07:02:41.000Z</time>
      </trkpt>
      <trkpt lat="46.15324" lon="6.50722">
        <ele>880.78</ele>
        <time>2020-08-08T07:02:51.000Z</time>
      </trkpt>
      <trkpt lat="46.15263" lon="6.50784">
        <ele>880.52</ele>
        <time>2020-08-08T07:03:01.000Z</time>
      </trkpt>
      <trkpt lat="46.15218" lon="6.50869">
        <ele>878.39</ele>
        <time>2020-08-08T07:03:11.000Z</time>
      </trkpt>
      <trkpt lat="46.15165" lon="6.50944">
        <ele>872.23</ele>
        <time>2020-08-08T07:03:21.000Z</time>
      </trkpt>
      <trkpt lat="46.15107" lon="6.51026">
        <ele>864.37</ele>
        <time>2020-08-08T07:03:31.000Z</time>
      </trkpt>
      <trkpt lat="46.15082" lon="6.51097">
        <ele>860.17</ele>
        <time>2020-08-08T07:03:41.000Z</time>
      </trkpt>
      <trkpt lat="46.15089" lon="6.51147">
        <ele>856.94</ele>
        <time>2020-08-08T07:03:50.612Z</time>
      </trkpt>
      <trkpt lat="46.15098" lon="6.51183">
        <ele>859.11</ele>
        <time>2020-08-08T07:04:00.000Z</time>
      </trkpt>
      <trkpt lat="46.1511" lon="6.51215">
        <ele>864.98</ele>
        <time>2020-08-08T07:04:09.509Z</time>
      </trkpt>
      <trkpt lat="46.15132" lon="6.51243">
        <ele>866.22</ele>
        <time>2020-08-08T07:04:19.049Z</time>
      </trkpt>
      <trkpt lat="46.1516" lon="6.51253">
        <ele>866.9</ele>
        <time>2020-08-08T07:04:29.000Z</time>
      </trkpt>
      <trkpt lat="46.15185" lon="6.51235">
        <ele>874.04</ele>
        <time>2020-08-08T07:04:38.236Z</time>
      </trkpt>
      <trkpt lat="46.15204" lon="6.51209">
        <ele>879.37</ele>
        <time>2020-08-08T07:04:47.371Z</time>
      </trkpt>
      <trkpt lat="46.15223" lon="6.51183">
        <ele>884.6</ele>
        <time>2020-08-08T07:04:56.692Z</time>
      </trkpt>
      <trkpt lat="46.15244" lon="6.51156">
        <ele>888.4</ele>
        <time>2020-08-08T07:05:05.729Z</time>
      </trkpt>
      <trkpt lat="46.15262" lon="6.51128">
        <ele>890.84</ele>
        <time>2020-08-08T07:05:15.000Z</time>
      </trkpt>
      <trkpt lat="46.15279" lon="6.51096">
        <ele>892.74</ele>
        <time>2020-08-08T07:05:24.372Z</time>
      </trkpt>
      <trkpt lat="46.15301" lon="6.51074">
        <ele>893.04</ele>
        <time>2020-08-08T07:05:33.467Z</time>
      </trkpt>
      <trkpt lat="46.15327" lon="6.51069">
        <ele>894.74</ele>
        <time>2020-08-08T07:05:42.731Z</time>
      </trkpt>
      <trkpt lat="46.15353" lon="6.51073">
        <ele>892.32</ele>
        <time>2020-08-08T07:05:52.000Z</time>
      </trkpt>
      <trkpt lat="46.15381" lon="6.51076">
        <ele>893.81</ele>
        <time>2020-08-08T07:06:01.434Z</time>
      </trkpt>
      <trkpt lat="46.15406" lon="6.51068">
        <ele>896.71</ele>
        <time>2020-08-08T07:06:10.491Z</time>
      </trkpt>
      <trkpt lat="46.15429" lon="6.5105">
        <ele>899.14</ele>
        <time>2020-08-08T07:06:19.734Z</time>
      </trkpt>
      <trkpt lat="46.15445" lon="6.51018">
        <ele>902.63</ele>
        <time>2020-08-08T07:06:29.509Z</time>
      </trkpt>
      <trkpt lat="46.15459" lon="6.50989">
        <ele>906.41</ele>
        <time>2020-08-08T07:06:38.614Z</time>
      </trkpt>
      <trkpt lat="46.15472" lon="6.50958">
        <ele>911.61</ele>
        <time>2020-08-08T07:06:48.000Z</time>
      </trkpt>
      <trkpt lat="46.15496" lon="6.50936">
        <ele>911.17</ele>
        <time>2020-08-08T07:06:57.454Z</time>
      </trkpt>
      <trkpt lat="46.1551" lon="6.50956">
        <ele>909.95</ele>
        <time>2020-08-08T07:07:07.000Z</time>
      </trkpt>
      <trkpt lat="46.15498" lon="6.50992">
        <ele>910.69</ele>
        <time>2020-08-08T07:07:17.000Z</time>
      </trkpt>
      <trkpt lat="46.15491" lon="6.51029">
        <ele>910.15</ele>
        <time>2020-08-08T07:07:26.749Z</time>
      </trkpt>
      <trkpt lat="46.15492" lon="6.51066">
        <ele>911.94</ele>
        <time>2020-08-08T07:07:36.269Z</time>
      </trkpt>
      <trkpt lat="46.15495" lon="6.51099">
        <ele>917.21</ele>
        <time>2020-08-08T07:07:45.533Z</time>
      </trkpt>
      <trkpt lat="46.15498" lon="6.51135">
        <ele>921.1</ele>
        <time>2020-08-08T07:07:54.549Z</time>
      </trkpt>
      <trkpt lat="46.15509" lon="6.51174">
        <ele>921.94</ele>
        <time>2020-08-08T07:08:03.990Z</time>
      </trkpt>
      <trkpt lat="46.15522" lon="6.5121">
        <ele>923.21</ele>
        <time>2020-08-08T07:08:13.000Z</time>
      </trkpt>
      <trkpt lat="46.15533" lon="6.5125">
        <ele>923.98</ele>
        <time>2020-08-08T07:08:22.034Z</time>
      </trkpt>
      <trkpt lat="46.15542" lon="6.51293">
        <ele>927.98</ele>
        <time>2020-08-08T07:08:31.270Z</time>
      </trkpt>
      <trkpt lat="46.1554" lon="6.51329">
        <ele>931</ele>
        <time>2020-08-08T07:08:40.512Z</time>
      </trkpt>
      <trkpt lat="46.15538" lon="6.5137">
        <ele>930.05</ele>
        <time>2020-08-08T07:08:49.569Z</time>
      </trkpt>
      <trkpt lat="46.15542" lon="6.51406">
        <ele>931.23</ele>
        <time>2020-08-08T07:08:59.000Z</time>
      </trkpt>
      <trkpt lat="46.15542" lon="6.51442">
        <ele>935.93</ele>
        <time>2020-08-08T07:09:08.352Z</time>
      </trkpt>
      <trkpt lat="46.15535" lon="6.51477">
        <ele>938.66</ele>
        <time>2020-08-08T07:09:18.000Z</time>
      </trkpt>
      <trkpt lat="46.15532" lon="6.51515">
        <ele>938.92</ele>
        <time>2020-08-08T07:09:27.513Z</time>
      </trkpt>
      <trkpt lat="46.15557" lon="6.51526">
        <ele>938.99</ele>
        <time>2020-08-08T07:09:37.000Z</time>
      </trkpt>
      <trkpt lat="46.1557" lon="6.51485">
        <ele>942.4</ele>
        <time>2020-08-08T07:09:46.250Z</time>
      </trkpt>
      <trkpt lat="46.15587" lon="6.51464">
        <ele>947.46</ele>
        <time>2020-08-08T07:09:56.000Z</time>
      </trkpt>
      <trkpt lat="46.15606" lon="6.51446">
        <ele>949.79</ele>
        <time>2020-08-08T07:10:05.656Z</time>
      </trkpt>
      <trkpt lat="46.15626" lon="6.51434">
        <ele>951.98</ele>
        <time>2020-08-08T07:10:15.292Z</time>
      </trkpt>
      <trkpt lat="46.15645" lon="6.51434">
        <ele>955.3</ele>
        <time>2020-08-08T07:10:25.000Z</time>
      </trkpt>
      <trkpt lat="46.15665" lon="6.51422">
        <ele>959.08</ele>
        <time>2020-08-08T07:10:35.000Z</time>
      </trkpt>
      <trkpt lat="46.15676" lon="6.51406">
        <ele>958.52</ele>
        <time>2020-08-08T07:10:44.711Z</time>
      </trkpt>
      <trkpt lat="46.15684" lon="6.5137">
        <ele>960.09</ele>
        <time>2020-08-08T07:10:54.000Z</time>
      </trkpt>
      <trkpt lat="46.15707" lon="6.51356">
        <ele>958.76</ele>
        <time>2020-08-08T07:11:03.210Z</time>
      </trkpt>
      <trkpt lat="46.1571" lon="6.51386">
        <ele>962.99</ele>
        <time>2020-08-08T07:11:12.388Z</time>
      </trkpt>
      <trkpt lat="46.15713" lon="6.51423">
        <ele>966.06</ele>
        <time>2020-08-08T07:11:22.000Z</time>
      </trkpt>
      <trkpt lat="46.15719" lon="6.51461">
        <ele>967.91</ele>
        <time>2020-08-08T07:11:31.497Z</time>
      </trkpt>
      <trkpt lat="46.15725" lon="6.51493">
        <ele>969.75</ele>
        <time>2020-08-08T07:11:41.000Z</time>
      </trkpt>
      <trkpt lat="46.15724" lon="6.51529">
        <ele>971.61</ele>
        <time>2020-08-08T07:11:50.310Z</time>
      </trkpt>
      <trkpt lat="46.15716" lon="6.5157">
        <ele>970.71</ele>
        <time>2020-08-08T07:12:00.000Z</time>
      </trkpt>
      <trkpt lat="46.15705" lon="6.51612">
        <ele>969.99</ele>
        <time>2020-08-08T07:12:10.000Z</time>
      </trkpt>
      <trkpt lat="46.15696" lon="6.51649">
        <ele>970.71</ele>
        <time>2020-08-08T07:12:20.000Z</time>
      </trkpt>
      <trkpt lat="46.15699" lon="6.5169">
        <ele>972.62</ele>
        <time>2020-08-08T07:12:29.714Z</time>
      </trkpt>
      <trkpt lat="46.15701" lon="6.51728">
        <ele>975.43</ele>
        <time>2020-08-08T07:12:39.708Z</time>
      </trkpt>
      <trkpt lat="46.15691" lon="6.51756">
        <ele>976.06</ele>
        <time>2020-08-08T07:12:49.000Z</time>
      </trkpt>
      <trkpt lat="46.15674" lon="6.51784">
        <ele>977.71</ele>
        <time>2020-08-08T07:12:58.348Z</time>
      </trkpt>
      <trkpt lat="46.15665" lon="6.51811">
        <ele>981.16</ele>
        <time>2020-08-08T07:13:08.000Z</time>
      </trkpt>
      <trkpt lat="46.15665" lon="6.51839">
        <ele>987.16</ele>
        <time>2020-08-08T07:13:17.311Z</time>
      </trkpt>
      <trkpt lat="46.15663" lon="6.51871">
        <ele>989.57</ele>
        <time>2020-08-08T07:13:27.000Z</time>
      </trkpt>
      <trkpt lat="46.15662" lon="6.51908">
        <ele>993.74</ele>
        <time>2020-08-08T07:13:37.000Z</time>
      </trkpt>
      <trkpt lat="46.15657" lon="6.51943">
        <ele>996.42</ele>
        <time>2020-08-08T07:13:47.000Z</time>
      </trkpt>
      <trkpt lat="46.15647" lon="6.51973">
        <ele>998.99</ele>
        <time>2020-08-08T07:13:56.448Z</time>
      </trkpt>
      <trkpt lat="46.15637" lon="6.52002">
        <ele>998.94</ele>
        <time>2020-08-08T07:14:06.000Z</time>
      </trkpt>
      <trkpt lat="46.15627" lon="6.5203">
        <ele>999.91</ele>
        <time>2020-08-08T07:14:15.332Z</time>
      </trkpt>
      <trkpt lat="46.1562" lon="6.52063">
        <ele>999.73</ele>
        <time>2020-08-08T07:14:25.000Z</time>
      </trkpt>
      <trkpt lat="46.15616" lon="6.52092">
        <ele>1001.19</ele>
        <time>2020-08-08T07:14:34.571Z</time>
      </trkpt>
      <trkpt lat="46.15613" lon="6.52114">
        <ele>1007.18</ele>
        <time>2020-08-08T07:14:43.706Z</time>
      </trkpt>
      <trkpt lat="46.15609" lon="6.52147">
        <ele>1015.35</ele>
        <time>2020-08-08T07:14:54.000Z</time>
      </trkpt>
      <trkpt lat="46.15604" lon="6.52182">
        <ele>1020.26</ele>
        <time>2020-08-08T07:15:04.000Z</time>
      </trkpt>
      <trkpt lat="46.15597" lon="6.52214">
        <ele>1025.64</ele>
        <time>2020-08-08T07:15:14.000Z</time>
      </trkpt>
      <trkpt lat="46.15591" lon="6.52241">
        <ele>1030.21</ele>
        <time>2020-08-08T07:15:23.752Z</time>
      </trkpt>
      <trkpt lat="46.15591" lon="6.5227">
        <ele>1034.37</ele>
        <time>2020-08-08T07:15:33.000Z</time>
      </trkpt>
      <trkpt lat="46.15589" lon="6.52303">
        <ele>1036.9</ele>
        <time>2020-08-08T07:15:42.196Z</time>
      </trkpt>
      <trkpt lat="46.15584" lon="6.52341">
        <ele>1037.52</ele>
        <time>2020-08-08T07:15:52.000Z</time>
      </trkpt>
      <trkpt lat="46.15577" lon="6.52384">
        <ele>1037.11</ele>
        <time>2020-08-08T07:16:02.000Z</time>
      </trkpt>
      <trkpt lat="46.15574" lon="6.52421">
        <ele>1035.28</ele>
        <time>2020-08-08T07:16:12.000Z</time>
      </trkpt>
      <trkpt lat="46.15576" lon="6.52457">
        <ele>1033.36</ele>
        <time>2020-08-08T07:16:21.728Z</time>
      </trkpt>
      <trkpt lat="46.15579" lon="6.52494">
        <ele>1030.45</ele>
        <time>2020-08-08T07:16:31.172Z</time>
      </trkpt>
      <trkpt lat="46.15583" lon="6.52528">
        <ele>1029.92</ele>
        <time>2020-08-08T07:16:40.633Z</time>
      </trkpt>
      <trkpt lat="46.15589" lon="6.5256">
        <ele>1028.65</ele>
        <time>2020-08-08T07:16:50.000Z</time>
      </trkpt>
      <trkpt lat="46.15602" lon="6.5259">
        <ele>1032.25</ele>
        <time>2020-08-08T07:16:59.429Z</time>
      </trkpt>
      <trkpt lat="46.15613" lon="6.52619">
        <ele>1033.81</ele>
        <time>2020-08-08T07:17:09.000Z</time>
      </trkpt>
      <trkpt lat="46.15632" lon="6.5264">
        <ele>1034.56</ele>
        <time>2020-08-08T07:17:19.000Z</time>
      </trkpt>
      <trkpt lat="46.15645" lon="6.52616">
        <ele>1036.77</ele>
        <time>2020-08-08T07:17:29.000Z</time>
      </trkpt>
      <trkpt lat="46.15639" lon="6.52577">
        <ele>1038.72</ele>
        <time>2020-08-08T07:17:38.507Z</time>
      </trkpt>
      <trkpt lat="46.15643" lon="6.52545">
        <ele>1042.28</ele>
        <time>2020-08-08T07:17:47.713Z</time>
      </trkpt>
      <trkpt lat="46.15657" lon="6.52516">
        <ele>1047.29</ele>
        <time>2020-08-08T07:17:57.000Z</time>
      </trkpt>
      <trkpt lat="46.15674" lon="6.52492">
        <ele>1050.07</ele>
        <time>2020-08-08T07:18:07.000Z</time>
      </trkpt>
      <trkpt lat="46.15692" lon="6.52472">
        <ele>1053.9</ele>
        <time>2020-08-08T07:18:17.000Z</time>
      </trkpt>
      <trkpt lat="46.1571" lon="6.52452">
        <ele>1055.03</ele>
        <time>2020-08-08T07:18:26.036Z</time>
      </trkpt>
      <trkpt lat="46.15728" lon="6.52432">
        <ele>1057.24</ele>
        <time>2020-08-08T07:18:35.515Z</time>
      </trkpt>
      <trkpt lat="46.15745" lon="6.52414">
        <ele>1059.31</ele>
        <time>2020-08-08T07:18:44.652Z</time>
      </trkpt>
      <trkpt lat="46.15763" lon="6.52397">
        <ele>1060.91</ele>
        <time>2020-08-08T07:18:54.000Z</time>
      </trkpt>
      <trkpt lat="46.15784" lon="6.52378">
        <ele>1061.65</ele>
        <time>2020-08-08T07:19:04.000Z</time>
      </trkpt>
      <trkpt lat="46.15804" lon="6.52363">
        <ele>1060.58</ele>
        <time>2020-08-08T07:19:13.229Z</time>
      </trkpt>
      <trkpt lat="46.15825" lon="6.52349">
        <ele>1062.22</ele>
        <time>2020-08-08T07:19:22.755Z</time>
      </trkpt>
      <trkpt lat="46.15845" lon="6.52336">
        <ele>1063.75</ele>
        <time>2020-08-08T07:19:32.000Z</time>
      </trkpt>
      <trkpt lat="46.15864" lon="6.52324">
        <ele>1065.83</ele>
        <time>2020-08-08T07:19:41.268Z</time>
      </trkpt>
      <trkpt lat="46.15885" lon="6.52313">
        <ele>1067.11</ele>
        <time>2020-08-08T07:19:50.468Z</time>
      </trkpt>
      <trkpt lat="46.15905" lon="6.52301">
        <ele>1069.81</ele>
        <time>2020-08-08T07:20:00.000Z</time>
      </trkpt>
      <trkpt lat="46.15925" lon="6.52295">
        <ele>1073.38</ele>
        <time>2020-08-08T07:20:09.594Z</time>
      </trkpt>
      <trkpt lat="46.15932" lon="6.52315">
        <ele>1076.85</ele>
        <time>2020-08-08T07:20:19.000Z</time>
      </trkpt>
      <trkpt lat="46.15917" lon="6.52331">
        <ele>1078.02</ele>
        <time>2020-08-08T07:20:29.000Z</time>
      </trkpt>
      <trkpt lat="46.15895" lon="6.52352">
        <ele>1077.94</ele>
        <time>2020-08-08T07:20:38.473Z</time>
      </trkpt>
      <trkpt lat="46.15877" lon="6.52381">
        <ele>1077.67</ele>
        <time>2020-08-08T07:20:48.000Z</time>
      </trkpt>
      <trkpt lat="46.15864" lon="6.52411">
        <ele>1077.93</ele>
        <time>2020-08-08T07:20:57.452Z</time>
      </trkpt>
      <trkpt lat="46.15854" lon="6.52445">
        <ele>1078.77</ele>
        <time>2020-08-08T07:21:07.154Z</time>
      </trkpt>
      <trkpt lat="46.15846" lon="6.52476">
        <ele>1083.29</ele>
        <time>2020-08-08T07:21:16.255Z</time>
      </trkpt>
      <trkpt lat="46.15839" lon="6.52507">
        <ele>1087.48</ele>
        <time>2020-08-08T07:21:25.531Z</time>
      </trkpt>
      <trkpt lat="46.15833" lon="6.52537">
        <ele>1092.72</ele>
        <time>2020-08-08T07:21:34.670Z</time>
      </trkpt>
      <trkpt lat="46.15825" lon="6.52564">
        <ele>1097.46</ele>
        <time>2020-08-08T07:21:44.000Z</time>
      </trkpt>
      <trkpt lat="46.15825" lon="6.52591">
        <ele>1100.19</ele>
        <time>2020-08-08T07:21:53.551Z</time>
      </trkpt>
      <trkpt lat="46.1584" lon="6.52601">
        <ele>1101.62</ele>
        <time>2020-08-08T07:22:02.689Z</time>
      </trkpt>
      <trkpt lat="46.15849" lon="6.52581">
        <ele>1106.52</ele>
        <time>2020-08-08T07:22:12.252Z</time>
      </trkpt>
      <trkpt lat="46.15866" lon="6.52559">
        <ele>1110.26</ele>
        <time>2020-08-08T07:22:22.000Z</time>
      </trkpt>
      <trkpt lat="46.15886" lon="6.52541">
        <ele>1109.93</ele>
        <time>2020-08-08T07:22:31.388Z</time>
      </trkpt>
      <trkpt lat="46.15905" lon="6.52528">
        <ele>1108.86</ele>
        <time>2020-08-08T07:22:41.000Z</time>
      </trkpt>
      <trkpt lat="46.15929" lon="6.52512">
        <ele>1106.5</ele>
        <time>2020-08-08T07:22:51.000Z</time>
      </trkpt>
      <trkpt lat="46.1595" lon="6.52498">
        <ele>1106.6</ele>
        <time>2020-08-08T07:23:00.255Z</time>
      </trkpt>
      <trkpt lat="46.15968" lon="6.52484">
        <ele>1108.43</ele>
        <time>2020-08-08T07:23:10.000Z</time>
      </trkpt>
      <trkpt lat="46.15987" lon="6.52469">
        <ele>1113.91</ele>
        <time>2020-08-08T07:23:20.000Z</time>
      </trkpt>
      <trkpt lat="46.16001" lon="6.52455">
        <ele>1120.58</ele>
        <time>2020-08-08T07:23:29.548Z</time>
      </trkpt>
      <trkpt lat="46.16015" lon="6.52439">
        <ele>1127.04</ele>
        <time>2020-08-08T07:23:39.000Z</time>
      </trkpt>
      <trkpt lat="46.16025" lon="6.52418">
        <ele>1134.93</ele>
        <time>2020-08-08T07:23:49.000Z</time>
      </trkpt>
      <trkpt lat="46.16028" lon="6.52398">
        <ele>1140.49</ele>
        <time>2020-08-08T07:23:58.456Z</time>
      </trkpt>
      <trkpt lat="46.16032" lon="6.52382">
        <ele>1146.07</ele>
        <time>2020-08-08T07:24:07.693Z</time>
      </trkpt>
      <trkpt lat="46.16026" lon="6.5235">
        <ele>1150.92</ele>
        <time>2020-08-08T07:24:17.000Z</time>
      </trkpt>
      <trkpt lat="46.16024" lon="6.5233">
        <ele>1155.92</ele>
        <time>2020-08-08T07:24:26.288Z</time>
      </trkpt>
      <trkpt lat="46.16027" lon="6.52295">
        <ele>1162.02</ele>
        <time>2020-08-08T07:24:35.714Z</time>
      </trkpt>
      <trkpt lat="46.16043" lon="6.52276">
        <ele>1156.57</ele>
        <time>2020-08-08T07:24:45.149Z</time>
      </trkpt>
      <trkpt lat="46.1604" lon="6.5229">
        <ele>1153.44</ele>
        <time>2020-08-08T07:24:54.268Z</time>
      </trkpt>
      <trkpt lat="46.16048" lon="6.52307">
        <ele>1153.51</ele>
        <time>2020-08-08T07:25:03.469Z</time>
      </trkpt>
      <trkpt lat="46.1606" lon="6.52338">
        <ele>1151.6</ele>
        <time>2020-08-08T07:25:12.647Z</time>
      </trkpt>
      <trkpt lat="46.16064" lon="6.52369">
        <ele>1152.97</ele>
        <time>2020-08-08T07:25:22.448Z</time>
      </trkpt>
      <trkpt lat="46.16066" lon="6.524">
        <ele>1154.41</ele>
        <time>2020-08-08T07:25:32.000Z</time>
      </trkpt>
      <trkpt lat="46.16067" lon="6.52434">
        <ele>1154.13</ele>
        <time>2020-08-08T07:25:41.595Z</time>
      </trkpt>
      <trkpt lat="46.16064" lon="6.52466">
        <ele>1156.61</ele>
        <time>2020-08-08T07:25:51.000Z</time>
      </trkpt>
      <trkpt lat="46.16058" lon="6.52496">
        <ele>1157.95</ele>
        <time>2020-08-08T07:26:00.534Z</time>
      </trkpt>
      <trkpt lat="46.16055" lon="6.52527">
        <ele>1160</ele>
        <time>2020-08-08T07:26:10.000Z</time>
      </trkpt>
      <trkpt lat="46.1605" lon="6.52557">
        <ele>1161.71</ele>
        <time>2020-08-08T07:26:20.000Z</time>
      </trkpt>
      <trkpt lat="46.16047" lon="6.52589">
        <ele>1161.24</ele>
        <time>2020-08-08T07:26:30.000Z</time>
      </trkpt>
      <trkpt lat="46.16036" lon="6.52621">
        <ele>1161.12</ele>
        <time>2020-08-08T07:26:39.450Z</time>
      </trkpt>
      <trkpt lat="46.16027" lon="6.52656">
        <ele>1160.93</ele>
        <time>2020-08-08T07:26:49.311Z</time>
      </trkpt>
      <trkpt lat="46.16016" lon="6.52688">
        <ele>1159.36</ele>
        <time>2020-08-08T07:26:59.000Z</time>
      </trkpt>
      <trkpt lat="46.1601" lon="6.52716">
        <ele>1158.37</ele>
        <time>2020-08-08T07:27:09.000Z</time>
      </trkpt>
      <trkpt lat="46.16005" lon="6.52747">
        <ele>1159.54</ele>
        <time>2020-08-08T07:27:19.000Z</time>
      </trkpt>
      <trkpt lat="46.15997" lon="6.52775">
        <ele>1164.47</ele>
        <time>2020-08-08T07:27:29.000Z</time>
      </trkpt>
      <trkpt lat="46.15988" lon="6.52803">
        <ele>1170.28</ele>
        <time>2020-08-08T07:27:38.293Z</time>
      </trkpt>
      <trkpt lat="46.15976" lon="6.5283">
        <ele>1181.31</ele>
        <time>2020-08-08T07:27:48.000Z</time>
      </trkpt>
      <trkpt lat="46.15962" lon="6.52849">
        <ele>1188.37</ele>
        <time>2020-08-08T07:27:57.628Z</time>
      </trkpt>
      <trkpt lat="46.1595" lon="6.52869">
        <ele>1194.49</ele>
        <time>2020-08-08T07:28:07.000Z</time>
      </trkpt>
      <trkpt lat="46.15937" lon="6.52892">
        <ele>1197.96</ele>
        <time>2020-08-08T07:28:16.408Z</time>
      </trkpt>
      <trkpt lat="46.15926" lon="6.52916">
        <ele>1200.8</ele>
        <time>2020-08-08T07:28:25.448Z</time>
      </trkpt>
      <trkpt lat="46.15919" lon="6.52944">
        <ele>1202.71</ele>
        <time>2020-08-08T07:28:34.469Z</time>
      </trkpt>
      <trkpt lat="46.15919" lon="6.52977">
        <ele>1201.26</ele>
        <time>2020-08-08T07:28:44.000Z</time>
      </trkpt>
      <trkpt lat="46.15922" lon="6.5301">
        <ele>1199.92</ele>
        <time>2020-08-08T07:28:53.575Z</time>
      </trkpt>
      <trkpt lat="46.1593" lon="6.53037">
        <ele>1201.77</ele>
        <time>2020-08-08T07:29:03.000Z</time>
      </trkpt>
      <trkpt lat="46.15945" lon="6.5306">
        <ele>1203.32</ele>
        <time>2020-08-08T07:29:12.556Z</time>
      </trkpt>
      <trkpt lat="46.1596" lon="6.53084">
        <ele>1202.28</ele>
        <time>2020-08-08T07:29:22.000Z</time>
      </trkpt>
      <trkpt lat="46.15972" lon="6.5311">
        <ele>1201.89</ele>
        <time>2020-08-08T07:29:31.415Z</time>
      </trkpt>
      <trkpt lat="46.15981" lon="6.53134">
        <ele>1204.68</ele>
        <time>2020-08-08T07:29:40.655Z</time>
      </trkpt>
      <trkpt lat="46.15988" lon="6.53162">
        <ele>1208.97</ele>
        <time>2020-08-08T07:29:50.000Z</time>
      </trkpt>
      <trkpt lat="46.15973" lon="6.53185">
        <ele>1210.29</ele>
        <time>2020-08-08T07:29:59.189Z</time>
      </trkpt>
      <trkpt lat="46.15968" lon="6.53199">
        <ele>1211.99</ele>
        <time>2020-08-08T07:30:08.330Z</time>
      </trkpt>
      <trkpt lat="46.15956" lon="6.53211">
        <ele>1214.06</ele>
        <time>2020-08-08T07:30:18.436Z</time>
      </trkpt>
      <trkpt lat="46.15937" lon="6.53223">
        <ele>1213.1</ele>
        <time>2020-08-08T07:30:28.000Z</time>
      </trkpt>
      <trkpt lat="46.1591" lon="6.53244">
        <ele>1212.23</ele>
        <time>2020-08-08T07:30:37.356Z</time>
      </trkpt>
      <trkpt lat="46.15894" lon="6.53265">
        <ele>1212.36</ele>
        <time>2020-08-08T07:30:47.000Z</time>
      </trkpt>
      <trkpt lat="46.15888" lon="6.53289">
        <ele>1217.98</ele>
        <time>2020-08-08T07:30:56.652Z</time>
      </trkpt>
      <trkpt lat="46.15894" lon="6.53311">
        <ele>1222.91</ele>
        <time>2020-08-08T07:31:06.430Z</time>
      </trkpt>
      <trkpt lat="46.15904" lon="6.53336">
        <ele>1227.06</ele>
        <time>2020-08-08T07:31:16.506Z</time>
      </trkpt>
      <trkpt lat="46.15913" lon="6.53363">
        <ele>1231.05</ele>
        <time>2020-08-08T07:31:26.000Z</time>
      </trkpt>
      <trkpt lat="46.15923" lon="6.5339">
        <ele>1235.48</ele>
        <time>2020-08-08T07:31:36.000Z</time>
      </trkpt>
      <trkpt lat="46.15929" lon="6.53418">
        <ele>1241.41</ele>
        <time>2020-08-08T07:31:46.000Z</time>
      </trkpt>
      <trkpt lat="46.15939" lon="6.5345">
        <ele>1244.91</ele>
        <time>2020-08-08T07:31:55.709Z</time>
      </trkpt>
      <trkpt lat="46.15947" lon="6.53479">
        <ele>1248.02</ele>
        <time>2020-08-08T07:32:05.000Z</time>
      </trkpt>
      <trkpt lat="46.15957" lon="6.53506">
        <ele>1249.82</ele>
        <time>2020-08-08T07:32:14.590Z</time>
      </trkpt>
      <trkpt lat="46.15969" lon="6.53539">
        <ele>1248.62</ele>
        <time>2020-08-08T07:32:25.000Z</time>
      </trkpt>
      <trkpt lat="46.15981" lon="6.53573">
        <ele>1249.98</ele>
        <time>2020-08-08T07:32:34.477Z</time>
      </trkpt>
      <trkpt lat="46.1598" lon="6.53602">
        <ele>1256.58</ele>
        <time>2020-08-08T07:32:44.000Z</time>
      </trkpt>
      <trkpt lat="46.15979" lon="6.53627">
        <ele>1259.16</ele>
        <time>2020-08-08T07:32:54.000Z</time>
      </trkpt>
      <trkpt lat="46.15989" lon="6.53657">
        <ele>1261.29</ele>
        <time>2020-08-08T07:33:03.531Z</time>
      </trkpt>
      <trkpt lat="46.15992" lon="6.5369">
        <ele>1260.61</ele>
        <time>2020-08-08T07:33:13.000Z</time>
      </trkpt>
      <trkpt lat="46.15998" lon="6.53721">
        <ele>1263.97</ele>
        <time>2020-08-08T07:33:23.000Z</time>
      </trkpt>
      <trkpt lat="46.16011" lon="6.53753">
        <ele>1267.53</ele>
        <time>2020-08-08T07:33:33.000Z</time>
      </trkpt>
      <trkpt lat="46.1602" lon="6.53781">
        <ele>1271.11</ele>
        <time>2020-08-08T07:33:43.000Z</time>
      </trkpt>
      <trkpt lat="46.16002" lon="6.53802">
        <ele>1274.79</ele>
        <time>2020-08-08T07:33:53.000Z</time>
      </trkpt>
      <trkpt lat="46.15998" lon="6.53836">
        <ele>1276.96</ele>
        <time>2020-08-08T07:34:02.527Z</time>
      </trkpt>
      <trkpt lat="46.15994" lon="6.53867">
        <ele>1279.78</ele>
        <time>2020-08-08T07:34:11.668Z</time>
      </trkpt>
      <trkpt lat="46.15989" lon="6.53893">
        <ele>1281.21</ele>
        <time>2020-08-08T07:34:21.000Z</time>
      </trkpt>
      <trkpt lat="46.15979" lon="6.5392">
        <ele>1285.74</ele>
        <time>2020-08-08T07:34:31.000Z</time>
      </trkpt>
      <trkpt lat="46.15975" lon="6.5395">
        <ele>1289.11</ele>
        <time>2020-08-08T07:34:40.616Z</time>
      </trkpt>
      <trkpt lat="46.15969" lon="6.53982">
        <ele>1293.33</ele>
        <time>2020-08-08T07:34:50.000Z</time>
      </trkpt>
      <trkpt lat="46.15961" lon="6.54013">
        <ele>1297.38</ele>
        <time>2020-08-08T07:34:59.695Z</time>
      </trkpt>
      <trkpt lat="46.15848" lon="6.54254">
        <ele>1295.99</ele>
        <time>2020-08-08T07:37:08.000Z</time>
      </trkpt>
      <trkpt lat="46.15852" lon="6.54422">
        <ele>1300.36</ele>
        <time>2020-08-08T07:37:18.000Z</time>
      </trkpt>
      <trkpt lat="46.15852" lon="6.54449">
        <ele>1304.58</ele>
        <time>2020-08-08T07:37:28.000Z</time>
      </trkpt>
      <trkpt lat="46.15859" lon="6.54471">
        <ele>1314.44</ele>
        <time>2020-08-08T07:37:37.389Z</time>
      </trkpt>
      <trkpt lat="46.15871" lon="6.54484">
        <ele>1326.92</ele>
        <time>2020-08-08T07:37:47.000Z</time>
      </trkpt>
      <trkpt lat="46.15886" lon="6.54501">
        <ele>1332.72</ele>
        <time>2020-08-08T07:37:57.000Z</time>
      </trkpt>
      <trkpt lat="46.15899" lon="6.54523">
        <ele>1337.65</ele>
        <time>2020-08-08T07:38:07.000Z</time>
      </trkpt>
      <trkpt lat="46.1591" lon="6.54549">
        <ele>1341.2</ele>
        <time>2020-08-08T07:38:16.576Z</time>
      </trkpt>
      <trkpt lat="46.15916" lon="6.54576">
        <ele>1345.27</ele>
        <time>2020-08-08T07:38:26.000Z</time>
      </trkpt>
      <trkpt lat="46.15923" lon="6.54601">
        <ele>1350.52</ele>
        <time>2020-08-08T07:38:36.000Z</time>
      </trkpt>
      <trkpt lat="46.15932" lon="6.54627">
        <ele>1354.45</ele>
        <time>2020-08-08T07:38:46.000Z</time>
      </trkpt>
      <trkpt lat="46.15945" lon="6.5465">
        <ele>1355.95</ele>
        <time>2020-08-08T07:38:55.133Z</time>
      </trkpt>
      <trkpt lat="46.1596" lon="6.54672">
        <ele>1357.09</ele>
        <time>2020-08-08T07:39:04.314Z</time>
      </trkpt>
      <trkpt lat="46.15972" lon="6.54695">
        <ele>1359.2</ele>
        <time>2020-08-08T07:39:13.712Z</time>
      </trkpt>
      <trkpt lat="46.15977" lon="6.54721">
        <ele>1361.66</ele>
        <time>2020-08-08T07:39:23.000Z</time>
      </trkpt>
      <trkpt lat="46.15982" lon="6.54757">
        <ele>1366.56</ele>
        <time>2020-08-08T07:39:33.000Z</time>
      </trkpt>
      <trkpt lat="46.15991" lon="6.5479">
        <ele>1374.25</ele>
        <time>2020-08-08T07:39:43.000Z</time>
      </trkpt>
      <trkpt lat="46.15988" lon="6.54829">
        <ele>1377.05</ele>
        <time>2020-08-08T07:39:52.594Z</time>
      </trkpt>
      <trkpt lat="46.15981" lon="6.54869">
        <ele>1378.58</ele>
        <time>2020-08-08T07:40:02.346Z</time>
      </trkpt>
      <trkpt lat="46.15978" lon="6.54907">
        <ele>1376.34</ele>
        <time>2020-08-08T07:40:11.449Z</time>
      </trkpt>
      <trkpt lat="46.15973" lon="6.54944">
        <ele>1376.94</ele>
        <time>2020-08-08T07:40:21.000Z</time>
      </trkpt>
      <trkpt lat="46.15988" lon="6.54985">
        <ele>1376.66</ele>
        <time>2020-08-08T07:40:31.000Z</time>
      </trkpt>
      <trkpt lat="46.16015" lon="6.55027">
        <ele>1374.52</ele>
        <time>2020-08-08T07:40:41.000Z</time>
      </trkpt>
      <trkpt lat="46.16031" lon="6.55087">
        <ele>1374.89</ele>
        <time>2020-08-08T07:40:51.000Z</time>
      </trkpt>
      <trkpt lat="46.1606" lon="6.55139">
        <ele>1371.34</ele>
        <time>2020-08-08T07:41:00.763Z</time>
      </trkpt>
      <trkpt lat="46.161" lon="6.55151">
        <ele>1370.51</ele>
        <time>2020-08-08T07:41:10.000Z</time>
      </trkpt>
      <trkpt lat="46.16147" lon="6.55135">
        <ele>1375.17</ele>
        <time>2020-08-08T07:41:20.000Z</time>
      </trkpt>
      <trkpt lat="46.16191" lon="6.55169">
        <ele>1374.68</ele>
        <time>2020-08-08T07:41:30.000Z</time>
      </trkpt>
      <trkpt lat="46.16224" lon="6.55196">
        <ele>1374.9</ele>
        <time>2020-08-08T07:41:40.000Z</time>
      </trkpt>
      <trkpt lat="46.1626" lon="6.55235">
        <ele>1376.96</ele>
        <time>2020-08-08T07:41:49.571Z</time>
      </trkpt>
      <trkpt lat="46.16293" lon="6.55253">
        <ele>1379.3</ele>
        <time>2020-08-08T07:41:58.749Z</time>
      </trkpt>
      <trkpt lat="46.16333" lon="6.55245">
        <ele>1376.78</ele>
        <time>2020-08-08T07:42:08.510Z</time>
      </trkpt>
      <trkpt lat="46.16373" lon="6.55237">
        <ele>1376.77</ele>
        <time>2020-08-08T07:42:17.946Z</time>
      </trkpt>
      <trkpt lat="46.16407" lon="6.55241">
        <ele>1378.9</ele>
        <time>2020-08-08T07:42:26.968Z</time>
      </trkpt>
      <trkpt lat="46.1644" lon="6.55247">
        <ele>1381.04</ele>
        <time>2020-08-08T07:42:36.493Z</time>
      </trkpt>
      <trkpt lat="46.16478" lon="6.55253">
        <ele>1383.04</ele>
        <time>2020-08-08T07:42:46.000Z</time>
      </trkpt>
      <trkpt lat="46.16509" lon="6.55275">
        <ele>1383.08</ele>
        <time>2020-08-08T07:42:55.489Z</time>
      </trkpt>
      <trkpt lat="46.16535" lon="6.55301">
        <ele>1386.82</ele>
        <time>2020-08-08T07:43:05.000Z</time>
      </trkpt>
      <trkpt lat="46.16562" lon="6.5533">
        <ele>1390.46</ele>
        <time>2020-08-08T07:43:14.753Z</time>
      </trkpt>
      <trkpt lat="46.16587" lon="6.55356">
        <ele>1394.56</ele>
        <time>2020-08-08T07:43:24.000Z</time>
      </trkpt>
      <trkpt lat="46.16615" lon="6.55387">
        <ele>1395.72</ele>
        <time>2020-08-08T07:43:34.000Z</time>
      </trkpt>
      <trkpt lat="46.16638" lon="6.55418">
        <ele>1398.42</ele>
        <time>2020-08-08T07:43:43.232Z</time>
      </trkpt>
      <trkpt lat="46.1666" lon="6.55449">
        <ele>1400.9</ele>
        <time>2020-08-08T07:43:52.451Z</time>
      </trkpt>
      <trkpt lat="46.16681" lon="6.55481">
        <ele>1402.59</ele>
        <time>2020-08-08T07:44:01.709Z</time>
      </trkpt>
      <trkpt lat="46.16702" lon="6.55515">
        <ele>1404.32</ele>
        <time>2020-08-08T07:44:11.000Z</time>
      </trkpt>
      <trkpt lat="46.16721" lon="6.55552">
        <ele>1405.97</ele>
        <time>2020-08-08T07:44:20.130Z</time>
      </trkpt>
      <trkpt lat="46.16739" lon="6.55592">
        <ele>1407.47</ele>
        <time>2020-08-08T07:44:30.000Z</time>
      </trkpt>
      <trkpt lat="46.16757" lon="6.55631">
        <ele>1408.59</ele>
        <time>2020-08-08T07:44:39.654Z</time>
      </trkpt>
      <trkpt lat="46.16772" lon="6.55665">
        <ele>1411.84</ele>
        <time>2020-08-08T07:44:49.000Z</time>
      </trkpt>
      <trkpt lat="46.16791" lon="6.55702">
        <ele>1413.89</ele>
        <time>2020-08-08T07:44:59.000Z</time>
      </trkpt>
      <trkpt lat="46.1681" lon="6.55742">
        <ele>1414.3</ele>
        <time>2020-08-08T07:45:09.000Z</time>
      </trkpt>
      <trkpt lat="46.16826" lon="6.55779">
        <ele>1417.95</ele>
        <time>2020-08-08T07:45:18.390Z</time>
      </trkpt>
      <trkpt lat="46.16836" lon="6.55819">
        <ele>1421.44</ele>
        <time>2020-08-08T07:45:28.000Z</time>
      </trkpt>
      <trkpt lat="46.16843" lon="6.55863">
        <ele>1425.43</ele>
        <time>2020-08-08T07:45:37.734Z</time>
      </trkpt>
      <trkpt lat="46.16853" lon="6.55908">
        <ele>1429.64</ele>
        <time>2020-08-08T07:45:48.000Z</time>
      </trkpt>
      <trkpt lat="46.16865" lon="6.5595">
        <ele>1432.1</ele>
        <time>2020-08-08T07:45:58.000Z</time>
      </trkpt>
      <trkpt lat="46.16874" lon="6.55995">
        <ele>1434.91</ele>
        <time>2020-08-08T07:46:07.192Z</time>
      </trkpt>
      <trkpt lat="46.16871" lon="6.56038">
        <ele>1438.17</ele>
        <time>2020-08-08T07:46:17.000Z</time>
      </trkpt>
      <trkpt lat="46.16861" lon="6.56079">
        <ele>1438.93</ele>
        <time>2020-08-08T07:46:27.000Z</time>
      </trkpt>
      <trkpt lat="46.16846" lon="6.56118">
        <ele>1440</ele>
        <time>2020-08-08T07:46:36.026Z</time>
      </trkpt>
      <trkpt lat="46.16832" lon="6.56159">
        <ele>1439.76</ele>
        <time>2020-08-08T07:46:45.188Z</time>
      </trkpt>
      <trkpt lat="46.16817" lon="6.56198">
        <ele>1439.99</ele>
        <time>2020-08-08T07:46:54.516Z</time>
      </trkpt>
      <trkpt lat="46.168" lon="6.56232">
        <ele>1441.77</ele>
        <time>2020-08-08T07:47:03.688Z</time>
      </trkpt>
      <trkpt lat="46.16776" lon="6.56257">
        <ele>1442.69</ele>
        <time>2020-08-08T07:47:12.750Z</time>
      </trkpt>
      <trkpt lat="46.1675" lon="6.56274">
        <ele>1444.86</ele>
        <time>2020-08-08T07:47:22.000Z</time>
      </trkpt>
      <trkpt lat="46.16723" lon="6.56301">
        <ele>1447.51</ele>
        <time>2020-08-08T07:47:32.000Z</time>
      </trkpt>
      <trkpt lat="46.16702" lon="6.56335">
        <ele>1449.79</ele>
        <time>2020-08-08T07:47:41.514Z</time>
      </trkpt>
      <trkpt lat="46.16684" lon="6.56368">
        <ele>1452.65</ele>
        <time>2020-08-08T07:47:51.000Z</time>
      </trkpt>
      <trkpt lat="46.16664" lon="6.56404">
        <ele>1454.16</ele>
        <time>2020-08-08T07:48:01.000Z</time>
      </trkpt>
      <trkpt lat="46.16641" lon="6.5643">
        <ele>1455.44</ele>
        <time>2020-08-08T07:48:10.230Z</time>
      </trkpt>
      <trkpt lat="46.16612" lon="6.56442">
        <ele>1456.37</ele>
        <time>2020-08-08T07:48:19.549Z</time>
      </trkpt>
      <trkpt lat="46.16587" lon="6.56446">
        <ele>1459.18</ele>
        <time>2020-08-08T07:48:28.749Z</time>
      </trkpt>
      <trkpt lat="46.16563" lon="6.56461">
        <ele>1461.78</ele>
        <time>2020-08-08T07:48:38.000Z</time>
      </trkpt>
      <trkpt lat="46.16536" lon="6.56483">
        <ele>1462.09</ele>
        <time>2020-08-08T07:48:47.328Z</time>
      </trkpt>
      <trkpt lat="46.16511" lon="6.56509">
        <ele>1463.89</ele>
        <time>2020-08-08T07:48:57.000Z</time>
      </trkpt>
      <trkpt lat="46.16494" lon="6.56545">
        <ele>1466.66</ele>
        <time>2020-08-08T07:49:06.546Z</time>
      </trkpt>
      <trkpt lat="46.16482" lon="6.56582">
        <ele>1467.56</ele>
        <time>2020-08-08T07:49:16.000Z</time>
      </trkpt>
      <trkpt lat="46.16469" lon="6.56621">
        <ele>1467.54</ele>
        <time>2020-08-08T07:49:26.000Z</time>
      </trkpt>
      <trkpt lat="46.16456" lon="6.5666">
        <ele>1468.86</ele>
        <time>2020-08-08T07:49:35.471Z</time>
      </trkpt>
      <trkpt lat="46.16441" lon="6.56695">
        <ele>1471.63</ele>
        <time>2020-08-08T07:49:44.494Z</time>
      </trkpt>
      <trkpt lat="46.16418" lon="6.56729">
        <ele>1475.85</ele>
        <time>2020-08-08T07:49:54.208Z</time>
      </trkpt>
      <trkpt lat="46.16398" lon="6.56761">
        <ele>1480.05</ele>
        <time>2020-08-08T07:50:03.350Z</time>
      </trkpt>
      <trkpt lat="46.16377" lon="6.56795">
        <ele>1482.77</ele>
        <time>2020-08-08T07:50:13.000Z</time>
      </trkpt>
      <trkpt lat="46.16357" lon="6.56832">
        <ele>1485.87</ele>
        <time>2020-08-08T07:50:22.587Z</time>
      </trkpt>
      <trkpt lat="46.16341" lon="6.56868">
        <ele>1490.62</ele>
        <time>2020-08-08T07:50:32.000Z</time>
      </trkpt>
      <trkpt lat="46.16325" lon="6.56904">
        <ele>1493.35</ele>
        <time>2020-08-08T07:50:41.188Z</time>
      </trkpt>
      <trkpt lat="46.16318" lon="6.56944">
        <ele>1492.99</ele>
        <time>2020-08-08T07:50:50.627Z</time>
      </trkpt>
      <trkpt lat="46.16313" lon="6.56985">
        <ele>1493.28</ele>
        <time>2020-08-08T07:50:59.633Z</time>
      </trkpt>
      <trkpt lat="46.16307" lon="6.5702">
        <ele>1497.38</ele>
        <time>2020-08-08T07:51:09.528Z</time>
      </trkpt>
      <trkpt lat="46.163" lon="6.57056">
        <ele>1498.56</ele>
        <time>2020-08-08T07:51:18.612Z</time>
      </trkpt>
      <trkpt lat="46.16291" lon="6.57093">
        <ele>1499.4</ele>
        <time>2020-08-08T07:51:28.000Z</time>
      </trkpt>
      <trkpt lat="46.16282" lon="6.57128">
        <ele>1500.38</ele>
        <time>2020-08-08T07:51:37.053Z</time>
      </trkpt>
      <trkpt lat="46.16267" lon="6.57167">
        <ele>1502.2</ele>
        <time>2020-08-08T07:51:47.000Z</time>
      </trkpt>
      <trkpt lat="46.16246" lon="6.57202">
        <ele>1503.25</ele>
        <time>2020-08-08T07:51:56.194Z</time>
      </trkpt>
      <trkpt lat="46.16226" lon="6.5723">
        <ele>1503.5</ele>
        <time>2020-08-08T07:52:06.000Z</time>
      </trkpt>
      <trkpt lat="46.16208" lon="6.57259">
        <ele>1506.02</ele>
        <time>2020-08-08T07:52:16.000Z</time>
      </trkpt>
      <trkpt lat="46.162" lon="6.57292">
        <ele>1509.42</ele>
        <time>2020-08-08T07:52:25.509Z</time>
      </trkpt>
      <trkpt lat="46.16205" lon="6.57324">
        <ele>1513.84</ele>
        <time>2020-08-08T07:52:35.000Z</time>
      </trkpt>
      <trkpt lat="46.16221" lon="6.57352">
        <ele>1517.95</ele>
        <time>2020-08-08T07:52:44.531Z</time>
      </trkpt>
      <trkpt lat="46.16236" lon="6.57373">
        <ele>1519.45</ele>
        <time>2020-08-08T07:52:54.000Z</time>
      </trkpt>
      <trkpt lat="46.16254" lon="6.574">
        <ele>1521.21</ele>
        <time>2020-08-08T07:53:04.000Z</time>
      </trkpt>
      <trkpt lat="46.16268" lon="6.5742">
        <ele>1522.75</ele>
        <time>2020-08-08T07:53:13.433Z</time>
      </trkpt>
      <trkpt lat="46.16278" lon="6.57447">
        <ele>1525.14</ele>
        <time>2020-08-08T07:53:23.000Z</time>
      </trkpt>
      <trkpt lat="46.16283" lon="6.57474">
        <ele>1530.52</ele>
        <time>2020-08-08T07:53:32.555Z</time>
      </trkpt>
      <trkpt lat="46.16281" lon="6.57502">
        <ele>1537.49</ele>
        <time>2020-08-08T07:53:42.000Z</time>
      </trkpt>
      <trkpt lat="46.16284" lon="6.57534">
        <ele>1541.11</ele>
        <time>2020-08-08T07:53:52.000Z</time>
      </trkpt>
      <trkpt lat="46.16288" lon="6.57565">
        <ele>1542.36</ele>
        <time>2020-08-08T07:54:01.311Z</time>
      </trkpt>
      <trkpt lat="46.16284" lon="6.57594">
        <ele>1544.48</ele>
        <time>2020-08-08T07:54:10.434Z</time>
      </trkpt>
      <trkpt lat="46.1628" lon="6.57622">
        <ele>1545.57</ele>
        <time>2020-08-08T07:54:19.491Z</time>
      </trkpt>
      <trkpt lat="46.16273" lon="6.57646">
        <ele>1545.85</ele>
        <time>2020-08-08T07:54:29.000Z</time>
      </trkpt>
      <trkpt lat="46.16256" lon="6.57671">
        <ele>1548.07</ele>
        <time>2020-08-08T07:54:38.730Z</time>
      </trkpt>
      <trkpt lat="46.16235" lon="6.57692">
        <ele>1550.99</ele>
        <time>2020-08-08T07:54:48.411Z</time>
      </trkpt>
      <trkpt lat="46.16215" lon="6.57709">
        <ele>1551.27</ele>
        <time>2020-08-08T07:54:58.000Z</time>
      </trkpt>
      <trkpt lat="46.16201" lon="6.57729">
        <ele>1549.69</ele>
        <time>2020-08-08T07:55:07.275Z</time>
      </trkpt>
      <trkpt lat="46.16187" lon="6.57746">
        <ele>1549.17</ele>
        <time>2020-08-08T07:55:16.412Z</time>
      </trkpt>
      <trkpt lat="46.16164" lon="6.5776">
        <ele>1548.98</ele>
        <time>2020-08-08T07:55:25.431Z</time>
      </trkpt>
      <trkpt lat="46.16151" lon="6.57783">
        <ele>1550.42</ele>
        <time>2020-08-08T07:55:35.000Z</time>
      </trkpt>
      <trkpt lat="46.16144" lon="6.57813">
        <ele>1553.53</ele>
        <time>2020-08-08T07:55:44.692Z</time>
      </trkpt>
      <trkpt lat="46.1614" lon="6.57843">
        <ele>1558.82</ele>
        <time>2020-08-08T07:55:54.473Z</time>
      </trkpt>
      <trkpt lat="46.16131" lon="6.57861">
        <ele>1562.38</ele>
        <time>2020-08-08T07:56:03.633Z</time>
      </trkpt>
      <trkpt lat="46.14165" lon="6.60475">
        <ele>1372.22</ele>
        <time>2020-08-08T08:03:15.000Z</time>
      </trkpt>
      <trkpt lat="46.14124" lon="6.60585">
        <ele>1367.9</ele>
        <time>2020-08-08T08:03:25.000Z</time>
      </trkpt>
      <trkpt lat="46.1408" lon="6.60684">
        <ele>1365.63</ele>
        <time>2020-08-08T08:03:35.000Z</time>
      </trkpt>
      <trkpt lat="46.14081" lon="6.60824">
        <ele>1365.77</ele>
        <time>2020-08-08T08:03:45.000Z</time>
      </trkpt>
      <trkpt lat="46.14205" lon="6.6086">
        <ele>1359.99</ele>
        <time>2020-08-08T08:03:55.000Z</time>
      </trkpt>
      <trkpt lat="46.14345" lon="6.60831">
        <ele>1351.78</ele>
        <time>2020-08-08T08:04:05.000Z</time>
      </trkpt>
      <trkpt lat="46.1432" lon="6.6088">
        <ele>1349.85</ele>
        <time>2020-08-08T08:04:15.000Z</time>
      </trkpt>
      <trkpt lat="46.1415" lon="6.60933">
        <ele>1339.63</ele>
        <time>2020-08-08T08:04:25.000Z</time>
      </trkpt>
      <trkpt lat="46.14008" lon="6.61008">
        <ele>1326.38</ele>
        <time>2020-08-08T08:04:35.000Z</time>
      </trkpt>
      <trkpt lat="46.13994" lon="6.61013">
        <ele>1318.03</ele>
        <time>2020-08-08T08:04:45.000Z</time>
      </trkpt>
      <trkpt lat="46.14138" lon="6.61023">
        <ele>1313.04</ele>
        <time>2020-08-08T08:04:55.000Z</time>
      </trkpt>
      <trkpt lat="46.14291" lon="6.61062">
        <ele>1302.02</ele>
        <time>2020-08-08T08:05:05.000Z</time>
      </trkpt>
      <trkpt lat="46.14422" lon="6.61073">
        <ele>1292.17</ele>
        <time>2020-08-08T08:05:15.000Z</time>
      </trkpt>
      <trkpt lat="46.14359" lon="6.61089">
        <ele>1280.98</ele>
        <time>2020-08-08T08:05:25.000Z</time>
      </trkpt>
      <trkpt lat="46.14234" lon="6.61153">
        <ele>1266.36</ele>
        <time>2020-08-08T08:05:35.000Z</time>
      </trkpt>
      <trkpt lat="46.14101" lon="6.61217">
        <ele>1247.81</ele>
        <time>2020-08-08T08:05:45.000Z</time>
      </trkpt>
      <trkpt lat="46.14075" lon="6.61241">
        <ele>1230.18</ele>
        <time>2020-08-08T08:05:55.000Z</time>
      </trkpt>
      <trkpt lat="46.14197" lon="6.61241">
        <ele>1214.93</ele>
        <time>2020-08-08T08:06:05.000Z</time>
      </trkpt>
      <trkpt lat="46.14335" lon="6.61253">
        <ele>1200.41</ele>
        <time>2020-08-08T08:06:15.000Z</time>
      </trkpt>
      <trkpt lat="46.14469" lon="6.6128">
        <ele>1185.89</ele>
        <time>2020-08-08T08:06:25.000Z</time>
      </trkpt>
      <trkpt lat="46.14602" lon="6.61283">
        <ele>1175.06</ele>
        <time>2020-08-08T08:06:35.000Z</time>
      </trkpt>
      <trkpt lat="46.14755" lon="6.61297">
        <ele>1163.23</ele>
        <time>2020-08-08T08:06:45.000Z</time>
      </trkpt>
      <trkpt lat="46.14899" lon="6.61312">
        <ele>1146.91</ele>
        <time>2020-08-08T08:06:55.000Z</time>
      </trkpt>
      <trkpt lat="46.1492" lon="6.6133">
        <ele>1128.09</ele>
        <time>2020-08-08T08:07:05.000Z</time>
      </trkpt>
      <trkpt lat="46.14826" lon="6.61353">
        <ele>1111.01</ele>
        <time>2020-08-08T08:07:15.000Z</time>
      </trkpt>
      <trkpt lat="46.14851" lon="6.61333">
        <ele>1102.67</ele>
        <time>2020-08-08T08:07:25.000Z</time>
      </trkpt>
      <trkpt lat="46.14893" lon="6.61319">
        <ele>1101.09</ele>
        <time>2020-08-08T08:07:35.000Z</time>
      </trkpt>
      <trkpt lat="46.14927" lon="6.61309">
        <ele>1101.69</ele>
        <time>2020-08-08T08:07:45.000Z</time>
      </trkpt>
      <trkpt lat="46.14959" lon="6.61305">
        <ele>1104.8</ele>
        <time>2020-08-08T08:07:54.639Z</time>
      </trkpt>
      <trkpt lat="46.14981" lon="6.61302">
        <ele>1108.51</ele>
        <time>2020-08-08T08:08:04.000Z</time>
      </trkpt>
      <trkpt lat="46.15003" lon="6.61284">
        <ele>1113.04</ele>
        <time>2020-08-08T08:08:14.000Z</time>
      </trkpt>
      <trkpt lat="46.15031" lon="6.61255">
        <ele>1112.08</ele>
        <time>2020-08-08T08:08:23.545Z</time>
      </trkpt>
      <trkpt lat="46.15059" lon="6.61226">
        <ele>1113.2</ele>
        <time>2020-08-08T08:08:32.603Z</time>
      </trkpt>
      <trkpt lat="46.15108" lon="6.61177">
        <ele>1117.64</ele>
        <time>2020-08-08T08:08:42.000Z</time>
      </trkpt>
      <trkpt lat="46.15172" lon="6.61142">
        <ele>1119.58</ele>
        <time>2020-08-08T08:08:52.000Z</time>
      </trkpt>
      <trkpt lat="46.15184" lon="6.61187">
        <ele>1120.97</ele>
        <time>2020-08-08T08:09:01.463Z</time>
      </trkpt>
      <trkpt lat="46.15197" lon="6.61224">
        <ele>1123.54</ele>
        <time>2020-08-08T08:09:11.096Z</time>
      </trkpt>
      <trkpt lat="46.15205" lon="6.61258">
        <ele>1124.72</ele>
        <time>2020-08-08T08:09:20.654Z</time>
      </trkpt>
      <trkpt lat="46.15209" lon="6.61295">
        <ele>1122.4</ele>
        <time>2020-08-08T08:09:29.782Z</time>
      </trkpt>
      <trkpt lat="46.15224" lon="6.61341">
        <ele>1119.69</ele>
        <time>2020-08-08T08:09:39.000Z</time>
      </trkpt>
      <trkpt lat="46.15231" lon="6.61373">
        <ele>1126.04</ele>
        <time>2020-08-08T08:09:48.076Z</time>
      </trkpt>
      <trkpt lat="46.15235" lon="6.61407">
        <ele>1128.79</ele>
        <time>2020-08-08T08:09:57.219Z</time>
      </trkpt>
      <trkpt lat="46.15248" lon="6.61441">
        <ele>1130.7</ele>
        <time>2020-08-08T08:10:07.000Z</time>
      </trkpt>
      <trkpt lat="46.15266" lon="6.61471">
        <ele>1130.14</ele>
        <time>2020-08-08T08:10:16.356Z</time>
      </trkpt>
      <trkpt lat="46.15281" lon="6.61501">
        <ele>1131.87</ele>
        <time>2020-08-08T08:10:26.000Z</time>
      </trkpt>
      <trkpt lat="46.15297" lon="6.61526">
        <ele>1133.22</ele>
        <time>2020-08-08T08:10:35.076Z</time>
      </trkpt>
      <trkpt lat="46.15321" lon="6.61541">
        <ele>1142.25</ele>
        <time>2020-08-08T08:10:44.534Z</time>
      </trkpt>
      <trkpt lat="46.15347" lon="6.61568">
        <ele>1146.85</ele>
        <time>2020-08-08T08:10:54.000Z</time>
      </trkpt>
      <trkpt lat="46.15375" lon="6.61592">
        <ele>1150.4</ele>
        <time>2020-08-08T08:11:03.600Z</time>
      </trkpt>
      <trkpt lat="46.15405" lon="6.6162">
        <ele>1151.42</ele>
        <time>2020-08-08T08:11:12.679Z</time>
      </trkpt>
      <trkpt lat="46.15437" lon="6.61646">
        <ele>1152.15</ele>
        <time>2020-08-08T08:11:21.741Z</time>
      </trkpt>
      <trkpt lat="46.15478" lon="6.61693">
        <ele>1148.3</ele>
        <time>2020-08-08T08:11:31.000Z</time>
      </trkpt>
      <trkpt lat="46.15537" lon="6.61727">
        <ele>1145.98</ele>
        <time>2020-08-08T08:11:41.000Z</time>
      </trkpt>
      <trkpt lat="46.15598" lon="6.61758">
        <ele>1140.95</ele>
        <time>2020-08-08T08:11:51.000Z</time>
      </trkpt>
      <trkpt lat="46.15658" lon="6.6175">
        <ele>1140.45</ele>
        <time>2020-08-08T08:12:01.000Z</time>
      </trkpt>
      <trkpt lat="46.15709" lon="6.61752">
        <ele>1142.31</ele>
        <time>2020-08-08T08:12:11.000Z</time>
      </trkpt>
      <trkpt lat="46.1574" lon="6.61768">
        <ele>1143.07</ele>
        <time>2020-08-08T08:12:20.688Z</time>
      </trkpt>
      <trkpt lat="46.15769" lon="6.61779">
        <ele>1145.05</ele>
        <time>2020-08-08T08:12:30.148Z</time>
      </trkpt>
      <trkpt lat="46.15817" lon="6.61798">
        <ele>1145.56</ele>
        <time>2020-08-08T08:12:40.000Z</time>
      </trkpt>
      <trkpt lat="46.1587" lon="6.61821">
        <ele>1148.73</ele>
        <time>2020-08-08T08:12:50.000Z</time>
      </trkpt>
      <trkpt lat="46.15912" lon="6.61835">
        <ele>1150.09</ele>
        <time>2020-08-08T08:13:00.000Z</time>
      </trkpt>
      <trkpt lat="46.15948" lon="6.61846">
        <ele>1152.67</ele>
        <time>2020-08-08T08:13:10.000Z</time>
      </trkpt>
      <trkpt lat="46.15988" lon="6.61861">
        <ele>1156.92</ele>
        <time>2020-08-08T08:13:20.000Z</time>
      </trkpt>
      <trkpt lat="46.16023" lon="6.61861">
        <ele>1157.83</ele>
        <time>2020-08-08T08:13:29.353Z</time>
      </trkpt>
      <trkpt lat="46.16053" lon="6.61869">
        <ele>1159.81</ele>
        <time>2020-08-08T08:13:38.785Z</time>
      </trkpt>
      <trkpt lat="46.16089" lon="6.61862">
        <ele>1162.45</ele>
        <time>2020-08-08T08:13:48.000Z</time>
      </trkpt>
      <trkpt lat="46.16136" lon="6.61866">
        <ele>1165.99</ele>
        <time>2020-08-08T08:13:57.586Z</time>
      </trkpt>
      <trkpt lat="46.16171" lon="6.61871">
        <ele>1168.81</ele>
        <time>2020-08-08T08:14:07.000Z</time>
      </trkpt>
      <trkpt lat="46.16216" lon="6.61888">
        <ele>1169.7</ele>
        <time>2020-08-08T08:14:17.000Z</time>
      </trkpt>
      <trkpt lat="46.16245" lon="6.619">
        <ele>1167.56</ele>
        <time>2020-08-08T08:14:26.644Z</time>
      </trkpt>
      <trkpt lat="46.16268" lon="6.61903">
        <ele>1167.71</ele>
        <time>2020-08-08T08:14:36.000Z</time>
      </trkpt>
      <trkpt lat="46.16292" lon="6.619">
        <ele>1167.88</ele>
        <time>2020-08-08T08:14:45.171Z</time>
      </trkpt>
      <trkpt lat="46.16314" lon="6.61892">
        <ele>1169.13</ele>
        <time>2020-08-08T08:14:54.273Z</time>
      </trkpt>
      <trkpt lat="46.16334" lon="6.61881">
        <ele>1171.51</ele>
        <time>2020-08-08T08:15:03.508Z</time>
      </trkpt>
      <trkpt lat="46.16355" lon="6.61872">
        <ele>1175.52</ele>
        <time>2020-08-08T08:15:13.124Z</time>
      </trkpt>
      <trkpt lat="46.16376" lon="6.61859">
        <ele>1177.93</ele>
        <time>2020-08-08T08:15:22.526Z</time>
      </trkpt>
      <trkpt lat="46.16396" lon="6.61855">
        <ele>1179.45</ele>
        <time>2020-08-08T08:15:31.690Z</time>
      </trkpt>
      <trkpt lat="46.16418" lon="6.61849">
        <ele>1180.23</ele>
        <time>2020-08-08T08:15:40.713Z</time>
      </trkpt>
      <trkpt lat="46.16444" lon="6.61842">
        <ele>1183.08</ele>
        <time>2020-08-08T08:15:50.000Z</time>
      </trkpt>
      <trkpt lat="46.1647" lon="6.61829">
        <ele>1186.32</ele>
        <time>2020-08-08T08:15:59.009Z</time>
      </trkpt>
      <trkpt lat="46.16492" lon="6.61819">
        <ele>1191.38</ele>
        <time>2020-08-08T08:16:08.311Z</time>
      </trkpt>
      <trkpt lat="46.1651" lon="6.61803">
        <ele>1194.9</ele>
        <time>2020-08-08T08:16:17.553Z</time>
      </trkpt>
      <trkpt lat="46.16531" lon="6.61796">
        <ele>1200.4</ele>
        <time>2020-08-08T08:16:26.646Z</time>
      </trkpt>
      <trkpt lat="46.16549" lon="6.61788">
        <ele>1204.18</ele>
        <time>2020-08-08T08:16:36.000Z</time>
      </trkpt>
      <trkpt lat="46.16568" lon="6.61769">
        <ele>1207.99</ele>
        <time>2020-08-08T08:16:45.413Z</time>
      </trkpt>
      <trkpt lat="46.16584" lon="6.61761">
        <ele>1216.75</ele>
        <time>2020-08-08T08:16:55.130Z</time>
      </trkpt>
      <trkpt lat="46.16608" lon="6.61748">
        <ele>1220.38</ele>
        <time>2020-08-08T08:17:04.706Z</time>
      </trkpt>
      <trkpt lat="46.16635" lon="6.61733">
        <ele>1219.31</ele>
        <time>2020-08-08T08:17:13.711Z</time>
      </trkpt>
      <trkpt lat="46.16661" lon="6.61719">
        <ele>1221.88</ele>
        <time>2020-08-08T08:17:23.000Z</time>
      </trkpt>
      <trkpt lat="46.1669" lon="6.6171">
        <ele>1226.11</ele>
        <time>2020-08-08T08:17:32.570Z</time>
      </trkpt>
      <trkpt lat="46.16709" lon="6.61697">
        <ele>1227.47</ele>
        <time>2020-08-08T08:17:42.000Z</time>
      </trkpt>
      <trkpt lat="46.16733" lon="6.61685">
        <ele>1229.73</ele>
        <time>2020-08-08T08:17:51.508Z</time>
      </trkpt>
      <trkpt lat="46.16757" lon="6.61672">
        <ele>1226.81</ele>
        <time>2020-08-08T08:18:01.000Z</time>
      </trkpt>
      <trkpt lat="46.16776" lon="6.61665">
        <ele>1226.16</ele>
        <time>2020-08-08T08:18:10.369Z</time>
      </trkpt>
      <trkpt lat="46.16794" lon="6.61663">
        <ele>1227.83</ele>
        <time>2020-08-08T08:18:19.534Z</time>
      </trkpt>
      <trkpt lat="46.16824" lon="6.6166">
        <ele>1223.68</ele>
        <time>2020-08-08T08:18:28.611Z</time>
      </trkpt>
      <trkpt lat="46.16849" lon="6.61664">
        <ele>1221.29</ele>
        <time>2020-08-08T08:18:38.000Z</time>
      </trkpt>
      <trkpt lat="46.16873" lon="6.61661">
        <ele>1224.8</ele>
        <time>2020-08-08T08:18:47.551Z</time>
      </trkpt>
      <trkpt lat="46.169" lon="6.6166">
        <ele>1228.71</ele>
        <time>2020-08-08T08:18:57.000Z</time>
      </trkpt>
      <trkpt lat="46.16926" lon="6.61666">
        <ele>1227.8</ele>
        <time>2020-08-08T08:19:07.000Z</time>
      </trkpt>
      <trkpt lat="46.1695" lon="6.61678">
        <ele>1226.66</ele>
        <time>2020-08-08T08:19:16.710Z</time>
      </trkpt>
      <trkpt lat="46.16973" lon="6.61687">
        <ele>1227.68</ele>
        <time>2020-08-08T08:19:26.000Z</time>
      </trkpt>
      <trkpt lat="46.16993" lon="6.61695">
        <ele>1229.66</ele>
        <time>2020-08-08T08:19:35.594Z</time>
      </trkpt>
      <trkpt lat="46.17013" lon="6.61706">
        <ele>1230.81</ele>
        <time>2020-08-08T08:19:45.000Z</time>
      </trkpt>
      <trkpt lat="46.17034" lon="6.61718">
        <ele>1232.53</ele>
        <time>2020-08-08T08:19:55.000Z</time>
      </trkpt>
      <trkpt lat="46.17055" lon="6.61728">
        <ele>1235.52</ele>
        <time>2020-08-08T08:20:05.000Z</time>
      </trkpt>
      <trkpt lat="46.17076" lon="6.61738">
        <ele>1238.04</ele>
        <time>2020-08-08T08:20:14.802Z</time>
      </trkpt>
      <trkpt lat="46.17092" lon="6.61744">
        <ele>1244.1</ele>
        <time>2020-08-08T08:20:24.000Z</time>
      </trkpt>
      <trkpt lat="46.17114" lon="6.61742">
        <ele>1248.26</ele>
        <time>2020-08-08T08:20:33.330Z</time>
      </trkpt>
      <trkpt lat="46.17129" lon="6.61735">
        <ele>1250.32</ele>
        <time>2020-08-08T08:20:42.454Z</time>
      </trkpt>
      <trkpt lat="46.17144" lon="6.61729">
        <ele>1254.11</ele>
        <time>2020-08-08T08:20:51.728Z</time>
      </trkpt>
      <trkpt lat="46.17159" lon="6.61718">
        <ele>1257.77</ele>
        <time>2020-08-08T08:21:01.000Z</time>
      </trkpt>
      <trkpt lat="46.17169" lon="6.6171">
        <ele>1261.54</ele>
        <time>2020-08-08T08:21:10.531Z</time>
      </trkpt>
      <trkpt lat="46.17171" lon="6.61702">
        <ele>1264.82</ele>
        <time>2020-08-08T08:21:20.000Z</time>
      </trkpt>
      <trkpt lat="46.1717" lon="6.61703">
        <ele>1264.76</ele>
        <time>2020-08-08T08:21:32.000Z</time>
      </trkpt>
      <trkpt lat="46.17166" lon="6.6169">
        <ele>1265.92</ele>
        <time>2020-08-08T08:21:41.372Z</time>
      </trkpt>
      <trkpt lat="46.17148" lon="6.61685">
        <ele>1270.16</ele>
        <time>2020-08-08T08:21:51.000Z</time>
      </trkpt>
      <trkpt lat="46.17125" lon="6.61671">
        <ele>1269.05</ele>
        <time>2020-08-08T08:22:00.633Z</time>
      </trkpt>
      <trkpt lat="46.17108" lon="6.61655">
        <ele>1269.57</ele>
        <time>2020-08-08T08:22:10.000Z</time>
      </trkpt>
      <trkpt lat="46.17089" lon="6.61626">
        <ele>1270.35</ele>
        <time>2020-08-08T08:22:19.353Z</time>
      </trkpt>
      <trkpt lat="46.17079" lon="6.61592">
        <ele>1270.2</ele>
        <time>2020-08-08T08:22:29.000Z</time>
      </trkpt>
      <trkpt lat="46.17067" lon="6.61565">
        <ele>1271.57</ele>
        <time>2020-08-08T08:22:38.050Z</time>
      </trkpt>
      <trkpt lat="46.17054" lon="6.61545">
        <ele>1273.74</ele>
        <time>2020-08-08T08:22:47.709Z</time>
      </trkpt>
      <trkpt lat="46.17055" lon="6.61522">
        <ele>1276.01</ele>
        <time>2020-08-08T08:22:57.000Z</time>
      </trkpt>
      <trkpt lat="46.1707" lon="6.61529">
        <ele>1280.55</ele>
        <time>2020-08-08T08:23:07.000Z</time>
      </trkpt>
      <trkpt lat="46.17084" lon="6.61541">
        <ele>1283.79</ele>
        <time>2020-08-08T08:23:16.613Z</time>
      </trkpt>
      <trkpt lat="46.17096" lon="6.61547">
        <ele>1286.86</ele>
        <time>2020-08-08T08:23:26.000Z</time>
      </trkpt>
      <trkpt lat="46.17113" lon="6.61555">
        <ele>1290.66</ele>
        <time>2020-08-08T08:23:36.000Z</time>
      </trkpt>
      <trkpt lat="46.1713" lon="6.61562">
        <ele>1292.69</ele>
        <time>2020-08-08T08:23:45.310Z</time>
      </trkpt>
      <trkpt lat="46.17154" lon="6.61568">
        <ele>1294.13</ele>
        <time>2020-08-08T08:23:54.714Z</time>
      </trkpt>
      <trkpt lat="46.17172" lon="6.61574">
        <ele>1295.94</ele>
        <time>2020-08-08T08:24:03.753Z</time>
      </trkpt>
      <trkpt lat="46.17191" lon="6.61564">
        <ele>1299.78</ele>
        <time>2020-08-08T08:24:13.000Z</time>
      </trkpt>
      <trkpt lat="46.17203" lon="6.61545">
        <ele>1305.48</ele>
        <time>2020-08-08T08:24:22.086Z</time>
      </trkpt>
      <trkpt lat="46.17216" lon="6.61527">
        <ele>1310.64</ele>
        <time>2020-08-08T08:24:32.000Z</time>
      </trkpt>
      <trkpt lat="46.17231" lon="6.61502">
        <ele>1314.31</ele>
        <time>2020-08-08T08:24:41.529Z</time>
      </trkpt>
      <trkpt lat="46.17243" lon="6.61472">
        <ele>1316.97</ele>
        <time>2020-08-08T08:24:51.000Z</time>
      </trkpt>
      <trkpt lat="46.17256" lon="6.61429">
        <ele>1314.55</ele>
        <time>2020-08-08T08:25:00.626Z</time>
      </trkpt>
      <trkpt lat="46.17272" lon="6.61401">
        <ele>1316.97</ele>
        <time>2020-08-08T08:25:10.000Z</time>
      </trkpt>
      <trkpt lat="46.17286" lon="6.61374">
        <ele>1318.15</ele>
        <time>2020-08-08T08:25:19.052Z</time>
      </trkpt>
      <trkpt lat="46.17306" lon="6.61346">
        <ele>1316.11</ele>
        <time>2020-08-08T08:25:28.410Z</time>
      </trkpt>
      <trkpt lat="46.17334" lon="6.61313">
        <ele>1315.14</ele>
        <time>2020-08-08T08:25:37.709Z</time>
      </trkpt>
      <trkpt lat="46.17375" lon="6.61317">
        <ele>1314.72</ele>
        <time>2020-08-08T08:25:47.000Z</time>
      </trkpt>
      <trkpt lat="46.17392" lon="6.61378">
        <ele>1318.09</ele>
        <time>2020-08-08T08:25:57.000Z</time>
      </trkpt>
      <trkpt lat="46.17387" lon="6.61434">
        <ele>1315.97</ele>
        <time>2020-08-08T08:26:06.370Z</time>
      </trkpt>
      <trkpt lat="46.17387" lon="6.61493">
        <ele>1314.56</ele>
        <time>2020-08-08T08:26:15.510Z</time>
      </trkpt>
      <trkpt lat="46.17387" lon="6.61517">
        <ele>1312.85</ele>
        <time>2020-08-08T08:26:25.000Z</time>
      </trkpt>
      <trkpt lat="46.17383" lon="6.61516">
        <ele>1312.85</ele>
        <time>2020-08-08T08:26:35.171Z</time>
      </trkpt>
      <trkpt lat="46.17386" lon="6.61515">
        <ele>1312.85</ele>
        <time>2020-08-08T08:26:46.000Z</time>
      </trkpt>
      <trkpt lat="46.17387" lon="6.61515">
        <ele>1312.85</ele>
        <time>2020-08-08T08:26:56.000Z</time>
      </trkpt>
      <trkpt lat="46.17385" lon="6.61515">
        <ele>1317.72</ele>
        <time>2020-08-08T08:28:36.000Z</time>
      </trkpt>
      <trkpt lat="46.17379" lon="6.61517">
        <ele>1319.35</ele>
        <time>2020-08-08T08:28:46.000Z</time>
      </trkpt>
      <trkpt lat="46.17379" lon="6.61518">
        <ele>1319.35</ele>
        <time>2020-08-08T08:29:02.465Z</time>
      </trkpt>
      <trkpt lat="46.17382" lon="6.61535">
        <ele>1318.92</ele>
        <time>2020-08-08T08:29:12.000Z</time>
      </trkpt>
      <trkpt lat="46.17371" lon="6.6163">
        <ele>1318.91</ele>
        <time>2020-08-08T08:29:22.000Z</time>
      </trkpt>
      <trkpt lat="46.17322" lon="6.61724">
        <ele>1317.89</ele>
        <time>2020-08-08T08:29:32.000Z</time>
      </trkpt>
      <trkpt lat="46.17291" lon="6.61877">
        <ele>1312.24</ele>
        <time>2020-08-08T08:29:42.000Z</time>
      </trkpt>
      <trkpt lat="46.17284" lon="6.62028">
        <ele>1307.96</ele>
        <time>2020-08-08T08:29:52.000Z</time>
      </trkpt>
      <trkpt lat="46.17249" lon="6.62084">
        <ele>1302.43</ele>
        <time>2020-08-08T08:30:02.000Z</time>
      </trkpt>
      <trkpt lat="46.17228" lon="6.62107">
        <ele>1298.9</ele>
        <time>2020-08-08T08:30:12.000Z</time>
      </trkpt>
      <trkpt lat="46.17194" lon="6.62133">
        <ele>1295.28</ele>
        <time>2020-08-08T08:30:21.231Z</time>
      </trkpt>
      <trkpt lat="46.17171" lon="6.62149">
        <ele>1296.75</ele>
        <time>2020-08-08T08:30:31.000Z</time>
      </trkpt>
      <trkpt lat="46.1716" lon="6.62167">
        <ele>1301.91</ele>
        <time>2020-08-08T08:30:40.308Z</time>
      </trkpt>
      <trkpt lat="46.17145" lon="6.62184">
        <ele>1306.33</ele>
        <time>2020-08-08T08:30:49.448Z</time>
      </trkpt>
      <trkpt lat="46.17113" lon="6.62211">
        <ele>1306.22</ele>
        <time>2020-08-08T08:30:58.487Z</time>
      </trkpt>
      <trkpt lat="46.17092" lon="6.62227">
        <ele>1306.84</ele>
        <time>2020-08-08T08:31:07.508Z</time>
      </trkpt>
      <trkpt lat="46.1707" lon="6.62239">
        <ele>1312.7</ele>
        <time>2020-08-08T08:31:17.000Z</time>
      </trkpt>
      <trkpt lat="46.17046" lon="6.62253">
        <ele>1315.44</ele>
        <time>2020-08-08T08:31:27.000Z</time>
      </trkpt>
      <trkpt lat="46.17031" lon="6.62266">
        <ele>1315.98</ele>
        <time>2020-08-08T08:31:36.411Z</time>
      </trkpt>
      <trkpt lat="46.17007" lon="6.62278">
        <ele>1315.34</ele>
        <time>2020-08-08T08:31:45.647Z</time>
      </trkpt>
      <trkpt lat="46.1698" lon="6.62291">
        <ele>1316.01</ele>
        <time>2020-08-08T08:31:55.000Z</time>
      </trkpt>
      <trkpt lat="46.16956" lon="6.62295">
        <ele>1317.33</ele>
        <time>2020-08-08T08:32:04.363Z</time>
      </trkpt>
      <trkpt lat="46.16929" lon="6.62307">
        <ele>1320.12</ele>
        <time>2020-08-08T08:32:13.492Z</time>
      </trkpt>
      <trkpt lat="46.16904" lon="6.62312">
        <ele>1322.42</ele>
        <time>2020-08-08T08:32:22.688Z</time>
      </trkpt>
      <trkpt lat="46.16877" lon="6.62326">
        <ele>1322.85</ele>
        <time>2020-08-08T08:32:32.000Z</time>
      </trkpt>
      <trkpt lat="46.16852" lon="6.62323">
        <ele>1326</ele>
        <time>2020-08-08T08:32:41.383Z</time>
      </trkpt>
      <trkpt lat="46.16824" lon="6.62324">
        <ele>1328.71</ele>
        <time>2020-08-08T08:32:50.630Z</time>
      </trkpt>
      <trkpt lat="46.16793" lon="6.62329">
        <ele>1331</ele>
        <time>2020-08-08T08:33:01.000Z</time>
      </trkpt>
      <trkpt lat="46.16765" lon="6.62345">
        <ele>1328.97</ele>
        <time>2020-08-08T08:33:11.000Z</time>
      </trkpt>
      <trkpt lat="46.16735" lon="6.62357">
        <ele>1326.97</ele>
        <time>2020-08-08T08:33:20.027Z</time>
      </trkpt>
      <trkpt lat="46.16711" lon="6.62374">
        <ele>1326.6</ele>
        <time>2020-08-08T08:33:29.332Z</time>
      </trkpt>
      <trkpt lat="46.16689" lon="6.62401">
        <ele>1325.53</ele>
        <time>2020-08-08T08:33:39.000Z</time>
      </trkpt>
      <trkpt lat="46.16667" lon="6.62435">
        <ele>1322.69</ele>
        <time>2020-08-08T08:33:49.000Z</time>
      </trkpt>
      <trkpt lat="46.16647" lon="6.62469">
        <ele>1319.81</ele>
        <time>2020-08-08T08:33:59.000Z</time>
      </trkpt>
      <trkpt lat="46.16619" lon="6.62522">
        <ele>1310.51</ele>
        <time>2020-08-08T08:34:09.000Z</time>
      </trkpt>
      <trkpt lat="46.16605" lon="6.62559">
        <ele>1304.66</ele>
        <time>2020-08-08T08:34:18.322Z</time>
      </trkpt>
      <trkpt lat="46.16597" lon="6.62601">
        <ele>1297.12</ele>
        <time>2020-08-08T08:34:27.586Z</time>
      </trkpt>
      <trkpt lat="46.16601" lon="6.62652">
        <ele>1294.6</ele>
        <time>2020-08-08T08:34:37.000Z</time>
      </trkpt>
      <trkpt lat="46.16609" lon="6.62697">
        <ele>1295.47</ele>
        <time>2020-08-08T08:34:46.025Z</time>
      </trkpt>
      <trkpt lat="46.16622" lon="6.62741">
        <ele>1299.28</ele>
        <time>2020-08-08T08:34:55.292Z</time>
      </trkpt>
      <trkpt lat="46.16641" lon="6.62782">
        <ele>1309.73</ele>
        <time>2020-08-08T08:35:05.000Z</time>
      </trkpt>
      <trkpt lat="46.16662" lon="6.62826">
        <ele>1322.61</ele>
        <time>2020-08-08T08:35:15.000Z</time>
      </trkpt>
      <trkpt lat="46.16688" lon="6.62858">
        <ele>1332.28</ele>
        <time>2020-08-08T08:35:24.189Z</time>
      </trkpt>
      <trkpt lat="46.16708" lon="6.62892">
        <ele>1344.16</ele>
        <time>2020-08-08T08:35:33.673Z</time>
      </trkpt>
      <trkpt lat="46.16722" lon="6.62931">
        <ele>1348.45</ele>
        <time>2020-08-08T08:35:43.000Z</time>
      </trkpt>
      <trkpt lat="46.16744" lon="6.62964">
        <ele>1351.54</ele>
        <time>2020-08-08T08:35:52.051Z</time>
      </trkpt>
      <trkpt lat="46.1678" lon="6.63004">
        <ele>1354.77</ele>
        <time>2020-08-08T08:36:02.000Z</time>
      </trkpt>
      <trkpt lat="46.16826" lon="6.63047">
        <ele>1356.66</ele>
        <time>2020-08-08T08:36:12.000Z</time>
      </trkpt>
      <trkpt lat="46.16873" lon="6.63081">
        <ele>1359.8</ele>
        <time>2020-08-08T08:36:22.000Z</time>
      </trkpt>
      <trkpt lat="46.16908" lon="6.63096">
        <ele>1361.07</ele>
        <time>2020-08-08T08:36:31.307Z</time>
      </trkpt>
      <trkpt lat="46.16936" lon="6.63114">
        <ele>1364.7</ele>
        <time>2020-08-08T08:36:40.553Z</time>
      </trkpt>
      <trkpt lat="46.16964" lon="6.63133">
        <ele>1366.82</ele>
        <time>2020-08-08T08:36:50.000Z</time>
      </trkpt>
      <trkpt lat="46.16986" lon="6.63134">
        <ele>1364.95</ele>
        <time>2020-08-08T08:37:00.000Z</time>
      </trkpt>
      <trkpt lat="46.1702" lon="6.63143">
        <ele>1365.28</ele>
        <time>2020-08-08T08:37:10.000Z</time>
      </trkpt>
      <trkpt lat="46.17045" lon="6.63157">
        <ele>1369.67</ele>
        <time>2020-08-08T08:37:19.591Z</time>
      </trkpt>
      <trkpt lat="46.17073" lon="6.63171">
        <ele>1374.89</ele>
        <time>2020-08-08T08:37:29.000Z</time>
      </trkpt>
      <trkpt lat="46.17104" lon="6.63186">
        <ele>1376.3</ele>
        <time>2020-08-08T08:37:38.435Z</time>
      </trkpt>
      <trkpt lat="46.17127" lon="6.63206">
        <ele>1378.13</ele>
        <time>2020-08-08T08:37:48.000Z</time>
      </trkpt>
      <trkpt lat="46.17147" lon="6.63235">
        <ele>1379.9</ele>
        <time>2020-08-08T08:37:57.250Z</time>
      </trkpt>
      <trkpt lat="46.17172" lon="6.63264">
        <ele>1380.11</ele>
        <time>2020-08-08T08:38:06.750Z</time>
      </trkpt>
      <trkpt lat="46.17196" lon="6.63288">
        <ele>1383.77</ele>
        <time>2020-08-08T08:38:16.000Z</time>
      </trkpt>
      <trkpt lat="46.17221" lon="6.63313">
        <ele>1387.11</ele>
        <time>2020-08-08T08:38:25.633Z</time>
      </trkpt>
      <trkpt lat="46.17235" lon="6.63334">
        <ele>1390.32</ele>
        <time>2020-08-08T08:38:35.000Z</time>
      </trkpt>
      <trkpt lat="46.1725" lon="6.63357">
        <ele>1392.03</ele>
        <time>2020-08-08T08:38:44.429Z</time>
      </trkpt>
      <trkpt lat="46.17268" lon="6.63368">
        <ele>1392.78</ele>
        <time>2020-08-08T08:38:54.000Z</time>
      </trkpt>
      <trkpt lat="46.17279" lon="6.63376">
        <ele>1392.83</ele>
        <time>2020-08-08T08:39:03.630Z</time>
      </trkpt>
      <trkpt lat="46.17278" lon="6.63375">
        <ele>1392.83</ele>
        <time>2020-08-08T08:39:19.000Z</time>
      </trkpt>
      <trkpt lat="46.17279" lon="6.63375">
        <ele>1437.33</ele>
        <time>2020-08-08T08:39:33.930Z</time>
      </trkpt>
      <trkpt lat="46.17279" lon="6.63377">
        <ele>1437.33</ele>
        <time>2020-08-08T08:39:55.000Z</time>
      </trkpt>
      <trkpt lat="46.17279" lon="6.63375">
        <ele>1437.33</ele>
        <time>2020-08-08T08:40:05.000Z</time>
      </trkpt>
      <trkpt lat="46.17279" lon="6.63374">
        <ele>1437.33</ele>
        <time>2020-08-08T08:40:30.000Z</time>
      </trkpt>
      <trkpt lat="46.1728" lon="6.63375">
        <ele>1437.41</ele>
        <time>2020-08-08T08:40:39.534Z</time>
      </trkpt>
      <trkpt lat="46.17279" lon="6.63374">
        <ele>1437.33</ele>
        <time>2020-08-08T08:40:53.000Z</time>
      </trkpt>
      <trkpt lat="46.17278" lon="6.63373">
        <ele>1437.33</ele>
        <time>2020-08-08T08:41:02.428Z</time>
      </trkpt>
      <trkpt lat="46.17279" lon="6.63372">
        <ele>1437.33</ele>
        <time>2020-08-08T08:41:20.000Z</time>
      </trkpt>
      <trkpt lat="46.17307" lon="6.63394">
        <ele>1437.43</ele>
        <time>2020-08-08T08:41:30.000Z</time>
      </trkpt>
      <trkpt lat="46.1736" lon="6.63454">
        <ele>1437.43</ele>
        <time>2020-08-08T08:41:40.000Z</time>
      </trkpt>
      <trkpt lat="46.17401" lon="6.63533">
        <ele>1437.43</ele>
        <time>2020-08-08T08:41:50.000Z</time>
      </trkpt>
      <trkpt lat="46.17478" lon="6.63639">
        <ele>1437.43</ele>
        <time>2020-08-08T08:42:00.000Z</time>
      </trkpt>
      <trkpt lat="46.1759" lon="6.63734">
        <ele>1437.43</ele>
        <time>2020-08-08T08:42:10.000Z</time>
      </trkpt>
      <trkpt lat="46.17692" lon="6.63897">
        <ele>1437.43</ele>
        <time>2020-08-08T08:42:20.000Z</time>
      </trkpt>
      <trkpt lat="46.17805" lon="6.64047">
        <ele>1372.03</ele>
        <time>2020-08-08T08:42:30.000Z</time>
      </trkpt>
      <trkpt lat="46.17871" lon="6.6421">
        <ele>1357.69</ele>
        <time>2020-08-08T08:42:40.000Z</time>
      </trkpt>
      <trkpt lat="46.1793" lon="6.64338">
        <ele>1342.62</ele>
        <time>2020-08-08T08:42:50.000Z</time>
      </trkpt>
      <trkpt lat="46.17999" lon="6.64468">
        <ele>1328.71</ele>
        <time>2020-08-08T08:43:00.000Z</time>
      </trkpt>
      <trkpt lat="46.18093" lon="6.64586">
        <ele>1305.57</ele>
        <time>2020-08-08T08:43:10.000Z</time>
      </trkpt>
      <trkpt lat="46.18197" lon="6.64598">
        <ele>1282.27</ele>
        <time>2020-08-08T08:43:20.000Z</time>
      </trkpt>
      <trkpt lat="46.18298" lon="6.64563">
        <ele>1261.74</ele>
        <time>2020-08-08T08:43:30.000Z</time>
      </trkpt>
      <trkpt lat="46.18413" lon="6.64506">
        <ele>1238.42</ele>
        <time>2020-08-08T08:43:40.000Z</time>
      </trkpt>
      <trkpt lat="46.18466" lon="6.64438">
        <ele>1225.67</ele>
        <time>2020-08-08T08:43:50.000Z</time>
      </trkpt>
      <trkpt lat="46.18482" lon="6.64514">
        <ele>1216.42</ele>
        <time>2020-08-08T08:44:00.000Z</time>
      </trkpt>
      <trkpt lat="46.1848" lon="6.64572">
        <ele>1207.8</ele>
        <time>2020-08-08T08:44:10.000Z</time>
      </trkpt>
      <trkpt lat="46.18474" lon="6.64634">
        <ele>1199.89</ele>
        <time>2020-08-08T08:44:20.000Z</time>
      </trkpt>
      <trkpt lat="46.18477" lon="6.6469">
        <ele>1194.85</ele>
        <time>2020-08-08T08:44:29.708Z</time>
      </trkpt>
      <trkpt lat="46.18465" lon="6.64731">
        <ele>1188.32</ele>
        <time>2020-08-08T08:44:39.092Z</time>
      </trkpt>
      <trkpt lat="46.18438" lon="6.64771">
        <ele>1184.52</ele>
        <time>2020-08-08T08:44:49.000Z</time>
      </trkpt>
      <trkpt lat="46.18396" lon="6.6483">
        <ele>1180.63</ele>
        <time>2020-08-08T08:44:59.000Z</time>
      </trkpt>
      <trkpt lat="46.1837" lon="6.64903">
        <ele>1175.5</ele>
        <time>2020-08-08T08:45:09.000Z</time>
      </trkpt>
      <trkpt lat="46.18365" lon="6.65003">
        <ele>1177.38</ele>
        <time>2020-08-08T08:45:19.000Z</time>
      </trkpt>
      <trkpt lat="46.18382" lon="6.65107">
        <ele>1183.72</ele>
        <time>2020-08-08T08:45:29.000Z</time>
      </trkpt>
      <trkpt lat="46.18401" lon="6.65209">
        <ele>1188.98</ele>
        <time>2020-08-08T08:45:39.000Z</time>
      </trkpt>
      <trkpt lat="46.18421" lon="6.6532">
        <ele>1194</ele>
        <time>2020-08-08T08:45:49.000Z</time>
      </trkpt>
      <trkpt lat="46.18416" lon="6.65474">
        <ele>1195.98</ele>
        <time>2020-08-08T08:45:59.000Z</time>
      </trkpt>
      <trkpt lat="46.18424" lon="6.65629">
        <ele>1194.56</ele>
        <time>2020-08-08T08:46:09.000Z</time>
      </trkpt>
      <trkpt lat="46.18435" lon="6.6578">
        <ele>1191.53</ele>
        <time>2020-08-08T08:46:19.000Z</time>
      </trkpt>
      <trkpt lat="46.18455" lon="6.65951">
        <ele>1184.25</ele>
        <time>2020-08-08T08:46:29.000Z</time>
      </trkpt>
      <trkpt lat="46.18511" lon="6.6612">
        <ele>1173.34</ele>
        <time>2020-08-08T08:46:39.000Z</time>
      </trkpt>
      <trkpt lat="46.18529" lon="6.66306">
        <ele>1160.13</ele>
        <time>2020-08-08T08:46:49.000Z</time>
      </trkpt>
      <trkpt lat="46.18611" lon="6.66444">
        <ele>1145.9</ele>
        <time>2020-08-08T08:46:59.000Z</time>
      </trkpt>
      <trkpt lat="46.18683" lon="6.66572">
        <ele>1132.86</ele>
        <time>2020-08-08T08:47:09.000Z</time>
      </trkpt>
      <trkpt lat="46.18749" lon="6.66704">
        <ele>1119.22</ele>
        <time>2020-08-08T08:47:19.000Z</time>
      </trkpt>
      <trkpt lat="46.18783" lon="6.66832">
        <ele>1106.73</ele>
        <time>2020-08-08T08:47:29.000Z</time>
      </trkpt>
      <trkpt lat="46.18858" lon="6.66922">
        <ele>1093.92</ele>
        <time>2020-08-08T08:47:39.000Z</time>
      </trkpt>
      <trkpt lat="46.18942" lon="6.67018">
        <ele>1085.34</ele>
        <time>2020-08-08T08:47:49.000Z</time>
      </trkpt>
      <trkpt lat="46.1899" lon="6.67066">
        <ele>1078.61</ele>
        <time>2020-08-08T08:47:59.000Z</time>
      </trkpt>
      <trkpt lat="46.189" lon="6.67056">
        <ele>1072.13</ele>
        <time>2020-08-08T08:48:09.000Z</time>
      </trkpt>
      <trkpt lat="46.188" lon="6.67073">
        <ele>1068.33</ele>
        <time>2020-08-08T08:48:19.000Z</time>
      </trkpt>
      <trkpt lat="46.18736" lon="6.67096">
        <ele>1069.76</ele>
        <time>2020-08-08T08:48:29.000Z</time>
      </trkpt>
      <trkpt lat="46.18846" lon="6.67177">
        <ele>1065.77</ele>
        <time>2020-08-08T08:48:39.000Z</time>
      </trkpt>
      <trkpt lat="46.18949" lon="6.67267">
        <ele>1054.16</ele>
        <time>2020-08-08T08:48:49.000Z</time>
      </trkpt>
      <trkpt lat="46.1906" lon="6.67336">
        <ele>1040.83</ele>
        <time>2020-08-08T08:48:59.000Z</time>
      </trkpt>
      <trkpt lat="46.19101" lon="6.67365">
        <ele>1031.35</ele>
        <time>2020-08-08T08:49:09.000Z</time>
      </trkpt>
      <trkpt lat="46.19003" lon="6.67402">
        <ele>1024.74</ele>
        <time>2020-08-08T08:49:19.000Z</time>
      </trkpt>
      <trkpt lat="46.18889" lon="6.67432">
        <ele>1017</ele>
        <time>2020-08-08T08:49:29.000Z</time>
      </trkpt>
      <trkpt lat="46.18895" lon="6.67497">
        <ele>1011.01</ele>
        <time>2020-08-08T08:49:39.000Z</time>
      </trkpt>
      <trkpt lat="46.1903" lon="6.67524">
        <ele>1003.58</ele>
        <time>2020-08-08T08:49:49.000Z</time>
      </trkpt>
      <trkpt lat="46.19156" lon="6.67534">
        <ele>993.52</ele>
        <time>2020-08-08T08:49:59.000Z</time>
      </trkpt>
      <trkpt lat="46.19221" lon="6.67558">
        <ele>981.93</ele>
        <time>2020-08-08T08:50:09.000Z</time>
      </trkpt>
      <trkpt lat="46.19124" lon="6.67602">
        <ele>972.88</ele>
        <time>2020-08-08T08:50:19.000Z</time>
      </trkpt>
      <trkpt lat="46.19081" lon="6.67685">
        <ele>962.15</ele>
        <time>2020-08-08T08:50:29.000Z</time>
      </trkpt>
      <trkpt lat="46.19198" lon="6.67652">
        <ele>952.93</ele>
        <time>2020-08-08T08:50:39.000Z</time>
      </trkpt>
      <trkpt lat="46.19328" lon="6.67627">
        <ele>940.47</ele>
        <time>2020-08-08T08:50:49.000Z</time>
      </trkpt>
      <trkpt lat="46.19454" lon="6.67594">
        <ele>923.09</ele>
        <time>2020-08-08T08:50:59.000Z</time>
      </trkpt>
      <trkpt lat="46.19514" lon="6.67638">
        <ele>906.39</ele>
        <time>2020-08-08T08:51:09.000Z</time>
      </trkpt>
      <trkpt lat="46.19499" lon="6.67694">
        <ele>898.54</ele>
        <time>2020-08-08T08:51:19.000Z</time>
      </trkpt>
      <trkpt lat="46.19504" lon="6.67695">
        <ele>952.33</ele>
        <time>2020-08-08T08:51:29.000Z</time>
      </trkpt>
      <trkpt lat="46.19503" lon="6.67695">
        <ele>952.33</ele>
        <time>2020-08-08T08:51:42.000Z</time>
      </trkpt>
      <trkpt lat="46.19503" lon="6.67693">
        <ele>952.33</ele>
        <time>2020-08-08T08:52:39.000Z</time>
      </trkpt>
      <trkpt lat="46.19515" lon="6.67687">
        <ele>950.23</ele>
        <time>2020-08-08T08:52:49.000Z</time>
      </trkpt>
      <trkpt lat="46.19566" lon="6.67625">
        <ele>950.23</ele>
        <time>2020-08-08T08:52:59.000Z</time>
      </trkpt>
      <trkpt lat="46.19615" lon="6.6758">
        <ele>950.23</ele>
        <time>2020-08-08T08:53:09.000Z</time>
      </trkpt>
      <trkpt lat="46.19673" lon="6.67534">
        <ele>950.23</ele>
        <time>2020-08-08T08:53:19.000Z</time>
      </trkpt>
      <trkpt lat="46.19734" lon="6.67488">
        <ele>950.23</ele>
        <time>2020-08-08T08:53:29.000Z</time>
      </trkpt>
      <trkpt lat="46.19794" lon="6.67439">
        <ele>950.24</ele>
        <time>2020-08-08T08:53:39.000Z</time>
      </trkpt>
      <trkpt lat="46.19855" lon="6.67381">
        <ele>889.21</ele>
        <time>2020-08-08T08:53:49.000Z</time>
      </trkpt>
      <trkpt lat="46.19918" lon="6.67325">
        <ele>886.26</ele>
        <time>2020-08-08T08:53:59.000Z</time>
      </trkpt>
      <trkpt lat="46.19972" lon="6.67277">
        <ele>887.94</ele>
        <time>2020-08-08T08:54:09.000Z</time>
      </trkpt>
      <trkpt lat="46.20024" lon="6.67232">
        <ele>891.17</ele>
        <time>2020-08-08T08:54:19.000Z</time>
      </trkpt>
      <trkpt lat="46.2007" lon="6.6719">
        <ele>891.52</ele>
        <time>2020-08-08T08:54:29.000Z</time>
      </trkpt>
      <trkpt lat="46.20123" lon="6.67153">
        <ele>890.82</ele>
        <time>2020-08-08T08:54:39.000Z</time>
      </trkpt>
      <trkpt lat="46.20173" lon="6.67101">
        <ele>889.48</ele>
        <time>2020-08-08T08:54:49.000Z</time>
      </trkpt>
      <trkpt lat="46.2023" lon="6.67042">
        <ele>891.37</ele>
        <time>2020-08-08T08:54:59.000Z</time>
      </trkpt>
      <trkpt lat="46.20292" lon="6.66992">
        <ele>891.5</ele>
        <time>2020-08-08T08:55:09.000Z</time>
      </trkpt>
      <trkpt lat="46.2036" lon="6.66927">
        <ele>888.51</ele>
        <time>2020-08-08T08:55:19.000Z</time>
      </trkpt>
      <trkpt lat="46.20439" lon="6.6689">
        <ele>883.26</ele>
        <time>2020-08-08T08:55:29.000Z</time>
      </trkpt>
      <trkpt lat="46.20536" lon="6.66932">
        <ele>875.42</ele>
        <time>2020-08-08T08:55:39.000Z</time>
      </trkpt>
      <trkpt lat="46.20633" lon="6.6693">
        <ele>867.24</ele>
        <time>2020-08-08T08:55:49.000Z</time>
      </trkpt>
      <trkpt lat="46.20703" lon="6.66906">
        <ele>859.26</ele>
        <time>2020-08-08T08:55:59.000Z</time>
      </trkpt>
      <trkpt lat="46.20707" lon="6.66908">
        <ele>905.76</ele>
        <time>2020-08-08T08:56:09.000Z</time>
      </trkpt>
      <trkpt lat="46.20712" lon="6.66901">
        <ele>905.96</ele>
        <time>2020-08-08T08:56:18.632Z</time>
      </trkpt>
      <trkpt lat="46.20766" lon="6.66888">
        <ele>905.96</ele>
        <time>2020-08-08T08:56:28.000Z</time>
      </trkpt>
      <trkpt lat="46.20832" lon="6.66881">
        <ele>905.96</ele>
        <time>2020-08-08T08:56:38.000Z</time>
      </trkpt>
      <trkpt lat="46.20901" lon="6.66875">
        <ele>905.96</ele>
        <time>2020-08-08T08:56:48.000Z</time>
      </trkpt>
      <trkpt lat="46.20985" lon="6.66876">
        <ele>905.96</ele>
        <time>2020-08-08T08:56:58.000Z</time>
      </trkpt>
      <trkpt lat="46.21066" lon="6.66857">
        <ele>905.96</ele>
        <time>2020-08-08T08:57:08.000Z</time>
      </trkpt>
      <trkpt lat="46.21152" lon="6.66824">
        <ele>839.65</ele>
        <time>2020-08-08T08:57:18.000Z</time>
      </trkpt>
      <trkpt lat="46.2124" lon="6.66793">
        <ele>833.83</ele>
        <time>2020-08-08T08:57:28.000Z</time>
      </trkpt>
      <trkpt lat="46.21332" lon="6.66778">
        <ele>827.1</ele>
        <time>2020-08-08T08:57:38.000Z</time>
      </trkpt>
      <trkpt lat="46.21428" lon="6.66814">
        <ele>821.26</ele>
        <time>2020-08-08T08:57:48.000Z</time>
      </trkpt>
      <trkpt lat="46.21522" lon="6.66797">
        <ele>817.47</ele>
        <time>2020-08-08T08:57:58.000Z</time>
      </trkpt>
      <trkpt lat="46.2161" lon="6.66706">
        <ele>811.38</ele>
        <time>2020-08-08T08:58:08.000Z</time>
      </trkpt>
      <trkpt lat="46.21696" lon="6.66704">
        <ele>803.34</ele>
        <time>2020-08-08T08:58:18.000Z</time>
      </trkpt>
      <trkpt lat="46.21694" lon="6.66759">
        <ele>797.15</ele>
        <time>2020-08-08T08:58:28.000Z</time>
      </trkpt>
      <trkpt lat="46.21658" lon="6.6682">
        <ele>794.24</ele>
        <time>2020-08-08T08:58:38.000Z</time>
      </trkpt>
      <trkpt lat="46.21614" lon="6.66874">
        <ele>788.33</ele>
        <time>2020-08-08T08:58:48.000Z</time>
      </trkpt>
      <trkpt lat="46.21563" lon="6.66924">
        <ele>787.26</ele>
        <time>2020-08-08T08:58:58.000Z</time>
      </trkpt>
      <trkpt lat="46.21513" lon="6.66971">
        <ele>788</ele>
        <time>2020-08-08T08:59:08.000Z</time>
      </trkpt>
      <trkpt lat="46.21453" lon="6.67">
        <ele>792.64</ele>
        <time>2020-08-08T08:59:18.000Z</time>
      </trkpt>
      <trkpt lat="46.21392" lon="6.67021">
        <ele>795.45</ele>
        <time>2020-08-08T08:59:28.000Z</time>
      </trkpt>
      <trkpt lat="46.21334" lon="6.67059">
        <ele>795.5</ele>
        <time>2020-08-08T08:59:38.000Z</time>
      </trkpt>
      <trkpt lat="46.21274" lon="6.67097">
        <ele>793.64</ele>
        <time>2020-08-08T08:59:48.000Z</time>
      </trkpt>
      <trkpt lat="46.21215" lon="6.6714">
        <ele>793.82</ele>
        <time>2020-08-08T08:59:58.000Z</time>
      </trkpt>
      <trkpt lat="46.21157" lon="6.67179">
        <ele>797.8</ele>
        <time>2020-08-08T09:00:08.000Z</time>
      </trkpt>
      <trkpt lat="46.21096" lon="6.67215">
        <ele>801.08</ele>
        <time>2020-08-08T09:00:18.000Z</time>
      </trkpt>
      <trkpt lat="46.21037" lon="6.67253">
        <ele>804.53</ele>
        <time>2020-08-08T09:00:28.000Z</time>
      </trkpt>
      <trkpt lat="46.20987" lon="6.67286">
        <ele>809.85</ele>
        <time>2020-08-08T09:00:38.000Z</time>
      </trkpt>
      <trkpt lat="46.20942" lon="6.67314">
        <ele>814.6</ele>
        <time>2020-08-08T09:00:48.000Z</time>
      </trkpt>
      <trkpt lat="46.20885" lon="6.67356">
        <ele>814.04</ele>
        <time>2020-08-08T09:00:58.000Z</time>
      </trkpt>
      <trkpt lat="46.20826" lon="6.67393">
        <ele>813.16</ele>
        <time>2020-08-08T09:01:08.000Z</time>
      </trkpt>
      <trkpt lat="46.20768" lon="6.6743">
        <ele>810.11</ele>
        <time>2020-08-08T09:01:18.000Z</time>
      </trkpt>
      <trkpt lat="46.20715" lon="6.67466">
        <ele>811.74</ele>
        <time>2020-08-08T09:01:28.000Z</time>
      </trkpt>
      <trkpt lat="46.20664" lon="6.67503">
        <ele>811.33</ele>
        <time>2020-08-08T09:01:38.000Z</time>
      </trkpt>
      <trkpt lat="46.2061" lon="6.67538">
        <ele>809.97</ele>
        <time>2020-08-08T09:01:48.000Z</time>
      </trkpt>
      <trkpt lat="46.20559" lon="6.67567">
        <ele>807.65</ele>
        <time>2020-08-08T09:01:58.000Z</time>
      </trkpt>
      <trkpt lat="46.20509" lon="6.67605">
        <ele>809.25</ele>
        <time>2020-08-08T09:02:08.000Z</time>
      </trkpt>
      <trkpt lat="46.20507" lon="6.67626">
        <ele>812.53</ele>
        <time>2020-08-08T09:02:17.646Z</time>
      </trkpt>
      <trkpt lat="46.20522" lon="6.67622">
        <ele>819.88</ele>
        <time>2020-08-08T09:02:26.788Z</time>
      </trkpt>
      <trkpt lat="46.20528" lon="6.67617">
        <ele>821.05</ele>
        <time>2020-08-08T09:02:36.000Z</time>
      </trkpt>
      <trkpt lat="46.20526" lon="6.67616">
        <ele>820.7</ele>
        <time>2020-08-08T09:02:45.020Z</time>
      </trkpt>
      <trkpt lat="46.20512" lon="6.67609">
        <ele>823</ele>
        <time>2020-08-08T09:02:55.000Z</time>
      </trkpt>
      <trkpt lat="46.20504" lon="6.67613">
        <ele>824.9</ele>
        <time>2020-08-08T09:03:04.583Z</time>
      </trkpt>
      <trkpt lat="46.20444" lon="6.67657">
        <ele>825.01</ele>
        <time>2020-08-08T09:03:14.000Z</time>
      </trkpt>
      <trkpt lat="46.20399" lon="6.67706">
        <ele>822.4</ele>
        <time>2020-08-08T09:03:24.000Z</time>
      </trkpt>
      <trkpt lat="46.20387" lon="6.6778">
        <ele>822.15</ele>
        <time>2020-08-08T09:03:34.000Z</time>
      </trkpt>
      <trkpt lat="46.20352" lon="6.67839">
        <ele>821.15</ele>
        <time>2020-08-08T09:03:44.000Z</time>
      </trkpt>
      <trkpt lat="46.20308" lon="6.6788">
        <ele>820.25</ele>
        <time>2020-08-08T09:03:54.000Z</time>
      </trkpt>
      <trkpt lat="46.2029" lon="6.67951">
        <ele>822.46</ele>
        <time>2020-08-08T09:04:04.000Z</time>
      </trkpt>
      <trkpt lat="46.2029" lon="6.68031">
        <ele>827.43</ele>
        <time>2020-08-08T09:04:14.000Z</time>
      </trkpt>
      <trkpt lat="46.20284" lon="6.6811">
        <ele>835.72</ele>
        <time>2020-08-08T09:04:24.000Z</time>
      </trkpt>
      <trkpt lat="46.20269" lon="6.68184">
        <ele>845.21</ele>
        <time>2020-08-08T09:04:34.000Z</time>
      </trkpt>
      <trkpt lat="46.20245" lon="6.68263">
        <ele>849.5</ele>
        <time>2020-08-08T09:04:44.000Z</time>
      </trkpt>
      <trkpt lat="46.20222" lon="6.68319">
        <ele>847.85</ele>
        <time>2020-08-08T09:04:54.000Z</time>
      </trkpt>
      <trkpt lat="46.20188" lon="6.68362">
        <ele>843.42</ele>
        <time>2020-08-08T09:05:04.000Z</time>
      </trkpt>
      <trkpt lat="46.20156" lon="6.68406">
        <ele>840.16</ele>
        <time>2020-08-08T09:05:14.000Z</time>
      </trkpt>
      <trkpt lat="46.20123" lon="6.68479">
        <ele>837.3</ele>
        <time>2020-08-08T09:05:24.000Z</time>
      </trkpt>
      <trkpt lat="46.20099" lon="6.68577">
        <ele>836.32</ele>
        <time>2020-08-08T09:05:34.000Z</time>
      </trkpt>
      <trkpt lat="46.20083" lon="6.68669">
        <ele>834.63</ele>
        <time>2020-08-08T09:05:44.000Z</time>
      </trkpt>
      <trkpt lat="46.20071" lon="6.68757">
        <ele>834.85</ele>
        <time>2020-08-08T09:05:54.000Z</time>
      </trkpt>
      <trkpt lat="46.20049" lon="6.68844">
        <ele>835.86</ele>
        <time>2020-08-08T09:06:04.000Z</time>
      </trkpt>
      <trkpt lat="46.20034" lon="6.68917">
        <ele>838.21</ele>
        <time>2020-08-08T09:06:14.000Z</time>
      </trkpt>
      <trkpt lat="46.20014" lon="6.68962">
        <ele>841.17</ele>
        <time>2020-08-08T09:06:24.000Z</time>
      </trkpt>
      <trkpt lat="46.19991" lon="6.68953">
        <ele>906.13</ele>
        <time>2020-08-08T09:06:34.000Z</time>
      </trkpt>
      <trkpt lat="46.19945" lon="6.68955">
        <ele>906.13</ele>
        <time>2020-08-08T09:06:43.546Z</time>
      </trkpt>
      <trkpt lat="46.19918" lon="6.68989">
        <ele>906.13</ele>
        <time>2020-08-08T09:06:53.000Z</time>
      </trkpt>
      <trkpt lat="46.19899" lon="6.69019">
        <ele>906.13</ele>
        <time>2020-08-08T09:07:02.311Z</time>
      </trkpt>
      <trkpt lat="46.19888" lon="6.69056">
        <ele>906.12</ele>
        <time>2020-08-08T09:07:11.706Z</time>
      </trkpt>
      <trkpt lat="46.19889" lon="6.69065">
        <ele>906.12</ele>
        <time>2020-08-08T09:07:21.000Z</time>
      </trkpt>
      <trkpt lat="46.19888" lon="6.69059">
        <ele>876.35</ele>
        <time>2020-08-08T09:07:31.000Z</time>
      </trkpt>
      <trkpt lat="46.19925" lon="6.68969">
        <ele>865.03</ele>
        <time>2020-08-08T09:07:41.000Z</time>
      </trkpt>
      <trkpt lat="46.19993" lon="6.68951">
        <ele>858.28</ele>
        <time>2020-08-08T09:07:51.000Z</time>
      </trkpt>
      <trkpt lat="46.2001" lon="6.68996">
        <ele>901.9</ele>
        <time>2020-08-08T09:08:00.006Z</time>
      </trkpt>
      <trkpt lat="46.2002" lon="6.69024">
        <ele>917.93</ele>
        <time>2020-08-08T09:08:09.225Z</time>
      </trkpt>
      <trkpt lat="46.20027" lon="6.69026">
        <ele>915.03</ele>
        <time>2020-08-08T09:08:18.463Z</time>
      </trkpt>
      <trkpt lat="46.20015" lon="6.68967">
        <ele>915.03</ele>
        <time>2020-08-08T09:08:28.000Z</time>
      </trkpt>
      <trkpt lat="46.20031" lon="6.68899">
        <ele>915.03</ele>
        <time>2020-08-08T09:08:38.000Z</time>
      </trkpt>
      <trkpt lat="46.20056" lon="6.68808">
        <ele>915.03</ele>
        <time>2020-08-08T09:08:48.000Z</time>
      </trkpt>
      <trkpt lat="46.20076" lon="6.68706">
        <ele>915.03</ele>
        <time>2020-08-08T09:08:58.000Z</time>
      </trkpt>
      <trkpt lat="46.20094" lon="6.68602">
        <ele>915.03</ele>
        <time>2020-08-08T09:09:08.000Z</time>
      </trkpt>
      <trkpt lat="46.20112" lon="6.68509">
        <ele>915.03</ele>
        <time>2020-08-08T09:09:18.000Z</time>
      </trkpt>
      <trkpt lat="46.20135" lon="6.6843">
        <ele>841.28</ele>
        <time>2020-08-08T09:09:28.000Z</time>
      </trkpt>
      <trkpt lat="46.20168" lon="6.68382">
        <ele>840.06</ele>
        <time>2020-08-08T09:09:38.000Z</time>
      </trkpt>
      <trkpt lat="46.20205" lon="6.6834">
        <ele>839.29</ele>
        <time>2020-08-08T09:09:48.000Z</time>
      </trkpt>
      <trkpt lat="46.20203" lon="6.68321">
        <ele>840.68</ele>
        <time>2020-08-08T09:09:58.000Z</time>
      </trkpt>
      <trkpt lat="46.20184" lon="6.68359">
        <ele>840.25</ele>
        <time>2020-08-08T09:10:08.000Z</time>
      </trkpt>
      <trkpt lat="46.20181" lon="6.68365">
        <ele>840.44</ele>
        <time>2020-08-08T09:10:18.000Z</time>
      </trkpt>
      <trkpt lat="46.2018" lon="6.68368">
        <ele>839.19</ele>
        <time>2020-08-08T09:10:27.363Z</time>
      </trkpt>
      <trkpt lat="46.20153" lon="6.68397">
        <ele>906.13</ele>
        <time>2020-08-08T09:10:36.582Z</time>
      </trkpt>
      <trkpt lat="46.20137" lon="6.68422">
        <ele>906.13</ele>
        <time>2020-08-08T09:10:46.000Z</time>
      </trkpt>
      <trkpt lat="46.20149" lon="6.68436">
        <ele>906.13</ele>
        <time>2020-08-08T09:10:55.301Z</time>
      </trkpt>
      <trkpt lat="46.20161" lon="6.68465">
        <ele>906.13</ele>
        <time>2020-08-08T09:11:04.581Z</time>
      </trkpt>
      <trkpt lat="46.20166" lon="6.68505">
        <ele>906.13</ele>
        <time>2020-08-08T09:11:14.000Z</time>
      </trkpt>
      <trkpt lat="46.20165" lon="6.6855">
        <ele>906.13</ele>
        <time>2020-08-08T09:11:23.380Z</time>
      </trkpt>
      <trkpt lat="46.20161" lon="6.68577">
        <ele>861.88</ele>
        <time>2020-08-08T09:11:32.602Z</time>
      </trkpt>
      <trkpt lat="46.20157" lon="6.68615">
        <ele>862.31</ele>
        <time>2020-08-08T09:11:42.000Z</time>
      </trkpt>
      <trkpt lat="46.20155" lon="6.68655">
        <ele>864.94</ele>
        <time>2020-08-08T09:11:52.000Z</time>
      </trkpt>
      <trkpt lat="46.20154" lon="6.68692">
        <ele>865.81</ele>
        <time>2020-08-08T09:12:02.000Z</time>
      </trkpt>
      <trkpt lat="46.20154" lon="6.68727">
        <ele>869.57</ele>
        <time>2020-08-08T09:12:11.524Z</time>
      </trkpt>
      <trkpt lat="46.2016" lon="6.68767">
        <ele>872.79</ele>
        <time>2020-08-08T09:12:20.594Z</time>
      </trkpt>
      <trkpt lat="46.20158" lon="6.688">
        <ele>875.68</ele>
        <time>2020-08-08T09:12:30.340Z</time>
      </trkpt>
      <trkpt lat="46.20151" lon="6.68834">
        <ele>875.43</ele>
        <time>2020-08-08T09:12:40.000Z</time>
      </trkpt>
      <trkpt lat="46.20145" lon="6.68869">
        <ele>877.09</ele>
        <time>2020-08-08T09:12:49.463Z</time>
      </trkpt>
      <trkpt lat="46.20138" lon="6.68897">
        <ele>878.76</ele>
        <time>2020-08-08T09:12:59.000Z</time>
      </trkpt>
      <trkpt lat="46.20138" lon="6.6893">
        <ele>882.73</ele>
        <time>2020-08-08T09:13:08.136Z</time>
      </trkpt>
      <trkpt lat="46.20142" lon="6.68964">
        <ele>886.22</ele>
        <time>2020-08-08T09:13:17.302Z</time>
      </trkpt>
      <trkpt lat="46.20149" lon="6.68998">
        <ele>886.31</ele>
        <time>2020-08-08T09:13:27.000Z</time>
      </trkpt>
      <trkpt lat="46.20156" lon="6.69034">
        <ele>888.03</ele>
        <time>2020-08-08T09:13:37.000Z</time>
      </trkpt>
      <trkpt lat="46.20166" lon="6.6907">
        <ele>888.7</ele>
        <time>2020-08-08T09:13:47.000Z</time>
      </trkpt>
      <trkpt lat="46.20172" lon="6.69107">
        <ele>888.95</ele>
        <time>2020-08-08T09:13:57.000Z</time>
      </trkpt>
      <trkpt lat="46.20175" lon="6.69144">
        <ele>888.09</ele>
        <time>2020-08-08T09:14:07.000Z</time>
      </trkpt>
      <trkpt lat="46.20179" lon="6.69182">
        <ele>890.2</ele>
        <time>2020-08-08T09:14:16.739Z</time>
      </trkpt>
      <trkpt lat="46.20193" lon="6.69222">
        <ele>895.01</ele>
        <time>2020-08-08T09:14:26.238Z</time>
      </trkpt>
      <trkpt lat="46.20206" lon="6.69265">
        <ele>899.29</ele>
        <time>2020-08-08T09:14:35.300Z</time>
      </trkpt>
      <trkpt lat="46.20227" lon="6.69312">
        <ele>903.01</ele>
        <time>2020-08-08T09:14:44.661Z</time>
      </trkpt>
      <trkpt lat="46.20243" lon="6.69365">
        <ele>904.03</ele>
        <time>2020-08-08T09:14:53.665Z</time>
      </trkpt>
      <trkpt lat="46.20247" lon="6.69418">
        <ele>905.2</ele>
        <time>2020-08-08T09:15:03.000Z</time>
      </trkpt>
      <trkpt lat="46.20246" lon="6.69468">
        <ele>907.24</ele>
        <time>2020-08-08T09:15:13.000Z</time>
      </trkpt>
      <trkpt lat="46.20243" lon="6.69521">
        <ele>906.66</ele>
        <time>2020-08-08T09:15:22.741Z</time>
      </trkpt>
      <trkpt lat="46.20267" lon="6.69573">
        <ele>903.97</ele>
        <time>2020-08-08T09:15:32.000Z</time>
      </trkpt>
      <trkpt lat="46.20291" lon="6.69612">
        <ele>905.85</ele>
        <time>2020-08-08T09:15:41.012Z</time>
      </trkpt>
      <trkpt lat="46.2031" lon="6.6964">
        <ele>908.8</ele>
        <time>2020-08-08T09:15:50.233Z</time>
      </trkpt>
      <trkpt lat="46.20324" lon="6.69671">
        <ele>911.21</ele>
        <time>2020-08-08T09:15:59.454Z</time>
      </trkpt>
      <trkpt lat="46.20334" lon="6.69705">
        <ele>913.6</ele>
        <time>2020-08-08T09:16:08.596Z</time>
      </trkpt>
      <trkpt lat="46.20347" lon="6.6974">
        <ele>917.67</ele>
        <time>2020-08-08T09:16:18.000Z</time>
      </trkpt>
      <trkpt lat="46.20358" lon="6.69776">
        <ele>920.66</ele>
        <time>2020-08-08T09:16:28.000Z</time>
      </trkpt>
      <trkpt lat="46.20359" lon="6.69812">
        <ele>921.28</ele>
        <time>2020-08-08T09:16:37.373Z</time>
      </trkpt>
      <trkpt lat="46.20365" lon="6.69845">
        <ele>923.15</ele>
        <time>2020-08-08T09:16:46.397Z</time>
      </trkpt>
      <trkpt lat="46.20372" lon="6.6988">
        <ele>924.08</ele>
        <time>2020-08-08T09:16:56.000Z</time>
      </trkpt>
      <trkpt lat="46.20376" lon="6.69918">
        <ele>923.89</ele>
        <time>2020-08-08T09:17:06.000Z</time>
      </trkpt>
      <trkpt lat="46.20381" lon="6.69958">
        <ele>925.2</ele>
        <time>2020-08-08T09:17:15.294Z</time>
      </trkpt>
      <trkpt lat="46.20385" lon="6.69995">
        <ele>929.19</ele>
        <time>2020-08-08T09:17:24.575Z</time>
      </trkpt>
      <trkpt lat="46.20391" lon="6.70034">
        <ele>933.12</ele>
        <time>2020-08-08T09:17:33.677Z</time>
      </trkpt>
      <trkpt lat="46.20403" lon="6.7007">
        <ele>935.63</ele>
        <time>2020-08-08T09:17:43.000Z</time>
      </trkpt>
      <trkpt lat="46.20417" lon="6.7011">
        <ele>936.28</ele>
        <time>2020-08-08T09:17:53.000Z</time>
      </trkpt>
      <trkpt lat="46.20438" lon="6.70145">
        <ele>936.93</ele>
        <time>2020-08-08T09:18:02.740Z</time>
      </trkpt>
      <trkpt lat="46.20464" lon="6.70182">
        <ele>937.87</ele>
        <time>2020-08-08T09:18:12.000Z</time>
      </trkpt>
      <trkpt lat="46.20472" lon="6.7023">
        <ele>938.23</ele>
        <time>2020-08-08T09:18:21.022Z</time>
      </trkpt>
      <trkpt lat="46.2048" lon="6.70293">
        <ele>940.98</ele>
        <time>2020-08-08T09:18:31.000Z</time>
      </trkpt>
      <trkpt lat="46.2049" lon="6.70361">
        <ele>940.23</ele>
        <time>2020-08-08T09:18:41.000Z</time>
      </trkpt>
      <trkpt lat="46.20516" lon="6.70432">
        <ele>938.99</ele>
        <time>2020-08-08T09:18:51.000Z</time>
      </trkpt>
      <trkpt lat="46.20545" lon="6.70504">
        <ele>937.49</ele>
        <time>2020-08-08T09:19:01.000Z</time>
      </trkpt>
      <trkpt lat="46.20538" lon="6.70583">
        <ele>936.15</ele>
        <time>2020-08-08T09:19:11.000Z</time>
      </trkpt>
      <trkpt lat="46.20537" lon="6.70651">
        <ele>935.72</ele>
        <time>2020-08-08T09:19:21.000Z</time>
      </trkpt>
      <trkpt lat="46.2054" lon="6.7072">
        <ele>937.67</ele>
        <time>2020-08-08T09:19:31.000Z</time>
      </trkpt>
      <trkpt lat="46.20548" lon="6.70789">
        <ele>941.91</ele>
        <time>2020-08-08T09:19:41.000Z</time>
      </trkpt>
      <trkpt lat="46.2057" lon="6.70854">
        <ele>944.93</ele>
        <time>2020-08-08T09:19:51.000Z</time>
      </trkpt>
      <trkpt lat="46.20603" lon="6.70917">
        <ele>947.16</ele>
        <time>2020-08-08T09:20:01.000Z</time>
      </trkpt>
      <trkpt lat="46.20631" lon="6.70977">
        <ele>947.21</ele>
        <time>2020-08-08T09:20:11.000Z</time>
      </trkpt>
      <trkpt lat="46.20659" lon="6.71046">
        <ele>947.89</ele>
        <time>2020-08-08T09:20:21.000Z</time>
      </trkpt>
      <trkpt lat="46.2067" lon="6.71104">
        <ele>949.27</ele>
        <time>2020-08-08T09:20:31.000Z</time>
      </trkpt>
      <trkpt lat="46.20678" lon="6.71148">
        <ele>999.02</ele>
        <time>2020-08-08T09:20:40.348Z</time>
      </trkpt>
      <trkpt lat="46.20684" lon="6.71182">
        <ele>999.02</ele>
        <time>2020-08-08T09:20:49.493Z</time>
      </trkpt>
      <trkpt lat="46.207" lon="6.71215">
        <ele>999.02</ele>
        <time>2020-08-08T09:20:59.000Z</time>
      </trkpt>
      <trkpt lat="46.20724" lon="6.71214">
        <ele>999.03</ele>
        <time>2020-08-08T09:21:09.000Z</time>
      </trkpt>
      <trkpt lat="46.20739" lon="6.71189">
        <ele>999.03</ele>
        <time>2020-08-08T09:21:18.549Z</time>
      </trkpt>
      <trkpt lat="46.2075" lon="6.71158">
        <ele>999.03</ele>
        <time>2020-08-08T09:21:28.000Z</time>
      </trkpt>
      <trkpt lat="46.20752" lon="6.7112">
        <ele>966.2</ele>
        <time>2020-08-08T09:21:37.692Z</time>
      </trkpt>
      <trkpt lat="46.2075" lon="6.71088">
        <ele>967.75</ele>
        <time>2020-08-08T09:21:47.000Z</time>
      </trkpt>
      <trkpt lat="46.20748" lon="6.71056">
        <ele>970.39</ele>
        <time>2020-08-08T09:21:56.688Z</time>
      </trkpt>
      <trkpt lat="46.20739" lon="6.71035">
        <ele>971.66</ele>
        <time>2020-08-08T09:22:06.000Z</time>
      </trkpt>
      <trkpt lat="46.20753" lon="6.71007">
        <ele>973.12</ele>
        <time>2020-08-08T09:22:15.351Z</time>
      </trkpt>
      <trkpt lat="46.20762" lon="6.71006">
        <ele>978.23</ele>
        <time>2020-08-08T09:22:24.575Z</time>
      </trkpt>
      <trkpt lat="46.20765" lon="6.7102">
        <ele>982.99</ele>
        <time>2020-08-08T09:22:34.000Z</time>
      </trkpt>
      <trkpt lat="46.20773" lon="6.71036">
        <ele>986.85</ele>
        <time>2020-08-08T09:22:43.149Z</time>
      </trkpt>
      <trkpt lat="46.20783" lon="6.7105">
        <ele>986.33</ele>
        <time>2020-08-08T09:22:52.652Z</time>
      </trkpt>
      <trkpt lat="46.20792" lon="6.71064">
        <ele>984.93</ele>
        <time>2020-08-08T09:23:02.000Z</time>
      </trkpt>
      <trkpt lat="46.208" lon="6.71083">
        <ele>985.58</ele>
        <time>2020-08-08T09:23:11.316Z</time>
      </trkpt>
      <trkpt lat="46.20818" lon="6.71133">
        <ele>986.15</ele>
        <time>2020-08-08T09:23:21.000Z</time>
      </trkpt>
      <trkpt lat="46.20831" lon="6.71198">
        <ele>987.35</ele>
        <time>2020-08-08T09:23:30.318Z</time>
      </trkpt>
      <trkpt lat="46.20837" lon="6.71244">
        <ele>989.42</ele>
        <time>2020-08-08T09:23:40.000Z</time>
      </trkpt>
      <trkpt lat="46.20833" lon="6.71273">
        <ele>993.72</ele>
        <time>2020-08-08T09:23:49.191Z</time>
      </trkpt>
      <trkpt lat="46.20823" lon="6.7129">
        <ele>994.13</ele>
        <time>2020-08-08T09:23:58.474Z</time>
      </trkpt>
      <trkpt lat="46.20817" lon="6.71317">
        <ele>991.75</ele>
        <time>2020-08-08T09:24:07.728Z</time>
      </trkpt>
      <trkpt lat="46.20813" lon="6.71347">
        <ele>992.53</ele>
        <time>2020-08-08T09:24:17.000Z</time>
      </trkpt>
      <trkpt lat="46.20806" lon="6.71381">
        <ele>996.08</ele>
        <time>2020-08-08T09:24:27.372Z</time>
      </trkpt>
      <trkpt lat="46.20798" lon="6.71419">
        <ele>998.25</ele>
        <time>2020-08-08T09:24:36.816Z</time>
      </trkpt>
      <trkpt lat="46.2079" lon="6.71461">
        <ele>1001.75</ele>
        <time>2020-08-08T09:24:46.337Z</time>
      </trkpt>
      <trkpt lat="46.2078" lon="6.71497">
        <ele>1002.29</ele>
        <time>2020-08-08T09:24:56.000Z</time>
      </trkpt>
      <trkpt lat="46.20787" lon="6.71542">
        <ele>999.82</ele>
        <time>2020-08-08T09:25:05.733Z</time>
      </trkpt>
      <trkpt lat="46.20799" lon="6.71573">
        <ele>1003.53</ele>
        <time>2020-08-08T09:25:15.000Z</time>
      </trkpt>
      <trkpt lat="46.20812" lon="6.71595">
        <ele>1006.89</ele>
        <time>2020-08-08T09:25:25.000Z</time>
      </trkpt>
      <trkpt lat="46.20831" lon="6.71628">
        <ele>1006.33</ele>
        <time>2020-08-08T09:25:35.000Z</time>
      </trkpt>
      <trkpt lat="46.20842" lon="6.71659">
        <ele>1008.05</ele>
        <time>2020-08-08T09:25:44.532Z</time>
      </trkpt>
      <trkpt lat="46.20844" lon="6.71683">
        <ele>1009.42</ele>
        <time>2020-08-08T09:25:53.656Z</time>
      </trkpt>
      <trkpt lat="46.20847" lon="6.71713">
        <ele>1011.94</ele>
        <time>2020-08-08T09:26:03.000Z</time>
      </trkpt>
      <trkpt lat="46.20848" lon="6.71758">
        <ele>1016.5</ele>
        <time>2020-08-08T09:26:12.368Z</time>
      </trkpt>
      <trkpt lat="46.20856" lon="6.71799">
        <ele>1018.72</ele>
        <time>2020-08-08T09:26:21.632Z</time>
      </trkpt>
      <trkpt lat="46.2087" lon="6.71842">
        <ele>1021.94</ele>
        <time>2020-08-08T09:26:31.071Z</time>
      </trkpt>
      <trkpt lat="46.2088" lon="6.71886">
        <ele>1023.21</ele>
        <time>2020-08-08T09:26:40.691Z</time>
      </trkpt>
      <trkpt lat="46.20891" lon="6.71933">
        <ele>1022.36</ele>
        <time>2020-08-08T09:26:50.000Z</time>
      </trkpt>
      <trkpt lat="46.20899" lon="6.71985">
        <ele>1023.44</ele>
        <time>2020-08-08T09:26:59.374Z</time>
      </trkpt>
      <trkpt lat="46.20921" lon="6.72036">
        <ele>1021.76</ele>
        <time>2020-08-08T09:27:09.000Z</time>
      </trkpt>
      <trkpt lat="46.20949" lon="6.72063">
        <ele>1022.48</ele>
        <time>2020-08-08T09:27:18.194Z</time>
      </trkpt>
      <trkpt lat="46.20985" lon="6.72085">
        <ele>1024.52</ele>
        <time>2020-08-08T09:27:27.438Z</time>
      </trkpt>
      <trkpt lat="46.21024" lon="6.72126">
        <ele>1026.29</ele>
        <time>2020-08-08T09:27:37.000Z</time>
      </trkpt>
      <trkpt lat="46.21045" lon="6.72187">
        <ele>1027.59</ele>
        <time>2020-08-08T09:27:47.000Z</time>
      </trkpt>
      <trkpt lat="46.21062" lon="6.72263">
        <ele>1030.41</ele>
        <time>2020-08-08T09:27:57.000Z</time>
      </trkpt>
      <trkpt lat="46.21053" lon="6.72339">
        <ele>1030.51</ele>
        <time>2020-08-08T09:28:07.000Z</time>
      </trkpt>
      <trkpt lat="46.21039" lon="6.72416">
        <ele>1026.73</ele>
        <time>2020-08-08T09:28:17.000Z</time>
      </trkpt>
      <trkpt lat="46.21036" lon="6.72495">
        <ele>1025.99</ele>
        <time>2020-08-08T09:28:27.000Z</time>
      </trkpt>
      <trkpt lat="46.21034" lon="6.72575">
        <ele>1023.21</ele>
        <time>2020-08-08T09:28:37.000Z</time>
      </trkpt>
      <trkpt lat="46.21032" lon="6.72646">
        <ele>1019.44</ele>
        <time>2020-08-08T09:28:47.000Z</time>
      </trkpt>
      <trkpt lat="46.21041" lon="6.72727">
        <ele>1020.32</ele>
        <time>2020-08-08T09:28:57.000Z</time>
      </trkpt>
      <trkpt lat="46.21039" lon="6.72798">
        <ele>1024.58</ele>
        <time>2020-08-08T09:29:07.000Z</time>
      </trkpt>
      <trkpt lat="46.21037" lon="6.72868">
        <ele>1026.52</ele>
        <time>2020-08-08T09:29:17.000Z</time>
      </trkpt>
      <trkpt lat="46.21044" lon="6.72942">
        <ele>1027.98</ele>
        <time>2020-08-08T09:29:27.000Z</time>
      </trkpt>
      <trkpt lat="46.21048" lon="6.73019">
        <ele>1031.16</ele>
        <time>2020-08-08T09:29:37.000Z</time>
      </trkpt>
      <trkpt lat="46.2104" lon="6.73105">
        <ele>1030.25</ele>
        <time>2020-08-08T09:29:47.000Z</time>
      </trkpt>
      <trkpt lat="46.21052" lon="6.73207">
        <ele>1024.7</ele>
        <time>2020-08-08T09:29:57.000Z</time>
      </trkpt>
      <trkpt lat="46.21071" lon="6.73303">
        <ele>1022.29</ele>
        <time>2020-08-08T09:30:07.000Z</time>
      </trkpt>
      <trkpt lat="46.21084" lon="6.734">
        <ele>1023.44</ele>
        <time>2020-08-08T09:30:17.000Z</time>
      </trkpt>
      <trkpt lat="46.21095" lon="6.73495">
        <ele>1024.19</ele>
        <time>2020-08-08T09:30:27.000Z</time>
      </trkpt>
      <trkpt lat="46.21104" lon="6.73586">
        <ele>1024.42</ele>
        <time>2020-08-08T09:30:37.000Z</time>
      </trkpt>
      <trkpt lat="46.21118" lon="6.73652">
        <ele>1026.77</ele>
        <time>2020-08-08T09:30:47.000Z</time>
      </trkpt>
      <trkpt lat="46.21121" lon="6.7369">
        <ele>1028.07</ele>
        <time>2020-08-08T09:30:56.321Z</time>
      </trkpt>
      <trkpt lat="46.21114" lon="6.73718">
        <ele>1032.1</ele>
        <time>2020-08-08T09:31:05.624Z</time>
      </trkpt>
      <trkpt lat="46.21117" lon="6.73747">
        <ele>1037.08</ele>
        <time>2020-08-08T09:31:14.786Z</time>
      </trkpt>
      <trkpt lat="46.21125" lon="6.73778">
        <ele>1048.12</ele>
        <time>2020-08-08T09:31:24.000Z</time>
      </trkpt>
      <trkpt lat="46.21134" lon="6.73813">
        <ele>1054.08</ele>
        <time>2020-08-08T09:31:33.449Z</time>
      </trkpt>
      <trkpt lat="46.21139" lon="6.73846">
        <ele>1055.23</ele>
        <time>2020-08-08T09:31:42.704Z</time>
      </trkpt>
      <trkpt lat="46.21143" lon="6.73886">
        <ele>1054.45</ele>
        <time>2020-08-08T09:31:52.000Z</time>
      </trkpt>
      <trkpt lat="46.21149" lon="6.73916">
        <ele>1053.97</ele>
        <time>2020-08-08T09:32:01.028Z</time>
      </trkpt>
      <trkpt lat="46.21154" lon="6.73959">
        <ele>1052.88</ele>
        <time>2020-08-08T09:32:10.131Z</time>
      </trkpt>
      <trkpt lat="46.21164" lon="6.74">
        <ele>1053.41</ele>
        <time>2020-08-08T09:32:19.690Z</time>
      </trkpt>
      <trkpt lat="46.21171" lon="6.74037">
        <ele>1055.98</ele>
        <time>2020-08-08T09:32:29.128Z</time>
      </trkpt>
      <trkpt lat="46.21176" lon="6.74072">
        <ele>1056.34</ele>
        <time>2020-08-08T09:32:38.231Z</time>
      </trkpt>
      <trkpt lat="46.21178" lon="6.74109">
        <ele>1057.81</ele>
        <time>2020-08-08T09:32:47.749Z</time>
      </trkpt>
      <trkpt lat="46.2118" lon="6.74144">
        <ele>1058.04</ele>
        <time>2020-08-08T09:32:57.000Z</time>
      </trkpt>
      <trkpt lat="46.21185" lon="6.74181">
        <ele>1059.11</ele>
        <time>2020-08-08T09:33:06.430Z</time>
      </trkpt>
      <trkpt lat="46.21189" lon="6.74215">
        <ele>1060.59</ele>
        <time>2020-08-08T09:33:15.747Z</time>
      </trkpt>
      <trkpt lat="46.21193" lon="6.74244">
        <ele>1066.26</ele>
        <time>2020-08-08T09:33:25.000Z</time>
      </trkpt>
      <trkpt lat="46.21202" lon="6.74265">
        <ele>1073.1</ele>
        <time>2020-08-08T09:33:34.110Z</time>
      </trkpt>
      <trkpt lat="46.21219" lon="6.7428">
        <ele>1080.62</ele>
        <time>2020-08-08T09:33:44.000Z</time>
      </trkpt>
      <trkpt lat="46.21234" lon="6.74313">
        <ele>1085.93</ele>
        <time>2020-08-08T09:33:54.000Z</time>
      </trkpt>
      <trkpt lat="46.21242" lon="6.7435">
        <ele>1088.77</ele>
        <time>2020-08-08T09:34:04.000Z</time>
      </trkpt>
      <trkpt lat="46.21253" lon="6.74387">
        <ele>1088.21</ele>
        <time>2020-08-08T09:34:13.746Z</time>
      </trkpt>
      <trkpt lat="46.21261" lon="6.74418">
        <ele>1088.87</ele>
        <time>2020-08-08T09:34:22.949Z</time>
      </trkpt>
      <trkpt lat="46.21267" lon="6.74455">
        <ele>1089.78</ele>
        <time>2020-08-08T09:34:32.000Z</time>
      </trkpt>
      <trkpt lat="46.21269" lon="6.74485">
        <ele>1088.93</ele>
        <time>2020-08-08T09:34:41.765Z</time>
      </trkpt>
      <trkpt lat="46.21271" lon="6.74516">
        <ele>1087.7</ele>
        <time>2020-08-08T09:34:52.000Z</time>
      </trkpt>
      <trkpt lat="46.21275" lon="6.74551">
        <ele>1088.54</ele>
        <time>2020-08-08T09:35:02.000Z</time>
      </trkpt>
      <trkpt lat="46.21279" lon="6.74589">
        <ele>1088.99</ele>
        <time>2020-08-08T09:35:11.425Z</time>
      </trkpt>
      <trkpt lat="46.21292" lon="6.74622">
        <ele>1089.6</ele>
        <time>2020-08-08T09:35:20.546Z</time>
      </trkpt>
      <trkpt lat="46.21302" lon="6.7465">
        <ele>1090.52</ele>
        <time>2020-08-08T09:35:30.000Z</time>
      </trkpt>
      <trkpt lat="46.21316" lon="6.74679">
        <ele>1094.34</ele>
        <time>2020-08-08T09:35:40.000Z</time>
      </trkpt>
      <trkpt lat="46.21323" lon="6.74707">
        <ele>1098.23</ele>
        <time>2020-08-08T09:35:50.000Z</time>
      </trkpt>
      <trkpt lat="46.21333" lon="6.74728">
        <ele>1103.5</ele>
        <time>2020-08-08T09:35:59.484Z</time>
      </trkpt>
      <trkpt lat="46.21352" lon="6.74761">
        <ele>1107.87</ele>
        <time>2020-08-08T09:36:08.546Z</time>
      </trkpt>
      <trkpt lat="46.21369" lon="6.74789">
        <ele>1111.7</ele>
        <time>2020-08-08T09:36:17.766Z</time>
      </trkpt>
      <trkpt lat="46.21384" lon="6.74808">
        <ele>1111.52</ele>
        <time>2020-08-08T09:36:27.000Z</time>
      </trkpt>
      <trkpt lat="46.21402" lon="6.74836">
        <ele>1113.61</ele>
        <time>2020-08-08T09:36:37.000Z</time>
      </trkpt>
      <trkpt lat="46.21417" lon="6.74867">
        <ele>1116.82</ele>
        <time>2020-08-08T09:36:46.448Z</time>
      </trkpt>
      <trkpt lat="46.21429" lon="6.74904">
        <ele>1121.79</ele>
        <time>2020-08-08T09:36:55.631Z</time>
      </trkpt>
      <trkpt lat="46.21438" lon="6.7493">
        <ele>1125.77</ele>
        <time>2020-08-08T09:37:05.000Z</time>
      </trkpt>
      <trkpt lat="46.21445" lon="6.74958">
        <ele>1130.88</ele>
        <time>2020-08-08T09:37:14.250Z</time>
      </trkpt>
      <trkpt lat="46.21458" lon="6.74988">
        <ele>1133.97</ele>
        <time>2020-08-08T09:37:23.412Z</time>
      </trkpt>
      <trkpt lat="46.2147" lon="6.75022">
        <ele>1136.32</ele>
        <time>2020-08-08T09:37:33.000Z</time>
      </trkpt>
      <trkpt lat="46.21485" lon="6.75053">
        <ele>1135.11</ele>
        <time>2020-08-08T09:37:42.408Z</time>
      </trkpt>
      <trkpt lat="46.21499" lon="6.75074">
        <ele>1137.57</ele>
        <time>2020-08-08T09:37:51.526Z</time>
      </trkpt>
      <trkpt lat="46.21492" lon="6.75093">
        <ele>1137.49</ele>
        <time>2020-08-08T09:38:01.000Z</time>
      </trkpt>
      <trkpt lat="46.21488" lon="6.75137">
        <ele>1138.39</ele>
        <time>2020-08-08T09:38:11.000Z</time>
      </trkpt>
      <trkpt lat="46.21478" lon="6.75173">
        <ele>1139.46</ele>
        <time>2020-08-08T09:38:20.308Z</time>
      </trkpt>
      <trkpt lat="46.21469" lon="6.75193">
        <ele>1140.31</ele>
        <time>2020-08-08T09:38:30.042Z</time>
      </trkpt>
      <trkpt lat="46.21474" lon="6.75198">
        <ele>1140.41</ele>
        <time>2020-08-08T09:38:40.000Z</time>
      </trkpt>
      <trkpt lat="46.21483" lon="6.75234">
        <ele>1140.91</ele>
        <time>2020-08-08T09:38:49.522Z</time>
      </trkpt>
      <trkpt lat="46.21487" lon="6.75267">
        <ele>1141.11</ele>
        <time>2020-08-08T09:38:59.000Z</time>
      </trkpt>
      <trkpt lat="46.21506" lon="6.75321">
        <ele>1147.07</ele>
        <time>2020-08-08T09:39:08.429Z</time>
      </trkpt>
      <trkpt lat="46.21513" lon="6.75378">
        <ele>1145.33</ele>
        <time>2020-08-08T09:39:18.000Z</time>
      </trkpt>
      <trkpt lat="46.21516" lon="6.75424">
        <ele>1143.71</ele>
        <time>2020-08-08T09:39:28.000Z</time>
      </trkpt>
      <trkpt lat="46.21517" lon="6.75473">
        <ele>1144.87</ele>
        <time>2020-08-08T09:39:37.443Z</time>
      </trkpt>
      <trkpt lat="46.21499" lon="6.75522">
        <ele>1146.4</ele>
        <time>2020-08-08T09:39:46.467Z</time>
      </trkpt>
      <trkpt lat="46.21491" lon="6.75578">
        <ele>1145.67</ele>
        <time>2020-08-08T09:39:56.000Z</time>
      </trkpt>
      <trkpt lat="46.21496" lon="6.7564">
        <ele>1145.73</ele>
        <time>2020-08-08T09:40:05.549Z</time>
      </trkpt>
      <trkpt lat="46.21512" lon="6.75707">
        <ele>1142.74</ele>
        <time>2020-08-08T09:40:15.000Z</time>
      </trkpt>
      <trkpt lat="46.21531" lon="6.75758">
        <ele>1140.08</ele>
        <time>2020-08-08T09:40:24.721Z</time>
      </trkpt>
      <trkpt lat="46.21544" lon="6.75794">
        <ele>1136.46</ele>
        <time>2020-08-08T09:40:34.000Z</time>
      </trkpt>
      <trkpt lat="46.21555" lon="6.75826">
        <ele>1135.1</ele>
        <time>2020-08-08T09:40:43.104Z</time>
      </trkpt>
      <trkpt lat="46.21564" lon="6.75858">
        <ele>1137.38</ele>
        <time>2020-08-08T09:40:52.642Z</time>
      </trkpt>
      <trkpt lat="46.21572" lon="6.75888">
        <ele>1142.65</ele>
        <time>2020-08-08T09:41:02.000Z</time>
      </trkpt>
      <trkpt lat="46.21582" lon="6.75921">
        <ele>1148.42</ele>
        <time>2020-08-08T09:41:12.000Z</time>
      </trkpt>
      <trkpt lat="46.21585" lon="6.75953">
        <ele>1153.69</ele>
        <time>2020-08-08T09:41:21.568Z</time>
      </trkpt>
      <trkpt lat="46.21584" lon="6.75975">
        <ele>1159.8</ele>
        <time>2020-08-08T09:41:32.000Z</time>
      </trkpt>
      <trkpt lat="46.21588" lon="6.75995">
        <ele>1165.3</ele>
        <time>2020-08-08T09:41:42.000Z</time>
      </trkpt>
      <trkpt lat="46.21581" lon="6.76012">
        <ele>1173.34</ele>
        <time>2020-08-08T09:41:52.000Z</time>
      </trkpt>
      <trkpt lat="46.2155" lon="6.76042">
        <ele>1180.37</ele>
        <time>2020-08-08T09:42:01.328Z</time>
      </trkpt>
      <trkpt lat="46.21558" lon="6.76085">
        <ele>1183.08</ele>
        <time>2020-08-08T09:42:11.000Z</time>
      </trkpt>
      <trkpt lat="46.21555" lon="6.76106">
        <ele>1188.02</ele>
        <time>2020-08-08T09:42:20.402Z</time>
      </trkpt>
      <trkpt lat="46.21545" lon="6.76119">
        <ele>1197.63</ele>
        <time>2020-08-08T09:42:30.000Z</time>
      </trkpt>
      <trkpt lat="46.21535" lon="6.76142">
        <ele>1204.31</ele>
        <time>2020-08-08T09:42:39.749Z</time>
      </trkpt>
      <trkpt lat="46.21515" lon="6.76184">
        <ele>1208.7</ele>
        <time>2020-08-08T09:42:49.000Z</time>
      </trkpt>
      <trkpt lat="46.215" lon="6.76219">
        <ele>1213.07</ele>
        <time>2020-08-08T09:42:59.000Z</time>
      </trkpt>
      <trkpt lat="46.21492" lon="6.76251">
        <ele>1218.81</ele>
        <time>2020-08-08T09:43:09.000Z</time>
      </trkpt>
      <trkpt lat="46.21484" lon="6.7627">
        <ele>1223.74</ele>
        <time>2020-08-08T09:43:18.368Z</time>
      </trkpt>
      <trkpt lat="46.21476" lon="6.76288">
        <ele>1225.27</ele>
        <time>2020-08-08T09:43:27.666Z</time>
      </trkpt>
      <trkpt lat="46.21466" lon="6.7633">
        <ele>1224.68</ele>
        <time>2020-08-08T09:43:37.000Z</time>
      </trkpt>
      <trkpt lat="46.21455" lon="6.76362">
        <ele>1223.49</ele>
        <time>2020-08-08T09:43:46.522Z</time>
      </trkpt>
      <trkpt lat="46.21446" lon="6.76391">
        <ele>1224.26</ele>
        <time>2020-08-08T09:43:55.741Z</time>
      </trkpt>
      <trkpt lat="46.21435" lon="6.76416">
        <ele>1225.01</ele>
        <time>2020-08-08T09:44:05.000Z</time>
      </trkpt>
      <trkpt lat="46.21421" lon="6.7645">
        <ele>1223.91</ele>
        <time>2020-08-08T09:44:14.703Z</time>
      </trkpt>
      <trkpt lat="46.21412" lon="6.76486">
        <ele>1218.26</ele>
        <time>2020-08-08T09:44:24.160Z</time>
      </trkpt>
      <trkpt lat="46.21398" lon="6.76511">
        <ele>1213.17</ele>
        <time>2020-08-08T09:44:34.000Z</time>
      </trkpt>
      <trkpt lat="46.21376" lon="6.76541">
        <ele>1210.37</ele>
        <time>2020-08-08T09:44:44.000Z</time>
      </trkpt>
      <trkpt lat="46.21357" lon="6.76575">
        <ele>1209.09</ele>
        <time>2020-08-08T09:44:53.469Z</time>
      </trkpt>
      <trkpt lat="46.21369" lon="6.76575">
        <ele>1209.33</ele>
        <time>2020-08-08T09:45:03.328Z</time>
      </trkpt>
      <trkpt lat="46.2138" lon="6.76551">
        <ele>1214.48</ele>
        <time>2020-08-08T09:45:12.745Z</time>
      </trkpt>
      <trkpt lat="46.21391" lon="6.76532">
        <ele>1219.47</ele>
        <time>2020-08-08T09:45:22.000Z</time>
      </trkpt>
      <trkpt lat="46.21403" lon="6.76507">
        <ele>1226.49</ele>
        <time>2020-08-08T09:45:32.000Z</time>
      </trkpt>
      <trkpt lat="46.21424" lon="6.76496">
        <ele>1227.01</ele>
        <time>2020-08-08T09:45:41.411Z</time>
      </trkpt>
      <trkpt lat="46.21443" lon="6.76481">
        <ele>1232.05</ele>
        <time>2020-08-08T09:45:50.502Z</time>
      </trkpt>
      <trkpt lat="46.21462" lon="6.7647">
        <ele>1236.99</ele>
        <time>2020-08-08T09:46:00.000Z</time>
      </trkpt>
      <trkpt lat="46.21478" lon="6.7645">
        <ele>1239.81</ele>
        <time>2020-08-08T09:46:10.000Z</time>
      </trkpt>
      <trkpt lat="46.21498" lon="6.76446">
        <ele>1244.81</ele>
        <time>2020-08-08T09:46:19.203Z</time>
      </trkpt>
      <trkpt lat="46.21507" lon="6.76437">
        <ele>1250.5</ele>
        <time>2020-08-08T09:46:29.000Z</time>
      </trkpt>
      <trkpt lat="46.21526" lon="6.76418">
        <ele>1255.4</ele>
        <time>2020-08-08T09:46:39.000Z</time>
      </trkpt>
      <trkpt lat="46.21543" lon="6.76385">
        <ele>1257.23</ele>
        <time>2020-08-08T09:46:49.000Z</time>
      </trkpt>
      <trkpt lat="46.21561" lon="6.76372">
        <ele>1262.26</ele>
        <time>2020-08-08T09:46:58.450Z</time>
      </trkpt>
      <trkpt lat="46.21568" lon="6.76385">
        <ele>1265.99</ele>
        <time>2020-08-08T09:47:07.571Z</time>
      </trkpt>
      <trkpt lat="46.21567" lon="6.76397">
        <ele>1268.25</ele>
        <time>2020-08-08T09:47:17.262Z</time>
      </trkpt>
      <trkpt lat="46.21562" lon="6.76404">
        <ele>1270.41</ele>
        <time>2020-08-08T09:47:27.000Z</time>
      </trkpt>
      <trkpt lat="46.21552" lon="6.76419">
        <ele>1273.56</ele>
        <time>2020-08-08T09:47:37.000Z</time>
      </trkpt>
      <trkpt lat="46.21525" lon="6.76455">
        <ele>1274.18</ele>
        <time>2020-08-08T09:47:46.501Z</time>
      </trkpt>
      <trkpt lat="46.21517" lon="6.76485">
        <ele>1273.79</ele>
        <time>2020-08-08T09:47:55.545Z</time>
      </trkpt>
      <trkpt lat="46.21512" lon="6.7651">
        <ele>1273.31</ele>
        <time>2020-08-08T09:48:04.776Z</time>
      </trkpt>
      <trkpt lat="46.21513" lon="6.76523">
        <ele>1270.31</ele>
        <time>2020-08-08T09:48:15.000Z</time>
      </trkpt>
      <trkpt lat="46.21511" lon="6.76527">
        <ele>1267.05</ele>
        <time>2020-08-08T09:48:24.447Z</time>
      </trkpt>
      <trkpt lat="46.21509" lon="6.76529">
        <ele>1269.49</ele>
        <time>2020-08-08T09:48:33.688Z</time>
      </trkpt>
      <trkpt lat="46.21505" lon="6.76569">
        <ele>1272.46</ele>
        <time>2020-08-08T09:48:43.108Z</time>
      </trkpt>
      <trkpt lat="46.21498" lon="6.76581">
        <ele>1272.66</ele>
        <time>2020-08-08T09:48:53.000Z</time>
      </trkpt>
      <trkpt lat="46.21488" lon="6.76574">
        <ele>1273.57</ele>
        <time>2020-08-08T09:49:03.000Z</time>
      </trkpt>
      <trkpt lat="46.2148" lon="6.76569">
        <ele>1273.31</ele>
        <time>2020-08-08T09:49:12.567Z</time>
      </trkpt>
      <trkpt lat="46.21478" lon="6.76575">
        <ele>1272.68</ele>
        <time>2020-08-08T09:49:21.630Z</time>
      </trkpt>
      <trkpt lat="46.21478" lon="6.766">
        <ele>1270.85</ele>
        <time>2020-08-08T09:49:31.000Z</time>
      </trkpt>
      <trkpt lat="46.21471" lon="6.7662">
        <ele>1274.25</ele>
        <time>2020-08-08T09:49:40.524Z</time>
      </trkpt>
      <trkpt lat="46.21459" lon="6.76641">
        <ele>1277.19</ele>
        <time>2020-08-08T09:49:50.429Z</time>
      </trkpt>
      <trkpt lat="46.21441" lon="6.76663">
        <ele>1279.05</ele>
        <time>2020-08-08T09:50:00.000Z</time>
      </trkpt>
      <trkpt lat="46.21464" lon="6.76691">
        <ele>1280.39</ele>
        <time>2020-08-08T09:50:09.501Z</time>
      </trkpt>
      <trkpt lat="46.21484" lon="6.76707">
        <ele>1280.99</ele>
        <time>2020-08-08T09:50:19.000Z</time>
      </trkpt>
      <trkpt lat="46.21488" lon="6.76731">
        <ele>1281.8</ele>
        <time>2020-08-08T09:50:28.407Z</time>
      </trkpt>
      <trkpt lat="46.21474" lon="6.76744">
        <ele>1280.67</ele>
        <time>2020-08-08T09:50:37.588Z</time>
      </trkpt>
      <trkpt lat="46.21459" lon="6.76757">
        <ele>1278.52</ele>
        <time>2020-08-08T09:50:47.000Z</time>
      </trkpt>
      <trkpt lat="46.21435" lon="6.76776">
        <ele>1280.11</ele>
        <time>2020-08-08T09:50:57.000Z</time>
      </trkpt>
      <trkpt lat="46.21422" lon="6.76799">
        <ele>1281.95</ele>
        <time>2020-08-08T09:51:07.000Z</time>
      </trkpt>
      <trkpt lat="46.21408" lon="6.76822">
        <ele>1287.74</ele>
        <time>2020-08-08T09:51:17.000Z</time>
      </trkpt>
      <trkpt lat="46.21396" lon="6.76851">
        <ele>1292.11</ele>
        <time>2020-08-08T09:51:27.000Z</time>
      </trkpt>
      <trkpt lat="46.21386" lon="6.76879">
        <ele>1296.21</ele>
        <time>2020-08-08T09:51:36.028Z</time>
      </trkpt>
      <trkpt lat="46.21375" lon="6.76906">
        <ele>1300.14</ele>
        <time>2020-08-08T09:51:46.000Z</time>
      </trkpt>
      <trkpt lat="46.21361" lon="6.76925">
        <ele>1304.33</ele>
        <time>2020-08-08T09:51:55.348Z</time>
      </trkpt>
      <trkpt lat="46.21372" lon="6.76939">
        <ele>1309.77</ele>
        <time>2020-08-08T09:52:05.000Z</time>
      </trkpt>
      <trkpt lat="46.21389" lon="6.76922">
        <ele>1313.6</ele>
        <time>2020-08-08T09:52:15.000Z</time>
      </trkpt>
      <trkpt lat="46.21409" lon="6.76906">
        <ele>1315.8</ele>
        <time>2020-08-08T09:52:25.000Z</time>
      </trkpt>
      <trkpt lat="46.21432" lon="6.76892">
        <ele>1317.6</ele>
        <time>2020-08-08T09:52:35.000Z</time>
      </trkpt>
      <trkpt lat="46.21452" lon="6.76878">
        <ele>1318.57</ele>
        <time>2020-08-08T09:52:44.742Z</time>
      </trkpt>
      <trkpt lat="46.21462" lon="6.76889">
        <ele>1320.33</ele>
        <time>2020-08-08T09:52:54.039Z</time>
      </trkpt>
      <trkpt lat="46.21445" lon="6.76906">
        <ele>1318.33</ele>
        <time>2020-08-08T09:53:04.000Z</time>
      </trkpt>
      <trkpt lat="46.21428" lon="6.76931">
        <ele>1319.28</ele>
        <time>2020-08-08T09:53:14.000Z</time>
      </trkpt>
      <trkpt lat="46.21415" lon="6.76955">
        <ele>1321.07</ele>
        <time>2020-08-08T09:53:23.627Z</time>
      </trkpt>
      <trkpt lat="46.21409" lon="6.76983">
        <ele>1324.73</ele>
        <time>2020-08-08T09:53:33.000Z</time>
      </trkpt>
      <trkpt lat="46.21404" lon="6.7701">
        <ele>1329.92</ele>
        <time>2020-08-08T09:53:42.105Z</time>
      </trkpt>
      <trkpt lat="46.21393" lon="6.77031">
        <ele>1332.85</ele>
        <time>2020-08-08T09:53:51.642Z</time>
      </trkpt>
      <trkpt lat="46.21376" lon="6.7704">
        <ele>1334.23</ele>
        <time>2020-08-08T09:54:01.000Z</time>
      </trkpt>
      <trkpt lat="46.21356" lon="6.77057">
        <ele>1332.61</ele>
        <time>2020-08-08T09:54:10.684Z</time>
      </trkpt>
      <trkpt lat="46.2134" lon="6.7708">
        <ele>1330.41</ele>
        <time>2020-08-08T09:54:20.100Z</time>
      </trkpt>
      <trkpt lat="46.21331" lon="6.771">
        <ele>1333.15</ele>
        <time>2020-08-08T09:54:29.490Z</time>
      </trkpt>
      <trkpt lat="46.21343" lon="6.77104">
        <ele>1336.94</ele>
        <time>2020-08-08T09:54:39.000Z</time>
      </trkpt>
      <trkpt lat="46.21355" lon="6.77085">
        <ele>1340.97</ele>
        <time>2020-08-08T09:54:49.000Z</time>
      </trkpt>
      <trkpt lat="46.2138" lon="6.77075">
        <ele>1342.36</ele>
        <time>2020-08-08T09:54:58.663Z</time>
      </trkpt>
      <trkpt lat="46.21407" lon="6.77074">
        <ele>1345.05</ele>
        <time>2020-08-08T09:55:09.000Z</time>
      </trkpt>
      <trkpt lat="46.21428" lon="6.77067">
        <ele>1348.17</ele>
        <time>2020-08-08T09:55:19.000Z</time>
      </trkpt>
      <trkpt lat="46.21448" lon="6.77053">
        <ele>1349.78</ele>
        <time>2020-08-08T09:55:28.571Z</time>
      </trkpt>
      <trkpt lat="46.21449" lon="6.77068">
        <ele>1353.41</ele>
        <time>2020-08-08T09:55:37.642Z</time>
      </trkpt>
      <trkpt lat="46.21432" lon="6.77074">
        <ele>1359.64</ele>
        <time>2020-08-08T09:55:47.000Z</time>
      </trkpt>
      <trkpt lat="46.21414" lon="6.77088">
        <ele>1361.76</ele>
        <time>2020-08-08T09:55:56.768Z</time>
      </trkpt>
      <trkpt lat="46.21394" lon="6.77095">
        <ele>1362.25</ele>
        <time>2020-08-08T09:56:06.000Z</time>
      </trkpt>
      <trkpt lat="46.2138" lon="6.77123">
        <ele>1363.47</ele>
        <time>2020-08-08T09:56:15.221Z</time>
      </trkpt>
      <trkpt lat="46.21374" lon="6.77129">
        <ele>1366.28</ele>
        <time>2020-08-08T09:56:25.000Z</time>
      </trkpt>
      <trkpt lat="46.21364" lon="6.77135">
        <ele>1370.94</ele>
        <time>2020-08-08T09:56:34.424Z</time>
      </trkpt>
      <trkpt lat="46.21338" lon="6.77143">
        <ele>1375.27</ele>
        <time>2020-08-08T09:56:44.000Z</time>
      </trkpt>
      <trkpt lat="46.21313" lon="6.77146">
        <ele>1378.77</ele>
        <time>2020-08-08T09:56:53.282Z</time>
      </trkpt>
      <trkpt lat="46.21293" lon="6.77153">
        <ele>1378.26</ele>
        <time>2020-08-08T09:57:03.000Z</time>
      </trkpt>
      <trkpt lat="46.21273" lon="6.77161">
        <ele>1377.78</ele>
        <time>2020-08-08T09:57:12.389Z</time>
      </trkpt>
      <trkpt lat="46.21249" lon="6.77167">
        <ele>1378.82</ele>
        <time>2020-08-08T09:57:23.000Z</time>
      </trkpt>
      <trkpt lat="46.21222" lon="6.77172">
        <ele>1381.01</ele>
        <time>2020-08-08T09:57:33.000Z</time>
      </trkpt>
      <trkpt lat="46.21204" lon="6.77185">
        <ele>1380.7</ele>
        <time>2020-08-08T09:57:42.449Z</time>
      </trkpt>
      <trkpt lat="46.21185" lon="6.77203">
        <ele>1382.28</ele>
        <time>2020-08-08T09:57:52.000Z</time>
      </trkpt>
      <trkpt lat="46.21166" lon="6.77219">
        <ele>1386.1</ele>
        <time>2020-08-08T09:58:02.000Z</time>
      </trkpt>
      <trkpt lat="46.2115" lon="6.7724">
        <ele>1389.44</ele>
        <time>2020-08-08T09:58:11.743Z</time>
      </trkpt>
      <trkpt lat="46.21129" lon="6.77258">
        <ele>1392.24</ele>
        <time>2020-08-08T09:58:21.000Z</time>
      </trkpt>
      <trkpt lat="46.21112" lon="6.77277">
        <ele>1398.96</ele>
        <time>2020-08-08T09:58:30.446Z</time>
      </trkpt>
      <trkpt lat="46.21097" lon="6.77297">
        <ele>1401.2</ele>
        <time>2020-08-08T09:58:39.611Z</time>
      </trkpt>
      <trkpt lat="46.21079" lon="6.773">
        <ele>1402.3</ele>
        <time>2020-08-08T09:58:49.000Z</time>
      </trkpt>
      <trkpt lat="46.21058" lon="6.77298">
        <ele>1400.7</ele>
        <time>2020-08-08T09:58:59.000Z</time>
      </trkpt>
      <trkpt lat="46.21034" lon="6.77308">
        <ele>1398.68</ele>
        <time>2020-08-08T09:59:08.563Z</time>
      </trkpt>
      <trkpt lat="46.21009" lon="6.77324">
        <ele>1397.55</ele>
        <time>2020-08-08T09:59:18.042Z</time>
      </trkpt>
      <trkpt lat="46.21019" lon="6.77344">
        <ele>1405.03</ele>
        <time>2020-08-08T09:59:27.423Z</time>
      </trkpt>
      <trkpt lat="46.21036" lon="6.77352">
        <ele>1410.28</ele>
        <time>2020-08-08T09:59:36.589Z</time>
      </trkpt>
      <trkpt lat="46.21058" lon="6.77351">
        <ele>1415.43</ele>
        <time>2020-08-08T09:59:45.625Z</time>
      </trkpt>
      <trkpt lat="46.21084" lon="6.77353">
        <ele>1420.37</ele>
        <time>2020-08-08T09:59:55.422Z</time>
      </trkpt>
      <trkpt lat="46.21097" lon="6.77368">
        <ele>1422.83</ele>
        <time>2020-08-08T10:00:04.448Z</time>
      </trkpt>
      <trkpt lat="46.21094" lon="6.7739">
        <ele>1427.49</ele>
        <time>2020-08-08T10:00:14.000Z</time>
      </trkpt>
      <trkpt lat="46.21089" lon="6.77413">
        <ele>1432.11</ele>
        <time>2020-08-08T10:00:24.000Z</time>
      </trkpt>
      <trkpt lat="46.21064" lon="6.77423">
        <ele>1435.52</ele>
        <time>2020-08-08T10:00:33.363Z</time>
      </trkpt>
      <trkpt lat="46.21039" lon="6.77425">
        <ele>1436.24</ele>
        <time>2020-08-08T10:00:43.000Z</time>
      </trkpt>
      <trkpt lat="46.21012" lon="6.77441">
        <ele>1431.5</ele>
        <time>2020-08-08T10:00:52.682Z</time>
      </trkpt>
      <trkpt lat="46.20986" lon="6.77441">
        <ele>1432.27</ele>
        <time>2020-08-08T10:01:02.429Z</time>
      </trkpt>
      <trkpt lat="46.20962" lon="6.77445">
        <ele>1432.43</ele>
        <time>2020-08-08T10:01:12.000Z</time>
      </trkpt>
      <trkpt lat="46.20945" lon="6.77465">
        <ele>1433.22</ele>
        <time>2020-08-08T10:01:21.470Z</time>
      </trkpt>
      <trkpt lat="46.20924" lon="6.77479">
        <ele>1435.91</ele>
        <time>2020-08-08T10:01:31.264Z</time>
      </trkpt>
      <trkpt lat="46.20911" lon="6.77496">
        <ele>1441.56</ele>
        <time>2020-08-08T10:01:41.000Z</time>
      </trkpt>
      <trkpt lat="46.20904" lon="6.77522">
        <ele>1447.83</ele>
        <time>2020-08-08T10:01:50.683Z</time>
      </trkpt>
      <trkpt lat="46.20885" lon="6.77543">
        <ele>1450.76</ele>
        <time>2020-08-08T10:02:00.247Z</time>
      </trkpt>
      <trkpt lat="46.20863" lon="6.77554">
        <ele>1453.16</ele>
        <time>2020-08-08T10:02:09.531Z</time>
      </trkpt>
      <trkpt lat="46.20847" lon="6.77556">
        <ele>1451.46</ele>
        <time>2020-08-08T10:02:19.000Z</time>
      </trkpt>
      <trkpt lat="46.20847" lon="6.77557">
        <ele>1500.96</ele>
        <time>2020-08-08T10:02:47.000Z</time>
      </trkpt>
      <trkpt lat="46.20834" lon="6.77566">
        <ele>1501.16</ele>
        <time>2020-08-08T10:02:57.000Z</time>
      </trkpt>
      <trkpt lat="46.20793" lon="6.77568">
        <ele>1501.16</ele>
        <time>2020-08-08T10:03:06.508Z</time>
      </trkpt>
      <trkpt lat="46.20762" lon="6.77583">
        <ele>1501.16</ele>
        <time>2020-08-08T10:03:16.000Z</time>
      </trkpt>
      <trkpt lat="46.20752" lon="6.77588">
        <ele>1501.16</ele>
        <time>2020-08-08T10:03:26.000Z</time>
      </trkpt>
      <trkpt lat="46.20753" lon="6.77589">
        <ele>1501.16</ele>
        <time>2020-08-08T10:03:36.000Z</time>
      </trkpt>
      <trkpt lat="46.20752" lon="6.77588">
        <ele>1501.16</ele>
        <time>2020-08-08T10:03:46.000Z</time>
      </trkpt>
      <trkpt lat="46.20751" lon="6.77588">
        <ele>1501.16</ele>
        <time>2020-08-08T10:03:56.000Z</time>
      </trkpt>
      <trkpt lat="46.20728" lon="6.77591">
        <ele>1501.46</ele>
        <time>2020-08-08T10:04:06.000Z</time>
      </trkpt>
      <trkpt lat="46.20687" lon="6.77598">
        <ele>1501.46</ele>
        <time>2020-08-08T10:04:15.426Z</time>
      </trkpt>
      <trkpt lat="46.20659" lon="6.77622">
        <ele>1501.45</ele>
        <time>2020-08-08T10:04:25.000Z</time>
      </trkpt>
      <trkpt lat="46.20633" lon="6.77639">
        <ele>1501.45</ele>
        <time>2020-08-08T10:04:34.448Z</time>
      </trkpt>
      <trkpt lat="46.20641" lon="6.77618">
        <ele>1501.45</ele>
        <time>2020-08-08T10:04:44.000Z</time>
      </trkpt>
      <trkpt lat="46.20667" lon="6.77589">
        <ele>1501.46</ele>
        <time>2020-08-08T10:04:53.382Z</time>
      </trkpt>
      <trkpt lat="46.20692" lon="6.77567">
        <ele>1501.46</ele>
        <time>2020-08-08T10:05:02.469Z</time>
      </trkpt>
      <trkpt lat="46.20721" lon="6.77556">
        <ele>1464.06</ele>
        <time>2020-08-08T10:05:12.000Z</time>
      </trkpt>
      <trkpt lat="46.20746" lon="6.77538">
        <ele>1465.81</ele>
        <time>2020-08-08T10:05:21.531Z</time>
      </trkpt>
      <trkpt lat="46.20767" lon="6.77513">
        <ele>1467.08</ele>
        <time>2020-08-08T10:05:31.000Z</time>
      </trkpt>
      <trkpt lat="46.20791" lon="6.77488">
        <ele>1465.59</ele>
        <time>2020-08-08T10:05:40.028Z</time>
      </trkpt>
      <trkpt lat="46.20815" lon="6.7746">
        <ele>1461.08</ele>
        <time>2020-08-08T10:05:49.510Z</time>
      </trkpt>
      <trkpt lat="46.20834" lon="6.77432">
        <ele>1459.77</ele>
        <time>2020-08-08T10:05:59.000Z</time>
      </trkpt>
      <trkpt lat="46.20848" lon="6.77402">
        <ele>1462.06</ele>
        <time>2020-08-08T10:06:08.344Z</time>
      </trkpt>
      <trkpt lat="46.20849" lon="6.77369">
        <ele>1461.48</ele>
        <time>2020-08-08T10:06:17.441Z</time>
      </trkpt>
      <trkpt lat="46.20839" lon="6.77336">
        <ele>1464.54</ele>
        <time>2020-08-08T10:06:26.529Z</time>
      </trkpt>
      <trkpt lat="46.20819" lon="6.77335">
        <ele>1463.33</ele>
        <time>2020-08-08T10:06:36.000Z</time>
      </trkpt>
      <trkpt lat="46.208" lon="6.7731">
        <ele>1467.89</ele>
        <time>2020-08-08T10:06:45.187Z</time>
      </trkpt>
      <trkpt lat="46.20809" lon="6.77273">
        <ele>1474.6</ele>
        <time>2020-08-08T10:06:55.000Z</time>
      </trkpt>
      <trkpt lat="46.20804" lon="6.77236">
        <ele>1482.4</ele>
        <time>2020-08-08T10:07:04.625Z</time>
      </trkpt>
      <trkpt lat="46.20768" lon="6.77215">
        <ele>1483.8</ele>
        <time>2020-08-08T10:07:14.303Z</time>
      </trkpt>
      <trkpt lat="46.2074" lon="6.77193">
        <ele>1483.29</ele>
        <time>2020-08-08T10:07:24.000Z</time>
      </trkpt>
      <trkpt lat="46.20712" lon="6.77164">
        <ele>1484.29</ele>
        <time>2020-08-08T10:07:34.000Z</time>
      </trkpt>
      <trkpt lat="46.20702" lon="6.7713">
        <ele>1487.11</ele>
        <time>2020-08-08T10:07:44.000Z</time>
      </trkpt>
      <trkpt lat="46.20712" lon="6.77096">
        <ele>1490.14</ele>
        <time>2020-08-08T10:07:53.662Z</time>
      </trkpt>
      <trkpt lat="46.20725" lon="6.77065">
        <ele>1490.46</ele>
        <time>2020-08-08T10:08:03.000Z</time>
      </trkpt>
      <trkpt lat="46.20733" lon="6.77034">
        <ele>1493.96</ele>
        <time>2020-08-08T10:08:12.569Z</time>
      </trkpt>
      <trkpt lat="46.2073" lon="6.76995">
        <ele>1495.99</ele>
        <time>2020-08-08T10:08:22.002Z</time>
      </trkpt>
      <trkpt lat="46.20728" lon="6.76955">
        <ele>1499.03</ele>
        <time>2020-08-08T10:08:32.000Z</time>
      </trkpt>
      <trkpt lat="46.20728" lon="6.76918">
        <ele>1501.95</ele>
        <time>2020-08-08T10:08:41.451Z</time>
      </trkpt>
      <trkpt lat="46.20722" lon="6.76882">
        <ele>1504.26</ele>
        <time>2020-08-08T10:08:50.723Z</time>
      </trkpt>
      <trkpt lat="46.20705" lon="6.76852">
        <ele>1506.76</ele>
        <time>2020-08-08T10:09:00.000Z</time>
      </trkpt>
      <trkpt lat="46.20682" lon="6.76822">
        <ele>1504.56</ele>
        <time>2020-08-08T10:09:09.650Z</time>
      </trkpt>
      <trkpt lat="46.2067" lon="6.76792">
        <ele>1505.84</ele>
        <time>2020-08-08T10:09:19.286Z</time>
      </trkpt>
      <trkpt lat="46.20666" lon="6.76757">
        <ele>1508.11</ele>
        <time>2020-08-08T10:09:29.000Z</time>
      </trkpt>
      <trkpt lat="46.20673" lon="6.76714">
        <ele>1512.17</ele>
        <time>2020-08-08T10:09:39.000Z</time>
      </trkpt>
      <trkpt lat="46.20689" lon="6.76674">
        <ele>1513.05</ele>
        <time>2020-08-08T10:09:49.000Z</time>
      </trkpt>
      <trkpt lat="46.2071" lon="6.76643">
        <ele>1514.76</ele>
        <time>2020-08-08T10:09:58.426Z</time>
      </trkpt>
      <trkpt lat="46.2073" lon="6.76604">
        <ele>1510.89</ele>
        <time>2020-08-08T10:10:07.542Z</time>
      </trkpt>
      <trkpt lat="46.20739" lon="6.76561">
        <ele>1506.84</ele>
        <time>2020-08-08T10:10:16.709Z</time>
      </trkpt>
      <trkpt lat="46.20751" lon="6.76525">
        <ele>1508.03</ele>
        <time>2020-08-08T10:10:26.000Z</time>
      </trkpt>
      <trkpt lat="46.20762" lon="6.76489">
        <ele>1509.81</ele>
        <time>2020-08-08T10:10:35.444Z</time>
      </trkpt>
      <trkpt lat="46.20764" lon="6.76453">
        <ele>1512.46</ele>
        <time>2020-08-08T10:10:45.000Z</time>
      </trkpt>
      <trkpt lat="46.2075" lon="6.76417">
        <ele>1512.27</ele>
        <time>2020-08-08T10:10:54.250Z</time>
      </trkpt>
      <trkpt lat="46.20726" lon="6.76406">
        <ele>1515.61</ele>
        <time>2020-08-08T10:11:04.000Z</time>
      </trkpt>
      <trkpt lat="46.20696" lon="6.76396">
        <ele>1517.56</ele>
        <time>2020-08-08T10:11:13.626Z</time>
      </trkpt>
      <trkpt lat="46.2066" lon="6.76387">
        <ele>1520.59</ele>
        <time>2020-08-08T10:11:23.227Z</time>
      </trkpt>
      <trkpt lat="46.20633" lon="6.76367">
        <ele>1522.65</ele>
        <time>2020-08-08T10:11:32.529Z</time>
      </trkpt>
      <trkpt lat="46.20635" lon="6.76328">
        <ele>1525.65</ele>
        <time>2020-08-08T10:11:42.000Z</time>
      </trkpt>
      <trkpt lat="46.20623" lon="6.76283">
        <ele>1529.19</ele>
        <time>2020-08-08T10:11:51.443Z</time>
      </trkpt>
      <trkpt lat="46.20598" lon="6.76237">
        <ele>1531.84</ele>
        <time>2020-08-08T10:12:00.561Z</time>
      </trkpt>
      <trkpt lat="46.20604" lon="6.76188">
        <ele>1533.03</ele>
        <time>2020-08-08T10:12:10.000Z</time>
      </trkpt>
      <trkpt lat="46.20584" lon="6.76175">
        <ele>1533.16</ele>
        <time>2020-08-08T10:12:20.000Z</time>
      </trkpt>
      <trkpt lat="46.2057" lon="6.7621">
        <ele>1532.9</ele>
        <time>2020-08-08T10:12:29.363Z</time>
      </trkpt>
      <trkpt lat="46.20557" lon="6.76244">
        <ele>1537.49</ele>
        <time>2020-08-08T10:12:38.481Z</time>
      </trkpt>
      <trkpt lat="46.2054" lon="6.76276">
        <ele>1539.69</ele>
        <time>2020-08-08T10:12:48.000Z</time>
      </trkpt>
      <trkpt lat="46.20518" lon="6.76305">
        <ele>1544.39</ele>
        <time>2020-08-08T10:12:57.406Z</time>
      </trkpt>
      <trkpt lat="46.20507" lon="6.76337">
        <ele>1550.4</ele>
        <time>2020-08-08T10:13:07.000Z</time>
      </trkpt>
      <trkpt lat="46.20505" lon="6.76365">
        <ele>1555.99</ele>
        <time>2020-08-08T10:13:17.000Z</time>
      </trkpt>
      <trkpt lat="46.20515" lon="6.76394">
        <ele>1562.69</ele>
        <time>2020-08-08T10:13:27.000Z</time>
      </trkpt>
      <trkpt lat="46.20509" lon="6.76419">
        <ele>1567.74</ele>
        <time>2020-08-08T10:13:36.602Z</time>
      </trkpt>
      <trkpt lat="46.205" lon="6.76432">
        <ele>1571.53</ele>
        <time>2020-08-08T10:13:45.727Z</time>
      </trkpt>
      <trkpt lat="46.2048" lon="6.76446">
        <ele>1574.39</ele>
        <time>2020-08-08T10:13:55.000Z</time>
      </trkpt>
      <trkpt lat="46.20459" lon="6.76456">
        <ele>1575.09</ele>
        <time>2020-08-08T10:14:05.000Z</time>
      </trkpt>
      <trkpt lat="46.20431" lon="6.76461">
        <ele>1575.46</ele>
        <time>2020-08-08T10:14:15.000Z</time>
      </trkpt>
      <trkpt lat="46.20415" lon="6.76467">
        <ele>1578.92</ele>
        <time>2020-08-08T10:14:25.000Z</time>
      </trkpt>
      <trkpt lat="46.20389" lon="6.76446">
        <ele>1578.27</ele>
        <time>2020-08-08T10:14:34.770Z</time>
      </trkpt>
      <trkpt lat="46.20364" lon="6.76439">
        <ele>1578.44</ele>
        <time>2020-08-08T10:14:44.000Z</time>
      </trkpt>
      <trkpt lat="46.20336" lon="6.76439">
        <ele>1577.37</ele>
        <time>2020-08-08T10:14:54.000Z</time>
      </trkpt>
      <trkpt lat="46.20314" lon="6.76443">
        <ele>1578.76</ele>
        <time>2020-08-08T10:15:03.545Z</time>
      </trkpt>
      <trkpt lat="46.20296" lon="6.76454">
        <ele>1581.53</ele>
        <time>2020-08-08T10:15:13.087Z</time>
      </trkpt>
      <trkpt lat="46.20278" lon="6.76475">
        <ele>1585.92</ele>
        <time>2020-08-08T10:15:22.481Z</time>
      </trkpt>
      <trkpt lat="46.20256" lon="6.76483">
        <ele>1585.93</ele>
        <time>2020-08-08T10:15:32.000Z</time>
      </trkpt>
      <trkpt lat="46.20251" lon="6.76467">
        <ele>1585.58</ele>
        <time>2020-08-08T10:15:41.662Z</time>
      </trkpt>
      <trkpt lat="46.20262" lon="6.76454">
        <ele>1584.7</ele>
        <time>2020-08-08T10:15:51.000Z</time>
      </trkpt>
      <trkpt lat="46.20264" lon="6.76429">
        <ele>1585.06</ele>
        <time>2020-08-08T10:16:01.000Z</time>
      </trkpt>
      <trkpt lat="46.20264" lon="6.76399">
        <ele>1586.26</ele>
        <time>2020-08-08T10:16:10.042Z</time>
      </trkpt>
      <trkpt lat="46.20275" lon="6.76365">
        <ele>1585.58</ele>
        <time>2020-08-08T10:16:19.423Z</time>
      </trkpt>
      <trkpt lat="46.20278" lon="6.76327">
        <ele>1581</ele>
        <time>2020-08-08T10:16:28.729Z</time>
      </trkpt>
      <trkpt lat="46.20284" lon="6.76292">
        <ele>1580.34</ele>
        <time>2020-08-08T10:16:38.000Z</time>
      </trkpt>
      <trkpt lat="46.20295" lon="6.76275">
        <ele>1580.34</ele>
        <time>2020-08-08T10:16:47.410Z</time>
      </trkpt>
      <trkpt lat="46.20305" lon="6.7626">
        <ele>1579.77</ele>
        <time>2020-08-08T10:16:57.000Z</time>
      </trkpt>
      <trkpt lat="46.20306" lon="6.76235">
        <ele>1579.89</ele>
        <time>2020-08-08T10:17:06.621Z</time>
      </trkpt>
      <trkpt lat="46.2031" lon="6.76213">
        <ele>1579.73</ele>
        <time>2020-08-08T10:17:16.000Z</time>
      </trkpt>
      <trkpt lat="46.20304" lon="6.76177">
        <ele>1580.71</ele>
        <time>2020-08-08T10:17:26.000Z</time>
      </trkpt>
      <trkpt lat="46.20294" lon="6.7617">
        <ele>1584.49</ele>
        <time>2020-08-08T10:17:35.385Z</time>
      </trkpt>
      <trkpt lat="46.20282" lon="6.7618">
        <ele>1592.23</ele>
        <time>2020-08-08T10:17:44.907Z</time>
      </trkpt>
      <trkpt lat="46.20264" lon="6.76195">
        <ele>1598.63</ele>
        <time>2020-08-08T10:17:54.282Z</time>
      </trkpt>
      <trkpt lat="46.20255" lon="6.76213">
        <ele>1604.42</ele>
        <time>2020-08-08T10:18:03.528Z</time>
      </trkpt>
      <trkpt lat="46.2024" lon="6.76235">
        <ele>1609.31</ele>
        <time>2020-08-08T10:18:13.486Z</time>
      </trkpt>
      <trkpt lat="46.20224" lon="6.7624">
        <ele>1614.84</ele>
        <time>2020-08-08T10:18:22.622Z</time>
      </trkpt>
      <trkpt lat="46.20197" lon="6.76234">
        <ele>1616.84</ele>
        <time>2020-08-08T10:18:32.000Z</time>
      </trkpt>
      <trkpt lat="46.2017" lon="6.76243">
        <ele>1620.25</ele>
        <time>2020-08-08T10:18:42.000Z</time>
      </trkpt>
      <trkpt lat="46.20156" lon="6.76263">
        <ele>1622.64</ele>
        <time>2020-08-08T10:18:52.000Z</time>
      </trkpt>
      <trkpt lat="46.20149" lon="6.76287">
        <ele>1623.56</ele>
        <time>2020-08-08T10:19:01.682Z</time>
      </trkpt>
      <trkpt lat="46.20152" lon="6.76311">
        <ele>1625.04</ele>
        <time>2020-08-08T10:19:11.000Z</time>
      </trkpt>
      <trkpt lat="46.20141" lon="6.76334">
        <ele>1627.08</ele>
        <time>2020-08-08T10:19:20.380Z</time>
      </trkpt>
      <trkpt lat="46.20124" lon="6.76343">
        <ele>1625.89</ele>
        <time>2020-08-08T10:19:30.000Z</time>
      </trkpt>
      <trkpt lat="46.20114" lon="6.76364">
        <ele>1627.73</ele>
        <time>2020-08-08T10:19:39.268Z</time>
      </trkpt>
      <trkpt lat="46.20103" lon="6.76389">
        <ele>1630.96</ele>
        <time>2020-08-08T10:19:48.545Z</time>
      </trkpt>
      <trkpt lat="46.201" lon="6.76417">
        <ele>1634.24</ele>
        <time>2020-08-08T10:19:57.682Z</time>
      </trkpt>
      <trkpt lat="46.20095" lon="6.76448">
        <ele>1634.3</ele>
        <time>2020-08-08T10:20:07.000Z</time>
      </trkpt>
      <trkpt lat="46.20084" lon="6.76478">
        <ele>1630.32</ele>
        <time>2020-08-08T10:20:16.264Z</time>
      </trkpt>
      <trkpt lat="46.20081" lon="6.76462">
        <ele>1628.66</ele>
        <time>2020-08-08T10:20:25.403Z</time>
      </trkpt>
      <trkpt lat="46.20083" lon="6.76435">
        <ele>1627.96</ele>
        <time>2020-08-08T10:20:35.000Z</time>
      </trkpt>
      <trkpt lat="46.20075" lon="6.76408">
        <ele>1630.22</ele>
        <time>2020-08-08T10:20:44.522Z</time>
      </trkpt>
      <trkpt lat="46.20069" lon="6.76379">
        <ele>1631.65</ele>
        <time>2020-08-08T10:20:53.727Z</time>
      </trkpt>
      <trkpt lat="46.20062" lon="6.76349">
        <ele>1637.03</ele>
        <time>2020-08-08T10:21:03.000Z</time>
      </trkpt>
      <trkpt lat="46.20061" lon="6.76314">
        <ele>1637.96</ele>
        <time>2020-08-08T10:21:13.000Z</time>
      </trkpt>
      <trkpt lat="46.20058" lon="6.76278">
        <ele>1638.14</ele>
        <time>2020-08-08T10:21:23.000Z</time>
      </trkpt>
      <trkpt lat="46.20058" lon="6.76243">
        <ele>1637.43</ele>
        <time>2020-08-08T10:21:33.000Z</time>
      </trkpt>
      <trkpt lat="46.2006" lon="6.76209">
        <ele>1638.31</ele>
        <time>2020-08-08T10:21:43.000Z</time>
      </trkpt>
      <trkpt lat="46.20068" lon="6.76178">
        <ele>1638.99</ele>
        <time>2020-08-08T10:21:52.525Z</time>
      </trkpt>
      <trkpt lat="46.20082" lon="6.76146">
        <ele>1637.84</ele>
        <time>2020-08-08T10:22:03.000Z</time>
      </trkpt>
      <trkpt lat="46.20093" lon="6.76114">
        <ele>1635.4</ele>
        <time>2020-08-08T10:22:13.000Z</time>
      </trkpt>
      <trkpt lat="46.20092" lon="6.7608">
        <ele>1638.94</ele>
        <time>2020-08-08T10:22:23.000Z</time>
      </trkpt>
      <trkpt lat="46.20091" lon="6.76047">
        <ele>1641.66</ele>
        <time>2020-08-08T10:22:32.601Z</time>
      </trkpt>
      <trkpt lat="46.20097" lon="6.76019">
        <ele>1645.78</ele>
        <time>2020-08-08T10:22:42.000Z</time>
      </trkpt>
      <trkpt lat="46.20108" lon="6.7599">
        <ele>1649.35</ele>
        <time>2020-08-08T10:22:51.547Z</time>
      </trkpt>
      <trkpt lat="46.20126" lon="6.75967">
        <ele>1652.13</ele>
        <time>2020-08-08T10:23:01.000Z</time>
      </trkpt>
      <trkpt lat="46.20145" lon="6.75948">
        <ele>1653.46</ele>
        <time>2020-08-08T10:23:11.000Z</time>
      </trkpt>
      <trkpt lat="46.20167" lon="6.75929">
        <ele>1654.07</ele>
        <time>2020-08-08T10:23:21.000Z</time>
      </trkpt>
      <trkpt lat="46.20189" lon="6.75907">
        <ele>1656.62</ele>
        <time>2020-08-08T10:23:30.523Z</time>
      </trkpt>
      <trkpt lat="46.20207" lon="6.75887">
        <ele>1658.6</ele>
        <time>2020-08-08T10:23:40.000Z</time>
      </trkpt>
      <trkpt lat="46.20221" lon="6.75861">
        <ele>1658.97</ele>
        <time>2020-08-08T10:23:49.262Z</time>
      </trkpt>
      <trkpt lat="46.2024" lon="6.75842">
        <ele>1662.04</ele>
        <time>2020-08-08T10:23:58.483Z</time>
      </trkpt>
      <trkpt lat="46.20262" lon="6.75835">
        <ele>1665.29</ele>
        <time>2020-08-08T10:24:08.000Z</time>
      </trkpt>
      <trkpt lat="46.20288" lon="6.75824">
        <ele>1669.64</ele>
        <time>2020-08-08T10:24:18.000Z</time>
      </trkpt>
      <trkpt lat="46.20301" lon="6.75802">
        <ele>1674.79</ele>
        <time>2020-08-08T10:24:28.000Z</time>
      </trkpt>
      <trkpt lat="46.20284" lon="6.75789">
        <ele>1678.85</ele>
        <time>2020-08-08T10:24:38.000Z</time>
      </trkpt>
      <trkpt lat="46.20265" lon="6.75807">
        <ele>1679.57</ele>
        <time>2020-08-08T10:24:47.746Z</time>
      </trkpt>
      <trkpt lat="46.20243" lon="6.75812">
        <ele>1685.27</ele>
        <time>2020-08-08T10:24:57.380Z</time>
      </trkpt>
      <trkpt lat="46.2022" lon="6.75813">
        <ele>1690.2</ele>
        <time>2020-08-08T10:25:06.641Z</time>
      </trkpt>
      <trkpt lat="46.20201" lon="6.75828">
        <ele>1693.36</ele>
        <time>2020-08-08T10:25:16.000Z</time>
      </trkpt>
      <trkpt lat="46.20181" lon="6.75843">
        <ele>1694.65</ele>
        <time>2020-08-08T10:25:26.000Z</time>
      </trkpt>
      <trkpt lat="46.2016" lon="6.75858">
        <ele>1695.65</ele>
        <time>2020-08-08T10:25:35.327Z</time>
      </trkpt>
      <trkpt lat="46.2014" lon="6.75873">
        <ele>1696.4</ele>
        <time>2020-08-08T10:25:45.000Z</time>
      </trkpt>
      <trkpt lat="46.20121" lon="6.75889">
        <ele>1696.24</ele>
        <time>2020-08-08T10:25:54.320Z</time>
      </trkpt>
      <trkpt lat="46.20105" lon="6.7591">
        <ele>1699.28</ele>
        <time>2020-08-08T10:26:04.000Z</time>
      </trkpt>
      <trkpt lat="46.20081" lon="6.75931">
        <ele>1702.47</ele>
        <time>2020-08-08T10:26:13.422Z</time>
      </trkpt>
      <trkpt lat="46.20056" lon="6.75946">
        <ele>1703.41</ele>
        <time>2020-08-08T10:26:22.542Z</time>
      </trkpt>
      <trkpt lat="46.20053" lon="6.75923">
        <ele>1702.97</ele>
        <time>2020-08-08T10:26:31.962Z</time>
      </trkpt>
      <trkpt lat="46.20079" lon="6.75906">
        <ele>1703.44</ele>
        <time>2020-08-08T10:26:42.000Z</time>
      </trkpt>
      <trkpt lat="46.2008" lon="6.7588">
        <ele>1702.38</ele>
        <time>2020-08-08T10:26:51.550Z</time>
      </trkpt>
      <trkpt lat="46.20058" lon="6.7589">
        <ele>1703.49</ele>
        <time>2020-08-08T10:27:01.000Z</time>
      </trkpt>
      <trkpt lat="46.20031" lon="6.75907">
        <ele>1705.56</ele>
        <time>2020-08-08T10:27:10.521Z</time>
      </trkpt>
      <trkpt lat="46.20008" lon="6.75924">
        <ele>1707.95</ele>
        <time>2020-08-08T10:27:20.000Z</time>
      </trkpt>
      <trkpt lat="46.19995" lon="6.7592">
        <ele>1711.83</ele>
        <time>2020-08-08T10:27:29.309Z</time>
      </trkpt>
      <trkpt lat="46.19992" lon="6.75926">
        <ele>1765.56</ele>
        <time>2020-08-08T10:27:40.000Z</time>
      </trkpt>
      <trkpt lat="46.19991" lon="6.75932">
        <ele>1766.37</ele>
        <time>2020-08-08T10:27:50.000Z</time>
      </trkpt>
      <trkpt lat="46.19992" lon="6.75935">
        <ele>1766.37</ele>
        <time>2020-08-08T10:28:00.000Z</time>
      </trkpt>
      <trkpt lat="46.19991" lon="6.75933">
        <ele>1766.37</ele>
        <time>2020-08-08T10:28:11.664Z</time>
      </trkpt>
      <trkpt lat="46.19991" lon="6.75934">
        <ele>1766.37</ele>
        <time>2020-08-08T10:28:21.000Z</time>
      </trkpt>
      <trkpt lat="46.19991" lon="6.75936">
        <ele>1766.37</ele>
        <time>2020-08-08T10:28:32.000Z</time>
      </trkpt>
      <trkpt lat="46.19992" lon="6.75937">
        <ele>1766.37</ele>
        <time>2020-08-08T10:29:34.000Z</time>
      </trkpt>
      <trkpt lat="46.19999" lon="6.7592">
        <ele>1766.37</ele>
        <time>2020-08-08T10:29:43.464Z</time>
      </trkpt>
      <trkpt lat="46.20011" lon="6.75895">
        <ele>1766.37</ele>
        <time>2020-08-08T10:29:53.000Z</time>
      </trkpt>
      <trkpt lat="46.20012" lon="6.75892">
        <ele>1766.37</ele>
        <time>2020-08-08T10:30:07.723Z</time>
      </trkpt>
      <trkpt lat="46.20027" lon="6.75832">
        <ele>1766.37</ele>
        <time>2020-08-08T10:30:17.000Z</time>
      </trkpt>
      <trkpt lat="46.20044" lon="6.75723">
        <ele>1766.37</ele>
        <time>2020-08-08T10:30:27.000Z</time>
      </trkpt>
      <trkpt lat="46.20052" lon="6.75633">
        <ele>1766.37</ele>
        <time>2020-08-08T10:30:37.000Z</time>
      </trkpt>
      <trkpt lat="46.20053" lon="6.75628">
        <ele>1691.77</ele>
        <time>2020-08-08T10:30:47.000Z</time>
      </trkpt>
      <trkpt lat="46.20054" lon="6.75627">
        <ele>1690.61</ele>
        <time>2020-08-08T10:31:46.000Z</time>
      </trkpt>
      <trkpt lat="46.20047" lon="6.75535">
        <ele>1688.72</ele>
        <time>2020-08-08T10:31:56.000Z</time>
      </trkpt>
      <trkpt lat="46.20036" lon="6.75397">
        <ele>1683.05</ele>
        <time>2020-08-08T10:32:06.000Z</time>
      </trkpt>
      <trkpt lat="46.20052" lon="6.75225">
        <ele>1673.29</ele>
        <time>2020-08-08T10:32:16.000Z</time>
      </trkpt>
      <trkpt lat="46.20008" lon="6.75055">
        <ele>1662.11</ele>
        <time>2020-08-08T10:32:26.000Z</time>
      </trkpt>
      <trkpt lat="46.19968" lon="6.74878">
        <ele>1651.81</ele>
        <time>2020-08-08T10:32:36.000Z</time>
      </trkpt>
      <trkpt lat="46.19921" lon="6.74693">
        <ele>1641.82</ele>
        <time>2020-08-08T10:32:46.000Z</time>
      </trkpt>
      <trkpt lat="46.19828" lon="6.74567">
        <ele>1634.33</ele>
        <time>2020-08-08T10:32:56.000Z</time>
      </trkpt>
      <trkpt lat="46.19748" lon="6.7446">
        <ele>1625.41</ele>
        <time>2020-08-08T10:33:06.000Z</time>
      </trkpt>
      <trkpt lat="46.19727" lon="6.74289">
        <ele>1617.46</ele>
        <time>2020-08-08T10:33:16.000Z</time>
      </trkpt>
      <trkpt lat="46.1964" lon="6.74174">
        <ele>1609.78</ele>
        <time>2020-08-08T10:33:26.000Z</time>
      </trkpt>
      <trkpt lat="46.19557" lon="6.74051">
        <ele>1601.82</ele>
        <time>2020-08-08T10:33:36.000Z</time>
      </trkpt>
      <trkpt lat="46.19447" lon="6.73995">
        <ele>1593.91</ele>
        <time>2020-08-08T10:33:46.000Z</time>
      </trkpt>
      <trkpt lat="46.19343" lon="6.73921">
        <ele>1587.33</ele>
        <time>2020-08-08T10:33:56.000Z</time>
      </trkpt>
      <trkpt lat="46.19293" lon="6.73766">
        <ele>1581.09</ele>
        <time>2020-08-08T10:34:06.000Z</time>
      </trkpt>
      <trkpt lat="46.19266" lon="6.73617">
        <ele>1574.03</ele>
        <time>2020-08-08T10:34:16.000Z</time>
      </trkpt>
      <trkpt lat="46.19217" lon="6.73468">
        <ele>1565.36</ele>
        <time>2020-08-08T10:34:26.000Z</time>
      </trkpt>
      <trkpt lat="46.19125" lon="6.73343">
        <ele>1552.41</ele>
        <time>2020-08-08T10:34:36.000Z</time>
      </trkpt>
      <trkpt lat="46.19068" lon="6.73162">
        <ele>1539.51</ele>
        <time>2020-08-08T10:34:46.000Z</time>
      </trkpt>
      <trkpt lat="46.19067" lon="6.72968">
        <ele>1530.49</ele>
        <time>2020-08-08T10:34:56.000Z</time>
      </trkpt>
      <trkpt lat="46.19053" lon="6.72777">
        <ele>1518.95</ele>
        <time>2020-08-08T10:35:06.000Z</time>
      </trkpt>
      <trkpt lat="46.19064" lon="6.72573">
        <ele>1502.24</ele>
        <time>2020-08-08T10:35:16.000Z</time>
      </trkpt>
      <trkpt lat="46.19038" lon="6.72401">
        <ele>1492.12</ele>
        <time>2020-08-08T10:35:26.000Z</time>
      </trkpt>
      <trkpt lat="46.19073" lon="6.72239">
        <ele>1486.06</ele>
        <time>2020-08-08T10:35:36.000Z</time>
      </trkpt>
      <trkpt lat="46.1903" lon="6.72265">
        <ele>1483.93</ele>
        <time>2020-08-08T10:35:46.000Z</time>
      </trkpt>
      <trkpt lat="46.18962" lon="6.72392">
        <ele>1475.57</ele>
        <time>2020-08-08T10:35:56.000Z</time>
      </trkpt>
      <trkpt lat="46.18967" lon="6.72301">
        <ele>1467.74</ele>
        <time>2020-08-08T10:36:06.000Z</time>
      </trkpt>
      <trkpt lat="46.18937" lon="6.72282">
        <ele>1464.8</ele>
        <time>2020-08-08T10:36:16.000Z</time>
      </trkpt>
      <trkpt lat="46.18902" lon="6.72448">
        <ele>1458.88</ele>
        <time>2020-08-08T10:36:26.000Z</time>
      </trkpt>
      <trkpt lat="46.18882" lon="6.72361">
        <ele>1452.49</ele>
        <time>2020-08-08T10:36:36.000Z</time>
      </trkpt>
      <trkpt lat="46.18894" lon="6.72182">
        <ele>1443.1</ele>
        <time>2020-08-08T10:36:46.000Z</time>
      </trkpt>
      <trkpt lat="46.18928" lon="6.72024">
        <ele>1432.89</ele>
        <time>2020-08-08T10:36:56.000Z</time>
      </trkpt>
      <trkpt lat="46.18926" lon="6.71986">
        <ele>1427</ele>
        <time>2020-08-08T10:37:06.000Z</time>
      </trkpt>
      <trkpt lat="46.1884" lon="6.7211">
        <ele>1416.09</ele>
        <time>2020-08-08T10:37:16.000Z</time>
      </trkpt>
      <trkpt lat="46.18839" lon="6.72011">
        <ele>1412.03</ele>
        <time>2020-08-08T10:37:26.000Z</time>
      </trkpt>
      <trkpt lat="46.189" lon="6.71886">
        <ele>1403.57</ele>
        <time>2020-08-08T10:37:36.000Z</time>
      </trkpt>
      <trkpt lat="46.18794" lon="6.7197">
        <ele>1393.25</ele>
        <time>2020-08-08T10:37:46.000Z</time>
      </trkpt>
      <trkpt lat="46.18734" lon="6.72148">
        <ele>1382.85</ele>
        <time>2020-08-08T10:37:56.000Z</time>
      </trkpt>
      <trkpt lat="46.18713" lon="6.72349">
        <ele>1369.73</ele>
        <time>2020-08-08T10:38:06.000Z</time>
      </trkpt>
      <trkpt lat="46.18698" lon="6.72408">
        <ele>1361.37</ele>
        <time>2020-08-08T10:38:16.000Z</time>
      </trkpt>
      <trkpt lat="46.18695" lon="6.72233">
        <ele>1357.71</ele>
        <time>2020-08-08T10:38:26.000Z</time>
      </trkpt>
      <trkpt lat="46.18652" lon="6.7205">
        <ele>1347.94</ele>
        <time>2020-08-08T10:38:36.000Z</time>
      </trkpt>
      <trkpt lat="46.18652" lon="6.71838">
        <ele>1333.2</ele>
        <time>2020-08-08T10:38:46.000Z</time>
      </trkpt>
      <trkpt lat="46.18706" lon="6.71647">
        <ele>1317.27</ele>
        <time>2020-08-08T10:38:56.000Z</time>
      </trkpt>
      <trkpt lat="46.18692" lon="6.71625">
        <ele>1309.17</ele>
        <time>2020-08-08T10:39:06.000Z</time>
      </trkpt>
      <trkpt lat="46.18607" lon="6.71778">
        <ele>1299.35</ele>
        <time>2020-08-08T10:39:16.000Z</time>
      </trkpt>
      <trkpt lat="46.18532" lon="6.71953">
        <ele>1287.57</ele>
        <time>2020-08-08T10:39:26.000Z</time>
      </trkpt>
      <trkpt lat="46.18503" lon="6.72047">
        <ele>1277.3</ele>
        <time>2020-08-08T10:39:36.000Z</time>
      </trkpt>
      <trkpt lat="46.18524" lon="6.71878">
        <ele>1268.12</ele>
        <time>2020-08-08T10:39:46.000Z</time>
      </trkpt>
      <trkpt lat="46.18545" lon="6.71692">
        <ele>1258.86</ele>
        <time>2020-08-08T10:39:56.000Z</time>
      </trkpt>
      <trkpt lat="46.18607" lon="6.71519">
        <ele>1249.15</ele>
        <time>2020-08-08T10:40:06.000Z</time>
      </trkpt>
      <trkpt lat="46.18688" lon="6.71349">
        <ele>1237.4</ele>
        <time>2020-08-08T10:40:16.000Z</time>
      </trkpt>
      <trkpt lat="46.18769" lon="6.71177">
        <ele>1226.56</ele>
        <time>2020-08-08T10:40:26.000Z</time>
      </trkpt>
      <trkpt lat="46.18896" lon="6.71053">
        <ele>1211.37</ele>
        <time>2020-08-08T10:40:36.000Z</time>
      </trkpt>
      <trkpt lat="46.18979" lon="6.71047">
        <ele>1198.54</ele>
        <time>2020-08-08T10:40:46.000Z</time>
      </trkpt>
      <trkpt lat="46.18871" lon="6.71023">
        <ele>1187.11</ele>
        <time>2020-08-08T10:40:56.000Z</time>
      </trkpt>
      <trkpt lat="46.18738" lon="6.71087">
        <ele>1175.52</ele>
        <time>2020-08-08T10:41:06.000Z</time>
      </trkpt>
      <trkpt lat="46.186" lon="6.71194">
        <ele>1162.22</ele>
        <time>2020-08-08T10:41:16.000Z</time>
      </trkpt>
      <trkpt lat="46.18526" lon="6.71309">
        <ele>1149.8</ele>
        <time>2020-08-08T10:41:26.000Z</time>
      </trkpt>
      <trkpt lat="46.18537" lon="6.71279">
        <ele>1143.53</ele>
        <time>2020-08-08T10:41:36.000Z</time>
      </trkpt>
      <trkpt lat="46.1863" lon="6.71137">
        <ele>1136.1</ele>
        <time>2020-08-08T10:41:46.000Z</time>
      </trkpt>
      <trkpt lat="46.18697" lon="6.71043">
        <ele>1124.03</ele>
        <time>2020-08-08T10:41:56.000Z</time>
      </trkpt>
      <trkpt lat="46.18606" lon="6.71111">
        <ele>1114.98</ele>
        <time>2020-08-08T10:42:06.000Z</time>
      </trkpt>
      <trkpt lat="46.18621" lon="6.71078">
        <ele>1110.9</ele>
        <time>2020-08-08T10:42:16.000Z</time>
      </trkpt>
      <trkpt lat="46.18713" lon="6.7099">
        <ele>1105.21</ele>
        <time>2020-08-08T10:42:26.000Z</time>
      </trkpt>
      <trkpt lat="46.18696" lon="6.70967">
        <ele>1100.23</ele>
        <time>2020-08-08T10:42:36.000Z</time>
      </trkpt>
      <trkpt lat="46.18573" lon="6.71042">
        <ele>1093.86</ele>
        <time>2020-08-08T10:42:46.000Z</time>
      </trkpt>
      <trkpt lat="46.18474" lon="6.71184">
        <ele>1086.36</ele>
        <time>2020-08-08T10:42:56.000Z</time>
      </trkpt>
      <trkpt lat="46.18381" lon="6.71294">
        <ele>1075.34</ele>
        <time>2020-08-08T10:43:06.000Z</time>
      </trkpt>
      <trkpt lat="46.18387" lon="6.71266">
        <ele>1069.13</ele>
        <time>2020-08-08T10:43:16.000Z</time>
      </trkpt>
      <trkpt lat="46.18446" lon="6.71136">
        <ele>1063.34</ele>
        <time>2020-08-08T10:43:26.000Z</time>
      </trkpt>
      <trkpt lat="46.18513" lon="6.71066">
        <ele>1058.63</ele>
        <time>2020-08-08T10:43:36.000Z</time>
      </trkpt>
      <trkpt lat="46.18422" lon="6.71112">
        <ele>1054.87</ele>
        <time>2020-08-08T10:43:46.000Z</time>
      </trkpt>
      <trkpt lat="46.18338" lon="6.71228">
        <ele>1046.09</ele>
        <time>2020-08-08T10:43:56.000Z</time>
      </trkpt>
      <trkpt lat="46.1834" lon="6.71158">
        <ele>1043.17</ele>
        <time>2020-08-08T10:44:06.000Z</time>
      </trkpt>
      <trkpt lat="46.18417" lon="6.71039">
        <ele>1037.3</ele>
        <time>2020-08-08T10:44:16.000Z</time>
      </trkpt>
      <trkpt lat="46.18508" lon="6.70926">
        <ele>1030.84</ele>
        <time>2020-08-08T10:44:26.000Z</time>
      </trkpt>
      <trkpt lat="46.18502" lon="6.70894">
        <ele>1026.02</ele>
        <time>2020-08-08T10:44:36.000Z</time>
      </trkpt>
      <trkpt lat="46.18389" lon="6.7097">
        <ele>1020.66</ele>
        <time>2020-08-08T10:44:46.000Z</time>
      </trkpt>
      <trkpt lat="46.18281" lon="6.71082">
        <ele>1010.61</ele>
        <time>2020-08-08T10:44:56.000Z</time>
      </trkpt>
      <trkpt lat="46.18198" lon="6.71217">
        <ele>998.79</ele>
        <time>2020-08-08T10:45:06.000Z</time>
      </trkpt>
      <trkpt lat="46.18176" lon="6.71361">
        <ele>984.71</ele>
        <time>2020-08-08T10:45:16.000Z</time>
      </trkpt>
      <trkpt lat="46.18159" lon="6.71407">
        <ele>1015.01</ele>
        <time>2020-08-08T10:45:25.346Z</time>
      </trkpt>
      <trkpt lat="46.18148" lon="6.71419">
        <ele>1026.67</ele>
        <time>2020-08-08T10:45:34.984Z</time>
      </trkpt>
      <trkpt lat="46.18138" lon="6.71442">
        <ele>1029.25</ele>
        <time>2020-08-08T10:45:44.000Z</time>
      </trkpt>
      <trkpt lat="46.18137" lon="6.7145">
        <ele>1029.59</ele>
        <time>2020-08-08T10:45:53.569Z</time>
      </trkpt>
      <trkpt lat="46.18136" lon="6.71449">
        <ele>1021.67</ele>
        <time>2020-08-08T10:46:12.000Z</time>
      </trkpt>
      <trkpt lat="46.18136" lon="6.71448">
        <ele>1022.64</ele>
        <time>2020-08-08T10:46:24.000Z</time>
      </trkpt>
      <trkpt lat="46.18136" lon="6.7145">
        <ele>1029.67</ele>
        <time>2020-08-08T10:46:58.247Z</time>
      </trkpt>
      <trkpt lat="46.18137" lon="6.71524">
        <ele>1029.67</ele>
        <time>2020-08-08T10:47:08.000Z</time>
      </trkpt>
      <trkpt lat="46.1813" lon="6.71604">
        <ele>1029.67</ele>
        <time>2020-08-08T10:47:18.000Z</time>
      </trkpt>
      <trkpt lat="46.18112" lon="6.71605">
        <ele>1025.87</ele>
        <time>2020-08-08T10:47:27.448Z</time>
      </trkpt>
      <trkpt lat="46.18099" lon="6.71555">
        <ele>1014.77</ele>
        <time>2020-08-08T10:47:36.650Z</time>
      </trkpt>
      <trkpt lat="46.18053" lon="6.71499">
        <ele>1014.77</ele>
        <time>2020-08-08T10:47:46.000Z</time>
      </trkpt>
      <trkpt lat="46.18014" lon="6.71435">
        <ele>1014.77</ele>
        <time>2020-08-08T10:47:56.000Z</time>
      </trkpt>
      <trkpt lat="46.18" lon="6.71349">
        <ele>1014.77</ele>
        <time>2020-08-08T10:48:06.000Z</time>
      </trkpt>
      <trkpt lat="46.17984" lon="6.71278">
        <ele>1014.77</ele>
        <time>2020-08-08T10:48:16.000Z</time>
      </trkpt>
      <trkpt lat="46.1799" lon="6.71203">
        <ele>1014.77</ele>
        <time>2020-08-08T10:48:26.000Z</time>
      </trkpt>
      <trkpt lat="46.17985" lon="6.71125">
        <ele>933.11</ele>
        <time>2020-08-08T10:48:36.000Z</time>
      </trkpt>
      <trkpt lat="46.17986" lon="6.71059">
        <ele>923.5</ele>
        <time>2020-08-08T10:48:46.000Z</time>
      </trkpt>
      <trkpt lat="46.17983" lon="6.71056">
        <ele>980.67</ele>
        <time>2020-08-08T10:48:56.000Z</time>
      </trkpt>
      <trkpt lat="46.17984" lon="6.71049">
        <ele>983.11</ele>
        <time>2020-08-08T10:49:05.603Z</time>
      </trkpt>
      <trkpt lat="46.17989" lon="6.70995">
        <ele>975.37</ele>
        <time>2020-08-08T10:49:15.000Z</time>
      </trkpt>
      <trkpt lat="46.17968" lon="6.70926">
        <ele>975.37</ele>
        <time>2020-08-08T10:49:25.000Z</time>
      </trkpt>
      <trkpt lat="46.1793" lon="6.70913">
        <ele>975.37</ele>
        <time>2020-08-08T10:49:35.000Z</time>
      </trkpt>
      <trkpt lat="46.17929" lon="6.70874">
        <ele>975.37</ele>
        <time>2020-08-08T10:49:45.000Z</time>
      </trkpt>
      <trkpt lat="46.17908" lon="6.70873">
        <ele>975.37</ele>
        <time>2020-08-08T10:49:55.000Z</time>
      </trkpt>
      <trkpt lat="46.17887" lon="6.70887">
        <ele>975.37</ele>
        <time>2020-08-08T10:50:04.429Z</time>
      </trkpt>
      <trkpt lat="46.17863" lon="6.70898">
        <ele>915.61</ele>
        <time>2020-08-08T10:50:14.000Z</time>
      </trkpt>
      <trkpt lat="46.17832" lon="6.70906">
        <ele>915.32</ele>
        <time>2020-08-08T10:50:24.000Z</time>
      </trkpt>
      <trkpt lat="46.17798" lon="6.70912">
        <ele>917.61</ele>
        <time>2020-08-08T10:50:33.288Z</time>
      </trkpt>
      <trkpt lat="46.17759" lon="6.70906">
        <ele>918.8</ele>
        <time>2020-08-08T10:50:43.000Z</time>
      </trkpt>
      <trkpt lat="46.17724" lon="6.70891">
        <ele>919.27</ele>
        <time>2020-08-08T10:50:52.330Z</time>
      </trkpt>
      <trkpt lat="46.17695" lon="6.70909">
        <ele>921.92</ele>
        <time>2020-08-08T10:51:02.000Z</time>
      </trkpt>
      <trkpt lat="46.17674" lon="6.70942">
        <ele>921.89</ele>
        <time>2020-08-08T10:51:11.410Z</time>
      </trkpt>
      <trkpt lat="46.17652" lon="6.70978">
        <ele>924.85</ele>
        <time>2020-08-08T10:51:21.000Z</time>
      </trkpt>
      <trkpt lat="46.17629" lon="6.71013">
        <ele>926.29</ele>
        <time>2020-08-08T10:51:30.243Z</time>
      </trkpt>
      <trkpt lat="46.17598" lon="6.71028">
        <ele>929.02</ele>
        <time>2020-08-08T10:51:40.000Z</time>
      </trkpt>
      <trkpt lat="46.17584" lon="6.71014">
        <ele>930.68</ele>
        <time>2020-08-08T10:51:50.000Z</time>
      </trkpt>
      <trkpt lat="46.17572" lon="6.70987">
        <ele>930.58</ele>
        <time>2020-08-08T10:52:00.000Z</time>
      </trkpt>
      <trkpt lat="46.1757" lon="6.71031">
        <ele>931.44</ele>
        <time>2020-08-08T10:52:09.341Z</time>
      </trkpt>
      <trkpt lat="46.17546" lon="6.71038">
        <ele>930.23</ele>
        <time>2020-08-08T10:52:19.000Z</time>
      </trkpt>
      <trkpt lat="46.17525" lon="6.71034">
        <ele>930.06</ele>
        <time>2020-08-08T10:52:29.000Z</time>
      </trkpt>
      <trkpt lat="46.17525" lon="6.71036">
        <ele>930.06</ele>
        <time>2020-08-08T10:52:38.373Z</time>
      </trkpt>
      <trkpt lat="46.17524" lon="6.71039">
        <ele>979.61</ele>
        <time>2020-08-08T10:52:47.580Z</time>
      </trkpt>
      <trkpt lat="46.17524" lon="6.71036">
        <ele>979.66</ele>
        <time>2020-08-08T10:52:57.000Z</time>
      </trkpt>
      <trkpt lat="46.17525" lon="6.71035">
        <ele>979.66</ele>
        <time>2020-08-08T10:53:07.000Z</time>
      </trkpt>
      <trkpt lat="46.17526" lon="6.71032">
        <ele>979.66</ele>
        <time>2020-08-08T10:53:17.000Z</time>
      </trkpt>
      <trkpt lat="46.17526" lon="6.71034">
        <ele>979.66</ele>
        <time>2020-08-08T10:53:27.000Z</time>
      </trkpt>
      <trkpt lat="46.17528" lon="6.71034">
        <ele>977.56</ele>
        <time>2020-08-08T10:56:10.323Z</time>
      </trkpt>
      <trkpt lat="46.17549" lon="6.71036">
        <ele>977.56</ele>
        <time>2020-08-08T10:56:20.000Z</time>
      </trkpt>
      <trkpt lat="46.17572" lon="6.71032">
        <ele>977.56</ele>
        <time>2020-08-08T10:56:29.310Z</time>
      </trkpt>
      <trkpt lat="46.17576" lon="6.71">
        <ele>977.56</ele>
        <time>2020-08-08T10:56:39.000Z</time>
      </trkpt>
      <trkpt lat="46.17568" lon="6.70956">
        <ele>928.89</ele>
        <time>2020-08-08T10:56:49.000Z</time>
      </trkpt>
      <trkpt lat="46.1758" lon="6.70911">
        <ele>928.76</ele>
        <time>2020-08-08T10:56:58.650Z</time>
      </trkpt>
      <trkpt lat="46.176" lon="6.70879">
        <ele>928.76</ele>
        <time>2020-08-08T10:57:08.000Z</time>
      </trkpt>
      <trkpt lat="46.17625" lon="6.70846">
        <ele>930.71</ele>
        <time>2020-08-08T10:57:17.080Z</time>
      </trkpt>
      <trkpt lat="46.17653" lon="6.70821">
        <ele>934.7</ele>
        <time>2020-08-08T10:57:27.000Z</time>
      </trkpt>
      <trkpt lat="46.17683" lon="6.70787">
        <ele>937.22</ele>
        <time>2020-08-08T10:57:37.000Z</time>
      </trkpt>
      <trkpt lat="46.17707" lon="6.70746">
        <ele>938.97</ele>
        <time>2020-08-08T10:57:46.363Z</time>
      </trkpt>
      <trkpt lat="46.17732" lon="6.70696">
        <ele>942.11</ele>
        <time>2020-08-08T10:57:56.000Z</time>
      </trkpt>
      <trkpt lat="46.17764" lon="6.70656">
        <ele>939.43</ele>
        <time>2020-08-08T10:58:06.000Z</time>
      </trkpt>
      <trkpt lat="46.17797" lon="6.70602">
        <ele>940.38</ele>
        <time>2020-08-08T10:58:16.000Z</time>
      </trkpt>
      <trkpt lat="46.17833" lon="6.7055">
        <ele>937.67</ele>
        <time>2020-08-08T10:58:26.000Z</time>
      </trkpt>
      <trkpt lat="46.1787" lon="6.70493">
        <ele>936.87</ele>
        <time>2020-08-08T10:58:36.000Z</time>
      </trkpt>
      <trkpt lat="46.17908" lon="6.70437">
        <ele>933.97</ele>
        <time>2020-08-08T10:58:46.000Z</time>
      </trkpt>
      <trkpt lat="46.17948" lon="6.70375">
        <ele>935.49</ele>
        <time>2020-08-08T10:58:56.000Z</time>
      </trkpt>
      <trkpt lat="46.17982" lon="6.70321">
        <ele>936.15</ele>
        <time>2020-08-08T10:59:06.000Z</time>
      </trkpt>
      <trkpt lat="46.18013" lon="6.7027">
        <ele>937.81</ele>
        <time>2020-08-08T10:59:16.000Z</time>
      </trkpt>
      <trkpt lat="46.18047" lon="6.70214">
        <ele>938.97</ele>
        <time>2020-08-08T10:59:26.000Z</time>
      </trkpt>
      <trkpt lat="46.1808" lon="6.70162">
        <ele>934.33</ele>
        <time>2020-08-08T10:59:36.000Z</time>
      </trkpt>
      <trkpt lat="46.18113" lon="6.70108">
        <ele>931.13</ele>
        <time>2020-08-08T10:59:46.000Z</time>
      </trkpt>
      <trkpt lat="46.18135" lon="6.70081">
        <ele>979.18</ele>
        <time>2020-08-08T10:59:55.616Z</time>
      </trkpt>
      <trkpt lat="46.18158" lon="6.70028">
        <ele>979.38</ele>
        <time>2020-08-08T11:00:05.000Z</time>
      </trkpt>
      <trkpt lat="46.18183" lon="6.69974">
        <ele>979.38</ele>
        <time>2020-08-08T11:00:15.000Z</time>
      </trkpt>
      <trkpt lat="46.18214" lon="6.69917">
        <ele>979.39</ele>
        <time>2020-08-08T11:00:25.000Z</time>
      </trkpt>
      <trkpt lat="46.18235" lon="6.69871">
        <ele>983.38</ele>
        <time>2020-08-08T11:00:34.579Z</time>
      </trkpt>
      <trkpt lat="46.1826" lon="6.69827">
        <ele>983.39</ele>
        <time>2020-08-08T11:00:44.000Z</time>
      </trkpt>
      <trkpt lat="46.18275" lon="6.69769">
        <ele>983.39</ele>
        <time>2020-08-08T11:00:54.000Z</time>
      </trkpt>
      <trkpt lat="46.18289" lon="6.69717">
        <ele>983.39</ele>
        <time>2020-08-08T11:01:03.148Z</time>
      </trkpt>
      <trkpt lat="46.18305" lon="6.69665">
        <ele>983.39</ele>
        <time>2020-08-08T11:01:12.662Z</time>
      </trkpt>
      <trkpt lat="46.1833" lon="6.69624">
        <ele>983.39</ele>
        <time>2020-08-08T11:01:22.000Z</time>
      </trkpt>
      <trkpt lat="46.18362" lon="6.69589">
        <ele>983.39</ele>
        <time>2020-08-08T11:01:31.569Z</time>
      </trkpt>
      <trkpt lat="46.18394" lon="6.69556">
        <ele>943.7</ele>
        <time>2020-08-08T11:01:40.609Z</time>
      </trkpt>
      <trkpt lat="46.18422" lon="6.69517">
        <ele>943.22</ele>
        <time>2020-08-08T11:01:49.612Z</time>
      </trkpt>
      <trkpt lat="46.18447" lon="6.69476">
        <ele>945.24</ele>
        <time>2020-08-08T11:01:59.000Z</time>
      </trkpt>
      <trkpt lat="46.18483" lon="6.69449">
        <ele>948.09</ele>
        <time>2020-08-08T11:02:08.486Z</time>
      </trkpt>
      <trkpt lat="46.18521" lon="6.6943">
        <ele>953.74</ele>
        <time>2020-08-08T11:02:18.000Z</time>
      </trkpt>
      <trkpt lat="46.18555" lon="6.69401">
        <ele>959.81</ele>
        <time>2020-08-08T11:02:27.363Z</time>
      </trkpt>
      <trkpt lat="46.18579" lon="6.69374">
        <ele>963.54</ele>
        <time>2020-08-08T11:02:37.000Z</time>
      </trkpt>
      <trkpt lat="46.18615" lon="6.69353">
        <ele>965.37</ele>
        <time>2020-08-08T11:02:47.000Z</time>
      </trkpt>
      <trkpt lat="46.18646" lon="6.69313">
        <ele>962.65</ele>
        <time>2020-08-08T11:02:56.246Z</time>
      </trkpt>
      <trkpt lat="46.18679" lon="6.69272">
        <ele>961.18</ele>
        <time>2020-08-08T11:03:05.376Z</time>
      </trkpt>
      <trkpt lat="46.18717" lon="6.69241">
        <ele>961.51</ele>
        <time>2020-08-08T11:03:15.000Z</time>
      </trkpt>
      <trkpt lat="46.18752" lon="6.69203">
        <ele>962.39</ele>
        <time>2020-08-08T11:03:24.404Z</time>
      </trkpt>
      <trkpt lat="46.1878" lon="6.69171">
        <ele>965.4</ele>
        <time>2020-08-08T11:03:34.000Z</time>
      </trkpt>
      <trkpt lat="46.18812" lon="6.69136">
        <ele>964.92</ele>
        <time>2020-08-08T11:03:44.000Z</time>
      </trkpt>
      <trkpt lat="46.18832" lon="6.69101">
        <ele>964.46</ele>
        <time>2020-08-08T11:03:53.400Z</time>
      </trkpt>
      <trkpt lat="46.18854" lon="6.6906">
        <ele>963.79</ele>
        <time>2020-08-08T11:04:02.662Z</time>
      </trkpt>
      <trkpt lat="46.18884" lon="6.69038">
        <ele>966.89</ele>
        <time>2020-08-08T11:04:11.677Z</time>
      </trkpt>
      <trkpt lat="46.18912" lon="6.69013">
        <ele>970.46</ele>
        <time>2020-08-08T11:04:21.000Z</time>
      </trkpt>
      <trkpt lat="46.18936" lon="6.68973">
        <ele>971.2</ele>
        <time>2020-08-08T11:04:30.459Z</time>
      </trkpt>
      <trkpt lat="46.18958" lon="6.68935">
        <ele>973.83</ele>
        <time>2020-08-08T11:04:40.000Z</time>
      </trkpt>
      <trkpt lat="46.18983" lon="6.68891">
        <ele>974.11</ele>
        <time>2020-08-08T11:04:49.381Z</time>
      </trkpt>
      <trkpt lat="46.19005" lon="6.68853">
        <ele>974.6</ele>
        <time>2020-08-08T11:04:58.724Z</time>
      </trkpt>
      <trkpt lat="46.19032" lon="6.68819">
        <ele>976.78</ele>
        <time>2020-08-08T11:05:08.303Z</time>
      </trkpt>
      <trkpt lat="46.19053" lon="6.68784">
        <ele>976.76</ele>
        <time>2020-08-08T11:05:17.321Z</time>
      </trkpt>
      <trkpt lat="46.19076" lon="6.68748">
        <ele>975.43</ele>
        <time>2020-08-08T11:05:26.803Z</time>
      </trkpt>
      <trkpt lat="46.19088" lon="6.68707">
        <ele>977.03</ele>
        <time>2020-08-08T11:05:36.303Z</time>
      </trkpt>
      <trkpt lat="46.19084" lon="6.68664">
        <ele>980.97</ele>
        <time>2020-08-08T11:05:45.636Z</time>
      </trkpt>
      <trkpt lat="46.19079" lon="6.68624">
        <ele>988.5</ele>
        <time>2020-08-08T11:05:55.000Z</time>
      </trkpt>
      <trkpt lat="46.19069" lon="6.68582">
        <ele>992.89</ele>
        <time>2020-08-08T11:06:04.282Z</time>
      </trkpt>
      <trkpt lat="46.19048" lon="6.68548">
        <ele>994.32</ele>
        <time>2020-08-08T11:06:13.684Z</time>
      </trkpt>
      <trkpt lat="46.19019" lon="6.68523">
        <ele>996.28</ele>
        <time>2020-08-08T11:06:23.098Z</time>
      </trkpt>
      <trkpt lat="46.18992" lon="6.68499">
        <ele>1000.63</ele>
        <time>2020-08-08T11:06:33.000Z</time>
      </trkpt>
      <trkpt lat="46.18967" lon="6.68481">
        <ele>1006.26</ele>
        <time>2020-08-08T11:06:42.316Z</time>
      </trkpt>
      <trkpt lat="46.18943" lon="6.68458">
        <ele>1014.72</ele>
        <time>2020-08-08T11:06:52.000Z</time>
      </trkpt>
      <trkpt lat="46.18912" lon="6.68434">
        <ele>1017.1</ele>
        <time>2020-08-08T11:07:01.418Z</time>
      </trkpt>
      <trkpt lat="46.18885" lon="6.68415">
        <ele>1020.97</ele>
        <time>2020-08-08T11:07:10.541Z</time>
      </trkpt>
      <trkpt lat="46.18857" lon="6.68387">
        <ele>1024.05</ele>
        <time>2020-08-08T11:07:20.000Z</time>
      </trkpt>
      <trkpt lat="46.18834" lon="6.68368">
        <ele>1027.26</ele>
        <time>2020-08-08T11:07:29.423Z</time>
      </trkpt>
      <trkpt lat="46.18811" lon="6.68346">
        <ele>1031.24</ele>
        <time>2020-08-08T11:07:39.000Z</time>
      </trkpt>
      <trkpt lat="46.18782" lon="6.68326">
        <ele>1035.45</ele>
        <time>2020-08-08T11:07:48.661Z</time>
      </trkpt>
      <trkpt lat="46.18752" lon="6.68301">
        <ele>1034.34</ele>
        <time>2020-08-08T11:07:58.000Z</time>
      </trkpt>
      <trkpt lat="46.18716" lon="6.6828">
        <ele>1034.76</ele>
        <time>2020-08-08T11:08:07.225Z</time>
      </trkpt>
      <trkpt lat="46.1868" lon="6.68263">
        <ele>1031.72</ele>
        <time>2020-08-08T11:08:16.745Z</time>
      </trkpt>
      <trkpt lat="46.18648" lon="6.6825">
        <ele>1030.09</ele>
        <time>2020-08-08T11:08:26.000Z</time>
      </trkpt>
      <trkpt lat="46.1861" lon="6.68247">
        <ele>1024.76</ele>
        <time>2020-08-08T11:08:35.360Z</time>
      </trkpt>
      <trkpt lat="46.18574" lon="6.68248">
        <ele>1018.77</ele>
        <time>2020-08-08T11:08:44.740Z</time>
      </trkpt>
      <trkpt lat="46.18539" lon="6.68245">
        <ele>1014.73</ele>
        <time>2020-08-08T11:08:54.259Z</time>
      </trkpt>
      <trkpt lat="46.18515" lon="6.6823">
        <ele>1015.55</ele>
        <time>2020-08-08T11:09:03.562Z</time>
      </trkpt>
      <trkpt lat="46.18486" lon="6.68209">
        <ele>1022.11</ele>
        <time>2020-08-08T11:09:13.000Z</time>
      </trkpt>
      <trkpt lat="46.18459" lon="6.68187">
        <ele>1028.52</ele>
        <time>2020-08-08T11:09:22.082Z</time>
      </trkpt>
      <trkpt lat="46.18431" lon="6.68168">
        <ele>1033.58</ele>
        <time>2020-08-08T11:09:31.541Z</time>
      </trkpt>
      <trkpt lat="46.18408" lon="6.68157">
        <ele>1037.68</ele>
        <time>2020-08-08T11:09:40.744Z</time>
      </trkpt>
      <trkpt lat="46.18382" lon="6.68146">
        <ele>1042.06</ele>
        <time>2020-08-08T11:09:50.204Z</time>
      </trkpt>
      <trkpt lat="46.18347" lon="6.68141">
        <ele>1048.21</ele>
        <time>2020-08-08T11:09:59.624Z</time>
      </trkpt>
      <trkpt lat="46.18316" lon="6.68148">
        <ele>1053.62</ele>
        <time>2020-08-08T11:10:09.065Z</time>
      </trkpt>
      <trkpt lat="46.18285" lon="6.68168">
        <ele>1052.28</ele>
        <time>2020-08-08T11:10:18.376Z</time>
      </trkpt>
      <trkpt lat="46.18252" lon="6.68192">
        <ele>1051.69</ele>
        <time>2020-08-08T11:10:28.000Z</time>
      </trkpt>
      <trkpt lat="46.18218" lon="6.6822">
        <ele>1047.81</ele>
        <time>2020-08-08T11:10:38.000Z</time>
      </trkpt>
      <trkpt lat="46.18182" lon="6.68246">
        <ele>1039.94</ele>
        <time>2020-08-08T11:10:47.741Z</time>
      </trkpt>
      <trkpt lat="46.18152" lon="6.68254">
        <ele>1037.46</ele>
        <time>2020-08-08T11:10:57.418Z</time>
      </trkpt>
      <trkpt lat="46.18125" lon="6.68275">
        <ele>1038.13</ele>
        <time>2020-08-08T11:11:06.444Z</time>
      </trkpt>
      <trkpt lat="46.18095" lon="6.68288">
        <ele>1039.02</ele>
        <time>2020-08-08T11:11:16.000Z</time>
      </trkpt>
      <trkpt lat="46.18062" lon="6.68291">
        <ele>1041.36</ele>
        <time>2020-08-08T11:11:26.000Z</time>
      </trkpt>
      <trkpt lat="46.18031" lon="6.68305">
        <ele>1044.56</ele>
        <time>2020-08-08T11:11:35.476Z</time>
      </trkpt>
      <trkpt lat="46.18003" lon="6.68323">
        <ele>1046.49</ele>
        <time>2020-08-08T11:11:44.640Z</time>
      </trkpt>
      <trkpt lat="46.17975" lon="6.68332">
        <ele>1047.48</ele>
        <time>2020-08-08T11:11:53.663Z</time>
      </trkpt>
      <trkpt lat="46.17943" lon="6.68335">
        <ele>1050.91</ele>
        <time>2020-08-08T11:12:03.260Z</time>
      </trkpt>
      <trkpt lat="46.17915" lon="6.68326">
        <ele>1053.98</ele>
        <time>2020-08-08T11:12:12.464Z</time>
      </trkpt>
      <trkpt lat="46.17888" lon="6.68316">
        <ele>1058.85</ele>
        <time>2020-08-08T11:12:21.764Z</time>
      </trkpt>
      <trkpt lat="46.17859" lon="6.68322">
        <ele>1064.01</ele>
        <time>2020-08-08T11:12:31.000Z</time>
      </trkpt>
      <trkpt lat="46.17824" lon="6.68318">
        <ele>1065.69</ele>
        <time>2020-08-08T11:12:40.603Z</time>
      </trkpt>
      <trkpt lat="46.17796" lon="6.68304">
        <ele>1066.59</ele>
        <time>2020-08-08T11:12:50.000Z</time>
      </trkpt>
      <trkpt lat="46.17767" lon="6.68279">
        <ele>1069.3</ele>
        <time>2020-08-08T11:13:00.000Z</time>
      </trkpt>
      <trkpt lat="46.17739" lon="6.68256">
        <ele>1071.26</ele>
        <time>2020-08-08T11:13:09.743Z</time>
      </trkpt>
      <trkpt lat="46.17717" lon="6.68226">
        <ele>1077.66</ele>
        <time>2020-08-08T11:13:19.163Z</time>
      </trkpt>
      <trkpt lat="46.17699" lon="6.68196">
        <ele>1080.87</ele>
        <time>2020-08-08T11:13:28.276Z</time>
      </trkpt>
      <trkpt lat="46.17678" lon="6.68162">
        <ele>1081.39</ele>
        <time>2020-08-08T11:13:37.578Z</time>
      </trkpt>
      <trkpt lat="46.17654" lon="6.68135">
        <ele>1083.06</ele>
        <time>2020-08-08T11:13:47.000Z</time>
      </trkpt>
      <trkpt lat="46.17616" lon="6.68124">
        <ele>1083.64</ele>
        <time>2020-08-08T11:13:56.459Z</time>
      </trkpt>
      <trkpt lat="46.1757" lon="6.68145">
        <ele>1078.46</ele>
        <time>2020-08-08T11:14:06.000Z</time>
      </trkpt>
      <trkpt lat="46.17517" lon="6.68147">
        <ele>1077.96</ele>
        <time>2020-08-08T11:14:16.000Z</time>
      </trkpt>
      <trkpt lat="46.17464" lon="6.6813">
        <ele>1079.03</ele>
        <time>2020-08-08T11:14:26.000Z</time>
      </trkpt>
      <trkpt lat="46.17411" lon="6.68108">
        <ele>1080.88</ele>
        <time>2020-08-08T11:14:36.000Z</time>
      </trkpt>
      <trkpt lat="46.17368" lon="6.68069">
        <ele>1081.98</ele>
        <time>2020-08-08T11:14:46.000Z</time>
      </trkpt>
      <trkpt lat="46.17312" lon="6.68065">
        <ele>1080.39</ele>
        <time>2020-08-08T11:14:56.000Z</time>
      </trkpt>
      <trkpt lat="46.17247" lon="6.68048">
        <ele>1080.61</ele>
        <time>2020-08-08T11:15:06.000Z</time>
      </trkpt>
      <trkpt lat="46.17207" lon="6.68009">
        <ele>1082.9</ele>
        <time>2020-08-08T11:15:16.000Z</time>
      </trkpt>
      <trkpt lat="46.17167" lon="6.67959">
        <ele>1086.93</ele>
        <time>2020-08-08T11:15:26.000Z</time>
      </trkpt>
      <trkpt lat="46.17123" lon="6.67908">
        <ele>1084.91</ele>
        <time>2020-08-08T11:15:36.000Z</time>
      </trkpt>
      <trkpt lat="46.17074" lon="6.67867">
        <ele>1084.41</ele>
        <time>2020-08-08T11:15:46.000Z</time>
      </trkpt>
      <trkpt lat="46.17031" lon="6.67835">
        <ele>1084.86</ele>
        <time>2020-08-08T11:15:56.000Z</time>
      </trkpt>
      <trkpt lat="46.16973" lon="6.67824">
        <ele>1085.56</ele>
        <time>2020-08-08T11:16:06.000Z</time>
      </trkpt>
      <trkpt lat="46.16918" lon="6.67799">
        <ele>1087.31</ele>
        <time>2020-08-08T11:16:16.000Z</time>
      </trkpt>
      <trkpt lat="46.1686" lon="6.67766">
        <ele>1088.45</ele>
        <time>2020-08-08T11:16:26.000Z</time>
      </trkpt>
      <trkpt lat="46.16809" lon="6.67734">
        <ele>1086.85</ele>
        <time>2020-08-08T11:16:36.000Z</time>
      </trkpt>
      <trkpt lat="46.16759" lon="6.67701">
        <ele>1086.78</ele>
        <time>2020-08-08T11:16:46.000Z</time>
      </trkpt>
      <trkpt lat="46.16707" lon="6.67667">
        <ele>1088.08</ele>
        <time>2020-08-08T11:16:56.000Z</time>
      </trkpt>
      <trkpt lat="46.16665" lon="6.67643">
        <ele>1088.95</ele>
        <time>2020-08-08T11:17:06.000Z</time>
      </trkpt>
      <trkpt lat="46.16631" lon="6.67629">
        <ele>1092.64</ele>
        <time>2020-08-08T11:17:15.537Z</time>
      </trkpt>
      <trkpt lat="46.16603" lon="6.67601">
        <ele>1095.97</ele>
        <time>2020-08-08T11:17:24.601Z</time>
      </trkpt>
      <trkpt lat="46.16576" lon="6.67568">
        <ele>1099</ele>
        <time>2020-08-08T11:17:34.000Z</time>
      </trkpt>
      <trkpt lat="46.16547" lon="6.67542">
        <ele>1101.71</ele>
        <time>2020-08-08T11:17:43.021Z</time>
      </trkpt>
      <trkpt lat="46.16513" lon="6.67522">
        <ele>1104.18</ele>
        <time>2020-08-08T11:17:52.341Z</time>
      </trkpt>
      <trkpt lat="46.16482" lon="6.67504">
        <ele>1109.17</ele>
        <time>2020-08-08T11:18:01.514Z</time>
      </trkpt>
      <trkpt lat="46.16447" lon="6.67485">
        <ele>1108.28</ele>
        <time>2020-08-08T11:18:10.536Z</time>
      </trkpt>
      <trkpt lat="46.1641" lon="6.67461">
        <ele>1105.51</ele>
        <time>2020-08-08T11:18:20.000Z</time>
      </trkpt>
      <trkpt lat="46.16375" lon="6.67437">
        <ele>1103.48</ele>
        <time>2020-08-08T11:18:29.336Z</time>
      </trkpt>
      <trkpt lat="46.16346" lon="6.6741">
        <ele>1105.61</ele>
        <time>2020-08-08T11:18:39.000Z</time>
      </trkpt>
      <trkpt lat="46.16314" lon="6.6738">
        <ele>1106.47</ele>
        <time>2020-08-08T11:18:48.093Z</time>
      </trkpt>
      <trkpt lat="46.16282" lon="6.67352">
        <ele>1108.33</ele>
        <time>2020-08-08T11:18:57.701Z</time>
      </trkpt>
      <trkpt lat="46.16248" lon="6.67329">
        <ele>1109.71</ele>
        <time>2020-08-08T11:19:07.000Z</time>
      </trkpt>
      <trkpt lat="46.16202" lon="6.67326">
        <ele>1110.2</ele>
        <time>2020-08-08T11:19:16.521Z</time>
      </trkpt>
      <trkpt lat="46.16161" lon="6.67299">
        <ele>1111.88</ele>
        <time>2020-08-08T11:19:26.000Z</time>
      </trkpt>
      <trkpt lat="46.16126" lon="6.67251">
        <ele>1113.15</ele>
        <time>2020-08-08T11:19:36.000Z</time>
      </trkpt>
      <trkpt lat="46.16107" lon="6.67192">
        <ele>1112.84</ele>
        <time>2020-08-08T11:19:46.000Z</time>
      </trkpt>
      <trkpt lat="46.16099" lon="6.67123">
        <ele>1114.03</ele>
        <time>2020-08-08T11:19:56.000Z</time>
      </trkpt>
      <trkpt lat="46.1608" lon="6.67051">
        <ele>1113.79</ele>
        <time>2020-08-08T11:20:06.000Z</time>
      </trkpt>
      <trkpt lat="46.16061" lon="6.66982">
        <ele>1112.13</ele>
        <time>2020-08-08T11:20:16.000Z</time>
      </trkpt>
      <trkpt lat="46.16043" lon="6.66918">
        <ele>1114.34</ele>
        <time>2020-08-08T11:20:26.000Z</time>
      </trkpt>
      <trkpt lat="46.16006" lon="6.6688">
        <ele>1117.22</ele>
        <time>2020-08-08T11:20:36.000Z</time>
      </trkpt>
      <trkpt lat="46.15959" lon="6.6684">
        <ele>1117.73</ele>
        <time>2020-08-08T11:20:46.000Z</time>
      </trkpt>
      <trkpt lat="46.15918" lon="6.66789">
        <ele>1118.41</ele>
        <time>2020-08-08T11:20:56.000Z</time>
      </trkpt>
      <trkpt lat="46.15867" lon="6.6674">
        <ele>1117.04</ele>
        <time>2020-08-08T11:21:06.000Z</time>
      </trkpt>
      <trkpt lat="46.15809" lon="6.66699">
        <ele>1118.23</ele>
        <time>2020-08-08T11:21:16.000Z</time>
      </trkpt>
      <trkpt lat="46.15766" lon="6.66626">
        <ele>1117.89</ele>
        <time>2020-08-08T11:21:26.000Z</time>
      </trkpt>
      <trkpt lat="46.1572" lon="6.66553">
        <ele>1114.97</ele>
        <time>2020-08-08T11:21:36.000Z</time>
      </trkpt>
      <trkpt lat="46.15667" lon="6.66464">
        <ele>1111.4</ele>
        <time>2020-08-08T11:21:46.000Z</time>
      </trkpt>
      <trkpt lat="46.15609" lon="6.66376">
        <ele>1108.04</ele>
        <time>2020-08-08T11:21:56.000Z</time>
      </trkpt>
      <trkpt lat="46.15554" lon="6.66291">
        <ele>1107.45</ele>
        <time>2020-08-08T11:22:06.000Z</time>
      </trkpt>
      <trkpt lat="46.15497" lon="6.66206">
        <ele>1105.36</ele>
        <time>2020-08-08T11:22:16.000Z</time>
      </trkpt>
      <trkpt lat="46.15419" lon="6.66158">
        <ele>1100.26</ele>
        <time>2020-08-08T11:22:26.000Z</time>
      </trkpt>
      <trkpt lat="46.15355" lon="6.66071">
        <ele>1094.04</ele>
        <time>2020-08-08T11:22:36.000Z</time>
      </trkpt>
      <trkpt lat="46.15292" lon="6.65987">
        <ele>1091.9</ele>
        <time>2020-08-08T11:22:46.000Z</time>
      </trkpt>
      <trkpt lat="46.1521" lon="6.65933">
        <ele>1091.68</ele>
        <time>2020-08-08T11:22:56.000Z</time>
      </trkpt>
      <trkpt lat="46.15164" lon="6.65813">
        <ele>1085.02</ele>
        <time>2020-08-08T11:23:06.000Z</time>
      </trkpt>
      <trkpt lat="46.15082" lon="6.6574">
        <ele>1078.94</ele>
        <time>2020-08-08T11:23:16.000Z</time>
      </trkpt>
      <trkpt lat="46.15009" lon="6.65656">
        <ele>1071.41</ele>
        <time>2020-08-08T11:23:26.000Z</time>
      </trkpt>
      <trkpt lat="46.14937" lon="6.65595">
        <ele>1062.92</ele>
        <time>2020-08-08T11:23:36.000Z</time>
      </trkpt>
      <trkpt lat="46.14931" lon="6.65586">
        <ele>1116.55</ele>
        <time>2020-08-08T11:23:45.236Z</time>
      </trkpt>
      <trkpt lat="46.14929" lon="6.65587">
        <ele>1116.77</ele>
        <time>2020-08-08T11:23:54.480Z</time>
      </trkpt>
      <trkpt lat="46.1493" lon="6.65588">
        <ele>1115.83</ele>
        <time>2020-08-08T11:24:03.719Z</time>
      </trkpt>
      <trkpt lat="46.14932" lon="6.65582">
        <ele>1116.77</ele>
        <time>2020-08-08T11:24:13.000Z</time>
      </trkpt>
      <trkpt lat="46.14933" lon="6.65577">
        <ele>1116.77</ele>
        <time>2020-08-08T11:24:22.640Z</time>
      </trkpt>
      <trkpt lat="46.14933" lon="6.65579">
        <ele>1116.68</ele>
        <time>2020-08-08T11:24:35.285Z</time>
      </trkpt>
      <trkpt lat="46.14896" lon="6.65603">
        <ele>1116.67</ele>
        <time>2020-08-08T11:24:45.000Z</time>
      </trkpt>
      <trkpt lat="46.1482" lon="6.65614">
        <ele>1116.67</ele>
        <time>2020-08-08T11:24:55.000Z</time>
      </trkpt>
      <trkpt lat="46.14753" lon="6.65537">
        <ele>1116.67</ele>
        <time>2020-08-08T11:25:05.000Z</time>
      </trkpt>
      <trkpt lat="46.14696" lon="6.65444">
        <ele>1116.67</ele>
        <time>2020-08-08T11:25:15.000Z</time>
      </trkpt>
      <trkpt lat="46.1464" lon="6.65334">
        <ele>1116.67</ele>
        <time>2020-08-08T11:25:25.000Z</time>
      </trkpt>
      <trkpt lat="46.14576" lon="6.65238">
        <ele>1116.67</ele>
        <time>2020-08-08T11:25:35.000Z</time>
      </trkpt>
      <trkpt lat="46.14525" lon="6.65131">
        <ele>1043.05</ele>
        <time>2020-08-08T11:25:45.000Z</time>
      </trkpt>
      <trkpt lat="46.145" lon="6.65013">
        <ele>1041.43</ele>
        <time>2020-08-08T11:25:55.000Z</time>
      </trkpt>
      <trkpt lat="46.14452" lon="6.64912">
        <ele>1039.06</ele>
        <time>2020-08-08T11:26:05.000Z</time>
      </trkpt>
      <trkpt lat="46.14416" lon="6.64791">
        <ele>1034.67</ele>
        <time>2020-08-08T11:26:15.000Z</time>
      </trkpt>
      <trkpt lat="46.14374" lon="6.64665">
        <ele>1029.02</ele>
        <time>2020-08-08T11:26:25.000Z</time>
      </trkpt>
      <trkpt lat="46.14377" lon="6.64518">
        <ele>1025.68</ele>
        <time>2020-08-08T11:26:35.000Z</time>
      </trkpt>
      <trkpt lat="46.14299" lon="6.64407">
        <ele>1022.84</ele>
        <time>2020-08-08T11:26:45.000Z</time>
      </trkpt>
      <trkpt lat="46.14276" lon="6.64281">
        <ele>1021.81</ele>
        <time>2020-08-08T11:26:55.000Z</time>
      </trkpt>
      <trkpt lat="46.14198" lon="6.64198">
        <ele>1021.44</ele>
        <time>2020-08-08T11:27:05.000Z</time>
      </trkpt>
      <trkpt lat="46.14171" lon="6.64055">
        <ele>1021.41</ele>
        <time>2020-08-08T11:27:15.000Z</time>
      </trkpt>
      <trkpt lat="46.14069" lon="6.64013">
        <ele>1017.15</ele>
        <time>2020-08-08T11:27:25.000Z</time>
      </trkpt>
      <trkpt lat="46.1399" lon="6.63883">
        <ele>996.16</ele>
        <time>2020-08-08T11:27:35.000Z</time>
      </trkpt>
      <trkpt lat="46.1393" lon="6.63719">
        <ele>982.46</ele>
        <time>2020-08-08T11:27:45.000Z</time>
      </trkpt>
      <trkpt lat="46.13828" lon="6.63605">
        <ele>971.21</ele>
        <time>2020-08-08T11:27:55.000Z</time>
      </trkpt>
      <trkpt lat="46.13732" lon="6.63466">
        <ele>961.66</ele>
        <time>2020-08-08T11:28:05.000Z</time>
      </trkpt>
      <trkpt lat="46.13661" lon="6.63318">
        <ele>952.02</ele>
        <time>2020-08-08T11:28:15.000Z</time>
      </trkpt>
      <trkpt lat="46.1356" lon="6.63223">
        <ele>945.64</ele>
        <time>2020-08-08T11:28:25.000Z</time>
      </trkpt>
      <trkpt lat="46.13491" lon="6.63076">
        <ele>936.96</ele>
        <time>2020-08-08T11:28:35.000Z</time>
      </trkpt>
      <trkpt lat="46.13436" lon="6.62907">
        <ele>926.07</ele>
        <time>2020-08-08T11:28:45.000Z</time>
      </trkpt>
      <trkpt lat="46.13426" lon="6.6277">
        <ele>918.63</ele>
        <time>2020-08-08T11:28:55.000Z</time>
      </trkpt>
      <trkpt lat="46.13443" lon="6.62652">
        <ele>912.74</ele>
        <time>2020-08-08T11:29:05.000Z</time>
      </trkpt>
      <trkpt lat="46.13512" lon="6.62562">
        <ele>908.57</ele>
        <time>2020-08-08T11:29:15.000Z</time>
      </trkpt>
      <trkpt lat="46.13587" lon="6.62486">
        <ele>905.05</ele>
        <time>2020-08-08T11:29:25.000Z</time>
      </trkpt>
      <trkpt lat="46.13656" lon="6.6239">
        <ele>905.5</ele>
        <time>2020-08-08T11:29:35.000Z</time>
      </trkpt>
      <trkpt lat="46.13675" lon="6.62296">
        <ele>908.33</ele>
        <time>2020-08-08T11:29:45.000Z</time>
      </trkpt>
      <trkpt lat="46.13642" lon="6.62291">
        <ele>911.7</ele>
        <time>2020-08-08T11:29:55.000Z</time>
      </trkpt>
      <trkpt lat="46.13612" lon="6.62302">
        <ele>914.44</ele>
        <time>2020-08-08T11:30:05.122Z</time>
      </trkpt>
      <trkpt lat="46.13579" lon="6.62328">
        <ele>917.46</ele>
        <time>2020-08-08T11:30:14.621Z</time>
      </trkpt>
      <trkpt lat="46.13553" lon="6.62346">
        <ele>919.04</ele>
        <time>2020-08-08T11:30:24.319Z</time>
      </trkpt>
      <trkpt lat="46.13532" lon="6.6236">
        <ele>919.06</ele>
        <time>2020-08-08T11:30:34.000Z</time>
      </trkpt>
      <trkpt lat="46.13509" lon="6.6236">
        <ele>923.51</ele>
        <time>2020-08-08T11:30:43.682Z</time>
      </trkpt>
      <trkpt lat="46.13486" lon="6.62346">
        <ele>926.99</ele>
        <time>2020-08-08T11:30:53.000Z</time>
      </trkpt>
      <trkpt lat="46.13464" lon="6.62327">
        <ele>926.58</ele>
        <time>2020-08-08T11:31:02.724Z</time>
      </trkpt>
      <trkpt lat="46.13437" lon="6.62314">
        <ele>926.53</ele>
        <time>2020-08-08T11:31:12.000Z</time>
      </trkpt>
      <trkpt lat="46.13407" lon="6.62297">
        <ele>929.8</ele>
        <time>2020-08-08T11:31:22.000Z</time>
      </trkpt>
      <trkpt lat="46.13373" lon="6.62275">
        <ele>930.39</ele>
        <time>2020-08-08T11:31:31.704Z</time>
      </trkpt>
      <trkpt lat="46.13328" lon="6.62248">
        <ele>928.58</ele>
        <time>2020-08-08T11:31:41.000Z</time>
      </trkpt>
      <trkpt lat="46.13281" lon="6.62218">
        <ele>927.17</ele>
        <time>2020-08-08T11:31:51.000Z</time>
      </trkpt>
      <trkpt lat="46.13234" lon="6.62188">
        <ele>926.35</ele>
        <time>2020-08-08T11:32:01.000Z</time>
      </trkpt>
      <trkpt lat="46.13185" lon="6.62169">
        <ele>927.26</ele>
        <time>2020-08-08T11:32:11.000Z</time>
      </trkpt>
      <trkpt lat="46.13125" lon="6.62143">
        <ele>925.09</ele>
        <time>2020-08-08T11:32:21.000Z</time>
      </trkpt>
      <trkpt lat="46.13039" lon="6.6214">
        <ele>923.63</ele>
        <time>2020-08-08T11:32:31.000Z</time>
      </trkpt>
      <trkpt lat="46.12954" lon="6.62098">
        <ele>920.03</ele>
        <time>2020-08-08T11:32:41.000Z</time>
      </trkpt>
      <trkpt lat="46.1287" lon="6.62099">
        <ele>917.42</ele>
        <time>2020-08-08T11:32:51.000Z</time>
      </trkpt>
      <trkpt lat="46.12795" lon="6.62067">
        <ele>916.66</ele>
        <time>2020-08-08T11:33:01.000Z</time>
      </trkpt>
      <trkpt lat="46.12707" lon="6.62049">
        <ele>915.65</ele>
        <time>2020-08-08T11:33:11.000Z</time>
      </trkpt>
      <trkpt lat="46.12619" lon="6.61983">
        <ele>908.24</ele>
        <time>2020-08-08T11:33:21.000Z</time>
      </trkpt>
      <trkpt lat="46.12539" lon="6.61905">
        <ele>901.71</ele>
        <time>2020-08-08T11:33:31.000Z</time>
      </trkpt>
      <trkpt lat="46.12475" lon="6.61812">
        <ele>896.78</ele>
        <time>2020-08-08T11:33:41.000Z</time>
      </trkpt>
      <trkpt lat="46.12433" lon="6.61712">
        <ele>893.77</ele>
        <time>2020-08-08T11:33:51.000Z</time>
      </trkpt>
      <trkpt lat="46.12397" lon="6.61617">
        <ele>891.83</ele>
        <time>2020-08-08T11:34:01.000Z</time>
      </trkpt>
      <trkpt lat="46.12357" lon="6.61525">
        <ele>890.95</ele>
        <time>2020-08-08T11:34:11.000Z</time>
      </trkpt>
      <trkpt lat="46.12312" lon="6.61444">
        <ele>888.57</ele>
        <time>2020-08-08T11:34:21.000Z</time>
      </trkpt>
      <trkpt lat="46.12312" lon="6.61362">
        <ele>891.46</ele>
        <time>2020-08-08T11:34:31.000Z</time>
      </trkpt>
      <trkpt lat="46.1231" lon="6.6126">
        <ele>888.34</ele>
        <time>2020-08-08T11:34:41.000Z</time>
      </trkpt>
      <trkpt lat="46.12314" lon="6.6115">
        <ele>883.3</ele>
        <time>2020-08-08T11:34:51.000Z</time>
      </trkpt>
      <trkpt lat="46.12321" lon="6.61047">
        <ele>881.85</ele>
        <time>2020-08-08T11:35:01.000Z</time>
      </trkpt>
      <trkpt lat="46.12331" lon="6.60935">
        <ele>879.55</ele>
        <time>2020-08-08T11:35:11.000Z</time>
      </trkpt>
      <trkpt lat="46.12358" lon="6.60839">
        <ele>877.96</ele>
        <time>2020-08-08T11:35:21.000Z</time>
      </trkpt>
      <trkpt lat="46.12417" lon="6.60769">
        <ele>872.5</ele>
        <time>2020-08-08T11:35:31.000Z</time>
      </trkpt>
      <trkpt lat="46.12449" lon="6.60687">
        <ele>873.26</ele>
        <time>2020-08-08T11:35:41.000Z</time>
      </trkpt>
      <trkpt lat="46.12355" lon="6.60669">
        <ele>873.76</ele>
        <time>2020-08-08T11:35:51.000Z</time>
      </trkpt>
      <trkpt lat="46.12278" lon="6.60615">
        <ele>872.07</ele>
        <time>2020-08-08T11:36:01.000Z</time>
      </trkpt>
      <trkpt lat="46.12234" lon="6.60544">
        <ele>870.22</ele>
        <time>2020-08-08T11:36:11.000Z</time>
      </trkpt>
      <trkpt lat="46.1219" lon="6.60438">
        <ele>868.74</ele>
        <time>2020-08-08T11:36:21.000Z</time>
      </trkpt>
      <trkpt lat="46.12131" lon="6.60312">
        <ele>863.46</ele>
        <time>2020-08-08T11:36:31.000Z</time>
      </trkpt>
      <trkpt lat="46.12092" lon="6.60186">
        <ele>854.46</ele>
        <time>2020-08-08T11:36:41.000Z</time>
      </trkpt>
      <trkpt lat="46.12034" lon="6.60066">
        <ele>838.97</ele>
        <time>2020-08-08T11:36:51.000Z</time>
      </trkpt>
      <trkpt lat="46.11967" lon="6.59977">
        <ele>825.8</ele>
        <time>2020-08-08T11:37:01.000Z</time>
      </trkpt>
      <trkpt lat="46.11882" lon="6.59862">
        <ele>809.79</ele>
        <time>2020-08-08T11:37:11.000Z</time>
      </trkpt>
      <trkpt lat="46.11815" lon="6.59725">
        <ele>797.01</ele>
        <time>2020-08-08T11:37:21.000Z</time>
      </trkpt>
      <trkpt lat="46.11767" lon="6.59655">
        <ele>787.04</ele>
        <time>2020-08-08T11:37:31.000Z</time>
      </trkpt>
      <trkpt lat="46.11754" lon="6.59567">
        <ele>779.1</ele>
        <time>2020-08-08T11:37:41.000Z</time>
      </trkpt>
      <trkpt lat="46.1169" lon="6.59517">
        <ele>769.84</ele>
        <time>2020-08-08T11:37:51.000Z</time>
      </trkpt>
      <trkpt lat="46.11593" lon="6.59501">
        <ele>762.17</ele>
        <time>2020-08-08T11:38:01.000Z</time>
      </trkpt>
      <trkpt lat="46.11535" lon="6.59408">
        <ele>753.86</ele>
        <time>2020-08-08T11:38:11.000Z</time>
      </trkpt>
      <trkpt lat="46.11492" lon="6.59258">
        <ele>745.81</ele>
        <time>2020-08-08T11:38:21.000Z</time>
      </trkpt>
      <trkpt lat="46.11432" lon="6.59124">
        <ele>735.39</ele>
        <time>2020-08-08T11:38:31.000Z</time>
      </trkpt>
      <trkpt lat="46.11435" lon="6.59003">
        <ele>728.11</ele>
        <time>2020-08-08T11:38:41.000Z</time>
      </trkpt>
      <trkpt lat="46.11398" lon="6.589">
        <ele>725.8</ele>
        <time>2020-08-08T11:38:51.000Z</time>
      </trkpt>
      <trkpt lat="46.11359" lon="6.58811">
        <ele>728.31</ele>
        <time>2020-08-08T11:39:01.000Z</time>
      </trkpt>
      <trkpt lat="46.11325" lon="6.58714">
        <ele>727.78</ele>
        <time>2020-08-08T11:39:11.000Z</time>
      </trkpt>
      <trkpt lat="46.11322" lon="6.58599">
        <ele>725.22</ele>
        <time>2020-08-08T11:39:21.000Z</time>
      </trkpt>
      <trkpt lat="46.113" lon="6.58464">
        <ele>716.14</ele>
        <time>2020-08-08T11:39:31.000Z</time>
      </trkpt>
      <trkpt lat="46.11285" lon="6.58319">
        <ele>709.26</ele>
        <time>2020-08-08T11:39:41.000Z</time>
      </trkpt>
      <trkpt lat="46.11243" lon="6.58205">
        <ele>703.17</ele>
        <time>2020-08-08T11:39:51.000Z</time>
      </trkpt>
      <trkpt lat="46.11219" lon="6.58236">
        <ele>699.94</ele>
        <time>2020-08-08T11:40:01.000Z</time>
      </trkpt>
      <trkpt lat="46.11221" lon="6.58367">
        <ele>692.5</ele>
        <time>2020-08-08T11:40:11.000Z</time>
      </trkpt>
      <trkpt lat="46.11185" lon="6.5851">
        <ele>683.05</ele>
        <time>2020-08-08T11:40:21.000Z</time>
      </trkpt>
      <trkpt lat="46.11145" lon="6.5865">
        <ele>673.74</ele>
        <time>2020-08-08T11:40:31.000Z</time>
      </trkpt>
      <trkpt lat="46.11114" lon="6.58758">
        <ele>665.43</ele>
        <time>2020-08-08T11:40:41.000Z</time>
      </trkpt>
      <trkpt lat="46.11107" lon="6.58664">
        <ele>662.04</ele>
        <time>2020-08-08T11:40:51.000Z</time>
      </trkpt>
      <trkpt lat="46.11095" lon="6.58542">
        <ele>654.87</ele>
        <time>2020-08-08T11:41:01.000Z</time>
      </trkpt>
      <trkpt lat="46.11084" lon="6.58416">
        <ele>648.69</ele>
        <time>2020-08-08T11:41:11.000Z</time>
      </trkpt>
      <trkpt lat="46.11099" lon="6.58289">
        <ele>643.45</ele>
        <time>2020-08-08T11:41:21.000Z</time>
      </trkpt>
      <trkpt lat="46.11036" lon="6.58299">
        <ele>641.95</ele>
        <time>2020-08-08T11:41:31.000Z</time>
      </trkpt>
      <trkpt lat="46.11026" lon="6.58444">
        <ele>639.08</ele>
        <time>2020-08-08T11:41:41.000Z</time>
      </trkpt>
      <trkpt lat="46.10991" lon="6.58594">
        <ele>631.29</ele>
        <time>2020-08-08T11:41:51.000Z</time>
      </trkpt>
      <trkpt lat="46.10986" lon="6.58762">
        <ele>623.15</ele>
        <time>2020-08-08T11:42:01.000Z</time>
      </trkpt>
      <trkpt lat="46.10977" lon="6.58879">
        <ele>616.78</ele>
        <time>2020-08-08T11:42:11.000Z</time>
      </trkpt>
      <trkpt lat="46.1094" lon="6.58885">
        <ele>610.92</ele>
        <time>2020-08-08T11:42:21.000Z</time>
      </trkpt>
      <trkpt lat="46.10954" lon="6.58758">
        <ele>603.19</ele>
        <time>2020-08-08T11:42:31.000Z</time>
      </trkpt>
      <trkpt lat="46.10928" lon="6.58773">
        <ele>595.8</ele>
        <time>2020-08-08T11:42:41.000Z</time>
      </trkpt>
      <trkpt lat="46.10903" lon="6.58728">
        <ele>593.36</ele>
        <time>2020-08-08T11:42:51.000Z</time>
      </trkpt>
      <trkpt lat="46.10855" lon="6.58661">
        <ele>591.39</ele>
        <time>2020-08-08T11:43:01.000Z</time>
      </trkpt>
      <trkpt lat="46.10824" lon="6.58634">
        <ele>592.15</ele>
        <time>2020-08-08T11:43:11.000Z</time>
      </trkpt>
      <trkpt lat="46.10829" lon="6.58548">
        <ele>591.56</ele>
        <time>2020-08-08T11:43:21.000Z</time>
      </trkpt>
      <trkpt lat="46.10834" lon="6.58444">
        <ele>590.39</ele>
        <time>2020-08-08T11:43:31.000Z</time>
      </trkpt>
      <trkpt lat="46.10841" lon="6.58328">
        <ele>586.75</ele>
        <time>2020-08-08T11:43:41.000Z</time>
      </trkpt>
      <trkpt lat="46.10854" lon="6.58216">
        <ele>583.67</ele>
        <time>2020-08-08T11:43:51.000Z</time>
      </trkpt>
      <trkpt lat="46.10848" lon="6.58106">
        <ele>583.13</ele>
        <time>2020-08-08T11:44:01.000Z</time>
      </trkpt>
      <trkpt lat="46.10847" lon="6.57988">
        <ele>580.44</ele>
        <time>2020-08-08T11:44:11.000Z</time>
      </trkpt>
      <trkpt lat="46.10846" lon="6.57871">
        <ele>577.68</ele>
        <time>2020-08-08T11:44:21.000Z</time>
      </trkpt>
      <trkpt lat="46.10845" lon="6.57757">
        <ele>574.9</ele>
        <time>2020-08-08T11:44:31.000Z</time>
      </trkpt>
      <trkpt lat="46.10843" lon="6.57645">
        <ele>573.96</ele>
        <time>2020-08-08T11:44:41.000Z</time>
      </trkpt>
      <trkpt lat="46.10842" lon="6.57533">
        <ele>575.16</ele>
        <time>2020-08-08T11:44:51.000Z</time>
      </trkpt>
      <trkpt lat="46.10841" lon="6.57415">
        <ele>573.63</ele>
        <time>2020-08-08T11:45:01.000Z</time>
      </trkpt>
      <trkpt lat="46.10841" lon="6.57301">
        <ele>571.08</ele>
        <time>2020-08-08T11:45:11.000Z</time>
      </trkpt>
      <trkpt lat="46.1084" lon="6.57188">
        <ele>568.55</ele>
        <time>2020-08-08T11:45:21.000Z</time>
      </trkpt>
      <trkpt lat="46.10839" lon="6.57077">
        <ele>567.46</ele>
        <time>2020-08-08T11:45:31.000Z</time>
      </trkpt>
      <trkpt lat="46.10846" lon="6.56967">
        <ele>566</ele>
        <time>2020-08-08T11:45:41.000Z</time>
      </trkpt>
      <trkpt lat="46.10862" lon="6.56852">
        <ele>563.54</ele>
        <time>2020-08-08T11:45:51.000Z</time>
      </trkpt>
      <trkpt lat="46.10878" lon="6.56734">
        <ele>562.44</ele>
        <time>2020-08-08T11:46:01.000Z</time>
      </trkpt>
      <trkpt lat="46.10894" lon="6.56618">
        <ele>561.34</ele>
        <time>2020-08-08T11:46:11.000Z</time>
      </trkpt>
      <trkpt lat="46.10923" lon="6.56509">
        <ele>559.87</ele>
        <time>2020-08-08T11:46:21.000Z</time>
      </trkpt>
      <trkpt lat="46.10958" lon="6.56408">
        <ele>557.19</ele>
        <time>2020-08-08T11:46:31.000Z</time>
      </trkpt>
      <trkpt lat="46.10989" lon="6.56317">
        <ele>558.21</ele>
        <time>2020-08-08T11:46:41.000Z</time>
      </trkpt>
      <trkpt lat="46.11023" lon="6.56224">
        <ele>559.59</ele>
        <time>2020-08-08T11:46:51.000Z</time>
      </trkpt>
      <trkpt lat="46.11054" lon="6.56132">
        <ele>560.37</ele>
        <time>2020-08-08T11:47:01.000Z</time>
      </trkpt>
      <trkpt lat="46.11082" lon="6.56049">
        <ele>561.5</ele>
        <time>2020-08-08T11:47:11.000Z</time>
      </trkpt>
      <trkpt lat="46.11098" lon="6.5596">
        <ele>562.87</ele>
        <time>2020-08-08T11:47:21.000Z</time>
      </trkpt>
      <trkpt lat="46.11102" lon="6.55878">
        <ele>562.89</ele>
        <time>2020-08-08T11:47:31.000Z</time>
      </trkpt>
      <trkpt lat="46.11104" lon="6.55789">
        <ele>562.28</ele>
        <time>2020-08-08T11:47:41.000Z</time>
      </trkpt>
      <trkpt lat="46.11109" lon="6.557">
        <ele>560.88</ele>
        <time>2020-08-08T11:47:51.000Z</time>
      </trkpt>
      <trkpt lat="46.11128" lon="6.55626">
        <ele>559.68</ele>
        <time>2020-08-08T11:48:01.000Z</time>
      </trkpt>
      <trkpt lat="46.11154" lon="6.55569">
        <ele>557.33</ele>
        <time>2020-08-08T11:48:11.000Z</time>
      </trkpt>
      <trkpt lat="46.11182" lon="6.55519">
        <ele>556.8</ele>
        <time>2020-08-08T11:48:21.000Z</time>
      </trkpt>
      <trkpt lat="46.11213" lon="6.55484">
        <ele>558.54</ele>
        <time>2020-08-08T11:48:30.327Z</time>
      </trkpt>
      <trkpt lat="46.11247" lon="6.55455">
        <ele>559.93</ele>
        <time>2020-08-08T11:48:40.000Z</time>
      </trkpt>
      <trkpt lat="46.11285" lon="6.55425">
        <ele>563.63</ele>
        <time>2020-08-08T11:48:49.591Z</time>
      </trkpt>
      <trkpt lat="46.11318" lon="6.55398">
        <ele>564.99</ele>
        <time>2020-08-08T11:48:59.000Z</time>
      </trkpt>
      <trkpt lat="46.11355" lon="6.55369">
        <ele>565.08</ele>
        <time>2020-08-08T11:49:08.256Z</time>
      </trkpt>
      <trkpt lat="46.11399" lon="6.55341">
        <ele>564.33</ele>
        <time>2020-08-08T11:49:18.000Z</time>
      </trkpt>
      <trkpt lat="46.11452" lon="6.55332">
        <ele>563.28</ele>
        <time>2020-08-08T11:49:28.000Z</time>
      </trkpt>
      <trkpt lat="46.11509" lon="6.55332">
        <ele>565.44</ele>
        <time>2020-08-08T11:49:38.000Z</time>
      </trkpt>
      <trkpt lat="46.11571" lon="6.55329">
        <ele>566.95</ele>
        <time>2020-08-08T11:49:48.000Z</time>
      </trkpt>
      <trkpt lat="46.11634" lon="6.55328">
        <ele>568.74</ele>
        <time>2020-08-08T11:49:58.000Z</time>
      </trkpt>
      <trkpt lat="46.11691" lon="6.55325">
        <ele>572.46</ele>
        <time>2020-08-08T11:50:08.000Z</time>
      </trkpt>
      <trkpt lat="46.11742" lon="6.55315">
        <ele>574.42</ele>
        <time>2020-08-08T11:50:18.000Z</time>
      </trkpt>
      <trkpt lat="46.11787" lon="6.55277">
        <ele>575.86</ele>
        <time>2020-08-08T11:50:28.000Z</time>
      </trkpt>
      <trkpt lat="46.11814" lon="6.55213">
        <ele>577.45</ele>
        <time>2020-08-08T11:50:38.000Z</time>
      </trkpt>
      <trkpt lat="46.11836" lon="6.55144">
        <ele>580.42</ele>
        <time>2020-08-08T11:50:48.000Z</time>
      </trkpt>
      <trkpt lat="46.11863" lon="6.55083">
        <ele>578.84</ele>
        <time>2020-08-08T11:50:58.000Z</time>
      </trkpt>
      <trkpt lat="46.11894" lon="6.55023">
        <ele>582.11</ele>
        <time>2020-08-08T11:51:08.000Z</time>
      </trkpt>
      <trkpt lat="46.11927" lon="6.54965">
        <ele>586.9</ele>
        <time>2020-08-08T11:51:18.000Z</time>
      </trkpt>
      <trkpt lat="46.11959" lon="6.54905">
        <ele>589.27</ele>
        <time>2020-08-08T11:51:28.000Z</time>
      </trkpt>
      <trkpt lat="46.1199" lon="6.54849">
        <ele>591.9</ele>
        <time>2020-08-08T11:51:38.000Z</time>
      </trkpt>
      <trkpt lat="46.1202" lon="6.54792">
        <ele>593.48</ele>
        <time>2020-08-08T11:51:48.000Z</time>
      </trkpt>
      <trkpt lat="46.12038" lon="6.54729">
        <ele>592.65</ele>
        <time>2020-08-08T11:51:58.000Z</time>
      </trkpt>
      <trkpt lat="46.12053" lon="6.54663">
        <ele>591.22</ele>
        <time>2020-08-08T11:52:08.000Z</time>
      </trkpt>
      <trkpt lat="46.12076" lon="6.54598">
        <ele>594.41</ele>
        <time>2020-08-08T11:52:18.000Z</time>
      </trkpt>
      <trkpt lat="46.12104" lon="6.54539">
        <ele>596.3</ele>
        <time>2020-08-08T11:52:28.000Z</time>
      </trkpt>
      <trkpt lat="46.12133" lon="6.54479">
        <ele>593.84</ele>
        <time>2020-08-08T11:52:38.000Z</time>
      </trkpt>
      <trkpt lat="46.12162" lon="6.5442">
        <ele>593.92</ele>
        <time>2020-08-08T11:52:48.000Z</time>
      </trkpt>
      <trkpt lat="46.12191" lon="6.5436">
        <ele>595.09</ele>
        <time>2020-08-08T11:52:58.000Z</time>
      </trkpt>
      <trkpt lat="46.12221" lon="6.54302">
        <ele>595</ele>
        <time>2020-08-08T11:53:08.000Z</time>
      </trkpt>
      <trkpt lat="46.12251" lon="6.54243">
        <ele>594.25</ele>
        <time>2020-08-08T11:53:18.000Z</time>
      </trkpt>
      <trkpt lat="46.12282" lon="6.54181">
        <ele>594.22</ele>
        <time>2020-08-08T11:53:28.000Z</time>
      </trkpt>
      <trkpt lat="46.12315" lon="6.54121">
        <ele>593.91</ele>
        <time>2020-08-08T11:53:38.000Z</time>
      </trkpt>
      <trkpt lat="46.12356" lon="6.54071">
        <ele>591.64</ele>
        <time>2020-08-08T11:53:48.000Z</time>
      </trkpt>
      <trkpt lat="46.12402" lon="6.54025">
        <ele>590.06</ele>
        <time>2020-08-08T11:53:58.000Z</time>
      </trkpt>
      <trkpt lat="46.12453" lon="6.53977">
        <ele>591.43</ele>
        <time>2020-08-08T11:54:08.000Z</time>
      </trkpt>
      <trkpt lat="46.12511" lon="6.53926">
        <ele>593.87</ele>
        <time>2020-08-08T11:54:18.000Z</time>
      </trkpt>
      <trkpt lat="46.1257" lon="6.5387">
        <ele>592.53</ele>
        <time>2020-08-08T11:54:28.000Z</time>
      </trkpt>
      <trkpt lat="46.12634" lon="6.53832">
        <ele>593.59</ele>
        <time>2020-08-08T11:54:38.000Z</time>
      </trkpt>
      <trkpt lat="46.12703" lon="6.53795">
        <ele>591.34</ele>
        <time>2020-08-08T11:54:48.000Z</time>
      </trkpt>
      <trkpt lat="46.1276" lon="6.53731">
        <ele>589.78</ele>
        <time>2020-08-08T11:54:58.000Z</time>
      </trkpt>
      <trkpt lat="46.12801" lon="6.53639">
        <ele>587.04</ele>
        <time>2020-08-08T11:55:08.000Z</time>
      </trkpt>
      <trkpt lat="46.1284" lon="6.53553">
        <ele>587.05</ele>
        <time>2020-08-08T11:55:18.000Z</time>
      </trkpt>
      <trkpt lat="46.12885" lon="6.53474">
        <ele>585.74</ele>
        <time>2020-08-08T11:55:28.000Z</time>
      </trkpt>
      <trkpt lat="46.12928" lon="6.53393">
        <ele>587.64</ele>
        <time>2020-08-08T11:55:38.000Z</time>
      </trkpt>
      <trkpt lat="46.1295" lon="6.53295">
        <ele>588.25</ele>
        <time>2020-08-08T11:55:48.000Z</time>
      </trkpt>
      <trkpt lat="46.12988" lon="6.5321">
        <ele>588.34</ele>
        <time>2020-08-08T11:55:58.000Z</time>
      </trkpt>
      <trkpt lat="46.13031" lon="6.53127">
        <ele>587.3</ele>
        <time>2020-08-08T11:56:08.000Z</time>
      </trkpt>
      <trkpt lat="46.13078" lon="6.53043">
        <ele>587.51</ele>
        <time>2020-08-08T11:56:18.000Z</time>
      </trkpt>
      <trkpt lat="46.1314" lon="6.52958">
        <ele>583.84</ele>
        <time>2020-08-08T11:56:28.000Z</time>
      </trkpt>
      <trkpt lat="46.13196" lon="6.52882">
        <ele>581.94</ele>
        <time>2020-08-08T11:56:38.000Z</time>
      </trkpt>
      <trkpt lat="46.13246" lon="6.52803">
        <ele>578.96</ele>
        <time>2020-08-08T11:56:48.000Z</time>
      </trkpt>
      <trkpt lat="46.1327" lon="6.52722">
        <ele>580.61</ele>
        <time>2020-08-08T11:56:58.000Z</time>
      </trkpt>
      <trkpt lat="46.13286" lon="6.52666">
        <ele>629.12</ele>
        <time>2020-08-08T11:57:08.000Z</time>
      </trkpt>
      <trkpt lat="46.13313" lon="6.52584">
        <ele>629.31</ele>
        <time>2020-08-08T11:57:18.000Z</time>
      </trkpt>
      <trkpt lat="46.13335" lon="6.52498">
        <ele>629.31</ele>
        <time>2020-08-08T11:57:28.000Z</time>
      </trkpt>
      <trkpt lat="46.13356" lon="6.52412">
        <ele>629.31</ele>
        <time>2020-08-08T11:57:38.000Z</time>
      </trkpt>
      <trkpt lat="46.13372" lon="6.52323">
        <ele>629.31</ele>
        <time>2020-08-08T11:57:48.000Z</time>
      </trkpt>
      <trkpt lat="46.13382" lon="6.52234">
        <ele>629.32</ele>
        <time>2020-08-08T11:57:58.000Z</time>
      </trkpt>
      <trkpt lat="46.134" lon="6.52127">
        <ele>586.47</ele>
        <time>2020-08-08T11:58:08.000Z</time>
      </trkpt>
      <trkpt lat="46.1343" lon="6.52008">
        <ele>581.87</ele>
        <time>2020-08-08T11:58:18.000Z</time>
      </trkpt>
      <trkpt lat="46.13389" lon="6.51915">
        <ele>579.87</ele>
        <time>2020-08-08T11:58:28.000Z</time>
      </trkpt>
      <trkpt lat="46.13306" lon="6.5188">
        <ele>580.41</ele>
        <time>2020-08-08T11:58:38.000Z</time>
      </trkpt>
      <trkpt lat="46.13227" lon="6.5184">
        <ele>579.69</ele>
        <time>2020-08-08T11:58:48.000Z</time>
      </trkpt>
      <trkpt lat="46.1315" lon="6.51823">
        <ele>580.14</ele>
        <time>2020-08-08T11:58:58.000Z</time>
      </trkpt>
      <trkpt lat="46.13082" lon="6.51785">
        <ele>579.6</ele>
        <time>2020-08-08T11:59:08.000Z</time>
      </trkpt>
      <trkpt lat="46.1304" lon="6.517">
        <ele>580.08</ele>
        <time>2020-08-08T11:59:18.000Z</time>
      </trkpt>
      <trkpt lat="46.13014" lon="6.51598">
        <ele>578.64</ele>
        <time>2020-08-08T11:59:28.000Z</time>
      </trkpt>
      <trkpt lat="46.13007" lon="6.51492">
        <ele>577.04</ele>
        <time>2020-08-08T11:59:38.000Z</time>
      </trkpt>
      <trkpt lat="46.13004" lon="6.51395">
        <ele>576.59</ele>
        <time>2020-08-08T11:59:48.000Z</time>
      </trkpt>
      <trkpt lat="46.12997" lon="6.51298">
        <ele>574.79</ele>
        <time>2020-08-08T11:59:58.000Z</time>
      </trkpt>
      <trkpt lat="46.12985" lon="6.51198">
        <ele>575.42</ele>
        <time>2020-08-08T12:00:08.000Z</time>
      </trkpt>
      <trkpt lat="46.12975" lon="6.51101">
        <ele>578.34</ele>
        <time>2020-08-08T12:00:18.000Z</time>
      </trkpt>
      <trkpt lat="46.12992" lon="6.51003">
        <ele>577.38</ele>
        <time>2020-08-08T12:00:28.000Z</time>
      </trkpt>
      <trkpt lat="46.1299" lon="6.50899">
        <ele>576.31</ele>
        <time>2020-08-08T12:00:38.000Z</time>
      </trkpt>
      <trkpt lat="46.12984" lon="6.50789">
        <ele>577.26</ele>
        <time>2020-08-08T12:00:48.000Z</time>
      </trkpt>
      <trkpt lat="46.12947" lon="6.50688">
        <ele>575.85</ele>
        <time>2020-08-08T12:00:58.000Z</time>
      </trkpt>
      <trkpt lat="46.12896" lon="6.50602">
        <ele>575.37</ele>
        <time>2020-08-08T12:01:08.000Z</time>
      </trkpt>
      <trkpt lat="46.12848" lon="6.50517">
        <ele>574.92</ele>
        <time>2020-08-08T12:01:18.000Z</time>
      </trkpt>
      <trkpt lat="46.12795" lon="6.50447">
        <ele>572.42</ele>
        <time>2020-08-08T12:01:28.000Z</time>
      </trkpt>
      <trkpt lat="46.12765" lon="6.50344">
        <ele>570.5</ele>
        <time>2020-08-08T12:01:38.000Z</time>
      </trkpt>
      <trkpt lat="46.12731" lon="6.50235">
        <ele>564.96</ele>
        <time>2020-08-08T12:01:48.000Z</time>
      </trkpt>
      <trkpt lat="46.12701" lon="6.50111">
        <ele>558.68</ele>
        <time>2020-08-08T12:01:58.000Z</time>
      </trkpt>
      <trkpt lat="46.12636" lon="6.50016">
        <ele>555.62</ele>
        <time>2020-08-08T12:02:08.000Z</time>
      </trkpt>
      <trkpt lat="46.12605" lon="6.49909">
        <ele>553.73</ele>
        <time>2020-08-08T12:02:18.000Z</time>
      </trkpt>
      <trkpt lat="46.12605" lon="6.49776">
        <ele>550.39</ele>
        <time>2020-08-08T12:02:28.000Z</time>
      </trkpt>
      <trkpt lat="46.12629" lon="6.49636">
        <ele>548.15</ele>
        <time>2020-08-08T12:02:38.000Z</time>
      </trkpt>
      <trkpt lat="46.1268" lon="6.4951">
        <ele>544.3</ele>
        <time>2020-08-08T12:02:48.000Z</time>
      </trkpt>
      <trkpt lat="46.12736" lon="6.49411">
        <ele>540.56</ele>
        <time>2020-08-08T12:02:58.000Z</time>
      </trkpt>
      <trkpt lat="46.12799" lon="6.49314">
        <ele>535.02</ele>
        <time>2020-08-08T12:03:08.000Z</time>
      </trkpt>
      <trkpt lat="46.12851" lon="6.49207">
        <ele>529.09</ele>
        <time>2020-08-08T12:03:18.000Z</time>
      </trkpt>
      <trkpt lat="46.12901" lon="6.49099">
        <ele>524.7</ele>
        <time>2020-08-08T12:03:28.000Z</time>
      </trkpt>
      <trkpt lat="46.12959" lon="6.48994">
        <ele>518.95</ele>
        <time>2020-08-08T12:03:38.000Z</time>
      </trkpt>
      <trkpt lat="46.12996" lon="6.48869">
        <ele>512.79</ele>
        <time>2020-08-08T12:03:48.000Z</time>
      </trkpt>
      <trkpt lat="46.1303" lon="6.4874">
        <ele>508.35</ele>
        <time>2020-08-08T12:03:58.000Z</time>
      </trkpt>
      <trkpt lat="46.13056" lon="6.48624">
        <ele>507.24</ele>
        <time>2020-08-08T12:04:08.000Z</time>
      </trkpt>
      <trkpt lat="46.1311" lon="6.48518">
        <ele>504.52</ele>
        <time>2020-08-08T12:04:18.000Z</time>
      </trkpt>
      <trkpt lat="46.13186" lon="6.48436">
        <ele>501.6</ele>
        <time>2020-08-08T12:04:28.000Z</time>
      </trkpt>
      <trkpt lat="46.13246" lon="6.48323">
        <ele>498.52</ele>
        <time>2020-08-08T12:04:38.000Z</time>
      </trkpt>
      <trkpt lat="46.13295" lon="6.48211">
        <ele>497.45</ele>
        <time>2020-08-08T12:04:48.000Z</time>
      </trkpt>
      <trkpt lat="46.1337" lon="6.48157">
        <ele>493</ele>
        <time>2020-08-08T12:04:58.000Z</time>
      </trkpt>
      <trkpt lat="46.13434" lon="6.48107">
        <ele>490.3</ele>
        <time>2020-08-08T12:05:08.000Z</time>
      </trkpt>
      <trkpt lat="46.13486" lon="6.48032">
        <ele>487.52</ele>
        <time>2020-08-08T12:05:18.000Z</time>
      </trkpt>
      <trkpt lat="46.13541" lon="6.47943">
        <ele>484.85</ele>
        <time>2020-08-08T12:05:28.000Z</time>
      </trkpt>
      <trkpt lat="46.13602" lon="6.47861">
        <ele>485.02</ele>
        <time>2020-08-08T12:05:38.000Z</time>
      </trkpt>
      <trkpt lat="46.1363" lon="6.47768">
        <ele>484.28</ele>
        <time>2020-08-08T12:05:48.000Z</time>
      </trkpt>
      <trkpt lat="46.13658" lon="6.47679">
        <ele>483.96</ele>
        <time>2020-08-08T12:05:58.000Z</time>
      </trkpt>
      <trkpt lat="46.13656" lon="6.47585">
        <ele>483.41</ele>
        <time>2020-08-08T12:06:08.000Z</time>
      </trkpt>
      <trkpt lat="46.13636" lon="6.47494">
        <ele>488.75</ele>
        <time>2020-08-08T12:06:18.000Z</time>
      </trkpt>
      <trkpt lat="46.13609" lon="6.47414">
        <ele>493.56</ele>
        <time>2020-08-08T12:06:28.000Z</time>
      </trkpt>
      <trkpt lat="46.13581" lon="6.4735">
        <ele>495.74</ele>
        <time>2020-08-08T12:06:38.000Z</time>
      </trkpt>
      <trkpt lat="46.13556" lon="6.47289">
        <ele>496.06</ele>
        <time>2020-08-08T12:06:48.000Z</time>
      </trkpt>
      <trkpt lat="46.13531" lon="6.47232">
        <ele>496.24</ele>
        <time>2020-08-08T12:06:58.000Z</time>
      </trkpt>
      <trkpt lat="46.13512" lon="6.4718">
        <ele>546.49</ele>
        <time>2020-08-08T12:07:07.695Z</time>
      </trkpt>
      <trkpt lat="46.13493" lon="6.47127">
        <ele>547.26</ele>
        <time>2020-08-08T12:07:17.075Z</time>
      </trkpt>
      <trkpt lat="46.13479" lon="6.47072">
        <ele>547.26</ele>
        <time>2020-08-08T12:07:26.714Z</time>
      </trkpt>
      <trkpt lat="46.13468" lon="6.47018">
        <ele>547.26</ele>
        <time>2020-08-08T12:07:36.000Z</time>
      </trkpt>
      <trkpt lat="46.13462" lon="6.46961">
        <ele>547.26</ele>
        <time>2020-08-08T12:07:45.392Z</time>
      </trkpt>
      <trkpt lat="46.13473" lon="6.46908">
        <ele>547.26</ele>
        <time>2020-08-08T12:07:55.000Z</time>
      </trkpt>
      <trkpt lat="46.13512" lon="6.46889">
        <ele>547.26</ele>
        <time>2020-08-08T12:08:05.000Z</time>
      </trkpt>
      <trkpt lat="46.13551" lon="6.46865">
        <ele>503.13</ele>
        <time>2020-08-08T12:08:14.327Z</time>
      </trkpt>
      <trkpt lat="46.13577" lon="6.46833">
        <ele>506.66</ele>
        <time>2020-08-08T12:08:24.000Z</time>
      </trkpt>
      <trkpt lat="46.13597" lon="6.46785">
        <ele>510.34</ele>
        <time>2020-08-08T12:08:33.503Z</time>
      </trkpt>
      <trkpt lat="46.13614" lon="6.46737">
        <ele>511.27</ele>
        <time>2020-08-08T12:08:43.000Z</time>
      </trkpt>
      <trkpt lat="46.13631" lon="6.4669">
        <ele>514.13</ele>
        <time>2020-08-08T12:08:52.429Z</time>
      </trkpt>
      <trkpt lat="46.13648" lon="6.46649">
        <ele>515.27</ele>
        <time>2020-08-08T12:09:01.432Z</time>
      </trkpt>
      <trkpt lat="46.13661" lon="6.46604">
        <ele>513.41</ele>
        <time>2020-08-08T12:09:11.000Z</time>
      </trkpt>
      <trkpt lat="46.13675" lon="6.46561">
        <ele>513.75</ele>
        <time>2020-08-08T12:09:20.362Z</time>
      </trkpt>
      <trkpt lat="46.13689" lon="6.46521">
        <ele>514.59</ele>
        <time>2020-08-08T12:09:29.370Z</time>
      </trkpt>
      <trkpt lat="46.13701" lon="6.46475">
        <ele>521.62</ele>
        <time>2020-08-08T12:09:38.691Z</time>
      </trkpt>
      <trkpt lat="46.13712" lon="6.46419">
        <ele>524.84</ele>
        <time>2020-08-08T12:09:48.410Z</time>
      </trkpt>
      <trkpt lat="46.13719" lon="6.46366">
        <ele>525.44</ele>
        <time>2020-08-08T12:09:57.446Z</time>
      </trkpt>
      <trkpt lat="46.13728" lon="6.46313">
        <ele>526.57</ele>
        <time>2020-08-08T12:10:06.672Z</time>
      </trkpt>
      <trkpt lat="46.13739" lon="6.46257">
        <ele>526.34</ele>
        <time>2020-08-08T12:10:16.000Z</time>
      </trkpt>
      <trkpt lat="46.1375" lon="6.46191">
        <ele>526.27</ele>
        <time>2020-08-08T12:10:26.000Z</time>
      </trkpt>
      <trkpt lat="46.1376" lon="6.46134">
        <ele>526.77</ele>
        <time>2020-08-08T12:10:35.064Z</time>
      </trkpt>
      <trkpt lat="46.1377" lon="6.46077">
        <ele>529.66</ele>
        <time>2020-08-08T12:10:45.000Z</time>
      </trkpt>
      <trkpt lat="46.13781" lon="6.46024">
        <ele>535.02</ele>
        <time>2020-08-08T12:10:54.432Z</time>
      </trkpt>
      <trkpt lat="46.13799" lon="6.4598">
        <ele>537.99</ele>
        <time>2020-08-08T12:11:04.000Z</time>
      </trkpt>
      <trkpt lat="46.13809" lon="6.45933">
        <ele>539.18</ele>
        <time>2020-08-08T12:11:13.346Z</time>
      </trkpt>
      <trkpt lat="46.13814" lon="6.45883">
        <ele>541.46</ele>
        <time>2020-08-08T12:11:22.691Z</time>
      </trkpt>
      <trkpt lat="46.13823" lon="6.45828">
        <ele>540.99</ele>
        <time>2020-08-08T12:11:31.706Z</time>
      </trkpt>
      <trkpt lat="46.13841" lon="6.45766">
        <ele>539.57</ele>
        <time>2020-08-08T12:11:41.000Z</time>
      </trkpt>
      <trkpt lat="46.13851" lon="6.45702">
        <ele>540.14</ele>
        <time>2020-08-08T12:11:51.000Z</time>
      </trkpt>
      <trkpt lat="46.13854" lon="6.4565">
        <ele>540.6</ele>
        <time>2020-08-08T12:12:00.272Z</time>
      </trkpt>
      <trkpt lat="46.13852" lon="6.45578">
        <ele>539.76</ele>
        <time>2020-08-08T12:12:10.000Z</time>
      </trkpt>
      <trkpt lat="46.13835" lon="6.45488">
        <ele>536.19</ele>
        <time>2020-08-08T12:12:20.000Z</time>
      </trkpt>
      <trkpt lat="46.13809" lon="6.454">
        <ele>531.72</ele>
        <time>2020-08-08T12:12:30.000Z</time>
      </trkpt>
      <trkpt lat="46.13782" lon="6.45325">
        <ele>530.84</ele>
        <time>2020-08-08T12:12:40.000Z</time>
      </trkpt>
      <trkpt lat="46.1376" lon="6.45259">
        <ele>532.2</ele>
        <time>2020-08-08T12:12:50.000Z</time>
      </trkpt>
      <trkpt lat="46.13737" lon="6.45193">
        <ele>531.67</ele>
        <time>2020-08-08T12:13:00.000Z</time>
      </trkpt>
      <trkpt lat="46.13714" lon="6.45128">
        <ele>532.91</ele>
        <time>2020-08-08T12:13:10.000Z</time>
      </trkpt>
      <trkpt lat="46.13692" lon="6.45063">
        <ele>532.89</ele>
        <time>2020-08-08T12:13:20.000Z</time>
      </trkpt>
      <trkpt lat="46.1367" lon="6.45">
        <ele>535.27</ele>
        <time>2020-08-08T12:13:30.000Z</time>
      </trkpt>
      <trkpt lat="46.13652" lon="6.44945">
        <ele>540.26</ele>
        <time>2020-08-08T12:13:40.000Z</time>
      </trkpt>
      <trkpt lat="46.13636" lon="6.44895">
        <ele>589.97</ele>
        <time>2020-08-08T12:13:49.496Z</time>
      </trkpt>
      <trkpt lat="46.13618" lon="6.44841">
        <ele>589.97</ele>
        <time>2020-08-08T12:13:59.117Z</time>
      </trkpt>
      <trkpt lat="46.136" lon="6.44786">
        <ele>589.97</ele>
        <time>2020-08-08T12:14:09.000Z</time>
      </trkpt>
      <trkpt lat="46.13587" lon="6.44729">
        <ele>589.97</ele>
        <time>2020-08-08T12:14:18.289Z</time>
      </trkpt>
      <trkpt lat="46.13576" lon="6.44673">
        <ele>589.97</ele>
        <time>2020-08-08T12:14:28.000Z</time>
      </trkpt>
      <trkpt lat="46.13565" lon="6.44618">
        <ele>589.98</ele>
        <time>2020-08-08T12:14:37.474Z</time>
      </trkpt>
      <trkpt lat="46.13554" lon="6.44564">
        <ele>552.16</ele>
        <time>2020-08-08T12:14:46.716Z</time>
      </trkpt>
      <trkpt lat="46.13543" lon="6.4451">
        <ele>552.08</ele>
        <time>2020-08-08T12:14:56.378Z</time>
      </trkpt>
      <trkpt lat="46.13532" lon="6.44459">
        <ele>553.05</ele>
        <time>2020-08-08T12:15:06.000Z</time>
      </trkpt>
      <trkpt lat="46.1352" lon="6.44397">
        <ele>552.38</ele>
        <time>2020-08-08T12:15:15.698Z</time>
      </trkpt>
      <trkpt lat="46.13511" lon="6.44342">
        <ele>553.53</ele>
        <time>2020-08-08T12:15:25.000Z</time>
      </trkpt>
      <trkpt lat="46.1351" lon="6.44288">
        <ele>556.12</ele>
        <time>2020-08-08T12:15:34.220Z</time>
      </trkpt>
      <trkpt lat="46.1352" lon="6.44232">
        <ele>554.96</ele>
        <time>2020-08-08T12:15:43.383Z</time>
      </trkpt>
      <trkpt lat="46.13529" lon="6.44171">
        <ele>556.07</ele>
        <time>2020-08-08T12:15:53.000Z</time>
      </trkpt>
      <trkpt lat="46.13542" lon="6.44103">
        <ele>557.17</ele>
        <time>2020-08-08T12:16:03.000Z</time>
      </trkpt>
      <trkpt lat="46.13555" lon="6.44035">
        <ele>558.86</ele>
        <time>2020-08-08T12:16:13.000Z</time>
      </trkpt>
      <trkpt lat="46.13568" lon="6.4396">
        <ele>557.29</ele>
        <time>2020-08-08T12:16:23.000Z</time>
      </trkpt>
      <trkpt lat="46.13581" lon="6.43889">
        <ele>557.54</ele>
        <time>2020-08-08T12:16:33.000Z</time>
      </trkpt>
      <trkpt lat="46.13567" lon="6.43829">
        <ele>560.86</ele>
        <time>2020-08-08T12:16:43.000Z</time>
      </trkpt>
      <trkpt lat="46.13561" lon="6.43757">
        <ele>560.25</ele>
        <time>2020-08-08T12:16:53.000Z</time>
      </trkpt>
      <trkpt lat="46.13556" lon="6.43692">
        <ele>562.04</ele>
        <time>2020-08-08T12:17:03.000Z</time>
      </trkpt>
      <trkpt lat="46.13571" lon="6.43645">
        <ele>563.87</ele>
        <time>2020-08-08T12:17:13.000Z</time>
      </trkpt>
      <trkpt lat="46.1359" lon="6.43618">
        <ele>570.52</ele>
        <time>2020-08-08T12:17:23.000Z</time>
      </trkpt>
      <trkpt lat="46.13604" lon="6.43599">
        <ele>578.16</ele>
        <time>2020-08-08T12:17:32.562Z</time>
      </trkpt>
      <trkpt lat="46.13613" lon="6.43582">
        <ele>586.49</ele>
        <time>2020-08-08T12:17:41.757Z</time>
      </trkpt>
      <trkpt lat="46.13615" lon="6.4355">
        <ele>592.69</ele>
        <time>2020-08-08T12:17:51.000Z</time>
      </trkpt>
      <trkpt lat="46.13608" lon="6.43516">
        <ele>594.48</ele>
        <time>2020-08-08T12:18:00.536Z</time>
      </trkpt>
      <trkpt lat="46.13591" lon="6.43489">
        <ele>593.18</ele>
        <time>2020-08-08T12:18:09.582Z</time>
      </trkpt>
      <trkpt lat="46.13573" lon="6.43464">
        <ele>593.5</ele>
        <time>2020-08-08T12:18:19.000Z</time>
      </trkpt>
      <trkpt lat="46.13551" lon="6.43439">
        <ele>589.6</ele>
        <time>2020-08-08T12:18:28.618Z</time>
      </trkpt>
      <trkpt lat="46.13534" lon="6.43411">
        <ele>588.59</ele>
        <time>2020-08-08T12:18:38.002Z</time>
      </trkpt>
      <trkpt lat="46.13512" lon="6.434">
        <ele>589.63</ele>
        <time>2020-08-08T12:18:47.416Z</time>
      </trkpt>
      <trkpt lat="46.13483" lon="6.43394">
        <ele>589.28</ele>
        <time>2020-08-08T12:18:56.701Z</time>
      </trkpt>
      <trkpt lat="46.13449" lon="6.43394">
        <ele>589.86</ele>
        <time>2020-08-08T12:19:06.000Z</time>
      </trkpt>
      <trkpt lat="46.1341" lon="6.43395">
        <ele>589.48</ele>
        <time>2020-08-08T12:19:15.522Z</time>
      </trkpt>
      <trkpt lat="46.13365" lon="6.43376">
        <ele>587.4</ele>
        <time>2020-08-08T12:19:25.000Z</time>
      </trkpt>
      <trkpt lat="46.13333" lon="6.43327">
        <ele>586.12</ele>
        <time>2020-08-08T12:19:35.000Z</time>
      </trkpt>
      <trkpt lat="46.13319" lon="6.43262">
        <ele>585.59</ele>
        <time>2020-08-08T12:19:45.000Z</time>
      </trkpt>
      <trkpt lat="46.13315" lon="6.43195">
        <ele>587.55</ele>
        <time>2020-08-08T12:19:55.000Z</time>
      </trkpt>
      <trkpt lat="46.1332" lon="6.4313">
        <ele>586.88</ele>
        <time>2020-08-08T12:20:05.000Z</time>
      </trkpt>
      <trkpt lat="46.13336" lon="6.43053">
        <ele>584.99</ele>
        <time>2020-08-08T12:20:15.000Z</time>
      </trkpt>
      <trkpt lat="46.13312" lon="6.43017">
        <ele>581.9</ele>
        <time>2020-08-08T12:20:25.000Z</time>
      </trkpt>
      <trkpt lat="46.13309" lon="6.43018">
        <ele>629.88</ele>
        <time>2020-08-08T12:20:35.000Z</time>
      </trkpt>
      <trkpt lat="46.13306" lon="6.43015">
        <ele>622.98</ele>
        <time>2020-08-08T12:20:45.000Z</time>
      </trkpt>
      <trkpt lat="46.13302" lon="6.43011">
        <ele>622.98</ele>
        <time>2020-08-08T12:20:55.000Z</time>
      </trkpt>
      <trkpt lat="46.13303" lon="6.43008">
        <ele>632.27</ele>
        <time>2020-08-08T12:21:04.623Z</time>
      </trkpt>
      <trkpt lat="46.13304" lon="6.43009">
        <ele>629.18</ele>
        <time>2020-08-08T12:21:17.000Z</time>
      </trkpt>
      <trkpt lat="46.13304" lon="6.43007">
        <ele>623.01</ele>
        <time>2020-08-08T12:22:46.000Z</time>
      </trkpt>
      <trkpt lat="46.13304" lon="6.43008">
        <ele>622.98</ele>
        <time>2020-08-08T12:22:58.000Z</time>
      </trkpt>
      <trkpt lat="46.13304" lon="6.43007">
        <ele>629.18</ele>
        <time>2020-08-08T12:23:25.330Z</time>
      </trkpt>
      <trkpt lat="46.13305" lon="6.43005">
        <ele>624.56</ele>
        <time>2020-08-08T12:23:34.651Z</time>
      </trkpt>
      <trkpt lat="46.13304" lon="6.43007">
        <ele>622.98</ele>
        <time>2020-08-08T12:23:44.000Z</time>
      </trkpt>
      <trkpt lat="46.13307" lon="6.4298">
        <ele>622.98</ele>
        <time>2020-08-08T12:23:54.000Z</time>
      </trkpt>
      <trkpt lat="46.13294" lon="6.42896">
        <ele>622.99</ele>
        <time>2020-08-08T12:24:04.000Z</time>
      </trkpt>
      <trkpt lat="46.13279" lon="6.42811">
        <ele>622.99</ele>
        <time>2020-08-08T12:24:14.000Z</time>
      </trkpt>
      <trkpt lat="46.13271" lon="6.42731">
        <ele>622.99</ele>
        <time>2020-08-08T12:24:24.000Z</time>
      </trkpt>
      <trkpt lat="46.13266" lon="6.42644">
        <ele>622.99</ele>
        <time>2020-08-08T12:24:34.000Z</time>
      </trkpt>
      <trkpt lat="46.13263" lon="6.42557">
        <ele>622.99</ele>
        <time>2020-08-08T12:24:44.000Z</time>
      </trkpt>
      <trkpt lat="46.13258" lon="6.42466">
        <ele>572.36</ele>
        <time>2020-08-08T12:24:54.000Z</time>
      </trkpt>
      <trkpt lat="46.13253" lon="6.42375">
        <ele>570.97</ele>
        <time>2020-08-08T12:25:04.000Z</time>
      </trkpt>
      <trkpt lat="46.13249" lon="6.42286">
        <ele>569.72</ele>
        <time>2020-08-08T12:25:14.000Z</time>
      </trkpt>
      <trkpt lat="46.13243" lon="6.42196">
        <ele>570.98</ele>
        <time>2020-08-08T12:25:24.000Z</time>
      </trkpt>
      <trkpt lat="46.13236" lon="6.42102">
        <ele>569.97</ele>
        <time>2020-08-08T12:25:34.000Z</time>
      </trkpt>
      <trkpt lat="46.13229" lon="6.4201">
        <ele>569.87</ele>
        <time>2020-08-08T12:25:44.000Z</time>
      </trkpt>
      <trkpt lat="46.13224" lon="6.41912">
        <ele>569.22</ele>
        <time>2020-08-08T12:25:54.000Z</time>
      </trkpt>
      <trkpt lat="46.1322" lon="6.41816">
        <ele>570.04</ele>
        <time>2020-08-08T12:26:04.000Z</time>
      </trkpt>
      <trkpt lat="46.13215" lon="6.4172">
        <ele>568.99</ele>
        <time>2020-08-08T12:26:14.000Z</time>
      </trkpt>
      <trkpt lat="46.13209" lon="6.41636">
        <ele>565.22</ele>
        <time>2020-08-08T12:26:24.000Z</time>
      </trkpt>
      <trkpt lat="46.13202" lon="6.41551">
        <ele>562.62</ele>
        <time>2020-08-08T12:26:34.000Z</time>
      </trkpt>
      <trkpt lat="46.13203" lon="6.41461">
        <ele>565.09</ele>
        <time>2020-08-08T12:26:44.000Z</time>
      </trkpt>
      <trkpt lat="46.13214" lon="6.41369">
        <ele>565.44</ele>
        <time>2020-08-08T12:26:54.000Z</time>
      </trkpt>
      <trkpt lat="46.13228" lon="6.41283">
        <ele>563.83</ele>
        <time>2020-08-08T12:27:04.000Z</time>
      </trkpt>
      <trkpt lat="46.13237" lon="6.41191">
        <ele>564.61</ele>
        <time>2020-08-08T12:27:14.000Z</time>
      </trkpt>
      <trkpt lat="46.13245" lon="6.41101">
        <ele>563.55</ele>
        <time>2020-08-08T12:27:24.000Z</time>
      </trkpt>
      <trkpt lat="46.13252" lon="6.41001">
        <ele>561.29</ele>
        <time>2020-08-08T12:27:34.000Z</time>
      </trkpt>
      <trkpt lat="46.13256" lon="6.40879">
        <ele>556.87</ele>
        <time>2020-08-08T12:27:44.000Z</time>
      </trkpt>
      <trkpt lat="46.13255" lon="6.40746">
        <ele>550.13</ele>
        <time>2020-08-08T12:27:54.000Z</time>
      </trkpt>
      <trkpt lat="46.13253" lon="6.40634">
        <ele>548.48</ele>
        <time>2020-08-08T12:28:04.000Z</time>
      </trkpt>
      <trkpt lat="46.13253" lon="6.40556">
        <ele>551.47</ele>
        <time>2020-08-08T12:28:14.000Z</time>
      </trkpt>
      <trkpt lat="46.13253" lon="6.40483">
        <ele>554.73</ele>
        <time>2020-08-08T12:28:24.000Z</time>
      </trkpt>
      <trkpt lat="46.13255" lon="6.40403">
        <ele>554.27</ele>
        <time>2020-08-08T12:28:34.000Z</time>
      </trkpt>
      <trkpt lat="46.13261" lon="6.40324">
        <ele>554.07</ele>
        <time>2020-08-08T12:28:44.000Z</time>
      </trkpt>
      <trkpt lat="46.1327" lon="6.4025">
        <ele>554.69</ele>
        <time>2020-08-08T12:28:54.000Z</time>
      </trkpt>
      <trkpt lat="46.1328" lon="6.40174">
        <ele>555.3</ele>
        <time>2020-08-08T12:29:04.000Z</time>
      </trkpt>
      <trkpt lat="46.13291" lon="6.40094">
        <ele>556.69</ele>
        <time>2020-08-08T12:29:14.000Z</time>
      </trkpt>
      <trkpt lat="46.133" lon="6.4002">
        <ele>557.1</ele>
        <time>2020-08-08T12:29:24.000Z</time>
      </trkpt>
      <trkpt lat="46.13323" lon="6.39943">
        <ele>558.4</ele>
        <time>2020-08-08T12:29:34.000Z</time>
      </trkpt>
      <trkpt lat="46.13352" lon="6.3986">
        <ele>556.32</ele>
        <time>2020-08-08T12:29:44.000Z</time>
      </trkpt>
      <trkpt lat="46.13377" lon="6.39766">
        <ele>554.86</ele>
        <time>2020-08-08T12:29:54.000Z</time>
      </trkpt>
      <trkpt lat="46.13388" lon="6.39673">
        <ele>551.77</ele>
        <time>2020-08-08T12:30:04.000Z</time>
      </trkpt>
      <trkpt lat="46.13411" lon="6.39572">
        <ele>548.22</ele>
        <time>2020-08-08T12:30:14.000Z</time>
      </trkpt>
      <trkpt lat="46.13428" lon="6.39473">
        <ele>549.18</ele>
        <time>2020-08-08T12:30:24.000Z</time>
      </trkpt>
      <trkpt lat="46.13445" lon="6.39379">
        <ele>548.71</ele>
        <time>2020-08-08T12:30:34.000Z</time>
      </trkpt>
      <trkpt lat="46.13467" lon="6.39308">
        <ele>546.33</ele>
        <time>2020-08-08T12:30:44.000Z</time>
      </trkpt>
      <trkpt lat="46.1346" lon="6.39226">
        <ele>545.62</ele>
        <time>2020-08-08T12:30:54.000Z</time>
      </trkpt>
      <trkpt lat="46.13463" lon="6.39129">
        <ele>545.23</ele>
        <time>2020-08-08T12:31:04.000Z</time>
      </trkpt>
      <trkpt lat="46.13466" lon="6.39023">
        <ele>547.32</ele>
        <time>2020-08-08T12:31:14.000Z</time>
      </trkpt>
      <trkpt lat="46.13471" lon="6.38912">
        <ele>546.34</ele>
        <time>2020-08-08T12:31:24.000Z</time>
      </trkpt>
      <trkpt lat="46.13473" lon="6.38812">
        <ele>547.94</ele>
        <time>2020-08-08T12:31:34.000Z</time>
      </trkpt>
      <trkpt lat="46.13485" lon="6.3873">
        <ele>550.07</ele>
        <time>2020-08-08T12:31:44.000Z</time>
      </trkpt>
      <trkpt lat="46.13507" lon="6.38663">
        <ele>549.53</ele>
        <time>2020-08-08T12:31:54.000Z</time>
      </trkpt>
      <trkpt lat="46.13528" lon="6.38598">
        <ele>548.15</ele>
        <time>2020-08-08T12:32:04.000Z</time>
      </trkpt>
      <trkpt lat="46.13549" lon="6.3854">
        <ele>549.3</ele>
        <time>2020-08-08T12:32:14.000Z</time>
      </trkpt>
      <trkpt lat="46.13564" lon="6.38505">
        <ele>549.6</ele>
        <time>2020-08-08T12:32:23.235Z</time>
      </trkpt>
      <trkpt lat="46.13588" lon="6.3847">
        <ele>554.2</ele>
        <time>2020-08-08T12:32:33.000Z</time>
      </trkpt>
      <trkpt lat="46.13611" lon="6.38437">
        <ele>556.4</ele>
        <time>2020-08-08T12:32:42.572Z</time>
      </trkpt>
      <trkpt lat="46.13628" lon="6.38403">
        <ele>558.76</ele>
        <time>2020-08-08T12:32:52.131Z</time>
      </trkpt>
      <trkpt lat="46.13643" lon="6.38363">
        <ele>559.6</ele>
        <time>2020-08-08T12:33:01.414Z</time>
      </trkpt>
      <trkpt lat="46.13661" lon="6.38318">
        <ele>560.09</ele>
        <time>2020-08-08T12:33:11.000Z</time>
      </trkpt>
      <trkpt lat="46.13683" lon="6.38271">
        <ele>562.5</ele>
        <time>2020-08-08T12:33:21.000Z</time>
      </trkpt>
      <trkpt lat="46.13704" lon="6.38224">
        <ele>562.12</ele>
        <time>2020-08-08T12:33:30.350Z</time>
      </trkpt>
      <trkpt lat="46.13728" lon="6.3818">
        <ele>563.08</ele>
        <time>2020-08-08T12:33:40.000Z</time>
      </trkpt>
      <trkpt lat="46.13757" lon="6.3814">
        <ele>565.81</ele>
        <time>2020-08-08T12:33:49.550Z</time>
      </trkpt>
      <trkpt lat="46.13795" lon="6.38091">
        <ele>565.44</ele>
        <time>2020-08-08T12:33:59.000Z</time>
      </trkpt>
      <trkpt lat="46.13824" lon="6.38041">
        <ele>567.34</ele>
        <time>2020-08-08T12:34:09.000Z</time>
      </trkpt>
      <trkpt lat="46.13851" lon="6.37986">
        <ele>614.51</ele>
        <time>2020-08-08T12:34:19.000Z</time>
      </trkpt>
      <trkpt lat="46.13882" lon="6.37923">
        <ele>614.51</ele>
        <time>2020-08-08T12:34:29.000Z</time>
      </trkpt>
      <trkpt lat="46.13895" lon="6.3785">
        <ele>614.51</ele>
        <time>2020-08-08T12:34:39.000Z</time>
      </trkpt>
      <trkpt lat="46.13891" lon="6.37786">
        <ele>614.51</ele>
        <time>2020-08-08T12:34:49.000Z</time>
      </trkpt>
      <trkpt lat="46.13892" lon="6.37737">
        <ele>614.51</ele>
        <time>2020-08-08T12:34:58.228Z</time>
      </trkpt>
      <trkpt lat="46.13904" lon="6.37685">
        <ele>614.51</ele>
        <time>2020-08-08T12:35:07.522Z</time>
      </trkpt>
      <trkpt lat="46.13927" lon="6.37634">
        <ele>572.27</ele>
        <time>2020-08-08T12:35:17.000Z</time>
      </trkpt>
      <trkpt lat="46.1396" lon="6.37585">
        <ele>572.25</ele>
        <time>2020-08-08T12:35:27.000Z</time>
      </trkpt>
      <trkpt lat="46.13986" lon="6.37527">
        <ele>571.81</ele>
        <time>2020-08-08T12:35:37.000Z</time>
      </trkpt>
      <trkpt lat="46.14011" lon="6.37469">
        <ele>573.27</ele>
        <time>2020-08-08T12:35:47.000Z</time>
      </trkpt>
      <trkpt lat="46.14037" lon="6.37416">
        <ele>574.5</ele>
        <time>2020-08-08T12:35:57.000Z</time>
      </trkpt>
      <trkpt lat="46.14058" lon="6.3737">
        <ele>574.98</ele>
        <time>2020-08-08T12:36:06.634Z</time>
      </trkpt>
      <trkpt lat="46.14079" lon="6.37326">
        <ele>577.24</ele>
        <time>2020-08-08T12:36:16.000Z</time>
      </trkpt>
      <trkpt lat="46.14105" lon="6.37282">
        <ele>578.81</ele>
        <time>2020-08-08T12:36:25.613Z</time>
      </trkpt>
      <trkpt lat="46.14135" lon="6.37243">
        <ele>580.39</ele>
        <time>2020-08-08T12:36:35.000Z</time>
      </trkpt>
      <trkpt lat="46.14167" lon="6.37213">
        <ele>584.09</ele>
        <time>2020-08-08T12:36:44.329Z</time>
      </trkpt>
      <trkpt lat="46.14202" lon="6.37174">
        <ele>584.82</ele>
        <time>2020-08-08T12:36:54.000Z</time>
      </trkpt>
      <trkpt lat="46.14243" lon="6.37134">
        <ele>586.31</ele>
        <time>2020-08-08T12:37:04.000Z</time>
      </trkpt>
      <trkpt lat="46.14284" lon="6.37094">
        <ele>588.36</ele>
        <time>2020-08-08T12:37:14.000Z</time>
      </trkpt>
      <trkpt lat="46.14326" lon="6.37052">
        <ele>587.15</ele>
        <time>2020-08-08T12:37:24.000Z</time>
      </trkpt>
      <trkpt lat="46.14369" lon="6.37008">
        <ele>585.06</ele>
        <time>2020-08-08T12:37:34.000Z</time>
      </trkpt>
      <trkpt lat="46.14416" lon="6.36962">
        <ele>585.17</ele>
        <time>2020-08-08T12:37:44.000Z</time>
      </trkpt>
      <trkpt lat="46.14466" lon="6.36913">
        <ele>585.15</ele>
        <time>2020-08-08T12:37:54.000Z</time>
      </trkpt>
      <trkpt lat="46.14512" lon="6.36868">
        <ele>585.09</ele>
        <time>2020-08-08T12:38:04.000Z</time>
      </trkpt>
      <trkpt lat="46.14554" lon="6.36823">
        <ele>586.01</ele>
        <time>2020-08-08T12:38:14.000Z</time>
      </trkpt>
      <trkpt lat="46.14604" lon="6.36773">
        <ele>586.71</ele>
        <time>2020-08-08T12:38:24.000Z</time>
      </trkpt>
      <trkpt lat="46.1465" lon="6.36728">
        <ele>584.96</ele>
        <time>2020-08-08T12:38:34.000Z</time>
      </trkpt>
      <trkpt lat="46.14696" lon="6.36683">
        <ele>586.11</ele>
        <time>2020-08-08T12:38:44.000Z</time>
      </trkpt>
      <trkpt lat="46.14747" lon="6.36633">
        <ele>584.96</ele>
        <time>2020-08-08T12:38:54.000Z</time>
      </trkpt>
      <trkpt lat="46.14796" lon="6.36584">
        <ele>580.89</ele>
        <time>2020-08-08T12:39:04.000Z</time>
      </trkpt>
      <trkpt lat="46.14846" lon="6.36531">
        <ele>578.6</ele>
        <time>2020-08-08T12:39:14.000Z</time>
      </trkpt>
      <trkpt lat="46.14894" lon="6.36483">
        <ele>581.23</ele>
        <time>2020-08-08T12:39:24.000Z</time>
      </trkpt>
      <trkpt lat="46.14944" lon="6.36434">
        <ele>583.32</ele>
        <time>2020-08-08T12:39:34.000Z</time>
      </trkpt>
      <trkpt lat="46.14988" lon="6.36375">
        <ele>580.02</ele>
        <time>2020-08-08T12:39:44.000Z</time>
      </trkpt>
      <trkpt lat="46.15029" lon="6.36309">
        <ele>579.34</ele>
        <time>2020-08-08T12:39:54.000Z</time>
      </trkpt>
      <trkpt lat="46.15068" lon="6.36242">
        <ele>578.44</ele>
        <time>2020-08-08T12:40:04.000Z</time>
      </trkpt>
      <trkpt lat="46.15109" lon="6.36166">
        <ele>576.77</ele>
        <time>2020-08-08T12:40:14.000Z</time>
      </trkpt>
      <trkpt lat="46.15144" lon="6.36087">
        <ele>573.5</ele>
        <time>2020-08-08T12:40:24.000Z</time>
      </trkpt>
      <trkpt lat="46.15166" lon="6.35992">
        <ele>571.93</ele>
        <time>2020-08-08T12:40:34.000Z</time>
      </trkpt>
      <trkpt lat="46.15178" lon="6.35891">
        <ele>570.91</ele>
        <time>2020-08-08T12:40:44.000Z</time>
      </trkpt>
      <trkpt lat="46.15178" lon="6.35776">
        <ele>568.24</ele>
        <time>2020-08-08T12:40:54.000Z</time>
      </trkpt>
      <trkpt lat="46.15177" lon="6.3565">
        <ele>563.28</ele>
        <time>2020-08-08T12:41:04.000Z</time>
      </trkpt>
      <trkpt lat="46.15157" lon="6.35518">
        <ele>556.38</ele>
        <time>2020-08-08T12:41:14.000Z</time>
      </trkpt>
      <trkpt lat="46.15131" lon="6.35378">
        <ele>551.8</ele>
        <time>2020-08-08T12:41:24.000Z</time>
      </trkpt>
      <trkpt lat="46.1511" lon="6.35233">
        <ele>545.83</ele>
        <time>2020-08-08T12:41:34.000Z</time>
      </trkpt>
      <trkpt lat="46.15093" lon="6.35098">
        <ele>542.66</ele>
        <time>2020-08-08T12:41:44.000Z</time>
      </trkpt>
      <trkpt lat="46.15086" lon="6.34967">
        <ele>537.17</ele>
        <time>2020-08-08T12:41:54.000Z</time>
      </trkpt>
      <trkpt lat="46.15144" lon="6.34857">
        <ele>532.44</ele>
        <time>2020-08-08T12:42:04.000Z</time>
      </trkpt>
      <trkpt lat="46.15207" lon="6.34749">
        <ele>526.78</ele>
        <time>2020-08-08T12:42:14.000Z</time>
      </trkpt>
      <trkpt lat="46.15272" lon="6.34641">
        <ele>522.7</ele>
        <time>2020-08-08T12:42:24.000Z</time>
      </trkpt>
      <trkpt lat="46.15268" lon="6.34526">
        <ele>520.57</ele>
        <time>2020-08-08T12:42:34.000Z</time>
      </trkpt>
      <trkpt lat="46.1526" lon="6.34444">
        <ele>520.68</ele>
        <time>2020-08-08T12:42:44.000Z</time>
      </trkpt>
      <trkpt lat="46.15266" lon="6.34385">
        <ele>518.12</ele>
        <time>2020-08-08T12:42:54.000Z</time>
      </trkpt>
      <trkpt lat="46.15337" lon="6.34438">
        <ele>514.21</ele>
        <time>2020-08-08T12:43:04.000Z</time>
      </trkpt>
      <trkpt lat="46.15374" lon="6.34404">
        <ele>508.62</ele>
        <time>2020-08-08T12:43:14.000Z</time>
      </trkpt>
      <trkpt lat="46.15336" lon="6.34311">
        <ele>505.66</ele>
        <time>2020-08-08T12:43:24.000Z</time>
      </trkpt>
      <trkpt lat="46.15295" lon="6.34208">
        <ele>501.1</ele>
        <time>2020-08-08T12:43:34.000Z</time>
      </trkpt>
      <trkpt lat="46.15293" lon="6.34054">
        <ele>492.74</ele>
        <time>2020-08-08T12:43:44.000Z</time>
      </trkpt>
      <trkpt lat="46.15259" lon="6.3392">
        <ele>489.32</ele>
        <time>2020-08-08T12:43:54.000Z</time>
      </trkpt>
      <trkpt lat="46.15244" lon="6.33836">
        <ele>491.36</ele>
        <time>2020-08-08T12:44:04.000Z</time>
      </trkpt>
      <trkpt lat="46.15232" lon="6.33754">
        <ele>494.85</ele>
        <time>2020-08-08T12:44:14.000Z</time>
      </trkpt>
      <trkpt lat="46.15211" lon="6.3367">
        <ele>494.43</ele>
        <time>2020-08-08T12:44:24.000Z</time>
      </trkpt>
      <trkpt lat="46.1518" lon="6.33568">
        <ele>493.15</ele>
        <time>2020-08-08T12:44:34.000Z</time>
      </trkpt>
      <trkpt lat="46.15202" lon="6.33451">
        <ele>491.53</ele>
        <time>2020-08-08T12:44:44.000Z</time>
      </trkpt>
      <trkpt lat="46.15234" lon="6.33345">
        <ele>490.07</ele>
        <time>2020-08-08T12:44:54.000Z</time>
      </trkpt>
      <trkpt lat="46.15219" lon="6.3325">
        <ele>487.85</ele>
        <time>2020-08-08T12:45:04.000Z</time>
      </trkpt>
      <trkpt lat="46.15217" lon="6.33168">
        <ele>488.47</ele>
        <time>2020-08-08T12:45:14.000Z</time>
      </trkpt>
      <trkpt lat="46.15253" lon="6.331">
        <ele>489.52</ele>
        <time>2020-08-08T12:45:24.000Z</time>
      </trkpt>
      <trkpt lat="46.15268" lon="6.33057">
        <ele>521.46</ele>
        <time>2020-08-08T12:45:33.133Z</time>
      </trkpt>
      <trkpt lat="46.1528" lon="6.33012">
        <ele>521.93</ele>
        <time>2020-08-08T12:45:42.290Z</time>
      </trkpt>
      <trkpt lat="46.15296" lon="6.32968">
        <ele>521.93</ele>
        <time>2020-08-08T12:45:51.527Z</time>
      </trkpt>
      <trkpt lat="46.15317" lon="6.32906">
        <ele>521.93</ele>
        <time>2020-08-08T12:46:01.000Z</time>
      </trkpt>
      <trkpt lat="46.15342" lon="6.32835">
        <ele>521.93</ele>
        <time>2020-08-08T12:46:11.000Z</time>
      </trkpt>
      <trkpt lat="46.15377" lon="6.32773">
        <ele>521.93</ele>
        <time>2020-08-08T12:46:21.000Z</time>
      </trkpt>
      <trkpt lat="46.15399" lon="6.32691">
        <ele>521.93</ele>
        <time>2020-08-08T12:46:31.000Z</time>
      </trkpt>
      <trkpt lat="46.15415" lon="6.32579">
        <ele>483.99</ele>
        <time>2020-08-08T12:46:41.000Z</time>
      </trkpt>
      <trkpt lat="46.15467" lon="6.325">
        <ele>481.53</ele>
        <time>2020-08-08T12:46:51.000Z</time>
      </trkpt>
      <trkpt lat="46.15494" lon="6.32415">
        <ele>482.44</ele>
        <time>2020-08-08T12:47:01.000Z</time>
      </trkpt>
      <trkpt lat="46.15521" lon="6.32366">
        <ele>487.09</ele>
        <time>2020-08-08T12:47:11.000Z</time>
      </trkpt>
      <trkpt lat="46.15573" lon="6.32347">
        <ele>487.4</ele>
        <time>2020-08-08T12:47:21.000Z</time>
      </trkpt>
      <trkpt lat="46.15613" lon="6.32289">
        <ele>486.77</ele>
        <time>2020-08-08T12:47:31.000Z</time>
      </trkpt>
      <trkpt lat="46.15637" lon="6.32231">
        <ele>489.83</ele>
        <time>2020-08-08T12:47:41.000Z</time>
      </trkpt>
      <trkpt lat="46.15667" lon="6.32167">
        <ele>489.94</ele>
        <time>2020-08-08T12:47:51.000Z</time>
      </trkpt>
      <trkpt lat="46.15696" lon="6.32109">
        <ele>490.78</ele>
        <time>2020-08-08T12:48:01.000Z</time>
      </trkpt>
      <trkpt lat="46.15745" lon="6.32072">
        <ele>489.13</ele>
        <time>2020-08-08T12:48:11.000Z</time>
      </trkpt>
      <trkpt lat="46.15812" lon="6.32026">
        <ele>485.03</ele>
        <time>2020-08-08T12:48:21.000Z</time>
      </trkpt>
      <trkpt lat="46.15878" lon="6.3199">
        <ele>482.64</ele>
        <time>2020-08-08T12:48:31.000Z</time>
      </trkpt>
      <trkpt lat="46.15937" lon="6.31959">
        <ele>484.57</ele>
        <time>2020-08-08T12:48:41.000Z</time>
      </trkpt>
      <trkpt lat="46.1598" lon="6.31897">
        <ele>483.96</ele>
        <time>2020-08-08T12:48:51.000Z</time>
      </trkpt>
      <trkpt lat="46.16009" lon="6.31824">
        <ele>481.32</ele>
        <time>2020-08-08T12:49:01.000Z</time>
      </trkpt>
      <trkpt lat="46.1604" lon="6.31743">
        <ele>479.64</ele>
        <time>2020-08-08T12:49:11.000Z</time>
      </trkpt>
      <trkpt lat="46.16088" lon="6.31666">
        <ele>480.53</ele>
        <time>2020-08-08T12:49:21.000Z</time>
      </trkpt>
      <trkpt lat="46.16143" lon="6.31643">
        <ele>477.15</ele>
        <time>2020-08-08T12:49:31.000Z</time>
      </trkpt>
      <trkpt lat="46.16145" lon="6.31595">
        <ele>476.62</ele>
        <time>2020-08-08T12:49:40.271Z</time>
      </trkpt>
      <trkpt lat="46.16161" lon="6.31536">
        <ele>475.62</ele>
        <time>2020-08-08T12:49:49.794Z</time>
      </trkpt>
      <trkpt lat="46.1618" lon="6.3149">
        <ele>478.57</ele>
        <time>2020-08-08T12:49:59.000Z</time>
      </trkpt>
      <trkpt lat="46.1617" lon="6.31406">
        <ele>476.17</ele>
        <time>2020-08-08T12:50:09.000Z</time>
      </trkpt>
      <trkpt lat="46.16153" lon="6.31335">
        <ele>477.06</ele>
        <time>2020-08-08T12:50:19.000Z</time>
      </trkpt>
      <trkpt lat="46.16157" lon="6.31277">
        <ele>524.93</ele>
        <time>2020-08-08T12:50:29.000Z</time>
      </trkpt>
      <trkpt lat="46.16182" lon="6.3121">
        <ele>524.93</ele>
        <time>2020-08-08T12:50:39.000Z</time>
      </trkpt>
      <trkpt lat="46.1622" lon="6.31142">
        <ele>524.93</ele>
        <time>2020-08-08T12:50:49.000Z</time>
      </trkpt>
      <trkpt lat="46.16269" lon="6.31086">
        <ele>524.93</ele>
        <time>2020-08-08T12:50:59.000Z</time>
      </trkpt>
      <trkpt lat="46.16311" lon="6.31031">
        <ele>524.93</ele>
        <time>2020-08-08T12:51:09.000Z</time>
      </trkpt>
      <trkpt lat="46.16345" lon="6.30962">
        <ele>524.93</ele>
        <time>2020-08-08T12:51:19.000Z</time>
      </trkpt>
      <trkpt lat="46.16384" lon="6.30903">
        <ele>478.9</ele>
        <time>2020-08-08T12:51:29.000Z</time>
      </trkpt>
      <trkpt lat="46.16427" lon="6.30846">
        <ele>478.55</ele>
        <time>2020-08-08T12:51:39.000Z</time>
      </trkpt>
      <trkpt lat="46.16477" lon="6.30799">
        <ele>476.83</ele>
        <time>2020-08-08T12:51:49.000Z</time>
      </trkpt>
      <trkpt lat="46.16529" lon="6.30758">
        <ele>475.48</ele>
        <time>2020-08-08T12:51:59.000Z</time>
      </trkpt>
      <trkpt lat="46.16575" lon="6.30711">
        <ele>475.37</ele>
        <time>2020-08-08T12:52:09.000Z</time>
      </trkpt>
      <trkpt lat="46.16614" lon="6.30651">
        <ele>474.11</ele>
        <time>2020-08-08T12:52:19.000Z</time>
      </trkpt>
      <trkpt lat="46.16637" lon="6.30574">
        <ele>473.41</ele>
        <time>2020-08-08T12:52:29.000Z</time>
      </trkpt>
      <trkpt lat="46.16618" lon="6.30506">
        <ele>474.15</ele>
        <time>2020-08-08T12:52:39.000Z</time>
      </trkpt>
      <trkpt lat="46.16554" lon="6.30425">
        <ele>470.06</ele>
        <time>2020-08-08T12:52:49.000Z</time>
      </trkpt>
      <trkpt lat="46.16491" lon="6.30311">
        <ele>460.34</ele>
        <time>2020-08-08T12:52:59.000Z</time>
      </trkpt>
      <trkpt lat="46.16431" lon="6.30208">
        <ele>455.15</ele>
        <time>2020-08-08T12:53:09.000Z</time>
      </trkpt>
      <trkpt lat="46.16378" lon="6.30124">
        <ele>454.28</ele>
        <time>2020-08-08T12:53:19.000Z</time>
      </trkpt>
      <trkpt lat="46.16325" lon="6.30038">
        <ele>453.62</ele>
        <time>2020-08-08T12:53:29.000Z</time>
      </trkpt>
      <trkpt lat="46.16279" lon="6.29951">
        <ele>451.89</ele>
        <time>2020-08-08T12:53:39.000Z</time>
      </trkpt>
      <trkpt lat="46.16251" lon="6.29863">
        <ele>452.29</ele>
        <time>2020-08-08T12:53:49.000Z</time>
      </trkpt>
      <trkpt lat="46.16226" lon="6.29763">
        <ele>451.04</ele>
        <time>2020-08-08T12:53:59.000Z</time>
      </trkpt>
      <trkpt lat="46.16211" lon="6.29668">
        <ele>450.75</ele>
        <time>2020-08-08T12:54:09.000Z</time>
      </trkpt>
      <trkpt lat="46.16221" lon="6.29578">
        <ele>452.65</ele>
        <time>2020-08-08T12:54:19.000Z</time>
      </trkpt>
      <trkpt lat="46.16217" lon="6.29472">
        <ele>449.96</ele>
        <time>2020-08-08T12:54:29.000Z</time>
      </trkpt>
      <trkpt lat="46.16203" lon="6.29369">
        <ele>446</ele>
        <time>2020-08-08T12:54:39.000Z</time>
      </trkpt>
      <trkpt lat="46.16174" lon="6.29263">
        <ele>443.9</ele>
        <time>2020-08-08T12:54:49.000Z</time>
      </trkpt>
      <trkpt lat="46.16146" lon="6.29155">
        <ele>436.69</ele>
        <time>2020-08-08T12:54:59.000Z</time>
      </trkpt>
      <trkpt lat="46.16121" lon="6.29056">
        <ele>433.54</ele>
        <time>2020-08-08T12:55:09.000Z</time>
      </trkpt>
      <trkpt lat="46.16096" lon="6.28961">
        <ele>433.59</ele>
        <time>2020-08-08T12:55:19.000Z</time>
      </trkpt>
      <trkpt lat="46.1607" lon="6.28872">
        <ele>436.85</ele>
        <time>2020-08-08T12:55:29.000Z</time>
      </trkpt>
      <trkpt lat="46.16039" lon="6.28792">
        <ele>436.29</ele>
        <time>2020-08-08T12:55:39.000Z</time>
      </trkpt>
      <trkpt lat="46.16" lon="6.28716">
        <ele>436.96</ele>
        <time>2020-08-08T12:55:49.000Z</time>
      </trkpt>
      <trkpt lat="46.15951" lon="6.28637">
        <ele>434.32</ele>
        <time>2020-08-08T12:55:59.000Z</time>
      </trkpt>
      <trkpt lat="46.15891" lon="6.28551">
        <ele>429.4</ele>
        <time>2020-08-08T12:56:09.000Z</time>
      </trkpt>
      <trkpt lat="46.15871" lon="6.28497">
        <ele>430.57</ele>
        <time>2020-08-08T12:56:19.000Z</time>
      </trkpt>
      <trkpt lat="46.1589" lon="6.28432">
        <ele>433.36</ele>
        <time>2020-08-08T12:56:29.000Z</time>
      </trkpt>
      <trkpt lat="46.15917" lon="6.28367">
        <ele>433.28</ele>
        <time>2020-08-08T12:56:39.000Z</time>
      </trkpt>
      <trkpt lat="46.15948" lon="6.28303">
        <ele>432.6</ele>
        <time>2020-08-08T12:56:49.000Z</time>
      </trkpt>
      <trkpt lat="46.15981" lon="6.2824">
        <ele>432.73</ele>
        <time>2020-08-08T12:56:59.000Z</time>
      </trkpt>
      <trkpt lat="46.16012" lon="6.28171">
        <ele>433.38</ele>
        <time>2020-08-08T12:57:09.000Z</time>
      </trkpt>
      <trkpt lat="46.16042" lon="6.28094">
        <ele>432.56</ele>
        <time>2020-08-08T12:57:19.000Z</time>
      </trkpt>
      <trkpt lat="46.16073" lon="6.28014">
        <ele>432.39</ele>
        <time>2020-08-08T12:57:29.000Z</time>
      </trkpt>
      <trkpt lat="46.16104" lon="6.27934">
        <ele>432.09</ele>
        <time>2020-08-08T12:57:39.000Z</time>
      </trkpt>
      <trkpt lat="46.16133" lon="6.27856">
        <ele>433.52</ele>
        <time>2020-08-08T12:57:49.000Z</time>
      </trkpt>
      <trkpt lat="46.16162" lon="6.27779">
        <ele>434.28</ele>
        <time>2020-08-08T12:57:59.000Z</time>
      </trkpt>
      <trkpt lat="46.16192" lon="6.277">
        <ele>435.2</ele>
        <time>2020-08-08T12:58:09.000Z</time>
      </trkpt>
      <trkpt lat="46.16224" lon="6.27633">
        <ele>436.19</ele>
        <time>2020-08-08T12:58:19.000Z</time>
      </trkpt>
      <trkpt lat="46.16244" lon="6.27566">
        <ele>435.37</ele>
        <time>2020-08-08T12:58:29.000Z</time>
      </trkpt>
      <trkpt lat="46.16273" lon="6.27491">
        <ele>435.32</ele>
        <time>2020-08-08T12:58:39.000Z</time>
      </trkpt>
      <trkpt lat="46.16301" lon="6.27416">
        <ele>435.95</ele>
        <time>2020-08-08T12:58:49.000Z</time>
      </trkpt>
      <trkpt lat="46.16329" lon="6.27339">
        <ele>435.17</ele>
        <time>2020-08-08T12:58:59.000Z</time>
      </trkpt>
      <trkpt lat="46.16364" lon="6.27261">
        <ele>436.55</ele>
        <time>2020-08-08T12:59:09.000Z</time>
      </trkpt>
      <trkpt lat="46.1644" lon="6.27227">
        <ele>439.11</ele>
        <time>2020-08-08T12:59:19.000Z</time>
      </trkpt>
      <trkpt lat="46.16539" lon="6.27259">
        <ele>436.93</ele>
        <time>2020-08-08T12:59:29.000Z</time>
      </trkpt>
      <trkpt lat="46.16628" lon="6.27328">
        <ele>436.17</ele>
        <time>2020-08-08T12:59:39.000Z</time>
      </trkpt>
      <trkpt lat="46.16721" lon="6.27361">
        <ele>435.84</ele>
        <time>2020-08-08T12:59:49.000Z</time>
      </trkpt>
      <trkpt lat="46.16817" lon="6.27361">
        <ele>428.36</ele>
        <time>2020-08-08T12:59:59.000Z</time>
      </trkpt>
      <trkpt lat="46.16852" lon="6.2723">
        <ele>417.53</ele>
        <time>2020-08-08T13:00:09.000Z</time>
      </trkpt>
      <trkpt lat="46.16839" lon="6.27133">
        <ele>415.78</ele>
        <time>2020-08-08T13:00:19.000Z</time>
      </trkpt>
      <trkpt lat="46.16782" lon="6.27118">
        <ele>419.71</ele>
        <time>2020-08-08T13:00:29.000Z</time>
      </trkpt>
      <trkpt lat="46.16758" lon="6.27096">
        <ele>421.18</ele>
        <time>2020-08-08T13:00:38.408Z</time>
      </trkpt>
      <trkpt lat="46.16743" lon="6.27074">
        <ele>428.54</ele>
        <time>2020-08-08T13:00:48.000Z</time>
      </trkpt>
      <trkpt lat="46.16727" lon="6.2704">
        <ele>431.78</ele>
        <time>2020-08-08T13:00:58.000Z</time>
      </trkpt>
      <trkpt lat="46.16731" lon="6.27001">
        <ele>432.6</ele>
        <time>2020-08-08T13:01:08.000Z</time>
      </trkpt>
      <trkpt lat="46.16747" lon="6.26971">
        <ele>436.07</ele>
        <time>2020-08-08T13:01:18.000Z</time>
      </trkpt>
      <trkpt lat="46.16766" lon="6.26946">
        <ele>442.06</ele>
        <time>2020-08-08T13:01:27.723Z</time>
      </trkpt>
      <trkpt lat="46.1679" lon="6.26924">
        <ele>445.85</ele>
        <time>2020-08-08T13:01:37.000Z</time>
      </trkpt>
      <trkpt lat="46.16814" lon="6.26909">
        <ele>449.78</ele>
        <time>2020-08-08T13:01:46.309Z</time>
      </trkpt>
      <trkpt lat="46.1684" lon="6.26895">
        <ele>449.53</ele>
        <time>2020-08-08T13:01:56.000Z</time>
      </trkpt>
      <trkpt lat="46.16865" lon="6.26867">
        <ele>448.08</ele>
        <time>2020-08-08T13:02:06.000Z</time>
      </trkpt>
      <trkpt lat="46.16884" lon="6.26833">
        <ele>451.23</ele>
        <time>2020-08-08T13:02:15.564Z</time>
      </trkpt>
      <trkpt lat="46.16899" lon="6.26788">
        <ele>452.02</ele>
        <time>2020-08-08T13:02:25.150Z</time>
      </trkpt>
      <trkpt lat="46.16903" lon="6.26741">
        <ele>454.67</ele>
        <time>2020-08-08T13:02:35.000Z</time>
      </trkpt>
      <trkpt lat="46.16918" lon="6.26685">
        <ele>455.03</ele>
        <time>2020-08-08T13:02:44.645Z</time>
      </trkpt>
      <trkpt lat="46.16951" lon="6.26629">
        <ele>449.12</ele>
        <time>2020-08-08T13:02:54.000Z</time>
      </trkpt>
      <trkpt lat="46.16984" lon="6.26571">
        <ele>444.98</ele>
        <time>2020-08-08T13:03:04.000Z</time>
      </trkpt>
      <trkpt lat="46.17007" lon="6.26532">
        <ele>447.25</ele>
        <time>2020-08-08T13:03:14.000Z</time>
      </trkpt>
      <trkpt lat="46.17026" lon="6.26501">
        <ele>451.01</ele>
        <time>2020-08-08T13:03:23.229Z</time>
      </trkpt>
      <trkpt lat="46.17043" lon="6.26473">
        <ele>454.13</ele>
        <time>2020-08-08T13:03:32.525Z</time>
      </trkpt>
      <trkpt lat="46.1706" lon="6.26445">
        <ele>456.88</ele>
        <time>2020-08-08T13:03:42.000Z</time>
      </trkpt>
      <trkpt lat="46.17082" lon="6.26412">
        <ele>457.5</ele>
        <time>2020-08-08T13:03:52.000Z</time>
      </trkpt>
      <trkpt lat="46.17104" lon="6.26374">
        <ele>459.79</ele>
        <time>2020-08-08T13:04:01.389Z</time>
      </trkpt>
      <trkpt lat="46.17129" lon="6.26327">
        <ele>461.48</ele>
        <time>2020-08-08T13:04:11.000Z</time>
      </trkpt>
      <trkpt lat="46.17156" lon="6.26284">
        <ele>459.38</ele>
        <time>2020-08-08T13:04:20.470Z</time>
      </trkpt>
      <trkpt lat="46.17187" lon="6.26236">
        <ele>459.8</ele>
        <time>2020-08-08T13:04:30.000Z</time>
      </trkpt>
      <trkpt lat="46.17215" lon="6.2619">
        <ele>458.82</ele>
        <time>2020-08-08T13:04:40.000Z</time>
      </trkpt>
      <trkpt lat="46.17248" lon="6.26134">
        <ele>456.45</ele>
        <time>2020-08-08T13:04:50.000Z</time>
      </trkpt>
      <trkpt lat="46.17274" lon="6.26087">
        <ele>453.4</ele>
        <time>2020-08-08T13:05:00.000Z</time>
      </trkpt>
      <trkpt lat="46.17312" lon="6.26012">
        <ele>449.52</ele>
        <time>2020-08-08T13:05:10.000Z</time>
      </trkpt>
      <trkpt lat="46.17349" lon="6.25932">
        <ele>448.87</ele>
        <time>2020-08-08T13:05:20.000Z</time>
      </trkpt>
      <trkpt lat="46.17382" lon="6.25867">
        <ele>449.82</ele>
        <time>2020-08-08T13:05:30.000Z</time>
      </trkpt>
      <trkpt lat="46.17415" lon="6.25822">
        <ele>452.23</ele>
        <time>2020-08-08T13:05:40.000Z</time>
      </trkpt>
      <trkpt lat="46.1744" lon="6.25766">
        <ele>454.92</ele>
        <time>2020-08-08T13:05:50.000Z</time>
      </trkpt>
      <trkpt lat="46.17496" lon="6.25713">
        <ele>453.99</ele>
        <time>2020-08-08T13:06:00.000Z</time>
      </trkpt>
      <trkpt lat="46.17569" lon="6.25656">
        <ele>448.33</ele>
        <time>2020-08-08T13:06:10.000Z</time>
      </trkpt>
      <trkpt lat="46.17646" lon="6.25614">
        <ele>441.14</ele>
        <time>2020-08-08T13:06:20.000Z</time>
      </trkpt>
      <trkpt lat="46.17712" lon="6.25577">
        <ele>439.04</ele>
        <time>2020-08-08T13:06:30.000Z</time>
      </trkpt>
      <trkpt lat="46.17783" lon="6.25549">
        <ele>437.37</ele>
        <time>2020-08-08T13:06:40.000Z</time>
      </trkpt>
      <trkpt lat="46.17843" lon="6.25542">
        <ele>439.88</ele>
        <time>2020-08-08T13:06:50.000Z</time>
      </trkpt>
      <trkpt lat="46.17882" lon="6.25552">
        <ele>442.63</ele>
        <time>2020-08-08T13:07:00.000Z</time>
      </trkpt>
      <trkpt lat="46.17921" lon="6.25549">
        <ele>445.08</ele>
        <time>2020-08-08T13:07:09.323Z</time>
      </trkpt>
      <trkpt lat="46.17953" lon="6.2554">
        <ele>448.98</ele>
        <time>2020-08-08T13:07:19.000Z</time>
      </trkpt>
      <trkpt lat="46.17987" lon="6.25525">
        <ele>451.61</ele>
        <time>2020-08-08T13:07:28.404Z</time>
      </trkpt>
      <trkpt lat="46.18026" lon="6.2549">
        <ele>450.27</ele>
        <time>2020-08-08T13:07:38.000Z</time>
      </trkpt>
      <trkpt lat="46.18075" lon="6.25427">
        <ele>442.67</ele>
        <time>2020-08-08T13:07:48.000Z</time>
      </trkpt>
      <trkpt lat="46.18144" lon="6.25376">
        <ele>436.1</ele>
        <time>2020-08-08T13:07:58.000Z</time>
      </trkpt>
      <trkpt lat="46.18206" lon="6.2534">
        <ele>433.26</ele>
        <time>2020-08-08T13:08:08.000Z</time>
      </trkpt>
      <trkpt lat="46.18265" lon="6.25298">
        <ele>430.78</ele>
        <time>2020-08-08T13:08:18.000Z</time>
      </trkpt>
      <trkpt lat="46.18325" lon="6.2526">
        <ele>431.9</ele>
        <time>2020-08-08T13:08:28.000Z</time>
      </trkpt>
      <trkpt lat="46.18392" lon="6.25216">
        <ele>430.71</ele>
        <time>2020-08-08T13:08:38.000Z</time>
      </trkpt>
      <trkpt lat="46.18459" lon="6.25185">
        <ele>428.26</ele>
        <time>2020-08-08T13:08:48.000Z</time>
      </trkpt>
      <trkpt lat="46.18522" lon="6.25169">
        <ele>426.58</ele>
        <time>2020-08-08T13:08:58.000Z</time>
      </trkpt>
      <trkpt lat="46.1858" lon="6.25156">
        <ele>425.03</ele>
        <time>2020-08-08T13:09:08.000Z</time>
      </trkpt>
      <trkpt lat="46.18643" lon="6.25135">
        <ele>427.59</ele>
        <time>2020-08-08T13:09:18.000Z</time>
      </trkpt>
      <trkpt lat="46.1871" lon="6.25107">
        <ele>424.86</ele>
        <time>2020-08-08T13:09:28.000Z</time>
      </trkpt>
      <trkpt lat="46.1878" lon="6.25078">
        <ele>422.54</ele>
        <time>2020-08-08T13:09:38.000Z</time>
      </trkpt>
      <trkpt lat="46.18849" lon="6.25077">
        <ele>420.76</ele>
        <time>2020-08-08T13:09:48.000Z</time>
      </trkpt>
      <trkpt lat="46.18924" lon="6.25076">
        <ele>417.03</ele>
        <time>2020-08-08T13:09:58.000Z</time>
      </trkpt>
      <trkpt lat="46.18998" lon="6.25075">
        <ele>413.66</ele>
        <time>2020-08-08T13:10:08.000Z</time>
      </trkpt>
      <trkpt lat="46.19064" lon="6.25115">
        <ele>412.95</ele>
        <time>2020-08-08T13:10:18.000Z</time>
      </trkpt>
      <trkpt lat="46.19117" lon="6.25105">
        <ele>414.66</ele>
        <time>2020-08-08T13:10:28.000Z</time>
      </trkpt>
      <trkpt lat="46.19161" lon="6.25105">
        <ele>415.12</ele>
        <time>2020-08-08T13:10:38.000Z</time>
      </trkpt>
      <trkpt lat="46.19209" lon="6.25111">
        <ele>412.55</ele>
        <time>2020-08-08T13:10:48.000Z</time>
      </trkpt>
      <trkpt lat="46.19273" lon="6.25112">
        <ele>410.11</ele>
        <time>2020-08-08T13:10:58.000Z</time>
      </trkpt>
      <trkpt lat="46.19281" lon="6.25082">
        <ele>409.87</ele>
        <time>2020-08-08T13:11:08.000Z</time>
      </trkpt>
      <trkpt lat="46.19287" lon="6.25032">
        <ele>413.53</ele>
        <time>2020-08-08T13:11:17.150Z</time>
      </trkpt>
      <trkpt lat="46.19293" lon="6.25019">
        <ele>416.02</ele>
        <time>2020-08-08T13:11:26.347Z</time>
      </trkpt>
      <trkpt lat="46.19294" lon="6.25021">
        <ele>455.92</ele>
        <time>2020-08-08T13:11:36.000Z</time>
      </trkpt>
      <trkpt lat="46.19293" lon="6.25019">
        <ele>455.92</ele>
        <time>2020-08-08T13:11:49.000Z</time>
      </trkpt>
      <trkpt lat="46.19292" lon="6.2502">
        <ele>455.92</ele>
        <time>2020-08-08T13:11:59.000Z</time>
      </trkpt>
      <trkpt lat="46.19293" lon="6.2502">
        <ele>456.92</ele>
        <time>2020-08-08T13:12:20.000Z</time>
      </trkpt>
      <trkpt lat="46.19291" lon="6.25019">
        <ele>455.92</ele>
        <time>2020-08-08T13:12:30.000Z</time>
      </trkpt>
      <trkpt lat="46.19291" lon="6.25017">
        <ele>456.92</ele>
        <time>2020-08-08T13:12:40.207Z</time>
      </trkpt>
      <trkpt lat="46.19296" lon="6.25017">
        <ele>455.92</ele>
        <time>2020-08-08T13:12:50.000Z</time>
      </trkpt>
      <trkpt lat="46.19293" lon="6.25014">
        <ele>455.54</ele>
        <time>2020-08-08T13:13:01.329Z</time>
      </trkpt>
      <trkpt lat="46.19292" lon="6.25015">
        <ele>455.54</ele>
        <time>2020-08-08T13:13:11.679Z</time>
      </trkpt>
      <trkpt lat="46.19292" lon="6.25016">
        <ele>455.52</ele>
        <time>2020-08-08T13:13:21.573Z</time>
      </trkpt>
      <trkpt lat="46.19292" lon="6.25015">
        <ele>455.52</ele>
        <time>2020-08-08T13:13:41.783Z</time>
      </trkpt>
      <trkpt lat="46.1929" lon="6.25015">
        <ele>457.88</ele>
        <time>2020-08-08T13:13:52.257Z</time>
      </trkpt>
      <trkpt lat="46.19291" lon="6.25016">
        <ele>457.45</ele>
        <time>2020-08-08T13:14:02.241Z</time>
      </trkpt>
      <trkpt lat="46.19291" lon="6.25017">
        <ele>457.92</ele>
        <time>2020-08-08T13:14:21.701Z</time>
      </trkpt>
      <trkpt lat="46.19292" lon="6.25017">
        <ele>455.54</ele>
        <time>2020-08-08T13:14:31.445Z</time>
      </trkpt>
      <trkpt lat="46.19292" lon="6.25016">
        <ele>455.52</ele>
        <time>2020-08-08T13:14:40.606Z</time>
      </trkpt>
      <trkpt lat="46.19292" lon="6.25017">
        <ele>455.54</ele>
        <time>2020-08-08T13:14:54.371Z</time>
      </trkpt>
      <trkpt lat="46.19294" lon="6.2502">
        <ele>455.49</ele>
        <time>2020-08-08T13:15:03.727Z</time>
      </trkpt>
      <trkpt lat="46.19294" lon="6.25018">
        <ele>455.92</ele>
        <time>2020-08-08T13:15:24.802Z</time>
      </trkpt>
      <trkpt lat="46.19295" lon="6.25018">
        <ele>457.92</ele>
        <time>2020-08-08T13:15:39.107Z</time>
      </trkpt>
      <trkpt lat="46.19295" lon="6.2502">
        <ele>456.04</ele>
        <time>2020-08-08T13:15:59.188Z</time>
      </trkpt>
      <trkpt lat="46.19294" lon="6.25018">
        <ele>457.43</ele>
        <time>2020-08-08T13:16:09.266Z</time>
      </trkpt>
      <trkpt lat="46.19295" lon="6.25019">
        <ele>457.44</ele>
        <time>2020-08-08T13:16:24.368Z</time>
      </trkpt>
      <trkpt lat="46.19294" lon="6.25018">
        <ele>457.52</ele>
        <time>2020-08-08T13:18:44.610Z</time>
      </trkpt>
      <trkpt lat="46.19295" lon="6.25019">
        <ele>457.89</ele>
        <time>2020-08-08T13:18:54.635Z</time>
      </trkpt>
      <trkpt lat="46.19293" lon="6.25017">
        <ele>457.91</ele>
        <time>2020-08-08T13:19:30.325Z</time>
      </trkpt>
      <trkpt lat="46.19295" lon="6.25017">
        <ele>458.59</ele>
        <time>2020-08-08T13:19:40.231Z</time>
      </trkpt>
      <trkpt lat="46.19295" lon="6.25017">
        <ele>456.64</ele>
        <time>2020-08-08T13:19:50.312Z</time>
      </trkpt>
    </trkseg>
  </trk>
</gpx>